<?xml version="1.0" encoding="UTF-8" standalone="no" ?>
<gpx xmlns="http://www.topografix.com/GPX/1/1" xmlns:xsi="http://www.w3.org/2001/XMLSchema-instance" xsi:schemaLocation="http://www.topografix.com/GPX/1/1 http://www.topografix.com/GPX/1/1/gpx.xsd" version="1.1" creator="VisuGPX - https://www.visugpx.com">
  <metadata>
    <name>lyricantoise 2013</name>
    <desc><![CDATA[version été de l'hivernale]]></desc>
  </metadata>
  <trk>
    <name><![CDATA[2013-05-26 09:01:32 lyricantoise]]></name>
    <trkseg>
      <trkpt lat="48.28315" lon="2.59792">
        <ele>66.104793548584</ele>
        <time>2013-05-26T07:01:32Z</time>
      </trkpt>
      <trkpt lat="48.28317" lon="2.59792">
        <ele>68.104804992676</ele>
        <time>2013-05-26T07:01:38Z</time>
      </trkpt>
      <trkpt lat="48.28319" lon="2.59792">
        <ele>75.10481262207</ele>
        <time>2013-05-26T07:01:44Z</time>
      </trkpt>
      <trkpt lat="48.2832" lon="2.59794">
        <ele>77.10481262207</ele>
        <time>2013-05-26T07:01:49Z</time>
      </trkpt>
      <trkpt lat="48.2832" lon="2.59791">
        <ele>79.10481262207</ele>
        <time>2013-05-26T07:01:55Z</time>
      </trkpt>
      <trkpt lat="48.2832" lon="2.59791">
        <ele>80.10481262207</ele>
        <time>2013-05-26T07:02:00Z</time>
      </trkpt>
      <trkpt lat="48.2832" lon="2.59791">
        <ele>81.10481262207</ele>
        <time>2013-05-26T07:02:06Z</time>
      </trkpt>
      <trkpt lat="48.28321" lon="2.59791">
        <ele>80.104820251465</ele>
        <time>2013-05-26T07:02:11Z</time>
      </trkpt>
      <trkpt lat="48.28322" lon="2.59791">
        <ele>81.104820251465</ele>
        <time>2013-05-26T07:02:16Z</time>
      </trkpt>
      <trkpt lat="48.28322" lon="2.59792">
        <ele>79.104820251465</ele>
        <time>2013-05-26T07:02:23Z</time>
      </trkpt>
      <trkpt lat="48.28322" lon="2.59793">
        <ele>76.104820251465</ele>
        <time>2013-05-26T07:02:29Z</time>
      </trkpt>
      <trkpt lat="48.28323" lon="2.59794">
        <ele>78.104824066162</ele>
        <time>2013-05-26T07:02:35Z</time>
      </trkpt>
      <trkpt lat="48.28324" lon="2.59795">
        <ele>74.104824066162</ele>
        <time>2013-05-26T07:02:41Z</time>
      </trkpt>
      <trkpt lat="48.28325" lon="2.59795">
        <ele>72.104831695557</ele>
        <time>2013-05-26T07:02:49Z</time>
      </trkpt>
      <trkpt lat="48.28325" lon="2.59795">
        <ele>75.104827880859</ele>
        <time>2013-05-26T07:02:56Z</time>
      </trkpt>
      <trkpt lat="48.28324" lon="2.59794">
        <ele>78.104827880859</ele>
        <time>2013-05-26T07:03:01Z</time>
      </trkpt>
      <trkpt lat="48.28324" lon="2.59794">
        <ele>79.104827880859</ele>
        <time>2013-05-26T07:03:07Z</time>
      </trkpt>
      <trkpt lat="48.28322" lon="2.59793">
        <ele>82.104820251465</ele>
        <time>2013-05-26T07:03:13Z</time>
      </trkpt>
      <trkpt lat="48.2832" lon="2.59793">
        <ele>78.10481262207</ele>
        <time>2013-05-26T07:03:26Z</time>
      </trkpt>
      <trkpt lat="48.28324" lon="2.59789">
        <ele>83.104827880859</ele>
        <time>2013-05-26T07:03:33Z</time>
      </trkpt>
      <trkpt lat="48.28322" lon="2.59783">
        <ele>89.104824066162</ele>
        <time>2013-05-26T07:03:39Z</time>
      </trkpt>
      <trkpt lat="48.28316" lon="2.59785">
        <ele>92.104797363281</ele>
        <time>2013-05-26T07:03:45Z</time>
      </trkpt>
      <trkpt lat="48.28312" lon="2.59787">
        <ele>88.104782104492</ele>
        <time>2013-05-26T07:03:56Z</time>
      </trkpt>
      <trkpt lat="48.28313" lon="2.59787">
        <ele>89.104785919189</ele>
        <time>2013-05-26T07:04:02Z</time>
      </trkpt>
      <trkpt lat="48.28312" lon="2.59786">
        <ele>91.104782104492</ele>
        <time>2013-05-26T07:04:12Z</time>
      </trkpt>
      <trkpt lat="48.28314" lon="2.59787">
        <ele>93.104789733887</ele>
        <time>2013-05-26T07:04:17Z</time>
      </trkpt>
      <trkpt lat="48.28316" lon="2.59788">
        <ele>97.104801177979</ele>
        <time>2013-05-26T07:04:22Z</time>
      </trkpt>
      <trkpt lat="48.28318" lon="2.59789">
        <ele>99.104801177979</ele>
        <time>2013-05-26T07:04:27Z</time>
      </trkpt>
      <trkpt lat="48.28318" lon="2.5979">
        <ele>101.10480499268</ele>
        <time>2013-05-26T07:04:33Z</time>
      </trkpt>
      <trkpt lat="48.28317" lon="2.59789">
        <ele>98.104804992676</ele>
        <time>2013-05-26T07:04:39Z</time>
      </trkpt>
      <trkpt lat="48.28316" lon="2.5979">
        <ele>92.104801177979</ele>
        <time>2013-05-26T07:04:45Z</time>
      </trkpt>
      <trkpt lat="48.28314" lon="2.59789">
        <ele>92.104793548584</ele>
        <time>2013-05-26T07:04:54Z</time>
      </trkpt>
      <trkpt lat="48.28312" lon="2.59789">
        <ele>90.104785919189</ele>
        <time>2013-05-26T07:05:00Z</time>
      </trkpt>
      <trkpt lat="48.28311" lon="2.59788">
        <ele>83.104778289795</ele>
        <time>2013-05-26T07:05:06Z</time>
      </trkpt>
      <trkpt lat="48.2831" lon="2.59788">
        <ele>80.104778289795</ele>
        <time>2013-05-26T07:05:11Z</time>
      </trkpt>
      <trkpt lat="48.28309" lon="2.59788">
        <ele>80.104778289795</ele>
        <time>2013-05-26T07:05:17Z</time>
      </trkpt>
      <trkpt lat="48.28307" lon="2.5979">
        <ele>77.104763031006</ele>
        <time>2013-05-26T07:05:29Z</time>
      </trkpt>
      <trkpt lat="48.28307" lon="2.5979">
        <ele>77.104766845703</ele>
        <time>2013-05-26T07:05:34Z</time>
      </trkpt>
      <trkpt lat="48.28308" lon="2.59791">
        <ele>73.1047706604</ele>
        <time>2013-05-26T07:05:40Z</time>
      </trkpt>
      <trkpt lat="48.28308" lon="2.59792">
        <ele>74.1047706604</ele>
        <time>2013-05-26T07:05:46Z</time>
      </trkpt>
      <trkpt lat="48.28308" lon="2.59792">
        <ele>75.1047706604</ele>
        <time>2013-05-26T07:05:52Z</time>
      </trkpt>
      <trkpt lat="48.28308" lon="2.59792">
        <ele>77.104766845703</ele>
        <time>2013-05-26T07:06:06Z</time>
      </trkpt>
      <trkpt lat="48.28308" lon="2.59791">
        <ele>80.1047706604</ele>
        <time>2013-05-26T07:06:11Z</time>
      </trkpt>
      <trkpt lat="48.28309" lon="2.5979">
        <ele>82.104766845703</ele>
        <time>2013-05-26T07:06:17Z</time>
      </trkpt>
      <trkpt lat="48.28309" lon="2.5979">
        <ele>82.104766845703</ele>
        <time>2013-05-26T07:06:25Z</time>
      </trkpt>
      <trkpt lat="48.28308" lon="2.5979">
        <ele>90.1047706604</ele>
        <time>2013-05-26T07:06:31Z</time>
      </trkpt>
      <trkpt lat="48.28308" lon="2.59795">
        <ele>85.104766845703</ele>
        <time>2013-05-26T07:06:37Z</time>
      </trkpt>
      <trkpt lat="48.28308" lon="2.59796">
        <ele>88.104766845703</ele>
        <time>2013-05-26T07:06:43Z</time>
      </trkpt>
      <trkpt lat="48.28308" lon="2.59798">
        <ele>86.104766845703</ele>
        <time>2013-05-26T07:06:49Z</time>
      </trkpt>
      <trkpt lat="48.28307" lon="2.59798">
        <ele>82.104766845703</ele>
        <time>2013-05-26T07:06:54Z</time>
      </trkpt>
      <trkpt lat="48.28305" lon="2.59796">
        <ele>80.104755401611</ele>
        <time>2013-05-26T07:07:01Z</time>
      </trkpt>
      <trkpt lat="48.28305" lon="2.59793">
        <ele>81.104755401611</ele>
        <time>2013-05-26T07:07:06Z</time>
      </trkpt>
      <trkpt lat="48.28305" lon="2.59792">
        <ele>84.104759216309</ele>
        <time>2013-05-26T07:07:12Z</time>
      </trkpt>
      <trkpt lat="48.28305" lon="2.5979">
        <ele>79.104755401611</ele>
        <time>2013-05-26T07:07:18Z</time>
      </trkpt>
      <trkpt lat="48.28304" lon="2.59786">
        <ele>78.104751586914</ele>
        <time>2013-05-26T07:07:24Z</time>
      </trkpt>
      <trkpt lat="48.28304" lon="2.59786">
        <ele>81.104755401611</ele>
        <time>2013-05-26T07:07:32Z</time>
      </trkpt>
      <trkpt lat="48.28299" lon="2.59792">
        <ele>82.104736328125</ele>
        <time>2013-05-26T07:07:38Z</time>
      </trkpt>
      <trkpt lat="48.28286" lon="2.59804">
        <ele>85.104686737061</ele>
        <time>2013-05-26T07:07:44Z</time>
      </trkpt>
      <trkpt lat="48.28273" lon="2.59814">
        <ele>89.104637145996</ele>
        <time>2013-05-26T07:07:50Z</time>
      </trkpt>
      <trkpt lat="48.2826" lon="2.5982">
        <ele>92.104591369629</ele>
        <time>2013-05-26T07:07:56Z</time>
      </trkpt>
      <trkpt lat="48.2825" lon="2.59825">
        <ele>94.104545593262</ele>
        <time>2013-05-26T07:08:01Z</time>
      </trkpt>
      <trkpt lat="48.28239" lon="2.59832">
        <ele>95.104503631592</ele>
        <time>2013-05-26T07:08:07Z</time>
      </trkpt>
      <trkpt lat="48.28225" lon="2.59838">
        <ele>95.104457855225</ele>
        <time>2013-05-26T07:08:13Z</time>
      </trkpt>
      <trkpt lat="48.2822" lon="2.59839">
        <ele>96.104434967041</ele>
        <time>2013-05-26T07:08:18Z</time>
      </trkpt>
      <trkpt lat="48.28196" lon="2.59851">
        <ele>99.104347229004</ele>
        <time>2013-05-26T07:08:27Z</time>
      </trkpt>
      <trkpt lat="48.28183" lon="2.59853">
        <ele>96.104293823242</ele>
        <time>2013-05-26T07:08:33Z</time>
      </trkpt>
      <trkpt lat="48.28174" lon="2.59847">
        <ele>96.104263305664</ele>
        <time>2013-05-26T07:08:38Z</time>
      </trkpt>
      <trkpt lat="48.2816" lon="2.59835">
        <ele>98.1042137146</ele>
        <time>2013-05-26T07:08:44Z</time>
      </trkpt>
      <trkpt lat="48.28146" lon="2.59827">
        <ele>99.104167938232</ele>
        <time>2013-05-26T07:08:49Z</time>
      </trkpt>
      <trkpt lat="48.28129" lon="2.59815">
        <ele>100.10410690308</ele>
        <time>2013-05-26T07:08:55Z</time>
      </trkpt>
      <trkpt lat="48.28109" lon="2.59814">
        <ele>100.10403060913</ele>
        <time>2013-05-26T07:09:01Z</time>
      </trkpt>
      <trkpt lat="48.28095" lon="2.59815">
        <ele>99.103981018066</ele>
        <time>2013-05-26T07:09:06Z</time>
      </trkpt>
      <trkpt lat="48.28081" lon="2.59814">
        <ele>99.103927612305</ele>
        <time>2013-05-26T07:09:11Z</time>
      </trkpt>
      <trkpt lat="48.28065" lon="2.59806">
        <ele>97.103870391846</ele>
        <time>2013-05-26T07:09:20Z</time>
      </trkpt>
      <trkpt lat="48.28062" lon="2.59788">
        <ele>99.103862762451</ele>
        <time>2013-05-26T07:09:26Z</time>
      </trkpt>
      <trkpt lat="48.28059" lon="2.59762">
        <ele>103.10385131836</ele>
        <time>2013-05-26T07:09:34Z</time>
      </trkpt>
      <trkpt lat="48.28053" lon="2.59745">
        <ele>106.10383605957</ele>
        <time>2013-05-26T07:09:41Z</time>
      </trkpt>
      <trkpt lat="48.28046" lon="2.59724">
        <ele>110.10380935669</ele>
        <time>2013-05-26T07:09:49Z</time>
      </trkpt>
      <trkpt lat="48.28038" lon="2.59711">
        <ele>112.10378265381</ele>
        <time>2013-05-26T07:09:54Z</time>
      </trkpt>
      <trkpt lat="48.28026" lon="2.59699">
        <ele>115.10374450684</ele>
        <time>2013-05-26T07:10:00Z</time>
      </trkpt>
      <trkpt lat="48.28012" lon="2.59689">
        <ele>117.10369110107</ele>
        <time>2013-05-26T07:10:07Z</time>
      </trkpt>
      <trkpt lat="48.28005" lon="2.59674">
        <ele>120.10366439819</ele>
        <time>2013-05-26T07:10:14Z</time>
      </trkpt>
      <trkpt lat="48.27994" lon="2.59658">
        <ele>122.10362625122</ele>
        <time>2013-05-26T07:10:19Z</time>
      </trkpt>
      <trkpt lat="48.27986" lon="2.59641">
        <ele>122.10359954834</ele>
        <time>2013-05-26T07:10:25Z</time>
      </trkpt>
      <trkpt lat="48.27979" lon="2.5962">
        <ele>123.10357284546</ele>
        <time>2013-05-26T07:10:32Z</time>
      </trkpt>
      <trkpt lat="48.27972" lon="2.59607">
        <ele>123.10354995728</ele>
        <time>2013-05-26T07:10:38Z</time>
      </trkpt>
      <trkpt lat="48.27963" lon="2.59598">
        <ele>123.1035194397</ele>
        <time>2013-05-26T07:10:44Z</time>
      </trkpt>
      <trkpt lat="48.27956" lon="2.59588">
        <ele>123.10349273682</ele>
        <time>2013-05-26T07:10:50Z</time>
      </trkpt>
      <trkpt lat="48.2795" lon="2.59578">
        <ele>120.10347747803</ele>
        <time>2013-05-26T07:10:56Z</time>
      </trkpt>
      <trkpt lat="48.27945" lon="2.59572">
        <ele>121.10346221924</ele>
        <time>2013-05-26T07:11:02Z</time>
      </trkpt>
      <trkpt lat="48.27944" lon="2.59558">
        <ele>124.10345458984</ele>
        <time>2013-05-26T07:11:08Z</time>
      </trkpt>
      <trkpt lat="48.27941" lon="2.59548">
        <ele>126.10345077515</ele>
        <time>2013-05-26T07:11:14Z</time>
      </trkpt>
      <trkpt lat="48.27934" lon="2.59542">
        <ele>126.10341644287</ele>
        <time>2013-05-26T07:11:20Z</time>
      </trkpt>
      <trkpt lat="48.27927" lon="2.59534">
        <ele>126.10338973999</ele>
        <time>2013-05-26T07:11:26Z</time>
      </trkpt>
      <trkpt lat="48.27918" lon="2.5953">
        <ele>128.10335922241</ele>
        <time>2013-05-26T07:11:32Z</time>
      </trkpt>
      <trkpt lat="48.27906" lon="2.59534">
        <ele>129.10331726074</ele>
        <time>2013-05-26T07:11:40Z</time>
      </trkpt>
      <trkpt lat="48.27895" lon="2.59547">
        <ele>130.10327148438</ele>
        <time>2013-05-26T07:11:46Z</time>
      </trkpt>
      <trkpt lat="48.2789" lon="2.59557">
        <ele>133.10324859619</ele>
        <time>2013-05-26T07:11:52Z</time>
      </trkpt>
      <trkpt lat="48.27889" lon="2.59575">
        <ele>132.10324859619</ele>
        <time>2013-05-26T07:12:00Z</time>
      </trkpt>
      <trkpt lat="48.2789" lon="2.59576">
        <ele>131.10325622559</ele>
        <time>2013-05-26T07:12:05Z</time>
      </trkpt>
      <trkpt lat="48.27891" lon="2.59576">
        <ele>126.10325622559</ele>
        <time>2013-05-26T07:12:10Z</time>
      </trkpt>
      <trkpt lat="48.27893" lon="2.59576">
        <ele>129.10326385498</ele>
        <time>2013-05-26T07:12:16Z</time>
      </trkpt>
      <trkpt lat="48.27893" lon="2.59576">
        <ele>131.10326004028</ele>
        <time>2013-05-26T07:12:22Z</time>
      </trkpt>
      <trkpt lat="48.2789" lon="2.59578">
        <ele>133.10324859619</ele>
        <time>2013-05-26T07:12:30Z</time>
      </trkpt>
      <trkpt lat="48.27889" lon="2.5958">
        <ele>132.10324478149</ele>
        <time>2013-05-26T07:12:36Z</time>
      </trkpt>
      <trkpt lat="48.27886" lon="2.59587">
        <ele>130.1032333374</ele>
        <time>2013-05-26T07:12:41Z</time>
      </trkpt>
      <trkpt lat="48.27879" lon="2.59597">
        <ele>131.10321044922</ele>
        <time>2013-05-26T07:12:47Z</time>
      </trkpt>
      <trkpt lat="48.27871" lon="2.5961">
        <ele>130.10317230225</ele>
        <time>2013-05-26T07:12:52Z</time>
      </trkpt>
      <trkpt lat="48.27865" lon="2.59626">
        <ele>132.10315322876</ele>
        <time>2013-05-26T07:12:59Z</time>
      </trkpt>
      <trkpt lat="48.27863" lon="2.59632">
        <ele>134.10314178467</ele>
        <time>2013-05-26T07:13:05Z</time>
      </trkpt>
      <trkpt lat="48.27862" lon="2.59637">
        <ele>135.10314178467</ele>
        <time>2013-05-26T07:13:11Z</time>
      </trkpt>
      <trkpt lat="48.27861" lon="2.59646">
        <ele>137.10313415527</ele>
        <time>2013-05-26T07:13:17Z</time>
      </trkpt>
      <trkpt lat="48.27854" lon="2.59657">
        <ele>140.10310745239</ele>
        <time>2013-05-26T07:13:22Z</time>
      </trkpt>
      <trkpt lat="48.27849" lon="2.59667">
        <ele>141.10308837891</ele>
        <time>2013-05-26T07:13:30Z</time>
      </trkpt>
      <trkpt lat="48.27846" lon="2.59675">
        <ele>142.10307693481</ele>
        <time>2013-05-26T07:13:36Z</time>
      </trkpt>
      <trkpt lat="48.27847" lon="2.59683">
        <ele>135.10307693481</ele>
        <time>2013-05-26T07:13:41Z</time>
      </trkpt>
      <trkpt lat="48.27848" lon="2.59686">
        <ele>132.10308074951</ele>
        <time>2013-05-26T07:13:46Z</time>
      </trkpt>
      <trkpt lat="48.27847" lon="2.59687">
        <ele>124.10307693481</ele>
        <time>2013-05-26T07:13:53Z</time>
      </trkpt>
      <trkpt lat="48.27844" lon="2.59685">
        <ele>120.10306549072</ele>
        <time>2013-05-26T07:13:59Z</time>
      </trkpt>
      <trkpt lat="48.27832" lon="2.59677">
        <ele>117.10302352905</ele>
        <time>2013-05-26T07:14:06Z</time>
      </trkpt>
      <trkpt lat="48.27823" lon="2.59676">
        <ele>116.10299301147</ele>
        <time>2013-05-26T07:14:11Z</time>
      </trkpt>
      <trkpt lat="48.27818" lon="2.59676">
        <ele>117.10297393799</ele>
        <time>2013-05-26T07:14:16Z</time>
      </trkpt>
      <trkpt lat="48.27815" lon="2.59677">
        <ele>121.1029586792</ele>
        <time>2013-05-26T07:14:24Z</time>
      </trkpt>
      <trkpt lat="48.27813" lon="2.5968">
        <ele>124.1029510498</ele>
        <time>2013-05-26T07:14:29Z</time>
      </trkpt>
      <trkpt lat="48.27812" lon="2.59681">
        <ele>129.1029510498</ele>
        <time>2013-05-26T07:14:35Z</time>
      </trkpt>
      <trkpt lat="48.27813" lon="2.59687">
        <ele>132.1029510498</ele>
        <time>2013-05-26T07:14:41Z</time>
      </trkpt>
      <trkpt lat="48.27812" lon="2.59701">
        <ele>133.10294723511</ele>
        <time>2013-05-26T07:14:47Z</time>
      </trkpt>
      <trkpt lat="48.27816" lon="2.59721">
        <ele>133.1029586792</ele>
        <time>2013-05-26T07:14:53Z</time>
      </trkpt>
      <trkpt lat="48.27821" lon="2.59735">
        <ele>135.10297775269</ele>
        <time>2013-05-26T07:14:59Z</time>
      </trkpt>
      <trkpt lat="48.27829" lon="2.59743">
        <ele>135.10299682617</ele>
        <time>2013-05-26T07:15:05Z</time>
      </trkpt>
      <trkpt lat="48.27829" lon="2.59748">
        <ele>134.10300064087</ele>
        <time>2013-05-26T07:15:12Z</time>
      </trkpt>
      <trkpt lat="48.27826" lon="2.59757">
        <ele>133.10298919678</ele>
        <time>2013-05-26T07:15:18Z</time>
      </trkpt>
      <trkpt lat="48.27822" lon="2.59765">
        <ele>135.10297393799</ele>
        <time>2013-05-26T07:15:23Z</time>
      </trkpt>
      <trkpt lat="48.27825" lon="2.59779">
        <ele>137.10297775269</ele>
        <time>2013-05-26T07:15:29Z</time>
      </trkpt>
      <trkpt lat="48.27827" lon="2.59789">
        <ele>138.10298919678</ele>
        <time>2013-05-26T07:15:34Z</time>
      </trkpt>
      <trkpt lat="48.27829" lon="2.59808">
        <ele>139.10299682617</ele>
        <time>2013-05-26T07:15:40Z</time>
      </trkpt>
      <trkpt lat="48.27827" lon="2.59821">
        <ele>140.10298538208</ele>
        <time>2013-05-26T07:15:46Z</time>
      </trkpt>
      <trkpt lat="48.27828" lon="2.5983">
        <ele>142.10298538208</ele>
        <time>2013-05-26T07:15:52Z</time>
      </trkpt>
      <trkpt lat="48.27831" lon="2.59835">
        <ele>142.10299682617</ele>
        <time>2013-05-26T07:15:57Z</time>
      </trkpt>
      <trkpt lat="48.27832" lon="2.59838">
        <ele>142.10300445557</ele>
        <time>2013-05-26T07:16:03Z</time>
      </trkpt>
      <trkpt lat="48.27836" lon="2.59829">
        <ele>143.10301971436</ele>
        <time>2013-05-26T07:16:09Z</time>
      </trkpt>
      <trkpt lat="48.27841" lon="2.59822">
        <ele>144.10303497314</ele>
        <time>2013-05-26T07:16:15Z</time>
      </trkpt>
      <trkpt lat="48.2785" lon="2.59815">
        <ele>144.10307312012</ele>
        <time>2013-05-26T07:16:20Z</time>
      </trkpt>
      <trkpt lat="48.27864" lon="2.59814">
        <ele>145.10312652588</ele>
        <time>2013-05-26T07:16:26Z</time>
      </trkpt>
      <trkpt lat="48.27868" lon="2.59817">
        <ele>145.10313034058</ele>
        <time>2013-05-26T07:16:31Z</time>
      </trkpt>
      <trkpt lat="48.27868" lon="2.59824">
        <ele>146.10314178467</ele>
        <time>2013-05-26T07:16:37Z</time>
      </trkpt>
      <trkpt lat="48.2787" lon="2.59838">
        <ele>149.10314178467</ele>
        <time>2013-05-26T07:16:43Z</time>
      </trkpt>
      <trkpt lat="48.27867" lon="2.5986">
        <ele>148.10312652588</ele>
        <time>2013-05-26T07:16:50Z</time>
      </trkpt>
      <trkpt lat="48.2786" lon="2.59862">
        <ele>145.103099823</ele>
        <time>2013-05-26T07:16:56Z</time>
      </trkpt>
      <trkpt lat="48.27852" lon="2.59875">
        <ele>141.10306930542</ele>
        <time>2013-05-26T07:17:04Z</time>
      </trkpt>
      <trkpt lat="48.27854" lon="2.59891">
        <ele>141.10307693481</ele>
        <time>2013-05-26T07:17:10Z</time>
      </trkpt>
      <trkpt lat="48.27854" lon="2.599">
        <ele>142.10307312012</ele>
        <time>2013-05-26T07:17:15Z</time>
      </trkpt>
      <trkpt lat="48.2786" lon="2.5992">
        <ele>145.1030960083</ele>
        <time>2013-05-26T07:17:21Z</time>
      </trkpt>
      <trkpt lat="48.27878" lon="2.59936">
        <ele>143.10316085815</ele>
        <time>2013-05-26T07:17:29Z</time>
      </trkpt>
      <trkpt lat="48.27897" lon="2.59927">
        <ele>141.1032333374</ele>
        <time>2013-05-26T07:17:36Z</time>
      </trkpt>
      <trkpt lat="48.27903" lon="2.59921">
        <ele>140.10325622559</ele>
        <time>2013-05-26T07:17:41Z</time>
      </trkpt>
      <trkpt lat="48.27917" lon="2.59891">
        <ele>141.10330581665</ele>
        <time>2013-05-26T07:17:49Z</time>
      </trkpt>
      <trkpt lat="48.27937" lon="2.5988">
        <ele>140.10338592529</ele>
        <time>2013-05-26T07:17:58Z</time>
      </trkpt>
      <trkpt lat="48.27959" lon="2.59879">
        <ele>138.10346221924</ele>
        <time>2013-05-26T07:18:05Z</time>
      </trkpt>
      <trkpt lat="48.27978" lon="2.59881">
        <ele>132.10353469849</ele>
        <time>2013-05-26T07:18:10Z</time>
      </trkpt>
      <trkpt lat="48.28014" lon="2.59889">
        <ele>118.10366821289</ele>
        <time>2013-05-26T07:18:18Z</time>
      </trkpt>
      <trkpt lat="48.28034" lon="2.59894">
        <ele>113.10374069214</ele>
        <time>2013-05-26T07:18:24Z</time>
      </trkpt>
      <trkpt lat="48.28057" lon="2.59915">
        <ele>109.10382080078</ele>
        <time>2013-05-26T07:18:31Z</time>
      </trkpt>
      <trkpt lat="48.28066" lon="2.59948">
        <ele>107.10385513306</ele>
        <time>2013-05-26T07:18:36Z</time>
      </trkpt>
      <trkpt lat="48.28067" lon="2.59979">
        <ele>104.10384750366</ele>
        <time>2013-05-26T07:18:42Z</time>
      </trkpt>
      <trkpt lat="48.28065" lon="2.59992">
        <ele>105.10383987427</ele>
        <time>2013-05-26T07:18:47Z</time>
      </trkpt>
      <trkpt lat="48.28058" lon="2.60003">
        <ele>106.10381698608</ele>
        <time>2013-05-26T07:18:52Z</time>
      </trkpt>
      <trkpt lat="48.28053" lon="2.60008">
        <ele>108.1037902832</ele>
        <time>2013-05-26T07:18:58Z</time>
      </trkpt>
      <trkpt lat="48.28041" lon="2.60032">
        <ele>117.10374450684</ele>
        <time>2013-05-26T07:19:04Z</time>
      </trkpt>
      <trkpt lat="48.2803" lon="2.60048">
        <ele>120.10369873047</ele>
        <time>2013-05-26T07:19:10Z</time>
      </trkpt>
      <trkpt lat="48.28011" lon="2.60062">
        <ele>123.10362625122</ele>
        <time>2013-05-26T07:19:17Z</time>
      </trkpt>
      <trkpt lat="48.27992" lon="2.6008">
        <ele>122.10356140137</ele>
        <time>2013-05-26T07:19:23Z</time>
      </trkpt>
      <trkpt lat="48.27973" lon="2.60101">
        <ele>120.10348510742</ele>
        <time>2013-05-26T07:19:30Z</time>
      </trkpt>
      <trkpt lat="48.2796" lon="2.60113">
        <ele>122.10343551636</ele>
        <time>2013-05-26T07:19:35Z</time>
      </trkpt>
      <trkpt lat="48.27939" lon="2.60131">
        <ele>125.10335159302</ele>
        <time>2013-05-26T07:19:43Z</time>
      </trkpt>
      <trkpt lat="48.27923" lon="2.60144">
        <ele>126.10329055786</ele>
        <time>2013-05-26T07:19:48Z</time>
      </trkpt>
      <trkpt lat="48.27909" lon="2.60156">
        <ele>128.10324478149</ele>
        <time>2013-05-26T07:19:54Z</time>
      </trkpt>
      <trkpt lat="48.27897" lon="2.60164">
        <ele>131.10319900513</ele>
        <time>2013-05-26T07:19:59Z</time>
      </trkpt>
      <trkpt lat="48.27883" lon="2.6017">
        <ele>132.10314559937</ele>
        <time>2013-05-26T07:20:04Z</time>
      </trkpt>
      <trkpt lat="48.27868" lon="2.60175">
        <ele>133.10308837891</ele>
        <time>2013-05-26T07:20:10Z</time>
      </trkpt>
      <trkpt lat="48.27854" lon="2.6018">
        <ele>132.10303497314</ele>
        <time>2013-05-26T07:20:16Z</time>
      </trkpt>
      <trkpt lat="48.27845" lon="2.60182">
        <ele>132.10300064087</ele>
        <time>2013-05-26T07:20:21Z</time>
      </trkpt>
      <trkpt lat="48.27835" lon="2.60183">
        <ele>133.1029586792</ele>
        <time>2013-05-26T07:20:26Z</time>
      </trkpt>
      <trkpt lat="48.27826" lon="2.60183">
        <ele>134.10292816162</ele>
        <time>2013-05-26T07:20:32Z</time>
      </trkpt>
      <trkpt lat="48.27818" lon="2.60184">
        <ele>136.10289764404</ele>
        <time>2013-05-26T07:20:38Z</time>
      </trkpt>
      <trkpt lat="48.27802" lon="2.60192">
        <ele>139.10284042358</ele>
        <time>2013-05-26T07:20:47Z</time>
      </trkpt>
      <trkpt lat="48.27795" lon="2.60194">
        <ele>139.1028137207</ele>
        <time>2013-05-26T07:20:52Z</time>
      </trkpt>
      <trkpt lat="48.27783" lon="2.60197">
        <ele>139.10276794434</ele>
        <time>2013-05-26T07:20:58Z</time>
      </trkpt>
      <trkpt lat="48.27774" lon="2.60198">
        <ele>139.10273742676</ele>
        <time>2013-05-26T07:21:04Z</time>
      </trkpt>
      <trkpt lat="48.27764" lon="2.60198">
        <ele>140.10269927979</ele>
        <time>2013-05-26T07:21:11Z</time>
      </trkpt>
      <trkpt lat="48.27757" lon="2.60199">
        <ele>142.10266876221</ele>
        <time>2013-05-26T07:21:17Z</time>
      </trkpt>
      <trkpt lat="48.2775" lon="2.602">
        <ele>144.10264587402</ele>
        <time>2013-05-26T07:21:22Z</time>
      </trkpt>
      <trkpt lat="48.27739" lon="2.60201">
        <ele>147.10260772705</ele>
        <time>2013-05-26T07:21:28Z</time>
      </trkpt>
      <trkpt lat="48.27729" lon="2.60202">
        <ele>148.10257339478</ele>
        <time>2013-05-26T07:21:33Z</time>
      </trkpt>
      <trkpt lat="48.27718" lon="2.60205">
        <ele>147.10253143311</ele>
        <time>2013-05-26T07:21:39Z</time>
      </trkpt>
      <trkpt lat="48.27709" lon="2.60206">
        <ele>143.10249328613</ele>
        <time>2013-05-26T07:21:45Z</time>
      </trkpt>
      <trkpt lat="48.27701" lon="2.60209">
        <ele>141.10246276855</ele>
        <time>2013-05-26T07:21:51Z</time>
      </trkpt>
      <trkpt lat="48.27691" lon="2.60212">
        <ele>139.10242462158</ele>
        <time>2013-05-26T07:21:56Z</time>
      </trkpt>
      <trkpt lat="48.27676" lon="2.60216">
        <ele>135.10237121582</ele>
        <time>2013-05-26T07:22:02Z</time>
      </trkpt>
      <trkpt lat="48.27662" lon="2.60223">
        <ele>133.10231781006</ele>
        <time>2013-05-26T07:22:08Z</time>
      </trkpt>
      <trkpt lat="48.27649" lon="2.60233">
        <ele>131.10227203369</ele>
        <time>2013-05-26T07:22:13Z</time>
      </trkpt>
      <trkpt lat="48.27636" lon="2.60246">
        <ele>129.10221481323</ele>
        <time>2013-05-26T07:22:19Z</time>
      </trkpt>
      <trkpt lat="48.27625" lon="2.60256">
        <ele>129.10218048096</ele>
        <time>2013-05-26T07:22:25Z</time>
      </trkpt>
      <trkpt lat="48.2761" lon="2.60269">
        <ele>128.1021156311</ele>
        <time>2013-05-26T07:22:30Z</time>
      </trkpt>
      <trkpt lat="48.27592" lon="2.60282">
        <ele>127.10205078125</ele>
        <time>2013-05-26T07:22:36Z</time>
      </trkpt>
      <trkpt lat="48.27578" lon="2.60292">
        <ele>127.10200119019</ele>
        <time>2013-05-26T07:22:41Z</time>
      </trkpt>
      <trkpt lat="48.27563" lon="2.60302">
        <ele>128.10194396973</ele>
        <time>2013-05-26T07:22:46Z</time>
      </trkpt>
      <trkpt lat="48.27544" lon="2.60314">
        <ele>128.10187149048</ele>
        <time>2013-05-26T07:22:52Z</time>
      </trkpt>
      <trkpt lat="48.27527" lon="2.60327">
        <ele>129.10180664062</ele>
        <time>2013-05-26T07:22:57Z</time>
      </trkpt>
      <trkpt lat="48.27511" lon="2.60338">
        <ele>129.10174560547</ele>
        <time>2013-05-26T07:23:02Z</time>
      </trkpt>
      <trkpt lat="48.27497" lon="2.60348">
        <ele>129.10168838501</ele>
        <time>2013-05-26T07:23:07Z</time>
      </trkpt>
      <trkpt lat="48.2748" lon="2.60359">
        <ele>129.10162734985</ele>
        <time>2013-05-26T07:23:13Z</time>
      </trkpt>
      <trkpt lat="48.27463" lon="2.60372">
        <ele>130.1015586853</ele>
        <time>2013-05-26T07:23:19Z</time>
      </trkpt>
      <trkpt lat="48.27448" lon="2.60382">
        <ele>131.10150146484</ele>
        <time>2013-05-26T07:23:24Z</time>
      </trkpt>
      <trkpt lat="48.27429" lon="2.60397">
        <ele>131.10143280029</ele>
        <time>2013-05-26T07:23:30Z</time>
      </trkpt>
      <trkpt lat="48.27408" lon="2.60413">
        <ele>131.10134887695</ele>
        <time>2013-05-26T07:23:36Z</time>
      </trkpt>
      <trkpt lat="48.27389" lon="2.60426">
        <ele>131.1012840271</ele>
        <time>2013-05-26T07:23:41Z</time>
      </trkpt>
      <trkpt lat="48.27367" lon="2.60442">
        <ele>131.10119628906</ele>
        <time>2013-05-26T07:23:47Z</time>
      </trkpt>
      <trkpt lat="48.27343" lon="2.6046">
        <ele>131.10110473633</ele>
        <time>2013-05-26T07:23:53Z</time>
      </trkpt>
      <trkpt lat="48.27319" lon="2.60478">
        <ele>132.10101699829</ele>
        <time>2013-05-26T07:23:59Z</time>
      </trkpt>
      <trkpt lat="48.27298" lon="2.60496">
        <ele>132.10093307495</ele>
        <time>2013-05-26T07:24:06Z</time>
      </trkpt>
      <trkpt lat="48.27271" lon="2.60514">
        <ele>133.10083389282</ele>
        <time>2013-05-26T07:24:11Z</time>
      </trkpt>
      <trkpt lat="48.27245" lon="2.60529">
        <ele>132.10073471069</ele>
        <time>2013-05-26T07:24:17Z</time>
      </trkpt>
      <trkpt lat="48.27226" lon="2.60544">
        <ele>133.10066223145</ele>
        <time>2013-05-26T07:24:22Z</time>
      </trkpt>
      <trkpt lat="48.2721" lon="2.60585">
        <ele>136.10059738159</ele>
        <time>2013-05-26T07:24:28Z</time>
      </trkpt>
      <trkpt lat="48.27167" lon="2.60605">
        <ele>138.10043716431</ele>
        <time>2013-05-26T07:24:34Z</time>
      </trkpt>
      <trkpt lat="48.27132" lon="2.60624">
        <ele>139.1003036499</ele>
        <time>2013-05-26T07:24:39Z</time>
      </trkpt>
      <trkpt lat="48.27091" lon="2.60671">
        <ele>143.10014343262</ele>
        <time>2013-05-26T07:24:47Z</time>
      </trkpt>
      <trkpt lat="48.27067" lon="2.60708">
        <ele>143.10005187988</ele>
        <time>2013-05-26T07:24:52Z</time>
      </trkpt>
      <trkpt lat="48.27035" lon="2.60748">
        <ele>137.09992599487</ele>
        <time>2013-05-26T07:24:58Z</time>
      </trkpt>
      <trkpt lat="48.26998" lon="2.60773">
        <ele>130.09978866577</ele>
        <time>2013-05-26T07:25:04Z</time>
      </trkpt>
      <trkpt lat="48.26943" lon="2.60798">
        <ele>125.09958267212</ele>
        <time>2013-05-26T07:25:11Z</time>
      </trkpt>
      <trkpt lat="48.26888" lon="2.60843">
        <ele>123.09936904907</ele>
        <time>2013-05-26T07:25:21Z</time>
      </trkpt>
      <trkpt lat="48.26872" lon="2.6087">
        <ele>119.09930801392</ele>
        <time>2013-05-26T07:25:26Z</time>
      </trkpt>
      <trkpt lat="48.26873" lon="2.60916">
        <ele>115.09930419922</ele>
        <time>2013-05-26T07:25:32Z</time>
      </trkpt>
      <trkpt lat="48.26857" lon="2.60965">
        <ele>112.09923934937</ele>
        <time>2013-05-26T07:25:40Z</time>
      </trkpt>
      <trkpt lat="48.2684" lon="2.60985">
        <ele>108.09917831421</ele>
        <time>2013-05-26T07:25:45Z</time>
      </trkpt>
      <trkpt lat="48.26826" lon="2.6101">
        <ele>105.09912109375</ele>
        <time>2013-05-26T07:25:51Z</time>
      </trkpt>
      <trkpt lat="48.26818" lon="2.61028">
        <ele>101.09908676147</ele>
        <time>2013-05-26T07:25:56Z</time>
      </trkpt>
      <trkpt lat="48.26808" lon="2.61045">
        <ele>98.099044799805</ele>
        <time>2013-05-26T07:26:02Z</time>
      </trkpt>
      <trkpt lat="48.26797" lon="2.6106">
        <ele>97.099002838135</ele>
        <time>2013-05-26T07:26:08Z</time>
      </trkpt>
      <trkpt lat="48.26788" lon="2.61071">
        <ele>97.098976135254</ele>
        <time>2013-05-26T07:26:13Z</time>
      </trkpt>
      <trkpt lat="48.26779" lon="2.61082">
        <ele>99.098941802979</ele>
        <time>2013-05-26T07:26:19Z</time>
      </trkpt>
      <trkpt lat="48.26769" lon="2.61093">
        <ele>101.09889984131</ele>
        <time>2013-05-26T07:26:24Z</time>
      </trkpt>
      <trkpt lat="48.26762" lon="2.61101">
        <ele>103.09886932373</ele>
        <time>2013-05-26T07:26:29Z</time>
      </trkpt>
      <trkpt lat="48.26751" lon="2.6111">
        <ele>106.09883117676</ele>
        <time>2013-05-26T07:26:35Z</time>
      </trkpt>
      <trkpt lat="48.26739" lon="2.6112">
        <ele>110.09878540039</ele>
        <time>2013-05-26T07:26:41Z</time>
      </trkpt>
      <trkpt lat="48.26729" lon="2.6113">
        <ele>113.09874725342</ele>
        <time>2013-05-26T07:26:46Z</time>
      </trkpt>
      <trkpt lat="48.26716" lon="2.61135">
        <ele>115.09870147705</ele>
        <time>2013-05-26T07:26:52Z</time>
      </trkpt>
      <trkpt lat="48.26707" lon="2.61139">
        <ele>118.09866333008</ele>
        <time>2013-05-26T07:26:57Z</time>
      </trkpt>
      <trkpt lat="48.26697" lon="2.61148">
        <ele>121.0986289978</ele>
        <time>2013-05-26T07:27:03Z</time>
      </trkpt>
      <trkpt lat="48.26688" lon="2.61153">
        <ele>124.09859085083</ele>
        <time>2013-05-26T07:27:08Z</time>
      </trkpt>
      <trkpt lat="48.26669" lon="2.61153">
        <ele>125.09851837158</ele>
        <time>2013-05-26T07:27:16Z</time>
      </trkpt>
      <trkpt lat="48.26655" lon="2.61152">
        <ele>125.09846878052</ele>
        <time>2013-05-26T07:27:21Z</time>
      </trkpt>
      <trkpt lat="48.2664" lon="2.61148">
        <ele>127.09841156006</ele>
        <time>2013-05-26T07:27:27Z</time>
      </trkpt>
      <trkpt lat="48.2663" lon="2.6115">
        <ele>128.09837722778</ele>
        <time>2013-05-26T07:27:32Z</time>
      </trkpt>
      <trkpt lat="48.26626" lon="2.61153">
        <ele>129.09836196899</ele>
        <time>2013-05-26T07:27:38Z</time>
      </trkpt>
      <trkpt lat="48.26622" lon="2.61156">
        <ele>128.0983505249</ele>
        <time>2013-05-26T07:27:52Z</time>
      </trkpt>
      <trkpt lat="48.26614" lon="2.61164">
        <ele>128.09832000732</ele>
        <time>2013-05-26T07:27:58Z</time>
      </trkpt>
      <trkpt lat="48.26607" lon="2.61181">
        <ele>129.09828948975</ele>
        <time>2013-05-26T07:28:03Z</time>
      </trkpt>
      <trkpt lat="48.26604" lon="2.61197">
        <ele>130.09827041626</ele>
        <time>2013-05-26T07:28:08Z</time>
      </trkpt>
      <trkpt lat="48.26601" lon="2.61214">
        <ele>130.09825897217</ele>
        <time>2013-05-26T07:28:13Z</time>
      </trkpt>
      <trkpt lat="48.26601" lon="2.61234">
        <ele>130.09825897217</ele>
        <time>2013-05-26T07:28:19Z</time>
      </trkpt>
      <trkpt lat="48.26602" lon="2.6125">
        <ele>129.09826278687</ele>
        <time>2013-05-26T07:28:25Z</time>
      </trkpt>
      <trkpt lat="48.26602" lon="2.61269">
        <ele>128.09825897217</ele>
        <time>2013-05-26T07:28:30Z</time>
      </trkpt>
      <trkpt lat="48.26604" lon="2.61287">
        <ele>128.09826278687</ele>
        <time>2013-05-26T07:28:35Z</time>
      </trkpt>
      <trkpt lat="48.26609" lon="2.61311">
        <ele>127.09828186035</ele>
        <time>2013-05-26T07:28:41Z</time>
      </trkpt>
      <trkpt lat="48.26617" lon="2.6133">
        <ele>127.09830474854</ele>
        <time>2013-05-26T07:28:46Z</time>
      </trkpt>
      <trkpt lat="48.26631" lon="2.61349">
        <ele>127.0983543396</ele>
        <time>2013-05-26T07:28:52Z</time>
      </trkpt>
      <trkpt lat="48.26649" lon="2.61367">
        <ele>126.09841918945</ele>
        <time>2013-05-26T07:28:58Z</time>
      </trkpt>
      <trkpt lat="48.2667" lon="2.61389">
        <ele>126.0984916687</ele>
        <time>2013-05-26T07:29:04Z</time>
      </trkpt>
      <trkpt lat="48.26688" lon="2.61431">
        <ele>125.09855651855</ele>
        <time>2013-05-26T07:29:10Z</time>
      </trkpt>
      <trkpt lat="48.26701" lon="2.61483">
        <ele>122.09859466553</ele>
        <time>2013-05-26T07:29:15Z</time>
      </trkpt>
      <trkpt lat="48.26694" lon="2.6154">
        <ele>119.09856414795</ele>
        <time>2013-05-26T07:29:20Z</time>
      </trkpt>
      <trkpt lat="48.26683" lon="2.6159">
        <ele>119.09851455688</ele>
        <time>2013-05-26T07:29:26Z</time>
      </trkpt>
      <trkpt lat="48.26679" lon="2.61616">
        <ele>121.0984992981</ele>
        <time>2013-05-26T07:29:32Z</time>
      </trkpt>
      <trkpt lat="48.26672" lon="2.61637">
        <ele>123.09846878052</ele>
        <time>2013-05-26T07:29:38Z</time>
      </trkpt>
      <trkpt lat="48.26666" lon="2.61653">
        <ele>125.09844207764</ele>
        <time>2013-05-26T07:29:44Z</time>
      </trkpt>
      <trkpt lat="48.26661" lon="2.61678">
        <ele>126.09842300415</ele>
        <time>2013-05-26T07:29:49Z</time>
      </trkpt>
      <trkpt lat="48.26657" lon="2.61705">
        <ele>127.09840774536</ele>
        <time>2013-05-26T07:29:55Z</time>
      </trkpt>
      <trkpt lat="48.26654" lon="2.61741">
        <ele>127.09838867188</ele>
        <time>2013-05-26T07:30:00Z</time>
      </trkpt>
      <trkpt lat="48.26648" lon="2.61778">
        <ele>127.09836196899</ele>
        <time>2013-05-26T07:30:06Z</time>
      </trkpt>
      <trkpt lat="48.26649" lon="2.61808">
        <ele>127.0983581543</ele>
        <time>2013-05-26T07:30:12Z</time>
      </trkpt>
      <trkpt lat="48.26664" lon="2.61836">
        <ele>125.09841156006</ele>
        <time>2013-05-26T07:30:17Z</time>
      </trkpt>
      <trkpt lat="48.26688" lon="2.61853">
        <ele>124.0984954834</ele>
        <time>2013-05-26T07:30:23Z</time>
      </trkpt>
      <trkpt lat="48.26711" lon="2.61875">
        <ele>125.09857940674</ele>
        <time>2013-05-26T07:30:29Z</time>
      </trkpt>
      <trkpt lat="48.26733" lon="2.61906">
        <ele>124.09865951538</ele>
        <time>2013-05-26T07:30:35Z</time>
      </trkpt>
      <trkpt lat="48.2677" lon="2.61945">
        <ele>123.09878540039</ele>
        <time>2013-05-26T07:30:43Z</time>
      </trkpt>
      <trkpt lat="48.26793" lon="2.61965">
        <ele>121.09887313843</ele>
        <time>2013-05-26T07:30:49Z</time>
      </trkpt>
      <trkpt lat="48.26802" lon="2.61979">
        <ele>120.09890365601</ele>
        <time>2013-05-26T07:30:54Z</time>
      </trkpt>
      <trkpt lat="48.26811" lon="2.61989">
        <ele>121.09893798828</ele>
        <time>2013-05-26T07:30:59Z</time>
      </trkpt>
      <trkpt lat="48.26816" lon="2.62003">
        <ele>123.09895706177</ele>
        <time>2013-05-26T07:31:05Z</time>
      </trkpt>
      <trkpt lat="48.26827" lon="2.62022">
        <ele>127.09898757935</ele>
        <time>2013-05-26T07:31:13Z</time>
      </trkpt>
      <trkpt lat="48.26835" lon="2.62039">
        <ele>128.09901809692</ele>
        <time>2013-05-26T07:31:19Z</time>
      </trkpt>
      <trkpt lat="48.26839" lon="2.62055">
        <ele>126.09902572632</ele>
        <time>2013-05-26T07:31:24Z</time>
      </trkpt>
      <trkpt lat="48.26843" lon="2.62069">
        <ele>124.09904098511</ele>
        <time>2013-05-26T07:31:30Z</time>
      </trkpt>
      <trkpt lat="48.26852" lon="2.62086">
        <ele>123.09907150269</ele>
        <time>2013-05-26T07:31:38Z</time>
      </trkpt>
      <trkpt lat="48.26857" lon="2.62098">
        <ele>124.09908676147</ele>
        <time>2013-05-26T07:31:44Z</time>
      </trkpt>
      <trkpt lat="48.2686" lon="2.62111">
        <ele>126.09909820557</ele>
        <time>2013-05-26T07:31:50Z</time>
      </trkpt>
      <trkpt lat="48.26868" lon="2.62129">
        <ele>127.09912109375</ele>
        <time>2013-05-26T07:31:55Z</time>
      </trkpt>
      <trkpt lat="48.26876" lon="2.62149">
        <ele>127.09915924072</ele>
        <time>2013-05-26T07:32:01Z</time>
      </trkpt>
      <trkpt lat="48.26882" lon="2.62171">
        <ele>128.09917449951</ele>
        <time>2013-05-26T07:32:07Z</time>
      </trkpt>
      <trkpt lat="48.2688" lon="2.62187">
        <ele>128.09916305542</ele>
        <time>2013-05-26T07:32:12Z</time>
      </trkpt>
      <trkpt lat="48.26875" lon="2.62205">
        <ele>129.09913635254</ele>
        <time>2013-05-26T07:32:18Z</time>
      </trkpt>
      <trkpt lat="48.26876" lon="2.62222">
        <ele>130.09914016724</ele>
        <time>2013-05-26T07:32:24Z</time>
      </trkpt>
      <trkpt lat="48.2688" lon="2.62241">
        <ele>129.09915542603</ele>
        <time>2013-05-26T07:32:29Z</time>
      </trkpt>
      <trkpt lat="48.26888" lon="2.62254">
        <ele>129.0991859436</ele>
        <time>2013-05-26T07:32:35Z</time>
      </trkpt>
      <trkpt lat="48.26892" lon="2.62265">
        <ele>131.099193573</ele>
        <time>2013-05-26T07:32:41Z</time>
      </trkpt>
      <trkpt lat="48.26895" lon="2.6228">
        <ele>132.09920501709</ele>
        <time>2013-05-26T07:32:47Z</time>
      </trkpt>
      <trkpt lat="48.26897" lon="2.62298">
        <ele>135.09920501709</ele>
        <time>2013-05-26T07:32:54Z</time>
      </trkpt>
      <trkpt lat="48.26899" lon="2.62321">
        <ele>136.09921264648</ele>
        <time>2013-05-26T07:32:59Z</time>
      </trkpt>
      <trkpt lat="48.26912" lon="2.62336">
        <ele>131.09925842285</ele>
        <time>2013-05-26T07:33:05Z</time>
      </trkpt>
      <trkpt lat="48.26924" lon="2.62324">
        <ele>126.09930801392</ele>
        <time>2013-05-26T07:33:11Z</time>
      </trkpt>
      <trkpt lat="48.26926" lon="2.6231">
        <ele>127.09931182861</ele>
        <time>2013-05-26T07:33:17Z</time>
      </trkpt>
      <trkpt lat="48.26928" lon="2.62299">
        <ele>129.09932327271</ele>
        <time>2013-05-26T07:33:23Z</time>
      </trkpt>
      <trkpt lat="48.26928" lon="2.62297">
        <ele>129.09931945801</ele>
        <time>2013-05-26T07:33:29Z</time>
      </trkpt>
      <trkpt lat="48.26936" lon="2.62274">
        <ele>130.09935379028</ele>
        <time>2013-05-26T07:33:38Z</time>
      </trkpt>
      <trkpt lat="48.26937" lon="2.6226">
        <ele>131.09936141968</ele>
        <time>2013-05-26T07:33:45Z</time>
      </trkpt>
      <trkpt lat="48.26937" lon="2.62242">
        <ele>131.09936523438</ele>
        <time>2013-05-26T07:33:53Z</time>
      </trkpt>
      <trkpt lat="48.26938" lon="2.62214">
        <ele>131.09936904907</ele>
        <time>2013-05-26T07:33:59Z</time>
      </trkpt>
      <trkpt lat="48.26936" lon="2.62204">
        <ele>131.09936904907</ele>
        <time>2013-05-26T07:34:05Z</time>
      </trkpt>
      <trkpt lat="48.2693" lon="2.62171">
        <ele>126.09934997559</ele>
        <time>2013-05-26T07:34:13Z</time>
      </trkpt>
      <trkpt lat="48.26934" lon="2.62152">
        <ele>124.09936904907</ele>
        <time>2013-05-26T07:34:22Z</time>
      </trkpt>
      <trkpt lat="48.26931" lon="2.6214">
        <ele>126.09935379028</ele>
        <time>2013-05-26T07:34:27Z</time>
      </trkpt>
      <trkpt lat="48.26925" lon="2.62109">
        <ele>129.0993347168</ele>
        <time>2013-05-26T07:34:35Z</time>
      </trkpt>
      <trkpt lat="48.26918" lon="2.62083">
        <ele>133.09931564331</ele>
        <time>2013-05-26T07:34:42Z</time>
      </trkpt>
      <trkpt lat="48.2691" lon="2.62071">
        <ele>134.09928894043</ele>
        <time>2013-05-26T07:34:48Z</time>
      </trkpt>
      <trkpt lat="48.26906" lon="2.62059">
        <ele>133.09927368164</ele>
        <time>2013-05-26T07:34:55Z</time>
      </trkpt>
      <trkpt lat="48.26904" lon="2.6205">
        <ele>133.09926986694</ele>
        <time>2013-05-26T07:35:02Z</time>
      </trkpt>
      <trkpt lat="48.26899" lon="2.62043">
        <ele>134.09925079346</ele>
        <time>2013-05-26T07:35:07Z</time>
      </trkpt>
      <trkpt lat="48.26889" lon="2.62038">
        <ele>134.09921646118</ele>
        <time>2013-05-26T07:35:15Z</time>
      </trkpt>
      <trkpt lat="48.26882" lon="2.62036">
        <ele>135.0991897583</ele>
        <time>2013-05-26T07:35:20Z</time>
      </trkpt>
      <trkpt lat="48.26876" lon="2.62034">
        <ele>134.09917449951</ele>
        <time>2013-05-26T07:35:28Z</time>
      </trkpt>
      <trkpt lat="48.26885" lon="2.62034">
        <ele>131.09920501709</ele>
        <time>2013-05-26T07:35:35Z</time>
      </trkpt>
      <trkpt lat="48.26892" lon="2.62032">
        <ele>127.09922409058</ele>
        <time>2013-05-26T07:35:40Z</time>
      </trkpt>
      <trkpt lat="48.26899" lon="2.62025">
        <ele>124.09925842285</ele>
        <time>2013-05-26T07:35:46Z</time>
      </trkpt>
      <trkpt lat="48.26902" lon="2.62019">
        <ele>123.09926605225</ele>
        <time>2013-05-26T07:35:51Z</time>
      </trkpt>
      <trkpt lat="48.26903" lon="2.62012">
        <ele>124.09927368164</ele>
        <time>2013-05-26T07:35:57Z</time>
      </trkpt>
      <trkpt lat="48.26901" lon="2.62008">
        <ele>125.09926223755</ele>
        <time>2013-05-26T07:36:02Z</time>
      </trkpt>
      <trkpt lat="48.26899" lon="2.62006">
        <ele>125.09925842285</ele>
        <time>2013-05-26T07:36:08Z</time>
      </trkpt>
      <trkpt lat="48.26897" lon="2.62002">
        <ele>127.09925460815</ele>
        <time>2013-05-26T07:36:17Z</time>
      </trkpt>
      <trkpt lat="48.26901" lon="2.61996">
        <ele>128.09926605225</ele>
        <time>2013-05-26T07:36:29Z</time>
      </trkpt>
      <trkpt lat="48.26903" lon="2.61993">
        <ele>130.09927368164</ele>
        <time>2013-05-26T07:36:35Z</time>
      </trkpt>
      <trkpt lat="48.26903" lon="2.61979">
        <ele>136.09927368164</ele>
        <time>2013-05-26T07:36:44Z</time>
      </trkpt>
      <trkpt lat="48.26896" lon="2.6195">
        <ele>139.09925079346</ele>
        <time>2013-05-26T07:36:53Z</time>
      </trkpt>
      <trkpt lat="48.26899" lon="2.6193">
        <ele>136.09926605225</ele>
        <time>2013-05-26T07:36:59Z</time>
      </trkpt>
      <trkpt lat="48.26898" lon="2.61912">
        <ele>134.09926605225</ele>
        <time>2013-05-26T07:37:05Z</time>
      </trkpt>
      <trkpt lat="48.26895" lon="2.61899">
        <ele>134.09925460815</ele>
        <time>2013-05-26T07:37:11Z</time>
      </trkpt>
      <trkpt lat="48.26888" lon="2.61887">
        <ele>134.09923553467</ele>
        <time>2013-05-26T07:37:17Z</time>
      </trkpt>
      <trkpt lat="48.26886" lon="2.61867">
        <ele>133.09922790527</ele>
        <time>2013-05-26T07:37:23Z</time>
      </trkpt>
      <trkpt lat="48.26888" lon="2.61846">
        <ele>134.09923553467</ele>
        <time>2013-05-26T07:37:29Z</time>
      </trkpt>
      <trkpt lat="48.26891" lon="2.61826">
        <ele>134.09925079346</ele>
        <time>2013-05-26T07:37:35Z</time>
      </trkpt>
      <trkpt lat="48.26892" lon="2.61816">
        <ele>133.09925842285</ele>
        <time>2013-05-26T07:37:41Z</time>
      </trkpt>
      <trkpt lat="48.26894" lon="2.61756">
        <ele>139.09927368164</ele>
        <time>2013-05-26T07:37:53Z</time>
      </trkpt>
      <trkpt lat="48.26886" lon="2.61731">
        <ele>140.09924697876</ele>
        <time>2013-05-26T07:37:59Z</time>
      </trkpt>
      <trkpt lat="48.26883" lon="2.61708">
        <ele>137.09923934937</ele>
        <time>2013-05-26T07:38:05Z</time>
      </trkpt>
      <trkpt lat="48.26875" lon="2.61664">
        <ele>140.09921646118</ele>
        <time>2013-05-26T07:38:11Z</time>
      </trkpt>
      <trkpt lat="48.26867" lon="2.61608">
        <ele>140.0991897583</ele>
        <time>2013-05-26T07:38:17Z</time>
      </trkpt>
      <trkpt lat="48.26861" lon="2.61564">
        <ele>143.09917449951</ele>
        <time>2013-05-26T07:38:23Z</time>
      </trkpt>
      <trkpt lat="48.26855" lon="2.61527">
        <ele>144.09915924072</ele>
        <time>2013-05-26T07:38:29Z</time>
      </trkpt>
      <trkpt lat="48.26848" lon="2.61488">
        <ele>142.09913635254</ele>
        <time>2013-05-26T07:38:35Z</time>
      </trkpt>
      <trkpt lat="48.26849" lon="2.61408">
        <ele>139.09915542603</ele>
        <time>2013-05-26T07:38:41Z</time>
      </trkpt>
      <trkpt lat="48.2686" lon="2.6134">
        <ele>139.09920120239</ele>
        <time>2013-05-26T07:38:47Z</time>
      </trkpt>
      <trkpt lat="48.26861" lon="2.61313">
        <ele>140.09920883179</ele>
        <time>2013-05-26T07:38:53Z</time>
      </trkpt>
      <trkpt lat="48.26854" lon="2.61306">
        <ele>138.0991859436</ele>
        <time>2013-05-26T07:39:05Z</time>
      </trkpt>
      <trkpt lat="48.26852" lon="2.61315">
        <ele>134.09917831421</ele>
        <time>2013-05-26T07:39:10Z</time>
      </trkpt>
      <trkpt lat="48.2685" lon="2.61321">
        <ele>131.09916305542</ele>
        <time>2013-05-26T07:39:16Z</time>
      </trkpt>
      <trkpt lat="48.26848" lon="2.61323">
        <ele>130.09916687012</ele>
        <time>2013-05-26T07:39:22Z</time>
      </trkpt>
      <trkpt lat="48.26843" lon="2.61329">
        <ele>127.09914016724</ele>
        <time>2013-05-26T07:39:31Z</time>
      </trkpt>
      <trkpt lat="48.2684" lon="2.6134">
        <ele>122.09912490845</ele>
        <time>2013-05-26T07:39:47Z</time>
      </trkpt>
      <trkpt lat="48.26841" lon="2.61358">
        <ele>121.09912872314</ele>
        <time>2013-05-26T07:39:53Z</time>
      </trkpt>
      <trkpt lat="48.26843" lon="2.61373">
        <ele>117.09913253784</ele>
        <time>2013-05-26T07:39:59Z</time>
      </trkpt>
      <trkpt lat="48.26848" lon="2.61388">
        <ele>116.09915161133</ele>
        <time>2013-05-26T07:40:06Z</time>
      </trkpt>
      <trkpt lat="48.26851" lon="2.61395">
        <ele>115.09916305542</ele>
        <time>2013-05-26T07:40:11Z</time>
      </trkpt>
      <trkpt lat="48.26851" lon="2.61396">
        <ele>115.09915924072</ele>
        <time>2013-05-26T07:40:17Z</time>
      </trkpt>
      <trkpt lat="48.26862" lon="2.6141">
        <ele>117.09920120239</ele>
        <time>2013-05-26T07:40:28Z</time>
      </trkpt>
      <trkpt lat="48.2687" lon="2.61422">
        <ele>114.09922409058</ele>
        <time>2013-05-26T07:40:33Z</time>
      </trkpt>
      <trkpt lat="48.26882" lon="2.61435">
        <ele>111.09926986694</ele>
        <time>2013-05-26T07:40:40Z</time>
      </trkpt>
      <trkpt lat="48.26894" lon="2.61461">
        <ele>109.09931564331</ele>
        <time>2013-05-26T07:40:47Z</time>
      </trkpt>
      <trkpt lat="48.26898" lon="2.6148">
        <ele>107.09931945801</ele>
        <time>2013-05-26T07:40:53Z</time>
      </trkpt>
      <trkpt lat="48.26904" lon="2.61505">
        <ele>106.09934234619</ele>
        <time>2013-05-26T07:41:01Z</time>
      </trkpt>
      <trkpt lat="48.2691" lon="2.61525">
        <ele>109.09935760498</ele>
        <time>2013-05-26T07:41:08Z</time>
      </trkpt>
      <trkpt lat="48.26916" lon="2.61542">
        <ele>110.09938049316</ele>
        <time>2013-05-26T07:41:14Z</time>
      </trkpt>
      <trkpt lat="48.26915" lon="2.61548">
        <ele>111.09937286377</ele>
        <time>2013-05-26T07:41:20Z</time>
      </trkpt>
      <trkpt lat="48.26908" lon="2.61555">
        <ele>112.09934997559</ele>
        <time>2013-05-26T07:41:26Z</time>
      </trkpt>
      <trkpt lat="48.26899" lon="2.6156">
        <ele>111.09931945801</ele>
        <time>2013-05-26T07:41:32Z</time>
      </trkpt>
      <trkpt lat="48.26889" lon="2.61565">
        <ele>111.09927749634</ele>
        <time>2013-05-26T07:41:38Z</time>
      </trkpt>
      <trkpt lat="48.26879" lon="2.61572">
        <ele>114.09923934937</ele>
        <time>2013-05-26T07:41:44Z</time>
      </trkpt>
      <trkpt lat="48.26874" lon="2.61586">
        <ele>118.09922027588</ele>
        <time>2013-05-26T07:41:50Z</time>
      </trkpt>
      <trkpt lat="48.26873" lon="2.61599">
        <ele>121.09922027588</ele>
        <time>2013-05-26T07:41:55Z</time>
      </trkpt>
      <trkpt lat="48.26876" lon="2.61619">
        <ele>124.09922409058</ele>
        <time>2013-05-26T07:42:02Z</time>
      </trkpt>
      <trkpt lat="48.2688" lon="2.61637">
        <ele>126.09923553467</ele>
        <time>2013-05-26T07:42:08Z</time>
      </trkpt>
      <trkpt lat="48.26886" lon="2.61653">
        <ele>126.09925842285</ele>
        <time>2013-05-26T07:42:14Z</time>
      </trkpt>
      <trkpt lat="48.2689" lon="2.61667">
        <ele>127.09926605225</ele>
        <time>2013-05-26T07:42:19Z</time>
      </trkpt>
      <trkpt lat="48.26892" lon="2.6168">
        <ele>129.09927368164</ele>
        <time>2013-05-26T07:42:24Z</time>
      </trkpt>
      <trkpt lat="48.26902" lon="2.61699">
        <ele>131.09930801392</ele>
        <time>2013-05-26T07:42:31Z</time>
      </trkpt>
      <trkpt lat="48.26912" lon="2.61716">
        <ele>131.09933853149</ele>
        <time>2013-05-26T07:42:36Z</time>
      </trkpt>
      <trkpt lat="48.26922" lon="2.61741">
        <ele>129.09937667847</ele>
        <time>2013-05-26T07:42:42Z</time>
      </trkpt>
      <trkpt lat="48.26921" lon="2.61761">
        <ele>128.09937286377</ele>
        <time>2013-05-26T07:42:48Z</time>
      </trkpt>
      <trkpt lat="48.26917" lon="2.61778">
        <ele>129.09935379028</ele>
        <time>2013-05-26T07:42:53Z</time>
      </trkpt>
      <trkpt lat="48.26914" lon="2.61789">
        <ele>131.09934234619</ele>
        <time>2013-05-26T07:42:58Z</time>
      </trkpt>
      <trkpt lat="48.26909" lon="2.61801">
        <ele>133.09931945801</ele>
        <time>2013-05-26T07:43:04Z</time>
      </trkpt>
      <trkpt lat="48.26907" lon="2.6181">
        <ele>135.09930801392</ele>
        <time>2013-05-26T07:43:11Z</time>
      </trkpt>
      <trkpt lat="48.26912" lon="2.61814">
        <ele>137.0993270874</ele>
        <time>2013-05-26T07:43:17Z</time>
      </trkpt>
      <trkpt lat="48.26915" lon="2.61814">
        <ele>137.09933853149</ele>
        <time>2013-05-26T07:43:24Z</time>
      </trkpt>
      <trkpt lat="48.26917" lon="2.61815">
        <ele>135.09935379028</ele>
        <time>2013-05-26T07:43:30Z</time>
      </trkpt>
      <trkpt lat="48.26918" lon="2.61818">
        <ele>134.09934997559</ele>
        <time>2013-05-26T07:43:36Z</time>
      </trkpt>
      <trkpt lat="48.26917" lon="2.61828">
        <ele>133.09934616089</ele>
        <time>2013-05-26T07:43:41Z</time>
      </trkpt>
      <trkpt lat="48.26916" lon="2.6185">
        <ele>132.09934234619</ele>
        <time>2013-05-26T07:43:47Z</time>
      </trkpt>
      <trkpt lat="48.26911" lon="2.61869">
        <ele>133.09931564331</ele>
        <time>2013-05-26T07:43:53Z</time>
      </trkpt>
      <trkpt lat="48.26907" lon="2.6188">
        <ele>134.09930419922</ele>
        <time>2013-05-26T07:43:59Z</time>
      </trkpt>
      <trkpt lat="48.26904" lon="2.61884">
        <ele>137.09929275513</ele>
        <time>2013-05-26T07:44:04Z</time>
      </trkpt>
      <trkpt lat="48.26909" lon="2.61893">
        <ele>138.09930419922</ele>
        <time>2013-05-26T07:44:09Z</time>
      </trkpt>
      <trkpt lat="48.26917" lon="2.61897">
        <ele>137.0993347168</ele>
        <time>2013-05-26T07:44:15Z</time>
      </trkpt>
      <trkpt lat="48.26926" lon="2.61895">
        <ele>135.09937286377</ele>
        <time>2013-05-26T07:44:21Z</time>
      </trkpt>
      <trkpt lat="48.26934" lon="2.61891">
        <ele>133.09940338135</ele>
        <time>2013-05-26T07:44:26Z</time>
      </trkpt>
      <trkpt lat="48.26943" lon="2.61885">
        <ele>131.09943008423</ele>
        <time>2013-05-26T07:44:31Z</time>
      </trkpt>
      <trkpt lat="48.26951" lon="2.61881">
        <ele>131.0994644165</ele>
        <time>2013-05-26T07:44:36Z</time>
      </trkpt>
      <trkpt lat="48.26969" lon="2.6187">
        <ele>132.09953308105</ele>
        <time>2013-05-26T07:44:44Z</time>
      </trkpt>
      <trkpt lat="48.26987" lon="2.61862">
        <ele>132.09959793091</ele>
        <time>2013-05-26T07:44:50Z</time>
      </trkpt>
      <trkpt lat="48.27" lon="2.61859">
        <ele>133.09964752197</ele>
        <time>2013-05-26T07:44:55Z</time>
      </trkpt>
      <trkpt lat="48.27012" lon="2.61871">
        <ele>134.09969329834</ele>
        <time>2013-05-26T07:45:01Z</time>
      </trkpt>
      <trkpt lat="48.27023" lon="2.61884">
        <ele>134.09972763062</ele>
        <time>2013-05-26T07:45:07Z</time>
      </trkpt>
      <trkpt lat="48.27029" lon="2.61906">
        <ele>135.0997505188</ele>
        <time>2013-05-26T07:45:13Z</time>
      </trkpt>
      <trkpt lat="48.27028" lon="2.61928">
        <ele>135.09973907471</ele>
        <time>2013-05-26T07:45:19Z</time>
      </trkpt>
      <trkpt lat="48.27032" lon="2.61941">
        <ele>134.0997543335</ele>
        <time>2013-05-26T07:45:24Z</time>
      </trkpt>
      <trkpt lat="48.27042" lon="2.61956">
        <ele>133.09978866577</ele>
        <time>2013-05-26T07:45:30Z</time>
      </trkpt>
      <trkpt lat="48.27044" lon="2.61973">
        <ele>132.09979629517</ele>
        <time>2013-05-26T07:45:35Z</time>
      </trkpt>
      <trkpt lat="48.27042" lon="2.61991">
        <ele>131.09978485107</ele>
        <time>2013-05-26T07:45:41Z</time>
      </trkpt>
      <trkpt lat="48.27039" lon="2.61993">
        <ele>133.09977340698</ele>
        <time>2013-05-26T07:45:47Z</time>
      </trkpt>
      <trkpt lat="48.27026" lon="2.61987">
        <ele>138.09973144531</ele>
        <time>2013-05-26T07:45:53Z</time>
      </trkpt>
      <trkpt lat="48.27017" lon="2.61974">
        <ele>141.09969329834</ele>
        <time>2013-05-26T07:45:58Z</time>
      </trkpt>
      <trkpt lat="48.27005" lon="2.61964">
        <ele>141.09965515137</ele>
        <time>2013-05-26T07:46:04Z</time>
      </trkpt>
      <trkpt lat="48.26995" lon="2.61953">
        <ele>137.09961700439</ele>
        <time>2013-05-26T07:46:10Z</time>
      </trkpt>
      <trkpt lat="48.26981" lon="2.61944">
        <ele>137.09956741333</ele>
        <time>2013-05-26T07:46:15Z</time>
      </trkpt>
      <trkpt lat="48.26968" lon="2.61941">
        <ele>137.09952163696</ele>
        <time>2013-05-26T07:46:20Z</time>
      </trkpt>
      <trkpt lat="48.26957" lon="2.61948">
        <ele>136.0994758606</ele>
        <time>2013-05-26T07:46:26Z</time>
      </trkpt>
      <trkpt lat="48.26952" lon="2.61959">
        <ele>134.09946060181</ele>
        <time>2013-05-26T07:46:32Z</time>
      </trkpt>
      <trkpt lat="48.26938" lon="2.61967">
        <ele>136.09940719604</ele>
        <time>2013-05-26T07:46:40Z</time>
      </trkpt>
      <trkpt lat="48.2694" lon="2.61985">
        <ele>135.09941101074</ele>
        <time>2013-05-26T07:46:48Z</time>
      </trkpt>
      <trkpt lat="48.26945" lon="2.61996">
        <ele>133.09942626953</ele>
        <time>2013-05-26T07:46:53Z</time>
      </trkpt>
      <trkpt lat="48.26951" lon="2.62005">
        <ele>131.09944534302</ele>
        <time>2013-05-26T07:46:58Z</time>
      </trkpt>
      <trkpt lat="48.26954" lon="2.62021">
        <ele>130.09945678711</ele>
        <time>2013-05-26T07:47:04Z</time>
      </trkpt>
      <trkpt lat="48.26959" lon="2.62038">
        <ele>130.0994682312</ele>
        <time>2013-05-26T07:47:10Z</time>
      </trkpt>
      <trkpt lat="48.26957" lon="2.62055">
        <ele>132.0994644165</ele>
        <time>2013-05-26T07:47:16Z</time>
      </trkpt>
      <trkpt lat="48.26956" lon="2.62075">
        <ele>134.09945678711</ele>
        <time>2013-05-26T07:47:22Z</time>
      </trkpt>
      <trkpt lat="48.26956" lon="2.62094">
        <ele>134.09945678711</ele>
        <time>2013-05-26T07:47:27Z</time>
      </trkpt>
      <trkpt lat="48.26964" lon="2.62119">
        <ele>136.09948348999</ele>
        <time>2013-05-26T07:47:33Z</time>
      </trkpt>
      <trkpt lat="48.2697" lon="2.6213">
        <ele>136.09949874878</ele>
        <time>2013-05-26T07:47:38Z</time>
      </trkpt>
      <trkpt lat="48.2698" lon="2.62138">
        <ele>132.09954071045</ele>
        <time>2013-05-26T07:47:47Z</time>
      </trkpt>
      <trkpt lat="48.26987" lon="2.62136">
        <ele>131.09955978394</ele>
        <time>2013-05-26T07:47:52Z</time>
      </trkpt>
      <trkpt lat="48.26991" lon="2.62133">
        <ele>131.09957885742</ele>
        <time>2013-05-26T07:47:58Z</time>
      </trkpt>
      <trkpt lat="48.26995" lon="2.62126">
        <ele>132.09960174561</ele>
        <time>2013-05-26T07:48:05Z</time>
      </trkpt>
      <trkpt lat="48.27001" lon="2.62112">
        <ele>133.09962081909</ele>
        <time>2013-05-26T07:48:11Z</time>
      </trkpt>
      <trkpt lat="48.27008" lon="2.62072">
        <ele>135.09965133667</ele>
        <time>2013-05-26T07:48:20Z</time>
      </trkpt>
      <trkpt lat="48.27002" lon="2.62054">
        <ele>133.09962844849</ele>
        <time>2013-05-26T07:48:25Z</time>
      </trkpt>
      <trkpt lat="48.26998" lon="2.62035">
        <ele>133.09961700439</ele>
        <time>2013-05-26T07:48:31Z</time>
      </trkpt>
      <trkpt lat="48.2699" lon="2.62013">
        <ele>134.09959030151</ele>
        <time>2013-05-26T07:48:39Z</time>
      </trkpt>
      <trkpt lat="48.26988" lon="2.61999">
        <ele>133.09957885742</ele>
        <time>2013-05-26T07:48:44Z</time>
      </trkpt>
      <trkpt lat="48.26991" lon="2.61995">
        <ele>130.09959793091</ele>
        <time>2013-05-26T07:48:50Z</time>
      </trkpt>
      <trkpt lat="48.26996" lon="2.61998">
        <ele>130.09961700439</ele>
        <time>2013-05-26T07:48:55Z</time>
      </trkpt>
      <trkpt lat="48.27006" lon="2.62002">
        <ele>128.09964752197</ele>
        <time>2013-05-26T07:49:01Z</time>
      </trkpt>
      <trkpt lat="48.27014" lon="2.6201">
        <ele>126.09968185425</ele>
        <time>2013-05-26T07:49:06Z</time>
      </trkpt>
      <trkpt lat="48.27018" lon="2.62027">
        <ele>127.09968948364</ele>
        <time>2013-05-26T07:49:12Z</time>
      </trkpt>
      <trkpt lat="48.2702" lon="2.62043">
        <ele>127.09970092773</ele>
        <time>2013-05-26T07:49:17Z</time>
      </trkpt>
      <trkpt lat="48.27026" lon="2.62062">
        <ele>127.09971618652</ele>
        <time>2013-05-26T07:49:23Z</time>
      </trkpt>
      <trkpt lat="48.27033" lon="2.62072">
        <ele>127.09973907471</ele>
        <time>2013-05-26T07:49:28Z</time>
      </trkpt>
      <trkpt lat="48.27046" lon="2.62074">
        <ele>127.09978866577</ele>
        <time>2013-05-26T07:49:34Z</time>
      </trkpt>
      <trkpt lat="48.27058" lon="2.62068">
        <ele>128.09983444214</ele>
        <time>2013-05-26T07:49:40Z</time>
      </trkpt>
      <trkpt lat="48.27067" lon="2.62064">
        <ele>129.09986877441</ele>
        <time>2013-05-26T07:49:45Z</time>
      </trkpt>
      <trkpt lat="48.27078" lon="2.62065">
        <ele>128.09990692139</ele>
        <time>2013-05-26T07:49:50Z</time>
      </trkpt>
      <trkpt lat="48.27089" lon="2.62071">
        <ele>128.09994888306</ele>
        <time>2013-05-26T07:49:56Z</time>
      </trkpt>
      <trkpt lat="48.27101" lon="2.62081">
        <ele>129.09999084473</ele>
        <time>2013-05-26T07:50:01Z</time>
      </trkpt>
      <trkpt lat="48.27107" lon="2.62095">
        <ele>129.10001373291</ele>
        <time>2013-05-26T07:50:07Z</time>
      </trkpt>
      <trkpt lat="48.27107" lon="2.62117">
        <ele>131.10000991821</ele>
        <time>2013-05-26T07:50:13Z</time>
      </trkpt>
      <trkpt lat="48.27108" lon="2.62144">
        <ele>133.10000991821</ele>
        <time>2013-05-26T07:50:19Z</time>
      </trkpt>
      <trkpt lat="48.2711" lon="2.62169">
        <ele>134.10001373291</ele>
        <time>2013-05-26T07:50:26Z</time>
      </trkpt>
      <trkpt lat="48.27108" lon="2.62193">
        <ele>137.10000228882</ele>
        <time>2013-05-26T07:50:31Z</time>
      </trkpt>
      <trkpt lat="48.27102" lon="2.62212">
        <ele>139.09997558594</ele>
        <time>2013-05-26T07:50:38Z</time>
      </trkpt>
      <trkpt lat="48.27093" lon="2.6223">
        <ele>141.09993743896</ele>
        <time>2013-05-26T07:50:44Z</time>
      </trkpt>
      <trkpt lat="48.27084" lon="2.62242">
        <ele>142.09990692139</ele>
        <time>2013-05-26T07:50:50Z</time>
      </trkpt>
      <trkpt lat="48.27076" lon="2.62253">
        <ele>141.09987258911</ele>
        <time>2013-05-26T07:50:55Z</time>
      </trkpt>
      <trkpt lat="48.27067" lon="2.62263">
        <ele>141.09984588623</ele>
        <time>2013-05-26T07:51:01Z</time>
      </trkpt>
      <trkpt lat="48.27063" lon="2.62275">
        <ele>140.09982681274</ele>
        <time>2013-05-26T07:51:06Z</time>
      </trkpt>
      <trkpt lat="48.27055" lon="2.62285">
        <ele>139.09979248047</ele>
        <time>2013-05-26T07:51:11Z</time>
      </trkpt>
      <trkpt lat="48.27047" lon="2.62305">
        <ele>141.09976196289</ele>
        <time>2013-05-26T07:51:18Z</time>
      </trkpt>
      <trkpt lat="48.27041" lon="2.62316">
        <ele>141.09973907471</ele>
        <time>2013-05-26T07:51:23Z</time>
      </trkpt>
      <trkpt lat="48.27032" lon="2.62313">
        <ele>138.09970474243</ele>
        <time>2013-05-26T07:51:31Z</time>
      </trkpt>
      <trkpt lat="48.2703" lon="2.623">
        <ele>136.09970092773</ele>
        <time>2013-05-26T07:51:37Z</time>
      </trkpt>
      <trkpt lat="48.27035" lon="2.62285">
        <ele>136.09972000122</ele>
        <time>2013-05-26T07:51:42Z</time>
      </trkpt>
      <trkpt lat="48.27041" lon="2.62261">
        <ele>138.0997467041</ele>
        <time>2013-05-26T07:51:51Z</time>
      </trkpt>
      <trkpt lat="48.27042" lon="2.62247">
        <ele>139.0997543335</ele>
        <time>2013-05-26T07:51:56Z</time>
      </trkpt>
      <trkpt lat="48.27037" lon="2.62229">
        <ele>140.09973907471</ele>
        <time>2013-05-26T07:52:01Z</time>
      </trkpt>
      <trkpt lat="48.27028" lon="2.6221">
        <ele>138.09970092773</ele>
        <time>2013-05-26T07:52:07Z</time>
      </trkpt>
      <trkpt lat="48.27025" lon="2.62199">
        <ele>137.09969711304</ele>
        <time>2013-05-26T07:52:13Z</time>
      </trkpt>
      <trkpt lat="48.27027" lon="2.62188">
        <ele>133.09970474243</ele>
        <time>2013-05-26T07:52:18Z</time>
      </trkpt>
      <trkpt lat="48.27032" lon="2.62181">
        <ele>129.09972381592</ele>
        <time>2013-05-26T07:52:23Z</time>
      </trkpt>
      <trkpt lat="48.27041" lon="2.62187">
        <ele>130.0997543335</ele>
        <time>2013-05-26T07:52:29Z</time>
      </trkpt>
      <trkpt lat="48.27052" lon="2.62194">
        <ele>128.09979629517</ele>
        <time>2013-05-26T07:52:35Z</time>
      </trkpt>
      <trkpt lat="48.27064" lon="2.62193">
        <ele>126.09984207153</ele>
        <time>2013-05-26T07:52:42Z</time>
      </trkpt>
      <trkpt lat="48.27071" lon="2.62185">
        <ele>127.09986495972</ele>
        <time>2013-05-26T07:52:47Z</time>
      </trkpt>
      <trkpt lat="48.27071" lon="2.62168">
        <ele>130.09986495972</ele>
        <time>2013-05-26T07:52:54Z</time>
      </trkpt>
      <trkpt lat="48.27063" lon="2.62155">
        <ele>130.09984207153</ele>
        <time>2013-05-26T07:52:59Z</time>
      </trkpt>
      <trkpt lat="48.27047" lon="2.62138">
        <ele>133.09978485107</ele>
        <time>2013-05-26T07:53:08Z</time>
      </trkpt>
      <trkpt lat="48.2704" lon="2.6213">
        <ele>134.09975814819</ele>
        <time>2013-05-26T07:53:13Z</time>
      </trkpt>
      <trkpt lat="48.27028" lon="2.62133">
        <ele>133.09971618652</ele>
        <time>2013-05-26T07:53:19Z</time>
      </trkpt>
      <trkpt lat="48.27018" lon="2.62139">
        <ele>134.09967803955</ele>
        <time>2013-05-26T07:53:25Z</time>
      </trkpt>
      <trkpt lat="48.27009" lon="2.62147">
        <ele>137.09965133667</ele>
        <time>2013-05-26T07:53:31Z</time>
      </trkpt>
      <trkpt lat="48.27004" lon="2.62158">
        <ele>137.09962081909</ele>
        <time>2013-05-26T07:53:37Z</time>
      </trkpt>
      <trkpt lat="48.26996" lon="2.62177">
        <ele>137.09958648682</ele>
        <time>2013-05-26T07:53:42Z</time>
      </trkpt>
      <trkpt lat="48.26987" lon="2.62191">
        <ele>140.09955596924</ele>
        <time>2013-05-26T07:53:48Z</time>
      </trkpt>
      <trkpt lat="48.26986" lon="2.62202">
        <ele>139.09954833984</ele>
        <time>2013-05-26T07:53:54Z</time>
      </trkpt>
      <trkpt lat="48.26991" lon="2.62218">
        <ele>141.09956359863</ele>
        <time>2013-05-26T07:54:00Z</time>
      </trkpt>
      <trkpt lat="48.26994" lon="2.62243">
        <ele>141.09957122803</ele>
        <time>2013-05-26T07:54:07Z</time>
      </trkpt>
      <trkpt lat="48.26998" lon="2.62271">
        <ele>141.09958648682</ele>
        <time>2013-05-26T07:54:14Z</time>
      </trkpt>
      <trkpt lat="48.27001" lon="2.62293">
        <ele>140.09959030151</ele>
        <time>2013-05-26T07:54:20Z</time>
      </trkpt>
      <trkpt lat="48.26996" lon="2.62319">
        <ele>137.09957122803</ele>
        <time>2013-05-26T07:54:27Z</time>
      </trkpt>
      <trkpt lat="48.26989" lon="2.62333">
        <ele>137.09954452515</ele>
        <time>2013-05-26T07:54:32Z</time>
      </trkpt>
      <trkpt lat="48.26987" lon="2.62355">
        <ele>139.09953308105</ele>
        <time>2013-05-26T07:54:38Z</time>
      </trkpt>
      <trkpt lat="48.26987" lon="2.62374">
        <ele>139.09952926636</ele>
        <time>2013-05-26T07:54:45Z</time>
      </trkpt>
      <trkpt lat="48.26983" lon="2.62397">
        <ele>141.09951400757</ele>
        <time>2013-05-26T07:54:50Z</time>
      </trkpt>
      <trkpt lat="48.26969" lon="2.62417">
        <ele>140.09946060181</ele>
        <time>2013-05-26T07:54:57Z</time>
      </trkpt>
      <trkpt lat="48.2697" lon="2.62435">
        <ele>140.09945678711</ele>
        <time>2013-05-26T07:55:03Z</time>
      </trkpt>
      <trkpt lat="48.26979" lon="2.62446">
        <ele>139.09949493408</ele>
        <time>2013-05-26T07:55:08Z</time>
      </trkpt>
      <trkpt lat="48.26993" lon="2.62463">
        <ele>138.09954452515</ele>
        <time>2013-05-26T07:55:17Z</time>
      </trkpt>
      <trkpt lat="48.27011" lon="2.62491">
        <ele>136.09960174561</ele>
        <time>2013-05-26T07:55:26Z</time>
      </trkpt>
      <trkpt lat="48.27013" lon="2.62505">
        <ele>134.099609375</ele>
        <time>2013-05-26T07:55:32Z</time>
      </trkpt>
      <trkpt lat="48.27011" lon="2.62521">
        <ele>135.09960174561</ele>
        <time>2013-05-26T07:55:37Z</time>
      </trkpt>
      <trkpt lat="48.27013" lon="2.62536">
        <ele>138.0996055603</ele>
        <time>2013-05-26T07:55:43Z</time>
      </trkpt>
      <trkpt lat="48.27022" lon="2.6255">
        <ele>136.09963607788</ele>
        <time>2013-05-26T07:55:49Z</time>
      </trkpt>
      <trkpt lat="48.27035" lon="2.62549">
        <ele>135.09967803955</ele>
        <time>2013-05-26T07:55:54Z</time>
      </trkpt>
      <trkpt lat="48.27048" lon="2.62544">
        <ele>134.09973526001</ele>
        <time>2013-05-26T07:56:00Z</time>
      </trkpt>
      <trkpt lat="48.27049" lon="2.62532">
        <ele>132.0997428894</ele>
        <time>2013-05-26T07:56:07Z</time>
      </trkpt>
      <trkpt lat="48.27041" lon="2.62526">
        <ele>133.09970855713</ele>
        <time>2013-05-26T07:56:13Z</time>
      </trkpt>
      <trkpt lat="48.27045" lon="2.62518">
        <ele>137.09972763062</ele>
        <time>2013-05-26T07:56:20Z</time>
      </trkpt>
      <trkpt lat="48.27052" lon="2.62511">
        <ele>139.0997505188</ele>
        <time>2013-05-26T07:56:27Z</time>
      </trkpt>
      <trkpt lat="48.27054" lon="2.62509">
        <ele>138.09976196289</ele>
        <time>2013-05-26T07:56:32Z</time>
      </trkpt>
      <trkpt lat="48.27049" lon="2.625">
        <ele>137.0997428894</ele>
        <time>2013-05-26T07:56:40Z</time>
      </trkpt>
      <trkpt lat="48.27048" lon="2.62486">
        <ele>136.09973526001</ele>
        <time>2013-05-26T07:56:46Z</time>
      </trkpt>
      <trkpt lat="48.27041" lon="2.62467">
        <ele>135.09971618652</ele>
        <time>2013-05-26T07:56:51Z</time>
      </trkpt>
      <trkpt lat="48.27036" lon="2.62453">
        <ele>135.09970092773</ele>
        <time>2013-05-26T07:56:56Z</time>
      </trkpt>
      <trkpt lat="48.27026" lon="2.62434">
        <ele>137.09966659546</ele>
        <time>2013-05-26T07:57:04Z</time>
      </trkpt>
      <trkpt lat="48.27024" lon="2.62414">
        <ele>138.09965896606</ele>
        <time>2013-05-26T07:57:10Z</time>
      </trkpt>
      <trkpt lat="48.27024" lon="2.62401">
        <ele>136.09967041016</ele>
        <time>2013-05-26T07:57:15Z</time>
      </trkpt>
      <trkpt lat="48.27024" lon="2.62399">
        <ele>135.09966659546</ele>
        <time>2013-05-26T07:57:21Z</time>
      </trkpt>
      <trkpt lat="48.27021" lon="2.62396">
        <ele>134.09965133667</ele>
        <time>2013-05-26T07:57:26Z</time>
      </trkpt>
      <trkpt lat="48.27019" lon="2.62395">
        <ele>131.09964370728</ele>
        <time>2013-05-26T07:57:33Z</time>
      </trkpt>
      <trkpt lat="48.27018" lon="2.62394">
        <ele>130.09964370728</ele>
        <time>2013-05-26T07:57:38Z</time>
      </trkpt>
      <trkpt lat="48.27017" lon="2.62391">
        <ele>126.09963989258</ele>
        <time>2013-05-26T07:57:44Z</time>
      </trkpt>
      <trkpt lat="48.27017" lon="2.62391">
        <ele>126.09963989258</ele>
        <time>2013-05-26T07:57:49Z</time>
      </trkpt>
      <trkpt lat="48.27019" lon="2.62389">
        <ele>126.09964752197</ele>
        <time>2013-05-26T07:57:55Z</time>
      </trkpt>
      <trkpt lat="48.2703" lon="2.62387">
        <ele>124.09968948364</ele>
        <time>2013-05-26T07:58:04Z</time>
      </trkpt>
      <trkpt lat="48.27035" lon="2.6238">
        <ele>125.09970474243</ele>
        <time>2013-05-26T07:58:09Z</time>
      </trkpt>
      <trkpt lat="48.27043" lon="2.62381">
        <ele>127.09973144531</ele>
        <time>2013-05-26T07:58:15Z</time>
      </trkpt>
      <trkpt lat="48.27048" lon="2.62386">
        <ele>129.0997543335</ele>
        <time>2013-05-26T07:58:20Z</time>
      </trkpt>
      <trkpt lat="48.27054" lon="2.62393">
        <ele>131.09977722168</ele>
        <time>2013-05-26T07:58:26Z</time>
      </trkpt>
      <trkpt lat="48.27058" lon="2.62401">
        <ele>132.09979248047</ele>
        <time>2013-05-26T07:58:32Z</time>
      </trkpt>
      <trkpt lat="48.27064" lon="2.62414">
        <ele>134.09980773926</ele>
        <time>2013-05-26T07:58:38Z</time>
      </trkpt>
      <trkpt lat="48.27068" lon="2.62428">
        <ele>134.09982299805</ele>
        <time>2013-05-26T07:58:44Z</time>
      </trkpt>
      <trkpt lat="48.27066" lon="2.62444">
        <ele>134.09981536865</ele>
        <time>2013-05-26T07:58:50Z</time>
      </trkpt>
      <trkpt lat="48.27064" lon="2.62457">
        <ele>136.09980392456</ele>
        <time>2013-05-26T07:58:55Z</time>
      </trkpt>
      <trkpt lat="48.2706" lon="2.62471">
        <ele>134.09978866577</ele>
        <time>2013-05-26T07:59:01Z</time>
      </trkpt>
      <trkpt lat="48.27057" lon="2.62484">
        <ele>133.09977722168</ele>
        <time>2013-05-26T07:59:07Z</time>
      </trkpt>
      <trkpt lat="48.27057" lon="2.62495">
        <ele>131.09977340698</ele>
        <time>2013-05-26T07:59:13Z</time>
      </trkpt>
      <trkpt lat="48.27065" lon="2.62502">
        <ele>130.09980010986</ele>
        <time>2013-05-26T07:59:20Z</time>
      </trkpt>
      <trkpt lat="48.27074" lon="2.62514">
        <ele>129.09983444214</ele>
        <time>2013-05-26T07:59:26Z</time>
      </trkpt>
      <trkpt lat="48.2707" lon="2.62532">
        <ele>131.09981536865</ele>
        <time>2013-05-26T07:59:32Z</time>
      </trkpt>
      <trkpt lat="48.27064" lon="2.62549">
        <ele>134.09978866577</ele>
        <time>2013-05-26T07:59:38Z</time>
      </trkpt>
      <trkpt lat="48.27058" lon="2.62561">
        <ele>135.09977340698</ele>
        <time>2013-05-26T07:59:43Z</time>
      </trkpt>
      <trkpt lat="48.27049" lon="2.62573">
        <ele>137.09973526001</ele>
        <time>2013-05-26T07:59:49Z</time>
      </trkpt>
      <trkpt lat="48.27041" lon="2.62578">
        <ele>138.09970474243</ele>
        <time>2013-05-26T07:59:55Z</time>
      </trkpt>
      <trkpt lat="48.27031" lon="2.62585">
        <ele>140.09965896606</ele>
        <time>2013-05-26T08:00:01Z</time>
      </trkpt>
      <trkpt lat="48.27014" lon="2.62593">
        <ele>143.0996055603</ele>
        <time>2013-05-26T08:00:10Z</time>
      </trkpt>
      <trkpt lat="48.27007" lon="2.62609">
        <ele>144.09957122803</ele>
        <time>2013-05-26T08:00:17Z</time>
      </trkpt>
      <trkpt lat="48.26999" lon="2.62631">
        <ele>143.09953689575</ele>
        <time>2013-05-26T08:00:24Z</time>
      </trkpt>
      <trkpt lat="48.27007" lon="2.6264">
        <ele>140.09957122803</ele>
        <time>2013-05-26T08:00:30Z</time>
      </trkpt>
      <trkpt lat="48.27017" lon="2.62653">
        <ele>133.0996055603</ele>
        <time>2013-05-26T08:00:36Z</time>
      </trkpt>
      <trkpt lat="48.27029" lon="2.62658">
        <ele>130.09964752197</ele>
        <time>2013-05-26T08:00:41Z</time>
      </trkpt>
      <trkpt lat="48.2704" lon="2.62664">
        <ele>129.09968566895</ele>
        <time>2013-05-26T08:00:46Z</time>
      </trkpt>
      <trkpt lat="48.27056" lon="2.62662">
        <ele>128.0997428894</ele>
        <time>2013-05-26T08:00:55Z</time>
      </trkpt>
      <trkpt lat="48.27066" lon="2.62655">
        <ele>127.09978485107</ele>
        <time>2013-05-26T08:01:00Z</time>
      </trkpt>
      <trkpt lat="48.27076" lon="2.62653">
        <ele>126.09981918335</ele>
        <time>2013-05-26T08:01:05Z</time>
      </trkpt>
      <trkpt lat="48.27087" lon="2.62655">
        <ele>126.09986114502</ele>
        <time>2013-05-26T08:01:11Z</time>
      </trkpt>
      <trkpt lat="48.27101" lon="2.62657">
        <ele>127.09991073608</ele>
        <time>2013-05-26T08:01:17Z</time>
      </trkpt>
      <trkpt lat="48.27112" lon="2.62657">
        <ele>128.09995269775</ele>
        <time>2013-05-26T08:01:22Z</time>
      </trkpt>
      <trkpt lat="48.27125" lon="2.62639">
        <ele>129.10000228882</ele>
        <time>2013-05-26T08:01:28Z</time>
      </trkpt>
      <trkpt lat="48.27133" lon="2.62616">
        <ele>130.10003662109</ele>
        <time>2013-05-26T08:01:34Z</time>
      </trkpt>
      <trkpt lat="48.27135" lon="2.62592">
        <ele>131.10005187988</ele>
        <time>2013-05-26T08:01:40Z</time>
      </trkpt>
      <trkpt lat="48.27138" lon="2.62552">
        <ele>131.10006713867</ele>
        <time>2013-05-26T08:01:49Z</time>
      </trkpt>
      <trkpt lat="48.27141" lon="2.62528">
        <ele>130.10007858276</ele>
        <time>2013-05-26T08:01:54Z</time>
      </trkpt>
      <trkpt lat="48.2714" lon="2.62501">
        <ele>130.10007858276</ele>
        <time>2013-05-26T08:02:01Z</time>
      </trkpt>
      <trkpt lat="48.27132" lon="2.62463">
        <ele>130.10005569458</ele>
        <time>2013-05-26T08:02:08Z</time>
      </trkpt>
      <trkpt lat="48.27123" lon="2.62433">
        <ele>126.1000213623</ele>
        <time>2013-05-26T08:02:14Z</time>
      </trkpt>
      <trkpt lat="48.27117" lon="2.62399">
        <ele>125.10001373291</ele>
        <time>2013-05-26T08:02:21Z</time>
      </trkpt>
      <trkpt lat="48.27117" lon="2.62366">
        <ele>129.10000991821</ele>
        <time>2013-05-26T08:02:27Z</time>
      </trkpt>
      <trkpt lat="48.27114" lon="2.62347">
        <ele>129.10000610352</ele>
        <time>2013-05-26T08:02:32Z</time>
      </trkpt>
      <trkpt lat="48.27122" lon="2.62319">
        <ele>126.10004043579</ele>
        <time>2013-05-26T08:02:38Z</time>
      </trkpt>
      <trkpt lat="48.2713" lon="2.62313">
        <ele>119.10006332397</ele>
        <time>2013-05-26T08:02:43Z</time>
      </trkpt>
      <trkpt lat="48.27141" lon="2.6232">
        <ele>116.10010910034</ele>
        <time>2013-05-26T08:02:49Z</time>
      </trkpt>
      <trkpt lat="48.27157" lon="2.62344">
        <ele>113.1001625061</ele>
        <time>2013-05-26T08:02:54Z</time>
      </trkpt>
      <trkpt lat="48.27161" lon="2.62365">
        <ele>109.1001663208</ele>
        <time>2013-05-26T08:02:59Z</time>
      </trkpt>
      <trkpt lat="48.27164" lon="2.62399">
        <ele>108.10017776489</ele>
        <time>2013-05-26T08:03:05Z</time>
      </trkpt>
      <trkpt lat="48.27164" lon="2.62427">
        <ele>107.10017776489</ele>
        <time>2013-05-26T08:03:11Z</time>
      </trkpt>
      <trkpt lat="48.27166" lon="2.62456">
        <ele>108.10018157959</ele>
        <time>2013-05-26T08:03:17Z</time>
      </trkpt>
      <trkpt lat="48.27167" lon="2.62458">
        <ele>109.10018157959</ele>
        <time>2013-05-26T08:03:23Z</time>
      </trkpt>
      <trkpt lat="48.27166" lon="2.62468">
        <ele>109.10018157959</ele>
        <time>2013-05-26T08:03:37Z</time>
      </trkpt>
      <trkpt lat="48.27168" lon="2.62481">
        <ele>109.10018157959</ele>
        <time>2013-05-26T08:03:42Z</time>
      </trkpt>
      <trkpt lat="48.27177" lon="2.62514">
        <ele>110.10021591187</ele>
        <time>2013-05-26T08:03:48Z</time>
      </trkpt>
      <trkpt lat="48.27174" lon="2.62544">
        <ele>114.10019683838</ele>
        <time>2013-05-26T08:03:55Z</time>
      </trkpt>
      <trkpt lat="48.27171" lon="2.62557">
        <ele>116.10018539429</ele>
        <time>2013-05-26T08:04:01Z</time>
      </trkpt>
      <trkpt lat="48.27176" lon="2.62578">
        <ele>118.10019683838</ele>
        <time>2013-05-26T08:04:06Z</time>
      </trkpt>
      <trkpt lat="48.2718" lon="2.62602">
        <ele>117.10020828247</ele>
        <time>2013-05-26T08:04:11Z</time>
      </trkpt>
      <trkpt lat="48.27184" lon="2.6266">
        <ele>118.10021972656</ele>
        <time>2013-05-26T08:04:23Z</time>
      </trkpt>
      <trkpt lat="48.2718" lon="2.62693">
        <ele>117.10019683838</ele>
        <time>2013-05-26T08:04:29Z</time>
      </trkpt>
      <trkpt lat="48.27174" lon="2.62717">
        <ele>116.1001701355</ele>
        <time>2013-05-26T08:04:34Z</time>
      </trkpt>
      <trkpt lat="48.27166" lon="2.62737">
        <ele>115.10014343262</ele>
        <time>2013-05-26T08:04:40Z</time>
      </trkpt>
      <trkpt lat="48.27152" lon="2.62752">
        <ele>116.10008621216</ele>
        <time>2013-05-26T08:04:50Z</time>
      </trkpt>
      <trkpt lat="48.27141" lon="2.62764">
        <ele>122.10004425049</ele>
        <time>2013-05-26T08:04:56Z</time>
      </trkpt>
      <trkpt lat="48.27125" lon="2.62772">
        <ele>124.09998703003</ele>
        <time>2013-05-26T08:05:03Z</time>
      </trkpt>
      <trkpt lat="48.27113" lon="2.62777">
        <ele>124.09993743896</ele>
        <time>2013-05-26T08:05:10Z</time>
      </trkpt>
      <trkpt lat="48.27102" lon="2.62775">
        <ele>124.09989929199</ele>
        <time>2013-05-26T08:05:15Z</time>
      </trkpt>
      <trkpt lat="48.27093" lon="2.62772">
        <ele>126.09986877441</ele>
        <time>2013-05-26T08:05:20Z</time>
      </trkpt>
      <trkpt lat="48.27084" lon="2.6277">
        <ele>127.09983444214</ele>
        <time>2013-05-26T08:05:26Z</time>
      </trkpt>
      <trkpt lat="48.27076" lon="2.62767">
        <ele>128.09980392456</ele>
        <time>2013-05-26T08:05:34Z</time>
      </trkpt>
      <trkpt lat="48.27071" lon="2.62763">
        <ele>128.09978866577</ele>
        <time>2013-05-26T08:05:40Z</time>
      </trkpt>
      <trkpt lat="48.27061" lon="2.62756">
        <ele>121.0997505188</ele>
        <time>2013-05-26T08:05:50Z</time>
      </trkpt>
      <trkpt lat="48.27062" lon="2.62756">
        <ele>115.0997543335</ele>
        <time>2013-05-26T08:05:58Z</time>
      </trkpt>
      <trkpt lat="48.27062" lon="2.62757">
        <ele>112.0997543335</ele>
        <time>2013-05-26T08:06:04Z</time>
      </trkpt>
      <trkpt lat="48.27062" lon="2.62756">
        <ele>108.0997543335</ele>
        <time>2013-05-26T08:06:10Z</time>
      </trkpt>
      <trkpt lat="48.27062" lon="2.62754">
        <ele>106.09975814819</ele>
        <time>2013-05-26T08:06:16Z</time>
      </trkpt>
      <trkpt lat="48.27063" lon="2.6275">
        <ele>106.09976196289</ele>
        <time>2013-05-26T08:06:22Z</time>
      </trkpt>
      <trkpt lat="48.27064" lon="2.62748">
        <ele>104.09976577759</ele>
        <time>2013-05-26T08:06:28Z</time>
      </trkpt>
      <trkpt lat="48.27065" lon="2.6275">
        <ele>103.09977340698</ele>
        <time>2013-05-26T08:06:35Z</time>
      </trkpt>
      <trkpt lat="48.27066" lon="2.62753">
        <ele>104.09977340698</ele>
        <time>2013-05-26T08:06:41Z</time>
      </trkpt>
      <trkpt lat="48.27066" lon="2.62753">
        <ele>105.09977340698</ele>
        <time>2013-05-26T08:06:47Z</time>
      </trkpt>
      <trkpt lat="48.27065" lon="2.6275">
        <ele>107.09976577759</ele>
        <time>2013-05-26T08:06:52Z</time>
      </trkpt>
      <trkpt lat="48.27064" lon="2.62745">
        <ele>110.09976196289</ele>
        <time>2013-05-26T08:06:58Z</time>
      </trkpt>
      <trkpt lat="48.2707" lon="2.62742">
        <ele>112.09978866577</ele>
        <time>2013-05-26T08:07:03Z</time>
      </trkpt>
      <trkpt lat="48.27078" lon="2.62743">
        <ele>114.09981918335</ele>
        <time>2013-05-26T08:07:08Z</time>
      </trkpt>
      <trkpt lat="48.27086" lon="2.62743">
        <ele>116.09984588623</ele>
        <time>2013-05-26T08:07:13Z</time>
      </trkpt>
      <trkpt lat="48.27094" lon="2.62742">
        <ele>118.09988021851</ele>
        <time>2013-05-26T08:07:19Z</time>
      </trkpt>
      <trkpt lat="48.27103" lon="2.62741">
        <ele>119.09991073608</ele>
        <time>2013-05-26T08:07:25Z</time>
      </trkpt>
      <trkpt lat="48.27111" lon="2.62736">
        <ele>120.09994506836</ele>
        <time>2013-05-26T08:07:30Z</time>
      </trkpt>
      <trkpt lat="48.27118" lon="2.62733">
        <ele>122.09996414185</ele>
        <time>2013-05-26T08:07:35Z</time>
      </trkpt>
      <trkpt lat="48.27126" lon="2.62727">
        <ele>125.09999465942</ele>
        <time>2013-05-26T08:07:41Z</time>
      </trkpt>
      <trkpt lat="48.27131" lon="2.62714">
        <ele>125.10001754761</ele>
        <time>2013-05-26T08:07:47Z</time>
      </trkpt>
      <trkpt lat="48.27131" lon="2.627">
        <ele>125.10001754761</ele>
        <time>2013-05-26T08:07:55Z</time>
      </trkpt>
      <trkpt lat="48.27128" lon="2.62696">
        <ele>124.10000610352</ele>
        <time>2013-05-26T08:08:00Z</time>
      </trkpt>
      <trkpt lat="48.27119" lon="2.627">
        <ele>125.09997940063</ele>
        <time>2013-05-26T08:08:05Z</time>
      </trkpt>
      <trkpt lat="48.27111" lon="2.62705">
        <ele>126.09994506836</ele>
        <time>2013-05-26T08:08:11Z</time>
      </trkpt>
      <trkpt lat="48.27097" lon="2.62703">
        <ele>130.0998916626</ele>
        <time>2013-05-26T08:08:19Z</time>
      </trkpt>
      <trkpt lat="48.27088" lon="2.62704">
        <ele>133.09986114502</ele>
        <time>2013-05-26T08:08:25Z</time>
      </trkpt>
      <trkpt lat="48.27075" lon="2.62703">
        <ele>135.09981155396</ele>
        <time>2013-05-26T08:08:31Z</time>
      </trkpt>
      <trkpt lat="48.27062" lon="2.62701">
        <ele>136.09976196289</ele>
        <time>2013-05-26T08:08:36Z</time>
      </trkpt>
      <trkpt lat="48.2705" lon="2.62698">
        <ele>138.09972381592</ele>
        <time>2013-05-26T08:08:41Z</time>
      </trkpt>
      <trkpt lat="48.27023" lon="2.62701">
        <ele>138.0996131897</ele>
        <time>2013-05-26T08:08:49Z</time>
      </trkpt>
      <trkpt lat="48.2701" lon="2.62706">
        <ele>138.09956741333</ele>
        <time>2013-05-26T08:08:54Z</time>
      </trkpt>
      <trkpt lat="48.27002" lon="2.62703">
        <ele>134.09954071045</ele>
        <time>2013-05-26T08:09:01Z</time>
      </trkpt>
      <trkpt lat="48.26994" lon="2.62689">
        <ele>132.09951400757</ele>
        <time>2013-05-26T08:09:07Z</time>
      </trkpt>
      <trkpt lat="48.26985" lon="2.62667">
        <ele>133.09948348999</ele>
        <time>2013-05-26T08:09:14Z</time>
      </trkpt>
      <trkpt lat="48.26978" lon="2.62646">
        <ele>131.09946060181</ele>
        <time>2013-05-26T08:09:21Z</time>
      </trkpt>
      <trkpt lat="48.26973" lon="2.62628">
        <ele>128.09944534302</ele>
        <time>2013-05-26T08:09:27Z</time>
      </trkpt>
      <trkpt lat="48.26972" lon="2.62613">
        <ele>126.09944152832</ele>
        <time>2013-05-26T08:09:32Z</time>
      </trkpt>
      <trkpt lat="48.26968" lon="2.626">
        <ele>126.09943389893</ele>
        <time>2013-05-26T08:09:38Z</time>
      </trkpt>
      <trkpt lat="48.26959" lon="2.62589">
        <ele>126.09939956665</ele>
        <time>2013-05-26T08:09:44Z</time>
      </trkpt>
      <trkpt lat="48.26961" lon="2.6257">
        <ele>127.09941101074</ele>
        <time>2013-05-26T08:09:52Z</time>
      </trkpt>
      <trkpt lat="48.26967" lon="2.62547">
        <ele>129.09943008423</ele>
        <time>2013-05-26T08:09:57Z</time>
      </trkpt>
      <trkpt lat="48.26969" lon="2.62527">
        <ele>129.09944152832</ele>
        <time>2013-05-26T08:10:02Z</time>
      </trkpt>
      <trkpt lat="48.26972" lon="2.62508">
        <ele>127.09946060181</ele>
        <time>2013-05-26T08:10:08Z</time>
      </trkpt>
      <trkpt lat="48.26964" lon="2.62492">
        <ele>128.09943008423</ele>
        <time>2013-05-26T08:10:14Z</time>
      </trkpt>
      <trkpt lat="48.26954" lon="2.62466">
        <ele>128.09939956665</ele>
        <time>2013-05-26T08:10:20Z</time>
      </trkpt>
      <trkpt lat="48.26934" lon="2.62457">
        <ele>128.09931945801</ele>
        <time>2013-05-26T08:10:27Z</time>
      </trkpt>
      <trkpt lat="48.26916" lon="2.62456">
        <ele>128.09925842285</ele>
        <time>2013-05-26T08:10:32Z</time>
      </trkpt>
      <trkpt lat="48.26912" lon="2.62458">
        <ele>128.09924316406</ele>
        <time>2013-05-26T08:10:40Z</time>
      </trkpt>
      <trkpt lat="48.26912" lon="2.62456">
        <ele>127.09924697876</ele>
        <time>2013-05-26T08:10:47Z</time>
      </trkpt>
      <trkpt lat="48.26911" lon="2.62453">
        <ele>128.09924316406</ele>
        <time>2013-05-26T08:10:53Z</time>
      </trkpt>
      <trkpt lat="48.26911" lon="2.62447">
        <ele>127.09924316406</ele>
        <time>2013-05-26T08:10:58Z</time>
      </trkpt>
      <trkpt lat="48.26911" lon="2.62444">
        <ele>126.09924316406</ele>
        <time>2013-05-26T08:11:04Z</time>
      </trkpt>
      <trkpt lat="48.26912" lon="2.62443">
        <ele>125.09924316406</ele>
        <time>2013-05-26T08:11:10Z</time>
      </trkpt>
      <trkpt lat="48.26903" lon="2.62447">
        <ele>126.09921264648</ele>
        <time>2013-05-26T08:11:16Z</time>
      </trkpt>
      <trkpt lat="48.26895" lon="2.62459">
        <ele>128.09918212891</ele>
        <time>2013-05-26T08:11:23Z</time>
      </trkpt>
      <trkpt lat="48.26901" lon="2.62474">
        <ele>127.09920501709</ele>
        <time>2013-05-26T08:11:30Z</time>
      </trkpt>
      <trkpt lat="48.26911" lon="2.62478">
        <ele>125.09923553467</ele>
        <time>2013-05-26T08:11:36Z</time>
      </trkpt>
      <trkpt lat="48.26915" lon="2.62483">
        <ele>124.09925460815</ele>
        <time>2013-05-26T08:11:41Z</time>
      </trkpt>
      <trkpt lat="48.26912" lon="2.62495">
        <ele>126.09923171997</ele>
        <time>2013-05-26T08:11:46Z</time>
      </trkpt>
      <trkpt lat="48.26907" lon="2.62515">
        <ele>128.09922027588</ele>
        <time>2013-05-26T08:11:53Z</time>
      </trkpt>
      <trkpt lat="48.26912" lon="2.62522">
        <ele>128.09923553467</ele>
        <time>2013-05-26T08:11:58Z</time>
      </trkpt>
      <trkpt lat="48.26912" lon="2.62536">
        <ele>127.09923171997</ele>
        <time>2013-05-26T08:12:04Z</time>
      </trkpt>
      <trkpt lat="48.26915" lon="2.62548">
        <ele>126.09923934937</ele>
        <time>2013-05-26T08:12:09Z</time>
      </trkpt>
      <trkpt lat="48.26921" lon="2.62569">
        <ele>126.09925842285</ele>
        <time>2013-05-26T08:12:16Z</time>
      </trkpt>
      <trkpt lat="48.26927" lon="2.62595">
        <ele>126.09927749634</ele>
        <time>2013-05-26T08:12:22Z</time>
      </trkpt>
      <trkpt lat="48.2693" lon="2.6261">
        <ele>124.09929275513</ele>
        <time>2013-05-26T08:12:28Z</time>
      </trkpt>
      <trkpt lat="48.26938" lon="2.62627">
        <ele>121.09931945801</ele>
        <time>2013-05-26T08:12:35Z</time>
      </trkpt>
      <trkpt lat="48.26942" lon="2.62641">
        <ele>121.0993309021</ele>
        <time>2013-05-26T08:12:40Z</time>
      </trkpt>
      <trkpt lat="48.26947" lon="2.62658">
        <ele>122.09934616089</ele>
        <time>2013-05-26T08:12:46Z</time>
      </trkpt>
      <trkpt lat="48.26949" lon="2.62671">
        <ele>117.09934997559</ele>
        <time>2013-05-26T08:12:52Z</time>
      </trkpt>
      <trkpt lat="48.26949" lon="2.62678">
        <ele>116.09934997559</ele>
        <time>2013-05-26T08:12:58Z</time>
      </trkpt>
      <trkpt lat="48.2695" lon="2.6268">
        <ele>115.09935379028</ele>
        <time>2013-05-26T08:13:04Z</time>
      </trkpt>
      <trkpt lat="48.26954" lon="2.62693">
        <ele>112.09936523438</ele>
        <time>2013-05-26T08:13:10Z</time>
      </trkpt>
      <trkpt lat="48.26966" lon="2.62713">
        <ele>112.09941101074</ele>
        <time>2013-05-26T08:13:16Z</time>
      </trkpt>
      <trkpt lat="48.26979" lon="2.62733">
        <ele>113.09945297241</ele>
        <time>2013-05-26T08:13:22Z</time>
      </trkpt>
      <trkpt lat="48.26992" lon="2.62751">
        <ele>114.09950637817</ele>
        <time>2013-05-26T08:13:28Z</time>
      </trkpt>
      <trkpt lat="48.27009" lon="2.62763">
        <ele>115.09955978394</ele>
        <time>2013-05-26T08:13:34Z</time>
      </trkpt>
      <trkpt lat="48.27025" lon="2.62777">
        <ele>117.09961700439</ele>
        <time>2013-05-26T08:13:40Z</time>
      </trkpt>
      <trkpt lat="48.27047" lon="2.62795">
        <ele>116.09969329834</ele>
        <time>2013-05-26T08:13:47Z</time>
      </trkpt>
      <trkpt lat="48.27065" lon="2.628">
        <ele>116.09975814819</ele>
        <time>2013-05-26T08:13:53Z</time>
      </trkpt>
      <trkpt lat="48.27076" lon="2.62792">
        <ele>114.09980010986</ele>
        <time>2013-05-26T08:13:59Z</time>
      </trkpt>
      <trkpt lat="48.27094" lon="2.62792">
        <ele>113.09986495972</ele>
        <time>2013-05-26T08:14:05Z</time>
      </trkpt>
      <trkpt lat="48.27098" lon="2.62808">
        <ele>112.0998840332</ele>
        <time>2013-05-26T08:14:10Z</time>
      </trkpt>
      <trkpt lat="48.27092" lon="2.62816">
        <ele>113.09985733032</ele>
        <time>2013-05-26T08:14:16Z</time>
      </trkpt>
      <trkpt lat="48.2709" lon="2.62814">
        <ele>113.09984970093</ele>
        <time>2013-05-26T08:14:22Z</time>
      </trkpt>
      <trkpt lat="48.27089" lon="2.62813">
        <ele>113.09984970093</ele>
        <time>2013-05-26T08:14:28Z</time>
      </trkpt>
      <trkpt lat="48.27089" lon="2.62813">
        <ele>114.09984588623</ele>
        <time>2013-05-26T08:14:33Z</time>
      </trkpt>
      <trkpt lat="48.27089" lon="2.62813">
        <ele>114.09984970093</ele>
        <time>2013-05-26T08:14:38Z</time>
      </trkpt>
      <trkpt lat="48.27088" lon="2.62813">
        <ele>114.09984588623</ele>
        <time>2013-05-26T08:14:44Z</time>
      </trkpt>
      <trkpt lat="48.27088" lon="2.62816">
        <ele>112.09984207153</ele>
        <time>2013-05-26T08:14:52Z</time>
      </trkpt>
      <trkpt lat="48.27089" lon="2.62817">
        <ele>112.09984588623</ele>
        <time>2013-05-26T08:14:58Z</time>
      </trkpt>
      <trkpt lat="48.27089" lon="2.62818">
        <ele>110.09984588623</ele>
        <time>2013-05-26T08:15:04Z</time>
      </trkpt>
      <trkpt lat="48.27089" lon="2.62819">
        <ele>109.09984588623</ele>
        <time>2013-05-26T08:15:11Z</time>
      </trkpt>
      <trkpt lat="48.27089" lon="2.6282">
        <ele>110.09984588623</ele>
        <time>2013-05-26T08:15:19Z</time>
      </trkpt>
      <trkpt lat="48.27089" lon="2.62821">
        <ele>109.09984588623</ele>
        <time>2013-05-26T08:15:25Z</time>
      </trkpt>
      <trkpt lat="48.27089" lon="2.62823">
        <ele>105.09984588623</ele>
        <time>2013-05-26T08:15:35Z</time>
      </trkpt>
      <trkpt lat="48.27088" lon="2.62824">
        <ele>108.09984207153</ele>
        <time>2013-05-26T08:15:41Z</time>
      </trkpt>
      <trkpt lat="48.27088" lon="2.62827">
        <ele>106.09984588623</ele>
        <time>2013-05-26T08:15:52Z</time>
      </trkpt>
      <trkpt lat="48.27087" lon="2.62829">
        <ele>102.09984207153</ele>
        <time>2013-05-26T08:15:58Z</time>
      </trkpt>
      <trkpt lat="48.27085" lon="2.6283">
        <ele>104.09983062744</ele>
        <time>2013-05-26T08:16:04Z</time>
      </trkpt>
      <trkpt lat="48.27085" lon="2.6283">
        <ele>103.09983062744</ele>
        <time>2013-05-26T08:16:10Z</time>
      </trkpt>
      <trkpt lat="48.27085" lon="2.62827">
        <ele>107.09983444214</ele>
        <time>2013-05-26T08:16:19Z</time>
      </trkpt>
      <trkpt lat="48.27085" lon="2.62825">
        <ele>114.09983444214</ele>
        <time>2013-05-26T08:16:24Z</time>
      </trkpt>
      <trkpt lat="48.27087" lon="2.62823">
        <ele>117.09983444214</ele>
        <time>2013-05-26T08:16:30Z</time>
      </trkpt>
      <trkpt lat="48.27087" lon="2.6282">
        <ele>118.09984207153</ele>
        <time>2013-05-26T08:16:37Z</time>
      </trkpt>
      <trkpt lat="48.27089" lon="2.62817">
        <ele>112.09984970093</ele>
        <time>2013-05-26T08:16:46Z</time>
      </trkpt>
      <trkpt lat="48.27092" lon="2.62818">
        <ele>104.09985733032</ele>
        <time>2013-05-26T08:16:55Z</time>
      </trkpt>
      <trkpt lat="48.27093" lon="2.62822">
        <ele>97.09986114502</ele>
        <time>2013-05-26T08:17:05Z</time>
      </trkpt>
      <trkpt lat="48.27093" lon="2.62824">
        <ele>97.09986114502</ele>
        <time>2013-05-26T08:17:11Z</time>
      </trkpt>
      <trkpt lat="48.27092" lon="2.62823">
        <ele>97.099857330322</ele>
        <time>2013-05-26T08:17:16Z</time>
      </trkpt>
      <trkpt lat="48.27093" lon="2.62822">
        <ele>99.09986114502</ele>
        <time>2013-05-26T08:17:22Z</time>
      </trkpt>
      <trkpt lat="48.27093" lon="2.62823">
        <ele>101.09986114502</ele>
        <time>2013-05-26T08:17:29Z</time>
      </trkpt>
      <trkpt lat="48.27093" lon="2.62823">
        <ele>100.09986114502</ele>
        <time>2013-05-26T08:17:35Z</time>
      </trkpt>
      <trkpt lat="48.27092" lon="2.62822">
        <ele>100.09985733032</ele>
        <time>2013-05-26T08:17:40Z</time>
      </trkpt>
      <trkpt lat="48.27092" lon="2.62822">
        <ele>101.09985733032</ele>
        <time>2013-05-26T08:17:45Z</time>
      </trkpt>
      <trkpt lat="48.27093" lon="2.62821">
        <ele>101.09986114502</ele>
        <time>2013-05-26T08:17:50Z</time>
      </trkpt>
      <trkpt lat="48.27094" lon="2.62818">
        <ele>101.09986495972</ele>
        <time>2013-05-26T08:17:56Z</time>
      </trkpt>
      <trkpt lat="48.27094" lon="2.62816">
        <ele>104.09986495972</ele>
        <time>2013-05-26T08:18:03Z</time>
      </trkpt>
      <trkpt lat="48.27096" lon="2.62816">
        <ele>100.09987258911</ele>
        <time>2013-05-26T08:18:10Z</time>
      </trkpt>
      <trkpt lat="48.27097" lon="2.62816">
        <ele>96.099876403809</ele>
        <time>2013-05-26T08:18:16Z</time>
      </trkpt>
      <trkpt lat="48.27097" lon="2.62816">
        <ele>95.099876403809</ele>
        <time>2013-05-26T08:18:22Z</time>
      </trkpt>
      <trkpt lat="48.27097" lon="2.62816">
        <ele>94.099880218506</ele>
        <time>2013-05-26T08:18:28Z</time>
      </trkpt>
      <trkpt lat="48.27097" lon="2.62819">
        <ele>93.099880218506</ele>
        <time>2013-05-26T08:18:34Z</time>
      </trkpt>
      <trkpt lat="48.27097" lon="2.62821">
        <ele>92.099876403809</ele>
        <time>2013-05-26T08:18:40Z</time>
      </trkpt>
      <trkpt lat="48.27097" lon="2.62823">
        <ele>89.099872589111</ele>
        <time>2013-05-26T08:18:45Z</time>
      </trkpt>
      <trkpt lat="48.27098" lon="2.62824">
        <ele>85.099880218506</ele>
        <time>2013-05-26T08:18:50Z</time>
      </trkpt>
      <trkpt lat="48.27099" lon="2.62822">
        <ele>88.099884033203</ele>
        <time>2013-05-26T08:18:57Z</time>
      </trkpt>
      <trkpt lat="48.27099" lon="2.62821">
        <ele>87.099884033203</ele>
        <time>2013-05-26T08:19:03Z</time>
      </trkpt>
      <trkpt lat="48.27099" lon="2.6282">
        <ele>87.099884033203</ele>
        <time>2013-05-26T08:19:08Z</time>
      </trkpt>
      <trkpt lat="48.271" lon="2.6282">
        <ele>86.0998878479</ele>
        <time>2013-05-26T08:19:13Z</time>
      </trkpt>
      <trkpt lat="48.271" lon="2.6282">
        <ele>85.099891662598</ele>
        <time>2013-05-26T08:19:18Z</time>
      </trkpt>
      <trkpt lat="48.271" lon="2.6282">
        <ele>85.0998878479</ele>
        <time>2013-05-26T08:19:24Z</time>
      </trkpt>
      <trkpt lat="48.27101" lon="2.6282">
        <ele>84.099891662598</ele>
        <time>2013-05-26T08:19:36Z</time>
      </trkpt>
      <trkpt lat="48.27101" lon="2.6282">
        <ele>80.099891662598</ele>
        <time>2013-05-26T08:19:41Z</time>
      </trkpt>
      <trkpt lat="48.27101" lon="2.62818">
        <ele>78.099895477295</ele>
        <time>2013-05-26T08:19:47Z</time>
      </trkpt>
      <trkpt lat="48.27102" lon="2.62817">
        <ele>77.099895477295</ele>
        <time>2013-05-26T08:19:52Z</time>
      </trkpt>
      <trkpt lat="48.27102" lon="2.62816">
        <ele>75.099895477295</ele>
        <time>2013-05-26T08:19:57Z</time>
      </trkpt>
      <trkpt lat="48.27102" lon="2.62816">
        <ele>72.099895477295</ele>
        <time>2013-05-26T08:20:06Z</time>
      </trkpt>
      <trkpt lat="48.271" lon="2.62817">
        <ele>74.0998878479</ele>
        <time>2013-05-26T08:20:14Z</time>
      </trkpt>
      <trkpt lat="48.27098" lon="2.62817">
        <ele>72.099880218506</ele>
        <time>2013-05-26T08:20:21Z</time>
      </trkpt>
      <trkpt lat="48.27094" lon="2.62818">
        <ele>75.099864959717</ele>
        <time>2013-05-26T08:20:27Z</time>
      </trkpt>
      <trkpt lat="48.27093" lon="2.62819">
        <ele>76.09986114502</ele>
        <time>2013-05-26T08:20:32Z</time>
      </trkpt>
      <trkpt lat="48.27094" lon="2.62821">
        <ele>80.099864959717</ele>
        <time>2013-05-26T08:20:40Z</time>
      </trkpt>
      <trkpt lat="48.27096" lon="2.62823">
        <ele>82.099868774414</ele>
        <time>2013-05-26T08:20:46Z</time>
      </trkpt>
      <trkpt lat="48.27098" lon="2.62824">
        <ele>85.099880218506</ele>
        <time>2013-05-26T08:20:53Z</time>
      </trkpt>
      <trkpt lat="48.27099" lon="2.62826">
        <ele>89.0998878479</ele>
        <time>2013-05-26T08:20:59Z</time>
      </trkpt>
      <trkpt lat="48.27099" lon="2.62827">
        <ele>90.0998878479</ele>
        <time>2013-05-26T08:21:04Z</time>
      </trkpt>
      <trkpt lat="48.27097" lon="2.62831">
        <ele>92.099876403809</ele>
        <time>2013-05-26T08:21:13Z</time>
      </trkpt>
      <trkpt lat="48.27099" lon="2.62833">
        <ele>96.099880218506</ele>
        <time>2013-05-26T08:21:19Z</time>
      </trkpt>
      <trkpt lat="48.27099" lon="2.62832">
        <ele>97.099884033203</ele>
        <time>2013-05-26T08:21:25Z</time>
      </trkpt>
      <trkpt lat="48.271" lon="2.62829">
        <ele>98.0998878479</ele>
        <time>2013-05-26T08:21:37Z</time>
      </trkpt>
      <trkpt lat="48.271" lon="2.62826">
        <ele>102.0998916626</ele>
        <time>2013-05-26T08:21:42Z</time>
      </trkpt>
      <trkpt lat="48.27102" lon="2.62826">
        <ele>102.0998916626</ele>
        <time>2013-05-26T08:21:47Z</time>
      </trkpt>
      <trkpt lat="48.27103" lon="2.62827">
        <ele>102.09989929199</ele>
        <time>2013-05-26T08:21:53Z</time>
      </trkpt>
      <trkpt lat="48.27092" lon="2.62825">
        <ele>105.09985733032</ele>
        <time>2013-05-26T08:22:00Z</time>
      </trkpt>
      <trkpt lat="48.27075" lon="2.62829">
        <ele>108.09979248047</ele>
        <time>2013-05-26T08:22:05Z</time>
      </trkpt>
      <trkpt lat="48.27055" lon="2.62837">
        <ele>112.09971618652</ele>
        <time>2013-05-26T08:22:11Z</time>
      </trkpt>
      <trkpt lat="48.27038" lon="2.62836">
        <ele>115.09965515137</ele>
        <time>2013-05-26T08:22:16Z</time>
      </trkpt>
      <trkpt lat="48.27019" lon="2.62825">
        <ele>118.09958648682</ele>
        <time>2013-05-26T08:22:22Z</time>
      </trkpt>
      <trkpt lat="48.27002" lon="2.62806">
        <ele>118.09952926636</ele>
        <time>2013-05-26T08:22:28Z</time>
      </trkpt>
      <trkpt lat="48.26989" lon="2.62786">
        <ele>117.09948348999</ele>
        <time>2013-05-26T08:22:34Z</time>
      </trkpt>
      <trkpt lat="48.26982" lon="2.62766">
        <ele>116.09946060181</ele>
        <time>2013-05-26T08:22:40Z</time>
      </trkpt>
      <trkpt lat="48.26976" lon="2.62745">
        <ele>117.09944534302</ele>
        <time>2013-05-26T08:22:47Z</time>
      </trkpt>
      <trkpt lat="48.26959" lon="2.62706">
        <ele>119.09938049316</ele>
        <time>2013-05-26T08:22:58Z</time>
      </trkpt>
      <trkpt lat="48.26944" lon="2.62687">
        <ele>118.0993347168</ele>
        <time>2013-05-26T08:23:04Z</time>
      </trkpt>
      <trkpt lat="48.2693" lon="2.62666">
        <ele>116.09928512573</ele>
        <time>2013-05-26T08:23:11Z</time>
      </trkpt>
      <trkpt lat="48.2692" lon="2.62648">
        <ele>115.09924697876</ele>
        <time>2013-05-26T08:23:17Z</time>
      </trkpt>
      <trkpt lat="48.26913" lon="2.62628">
        <ele>115.09922027588</ele>
        <time>2013-05-26T08:23:23Z</time>
      </trkpt>
      <trkpt lat="48.26907" lon="2.62611">
        <ele>117.09920501709</ele>
        <time>2013-05-26T08:23:28Z</time>
      </trkpt>
      <trkpt lat="48.269" lon="2.62591">
        <ele>118.09918212891</ele>
        <time>2013-05-26T08:23:34Z</time>
      </trkpt>
      <trkpt lat="48.26895" lon="2.62571">
        <ele>118.09916687012</ele>
        <time>2013-05-26T08:23:40Z</time>
      </trkpt>
      <trkpt lat="48.26892" lon="2.62555">
        <ele>118.09915542603</ele>
        <time>2013-05-26T08:23:46Z</time>
      </trkpt>
      <trkpt lat="48.26887" lon="2.62535">
        <ele>118.09914016724</ele>
        <time>2013-05-26T08:23:51Z</time>
      </trkpt>
      <trkpt lat="48.26883" lon="2.62519">
        <ele>118.09912872314</ele>
        <time>2013-05-26T08:23:57Z</time>
      </trkpt>
      <trkpt lat="48.26879" lon="2.62498">
        <ele>119.09911346436</ele>
        <time>2013-05-26T08:24:02Z</time>
      </trkpt>
      <trkpt lat="48.26872" lon="2.62477">
        <ele>118.09909439087</ele>
        <time>2013-05-26T08:24:08Z</time>
      </trkpt>
      <trkpt lat="48.26862" lon="2.62459">
        <ele>120.09906387329</ele>
        <time>2013-05-26T08:24:14Z</time>
      </trkpt>
      <trkpt lat="48.26841" lon="2.62461">
        <ele>122.09898376465</ele>
        <time>2013-05-26T08:24:21Z</time>
      </trkpt>
      <trkpt lat="48.26825" lon="2.62471">
        <ele>122.09892272949</ele>
        <time>2013-05-26T08:24:26Z</time>
      </trkpt>
      <trkpt lat="48.2682" lon="2.62489">
        <ele>121.09889984131</ele>
        <time>2013-05-26T08:24:33Z</time>
      </trkpt>
      <trkpt lat="48.26817" lon="2.62504">
        <ele>120.09888458252</ele>
        <time>2013-05-26T08:24:38Z</time>
      </trkpt>
      <trkpt lat="48.26815" lon="2.62508">
        <ele>121.09888458252</ele>
        <time>2013-05-26T08:24:44Z</time>
      </trkpt>
      <trkpt lat="48.26814" lon="2.62514">
        <ele>120.09887695312</ele>
        <time>2013-05-26T08:24:53Z</time>
      </trkpt>
      <trkpt lat="48.26815" lon="2.62527">
        <ele>118.09887313843</ele>
        <time>2013-05-26T08:24:59Z</time>
      </trkpt>
      <trkpt lat="48.26819" lon="2.62543">
        <ele>116.09888839722</ele>
        <time>2013-05-26T08:25:05Z</time>
      </trkpt>
      <trkpt lat="48.26821" lon="2.62559">
        <ele>115.09889984131</ele>
        <time>2013-05-26T08:25:10Z</time>
      </trkpt>
      <trkpt lat="48.26819" lon="2.62574">
        <ele>116.09888458252</ele>
        <time>2013-05-26T08:25:16Z</time>
      </trkpt>
      <trkpt lat="48.26819" lon="2.6259">
        <ele>116.09888839722</ele>
        <time>2013-05-26T08:25:21Z</time>
      </trkpt>
      <trkpt lat="48.26823" lon="2.62604">
        <ele>115.09889602661</ele>
        <time>2013-05-26T08:25:27Z</time>
      </trkpt>
      <trkpt lat="48.26826" lon="2.62626">
        <ele>115.09890365601</ele>
        <time>2013-05-26T08:25:32Z</time>
      </trkpt>
      <trkpt lat="48.26812" lon="2.62649">
        <ele>117.09885025024</ele>
        <time>2013-05-26T08:25:38Z</time>
      </trkpt>
      <trkpt lat="48.26789" lon="2.6267">
        <ele>122.09875488281</ele>
        <time>2013-05-26T08:25:45Z</time>
      </trkpt>
      <trkpt lat="48.26781" lon="2.62671">
        <ele>126.09872817993</ele>
        <time>2013-05-26T08:25:50Z</time>
      </trkpt>
      <trkpt lat="48.26782" lon="2.62694">
        <ele>129.09872817993</ele>
        <time>2013-05-26T08:25:56Z</time>
      </trkpt>
      <trkpt lat="48.26786" lon="2.62711">
        <ele>129.09874343872</ele>
        <time>2013-05-26T08:26:01Z</time>
      </trkpt>
      <trkpt lat="48.26793" lon="2.62726">
        <ele>126.0987701416</ele>
        <time>2013-05-26T08:26:07Z</time>
      </trkpt>
      <trkpt lat="48.26803" lon="2.62722">
        <ele>123.09880828857</ele>
        <time>2013-05-26T08:26:13Z</time>
      </trkpt>
      <trkpt lat="48.26815" lon="2.6272">
        <ele>124.09885406494</ele>
        <time>2013-05-26T08:26:18Z</time>
      </trkpt>
      <trkpt lat="48.26832" lon="2.62715">
        <ele>125.0989151001</ele>
        <time>2013-05-26T08:26:23Z</time>
      </trkpt>
      <trkpt lat="48.26847" lon="2.62703">
        <ele>128.09896850586</ele>
        <time>2013-05-26T08:26:29Z</time>
      </trkpt>
      <trkpt lat="48.26848" lon="2.62701">
        <ele>128.09897613525</ele>
        <time>2013-05-26T08:26:35Z</time>
      </trkpt>
      <trkpt lat="48.26859" lon="2.62693">
        <ele>128.09901428223</ele>
        <time>2013-05-26T08:26:41Z</time>
      </trkpt>
      <trkpt lat="48.26867" lon="2.62691">
        <ele>127.0990486145</ele>
        <time>2013-05-26T08:26:47Z</time>
      </trkpt>
      <trkpt lat="48.26878" lon="2.6269">
        <ele>125.09909057617</ele>
        <time>2013-05-26T08:26:53Z</time>
      </trkpt>
      <trkpt lat="48.26898" lon="2.62703">
        <ele>124.09915924072</ele>
        <time>2013-05-26T08:26:59Z</time>
      </trkpt>
      <trkpt lat="48.2691" lon="2.62719">
        <ele>121.09920501709</ele>
        <time>2013-05-26T08:27:06Z</time>
      </trkpt>
      <trkpt lat="48.26928" lon="2.62732">
        <ele>116.09926223755</ele>
        <time>2013-05-26T08:27:11Z</time>
      </trkpt>
      <trkpt lat="48.26943" lon="2.62754">
        <ele>115.09931182861</ele>
        <time>2013-05-26T08:27:16Z</time>
      </trkpt>
      <trkpt lat="48.26977" lon="2.62805">
        <ele>116.09943771362</ele>
        <time>2013-05-26T08:27:25Z</time>
      </trkpt>
      <trkpt lat="48.27007" lon="2.62856">
        <ele>115.09954071045</ele>
        <time>2013-05-26T08:27:32Z</time>
      </trkpt>
      <trkpt lat="48.27044" lon="2.62886">
        <ele>113.09967422485</ele>
        <time>2013-05-26T08:27:39Z</time>
      </trkpt>
      <trkpt lat="48.27075" lon="2.62903">
        <ele>111.09978103638</ele>
        <time>2013-05-26T08:27:44Z</time>
      </trkpt>
      <trkpt lat="48.27113" lon="2.62931">
        <ele>109.09991836548</ele>
        <time>2013-05-26T08:27:50Z</time>
      </trkpt>
      <trkpt lat="48.27148" lon="2.62959">
        <ele>108.10004425049</ele>
        <time>2013-05-26T08:27:56Z</time>
      </trkpt>
      <trkpt lat="48.27195" lon="2.63003">
        <ele>99.100215911865</ele>
        <time>2013-05-26T08:28:04Z</time>
      </trkpt>
      <trkpt lat="48.27232" lon="2.6303">
        <ele>93.100345611572</ele>
        <time>2013-05-26T08:28:10Z</time>
      </trkpt>
      <trkpt lat="48.27261" lon="2.63045">
        <ele>92.100448608398</ele>
        <time>2013-05-26T08:28:15Z</time>
      </trkpt>
      <trkpt lat="48.2729" lon="2.63057">
        <ele>92.100555419922</ele>
        <time>2013-05-26T08:28:20Z</time>
      </trkpt>
      <trkpt lat="48.27319" lon="2.63073">
        <ele>92.100662231445</ele>
        <time>2013-05-26T08:28:25Z</time>
      </trkpt>
      <trkpt lat="48.27351" lon="2.631">
        <ele>92.100772857666</ele>
        <time>2013-05-26T08:28:32Z</time>
      </trkpt>
      <trkpt lat="48.27391" lon="2.63146">
        <ele>92.100914001465</ele>
        <time>2013-05-26T08:28:39Z</time>
      </trkpt>
      <trkpt lat="48.27416" lon="2.63175">
        <ele>92.101005554199</ele>
        <time>2013-05-26T08:28:45Z</time>
      </trkpt>
      <trkpt lat="48.27408" lon="2.63222">
        <ele>91.100967407227</ele>
        <time>2013-05-26T08:28:52Z</time>
      </trkpt>
      <trkpt lat="48.27402" lon="2.6326">
        <ele>89.100940704346</ele>
        <time>2013-05-26T08:28:57Z</time>
      </trkpt>
      <trkpt lat="48.27401" lon="2.63298">
        <ele>88.100929260254</ele>
        <time>2013-05-26T08:29:03Z</time>
      </trkpt>
      <trkpt lat="48.27399" lon="2.63337">
        <ele>88.100914001465</ele>
        <time>2013-05-26T08:29:08Z</time>
      </trkpt>
      <trkpt lat="48.27396" lon="2.63367">
        <ele>88.100898742676</ele>
        <time>2013-05-26T08:29:13Z</time>
      </trkpt>
      <trkpt lat="48.2739" lon="2.63397">
        <ele>90.100879669189</ele>
        <time>2013-05-26T08:29:19Z</time>
      </trkpt>
      <trkpt lat="48.27379" lon="2.63411">
        <ele>91.100833892822</ele>
        <time>2013-05-26T08:29:25Z</time>
      </trkpt>
      <trkpt lat="48.27363" lon="2.634">
        <ele>90.100776672363</ele>
        <time>2013-05-26T08:29:31Z</time>
      </trkpt>
      <trkpt lat="48.27346" lon="2.63389">
        <ele>90.100715637207</ele>
        <time>2013-05-26T08:29:38Z</time>
      </trkpt>
      <trkpt lat="48.27329" lon="2.63384">
        <ele>92.100654602051</ele>
        <time>2013-05-26T08:29:43Z</time>
      </trkpt>
      <trkpt lat="48.27301" lon="2.63377">
        <ele>95.100555419922</ele>
        <time>2013-05-26T08:29:50Z</time>
      </trkpt>
      <trkpt lat="48.27277" lon="2.63363">
        <ele>99.100467681885</ele>
        <time>2013-05-26T08:29:58Z</time>
      </trkpt>
      <trkpt lat="48.27255" lon="2.63357">
        <ele>103.10038375854</ele>
        <time>2013-05-26T08:30:04Z</time>
      </trkpt>
      <trkpt lat="48.2724" lon="2.63354">
        <ele>105.10033416748</ele>
        <time>2013-05-26T08:30:10Z</time>
      </trkpt>
      <trkpt lat="48.27226" lon="2.63347">
        <ele>105.10028076172</ele>
        <time>2013-05-26T08:30:17Z</time>
      </trkpt>
      <trkpt lat="48.27202" lon="2.63338">
        <ele>104.10019302368</ele>
        <time>2013-05-26T08:30:24Z</time>
      </trkpt>
      <trkpt lat="48.27184" lon="2.63338">
        <ele>106.10012817383</ele>
        <time>2013-05-26T08:30:30Z</time>
      </trkpt>
      <trkpt lat="48.27172" lon="2.6335">
        <ele>107.10008239746</ele>
        <time>2013-05-26T08:30:35Z</time>
      </trkpt>
      <trkpt lat="48.2716" lon="2.63382">
        <ele>105.1000328064</ele>
        <time>2013-05-26T08:30:42Z</time>
      </trkpt>
      <trkpt lat="48.27146" lon="2.63395">
        <ele>103.09997940063</ele>
        <time>2013-05-26T08:30:47Z</time>
      </trkpt>
      <trkpt lat="48.27131" lon="2.63403">
        <ele>102.09991836548</ele>
        <time>2013-05-26T08:30:53Z</time>
      </trkpt>
      <trkpt lat="48.27113" lon="2.63408">
        <ele>103.09985733032</ele>
        <time>2013-05-26T08:30:58Z</time>
      </trkpt>
      <trkpt lat="48.27094" lon="2.63412">
        <ele>106.09978866577</ele>
        <time>2013-05-26T08:31:04Z</time>
      </trkpt>
      <trkpt lat="48.27082" lon="2.63422">
        <ele>108.0997428894</ele>
        <time>2013-05-26T08:31:10Z</time>
      </trkpt>
      <trkpt lat="48.27072" lon="2.63447">
        <ele>111.09970474243</ele>
        <time>2013-05-26T08:31:16Z</time>
      </trkpt>
      <trkpt lat="48.27068" lon="2.63479">
        <ele>112.09967803955</ele>
        <time>2013-05-26T08:31:23Z</time>
      </trkpt>
      <trkpt lat="48.27065" lon="2.63516">
        <ele>112.09967041016</ele>
        <time>2013-05-26T08:31:29Z</time>
      </trkpt>
      <trkpt lat="48.27062" lon="2.63549">
        <ele>111.09964370728</ele>
        <time>2013-05-26T08:31:35Z</time>
      </trkpt>
      <trkpt lat="48.27063" lon="2.63582">
        <ele>109.09965133667</ele>
        <time>2013-05-26T08:31:40Z</time>
      </trkpt>
      <trkpt lat="48.27066" lon="2.63613">
        <ele>107.09965896606</ele>
        <time>2013-05-26T08:31:46Z</time>
      </trkpt>
      <trkpt lat="48.27061" lon="2.63652">
        <ele>105.09963226318</ele>
        <time>2013-05-26T08:31:52Z</time>
      </trkpt>
      <trkpt lat="48.2706" lon="2.6369">
        <ele>106.09962081909</ele>
        <time>2013-05-26T08:31:58Z</time>
      </trkpt>
      <trkpt lat="48.27055" lon="2.63719">
        <ele>107.0996055603</ele>
        <time>2013-05-26T08:32:03Z</time>
      </trkpt>
      <trkpt lat="48.27055" lon="2.63761">
        <ele>107.09959030151</ele>
        <time>2013-05-26T08:32:09Z</time>
      </trkpt>
      <trkpt lat="48.27056" lon="2.63809">
        <ele>105.09959030151</ele>
        <time>2013-05-26T08:32:17Z</time>
      </trkpt>
      <trkpt lat="48.27054" lon="2.63858">
        <ele>105.09957122803</ele>
        <time>2013-05-26T08:32:22Z</time>
      </trkpt>
      <trkpt lat="48.27046" lon="2.63915">
        <ele>104.09953689575</ele>
        <time>2013-05-26T08:32:28Z</time>
      </trkpt>
      <trkpt lat="48.27037" lon="2.63966">
        <ele>103.09949874878</ele>
        <time>2013-05-26T08:32:34Z</time>
      </trkpt>
      <trkpt lat="48.27034" lon="2.64013">
        <ele>103.09947967529</ele>
        <time>2013-05-26T08:32:40Z</time>
      </trkpt>
      <trkpt lat="48.27028" lon="2.64066">
        <ele>104.09945297241</ele>
        <time>2013-05-26T08:32:47Z</time>
      </trkpt>
      <trkpt lat="48.27017" lon="2.64111">
        <ele>106.09940719604</ele>
        <time>2013-05-26T08:32:54Z</time>
      </trkpt>
      <trkpt lat="48.27002" lon="2.64139">
        <ele>108.09934997559</ele>
        <time>2013-05-26T08:32:59Z</time>
      </trkpt>
      <trkpt lat="48.26973" lon="2.6418">
        <ele>110.09923553467</ele>
        <time>2013-05-26T08:33:08Z</time>
      </trkpt>
      <trkpt lat="48.26966" lon="2.64214">
        <ele>111.09920883179</ele>
        <time>2013-05-26T08:33:14Z</time>
      </trkpt>
      <trkpt lat="48.26947" lon="2.64246">
        <ele>110.09913635254</ele>
        <time>2013-05-26T08:33:20Z</time>
      </trkpt>
      <trkpt lat="48.26932" lon="2.64276">
        <ele>109.09907531738</ele>
        <time>2013-05-26T08:33:25Z</time>
      </trkpt>
      <trkpt lat="48.26914" lon="2.64313">
        <ele>106.09899902344</ele>
        <time>2013-05-26T08:33:31Z</time>
      </trkpt>
      <trkpt lat="48.269" lon="2.64334">
        <ele>106.09894561768</ele>
        <time>2013-05-26T08:33:36Z</time>
      </trkpt>
      <trkpt lat="48.26884" lon="2.64356">
        <ele>107.09888458252</ele>
        <time>2013-05-26T08:33:41Z</time>
      </trkpt>
      <trkpt lat="48.26862" lon="2.64383">
        <ele>107.09880065918</ele>
        <time>2013-05-26T08:33:47Z</time>
      </trkpt>
      <trkpt lat="48.26851" lon="2.64376">
        <ele>107.09876251221</ele>
        <time>2013-05-26T08:33:53Z</time>
      </trkpt>
      <trkpt lat="48.26848" lon="2.64362">
        <ele>108.09875488281</ele>
        <time>2013-05-26T08:33:58Z</time>
      </trkpt>
      <trkpt lat="48.26843" lon="2.64352">
        <ele>107.09873580933</ele>
        <time>2013-05-26T08:34:04Z</time>
      </trkpt>
      <trkpt lat="48.26838" lon="2.64341">
        <ele>108.09871292114</ele>
        <time>2013-05-26T08:34:10Z</time>
      </trkpt>
      <trkpt lat="48.26832" lon="2.64332">
        <ele>109.09869384766</ele>
        <time>2013-05-26T08:34:16Z</time>
      </trkpt>
      <trkpt lat="48.26826" lon="2.64323">
        <ele>109.09867858887</ele>
        <time>2013-05-26T08:34:22Z</time>
      </trkpt>
      <trkpt lat="48.26821" lon="2.64314">
        <ele>110.09866333008</ele>
        <time>2013-05-26T08:34:27Z</time>
      </trkpt>
      <trkpt lat="48.26816" lon="2.64303">
        <ele>111.09864044189</ele>
        <time>2013-05-26T08:34:33Z</time>
      </trkpt>
      <trkpt lat="48.26811" lon="2.64292">
        <ele>114.09862518311</ele>
        <time>2013-05-26T08:34:39Z</time>
      </trkpt>
      <trkpt lat="48.26807" lon="2.64279">
        <ele>113.09860992432</ele>
        <time>2013-05-26T08:34:44Z</time>
      </trkpt>
      <trkpt lat="48.26803" lon="2.64271">
        <ele>113.09859466553</ele>
        <time>2013-05-26T08:34:49Z</time>
      </trkpt>
      <trkpt lat="48.26795" lon="2.64269">
        <ele>114.09856796265</ele>
        <time>2013-05-26T08:34:54Z</time>
      </trkpt>
      <trkpt lat="48.26787" lon="2.64272">
        <ele>115.09853744507</ele>
        <time>2013-05-26T08:34:59Z</time>
      </trkpt>
      <trkpt lat="48.2678" lon="2.64281">
        <ele>116.09851074219</ele>
        <time>2013-05-26T08:35:04Z</time>
      </trkpt>
      <trkpt lat="48.26772" lon="2.64291">
        <ele>117.09848403931</ele>
        <time>2013-05-26T08:35:10Z</time>
      </trkpt>
      <trkpt lat="48.26762" lon="2.64296">
        <ele>118.09844589233</ele>
        <time>2013-05-26T08:35:16Z</time>
      </trkpt>
      <trkpt lat="48.26747" lon="2.64296">
        <ele>122.09838485718</ele>
        <time>2013-05-26T08:35:21Z</time>
      </trkpt>
      <trkpt lat="48.26731" lon="2.64307">
        <ele>125.09833145142</ele>
        <time>2013-05-26T08:35:28Z</time>
      </trkpt>
      <trkpt lat="48.26718" lon="2.64308">
        <ele>128.09828186035</ele>
        <time>2013-05-26T08:35:34Z</time>
      </trkpt>
      <trkpt lat="48.26704" lon="2.64306">
        <ele>132.09822845459</ele>
        <time>2013-05-26T08:35:40Z</time>
      </trkpt>
      <trkpt lat="48.26695" lon="2.64309">
        <ele>134.09819793701</ele>
        <time>2013-05-26T08:35:45Z</time>
      </trkpt>
      <trkpt lat="48.26688" lon="2.64315">
        <ele>135.09817123413</ele>
        <time>2013-05-26T08:35:50Z</time>
      </trkpt>
      <trkpt lat="48.26688" lon="2.64327">
        <ele>135.09816360474</ele>
        <time>2013-05-26T08:35:56Z</time>
      </trkpt>
      <trkpt lat="48.26693" lon="2.64334">
        <ele>130.09818267822</ele>
        <time>2013-05-26T08:36:02Z</time>
      </trkpt>
      <trkpt lat="48.26703" lon="2.64349">
        <ele>127.0982131958</ele>
        <time>2013-05-26T08:36:08Z</time>
      </trkpt>
      <trkpt lat="48.26718" lon="2.64355">
        <ele>125.09827423096</ele>
        <time>2013-05-26T08:36:14Z</time>
      </trkpt>
      <trkpt lat="48.26733" lon="2.64371">
        <ele>122.09832382202</ele>
        <time>2013-05-26T08:36:20Z</time>
      </trkpt>
      <trkpt lat="48.2674" lon="2.64391">
        <ele>120.0983505249</ele>
        <time>2013-05-26T08:36:25Z</time>
      </trkpt>
      <trkpt lat="48.26748" lon="2.64412">
        <ele>116.09837722778</ele>
        <time>2013-05-26T08:36:31Z</time>
      </trkpt>
      <trkpt lat="48.26752" lon="2.64432">
        <ele>114.09838867188</ele>
        <time>2013-05-26T08:36:36Z</time>
      </trkpt>
      <trkpt lat="48.2676" lon="2.64468">
        <ele>111.09841918945</ele>
        <time>2013-05-26T08:36:44Z</time>
      </trkpt>
      <trkpt lat="48.26771" lon="2.64491">
        <ele>107.09845352173</ele>
        <time>2013-05-26T08:36:49Z</time>
      </trkpt>
      <trkpt lat="48.26781" lon="2.6452">
        <ele>101.098487854</ele>
        <time>2013-05-26T08:36:55Z</time>
      </trkpt>
      <trkpt lat="48.26775" lon="2.64551">
        <ele>96.098461151123</ele>
        <time>2013-05-26T08:37:01Z</time>
      </trkpt>
      <trkpt lat="48.26764" lon="2.6457">
        <ele>94.098411560059</ele>
        <time>2013-05-26T08:37:08Z</time>
      </trkpt>
      <trkpt lat="48.26755" lon="2.64583">
        <ele>96.09838104248</ele>
        <time>2013-05-26T08:37:13Z</time>
      </trkpt>
      <trkpt lat="48.26745" lon="2.64595">
        <ele>98.098346710205</ele>
        <time>2013-05-26T08:37:18Z</time>
      </trkpt>
      <trkpt lat="48.26741" lon="2.64612">
        <ele>99.098331451416</ele>
        <time>2013-05-26T08:37:23Z</time>
      </trkpt>
      <trkpt lat="48.26742" lon="2.64635">
        <ele>101.09832763672</ele>
        <time>2013-05-26T08:37:28Z</time>
      </trkpt>
      <trkpt lat="48.26743" lon="2.64667">
        <ele>101.09832382202</ele>
        <time>2013-05-26T08:37:34Z</time>
      </trkpt>
      <trkpt lat="48.26742" lon="2.64694">
        <ele>102.09831619263</ele>
        <time>2013-05-26T08:37:39Z</time>
      </trkpt>
      <trkpt lat="48.26741" lon="2.64727">
        <ele>104.09831237793</ele>
        <time>2013-05-26T08:37:45Z</time>
      </trkpt>
      <trkpt lat="48.26737" lon="2.64753">
        <ele>105.09828567505</ele>
        <time>2013-05-26T08:37:51Z</time>
      </trkpt>
      <trkpt lat="48.26743" lon="2.64788">
        <ele>107.09831237793</ele>
        <time>2013-05-26T08:37:56Z</time>
      </trkpt>
      <trkpt lat="48.2675" lon="2.64832">
        <ele>108.09832763672</ele>
        <time>2013-05-26T08:38:02Z</time>
      </trkpt>
      <trkpt lat="48.26753" lon="2.64877">
        <ele>108.09833526611</ele>
        <time>2013-05-26T08:38:08Z</time>
      </trkpt>
      <trkpt lat="48.26757" lon="2.64931">
        <ele>110.09833908081</ele>
        <time>2013-05-26T08:38:13Z</time>
      </trkpt>
      <trkpt lat="48.2676" lon="2.64987">
        <ele>113.09834289551</ele>
        <time>2013-05-26T08:38:19Z</time>
      </trkpt>
      <trkpt lat="48.2676" lon="2.65034">
        <ele>116.09834289551</ele>
        <time>2013-05-26T08:38:25Z</time>
      </trkpt>
      <trkpt lat="48.26745" lon="2.65087">
        <ele>113.09827804565</ele>
        <time>2013-05-26T08:38:30Z</time>
      </trkpt>
      <trkpt lat="48.26734" lon="2.65103">
        <ele>110.09823226929</ele>
        <time>2013-05-26T08:38:36Z</time>
      </trkpt>
      <trkpt lat="48.26723" lon="2.65102">
        <ele>111.09819030762</ele>
        <time>2013-05-26T08:38:41Z</time>
      </trkpt>
      <trkpt lat="48.26709" lon="2.65099">
        <ele>112.09814071655</ele>
        <time>2013-05-26T08:38:46Z</time>
      </trkpt>
      <trkpt lat="48.26681" lon="2.65097">
        <ele>115.09803771973</ele>
        <time>2013-05-26T08:38:55Z</time>
      </trkpt>
      <trkpt lat="48.2666" lon="2.65086">
        <ele>119.09796142578</ele>
        <time>2013-05-26T08:39:03Z</time>
      </trkpt>
      <trkpt lat="48.26647" lon="2.65083">
        <ele>121.09791564941</ele>
        <time>2013-05-26T08:39:08Z</time>
      </trkpt>
      <trkpt lat="48.2663" lon="2.65079">
        <ele>123.09785079956</ele>
        <time>2013-05-26T08:39:15Z</time>
      </trkpt>
      <trkpt lat="48.26615" lon="2.6508">
        <ele>124.0977973938</ele>
        <time>2013-05-26T08:39:20Z</time>
      </trkpt>
      <trkpt lat="48.26604" lon="2.65081">
        <ele>125.09775161743</ele>
        <time>2013-05-26T08:39:26Z</time>
      </trkpt>
      <trkpt lat="48.26596" lon="2.65081">
        <ele>126.09772491455</ele>
        <time>2013-05-26T08:39:32Z</time>
      </trkpt>
      <trkpt lat="48.26587" lon="2.6508">
        <ele>124.09769439697</ele>
        <time>2013-05-26T08:39:49Z</time>
      </trkpt>
      <trkpt lat="48.26587" lon="2.65076">
        <ele>118.09769821167</ele>
        <time>2013-05-26T08:40:06Z</time>
      </trkpt>
      <trkpt lat="48.26587" lon="2.65065">
        <ele>116.09769821167</ele>
        <time>2013-05-26T08:40:11Z</time>
      </trkpt>
      <trkpt lat="48.26586" lon="2.6505">
        <ele>116.09769821167</ele>
        <time>2013-05-26T08:40:18Z</time>
      </trkpt>
      <trkpt lat="48.26584" lon="2.65037">
        <ele>115.09768676758</ele>
        <time>2013-05-26T08:40:23Z</time>
      </trkpt>
      <trkpt lat="48.26581" lon="2.6502">
        <ele>113.09767913818</ele>
        <time>2013-05-26T08:40:30Z</time>
      </trkpt>
      <trkpt lat="48.26578" lon="2.65005">
        <ele>111.09767150879</ele>
        <time>2013-05-26T08:40:35Z</time>
      </trkpt>
      <trkpt lat="48.26575" lon="2.64993">
        <ele>110.09766387939</ele>
        <time>2013-05-26T08:40:41Z</time>
      </trkpt>
      <trkpt lat="48.26572" lon="2.64977">
        <ele>110.09765625</ele>
        <time>2013-05-26T08:40:46Z</time>
      </trkpt>
      <trkpt lat="48.26569" lon="2.64963">
        <ele>110.09764862061</ele>
        <time>2013-05-26T08:40:51Z</time>
      </trkpt>
      <trkpt lat="48.26566" lon="2.64938">
        <ele>111.09763717651</ele>
        <time>2013-05-26T08:40:59Z</time>
      </trkpt>
      <trkpt lat="48.26566" lon="2.64919">
        <ele>113.09764099121</ele>
        <time>2013-05-26T08:41:06Z</time>
      </trkpt>
      <trkpt lat="48.2657" lon="2.64904">
        <ele>114.09765625</ele>
        <time>2013-05-26T08:41:11Z</time>
      </trkpt>
      <trkpt lat="48.26572" lon="2.64889">
        <ele>116.09766769409</ele>
        <time>2013-05-26T08:41:16Z</time>
      </trkpt>
      <trkpt lat="48.26568" lon="2.64875">
        <ele>117.0976524353</ele>
        <time>2013-05-26T08:41:21Z</time>
      </trkpt>
      <trkpt lat="48.26556" lon="2.64859">
        <ele>118.09761047363</ele>
        <time>2013-05-26T08:41:28Z</time>
      </trkpt>
      <trkpt lat="48.26545" lon="2.64858">
        <ele>118.09756851196</ele>
        <time>2013-05-26T08:41:33Z</time>
      </trkpt>
      <trkpt lat="48.26531" lon="2.64871">
        <ele>119.0975189209</ele>
        <time>2013-05-26T08:41:39Z</time>
      </trkpt>
      <trkpt lat="48.2652" lon="2.64887">
        <ele>119.09748077393</ele>
        <time>2013-05-26T08:41:45Z</time>
      </trkpt>
      <trkpt lat="48.26513" lon="2.64902">
        <ele>119.09745025635</ele>
        <time>2013-05-26T08:41:50Z</time>
      </trkpt>
      <trkpt lat="48.26505" lon="2.6492">
        <ele>119.09741973877</ele>
        <time>2013-05-26T08:41:56Z</time>
      </trkpt>
      <trkpt lat="48.26499" lon="2.64935">
        <ele>119.09738922119</ele>
        <time>2013-05-26T08:42:01Z</time>
      </trkpt>
      <trkpt lat="48.2649" lon="2.64954">
        <ele>119.09735488892</ele>
        <time>2013-05-26T08:42:07Z</time>
      </trkpt>
      <trkpt lat="48.26483" lon="2.64968">
        <ele>120.09732818604</ele>
        <time>2013-05-26T08:42:12Z</time>
      </trkpt>
      <trkpt lat="48.26473" lon="2.64984">
        <ele>121.09729003906</ele>
        <time>2013-05-26T08:42:18Z</time>
      </trkpt>
      <trkpt lat="48.26463" lon="2.65002">
        <ele>122.09725189209</ele>
        <time>2013-05-26T08:42:24Z</time>
      </trkpt>
      <trkpt lat="48.26453" lon="2.65023">
        <ele>122.09720611572</ele>
        <time>2013-05-26T08:42:30Z</time>
      </trkpt>
      <trkpt lat="48.26447" lon="2.65043">
        <ele>123.09718322754</ele>
        <time>2013-05-26T08:42:35Z</time>
      </trkpt>
      <trkpt lat="48.26444" lon="2.65069">
        <ele>126.09717559814</ele>
        <time>2013-05-26T08:42:41Z</time>
      </trkpt>
      <trkpt lat="48.26441" lon="2.65094">
        <ele>127.09715652466</ele>
        <time>2013-05-26T08:42:46Z</time>
      </trkpt>
      <trkpt lat="48.26439" lon="2.65124">
        <ele>129.09714508057</ele>
        <time>2013-05-26T08:42:52Z</time>
      </trkpt>
      <trkpt lat="48.26433" lon="2.65148">
        <ele>130.09712600708</ele>
        <time>2013-05-26T08:42:57Z</time>
      </trkpt>
      <trkpt lat="48.26425" lon="2.65176">
        <ele>130.09708786011</ele>
        <time>2013-05-26T08:43:03Z</time>
      </trkpt>
      <trkpt lat="48.2641" lon="2.6521">
        <ele>130.09703063965</ele>
        <time>2013-05-26T08:43:11Z</time>
      </trkpt>
      <trkpt lat="48.26396" lon="2.65242">
        <ele>128.09697341919</ele>
        <time>2013-05-26T08:43:18Z</time>
      </trkpt>
      <trkpt lat="48.26383" lon="2.65268">
        <ele>128.09692382812</ele>
        <time>2013-05-26T08:43:24Z</time>
      </trkpt>
      <trkpt lat="48.26375" lon="2.65294">
        <ele>128.09688949585</ele>
        <time>2013-05-26T08:43:30Z</time>
      </trkpt>
      <trkpt lat="48.26372" lon="2.65321">
        <ele>129.09687423706</ele>
        <time>2013-05-26T08:43:36Z</time>
      </trkpt>
      <trkpt lat="48.26373" lon="2.65348">
        <ele>130.09687423706</ele>
        <time>2013-05-26T08:43:42Z</time>
      </trkpt>
      <trkpt lat="48.26379" lon="2.65375">
        <ele>132.09689331055</ele>
        <time>2013-05-26T08:43:48Z</time>
      </trkpt>
      <trkpt lat="48.26384" lon="2.65396">
        <ele>131.09690475464</ele>
        <time>2013-05-26T08:43:53Z</time>
      </trkpt>
      <trkpt lat="48.2639" lon="2.65425">
        <ele>130.09692382812</ele>
        <time>2013-05-26T08:43:59Z</time>
      </trkpt>
      <trkpt lat="48.26397" lon="2.65456">
        <ele>130.09694671631</ele>
        <time>2013-05-26T08:44:05Z</time>
      </trkpt>
      <trkpt lat="48.26405" lon="2.65493">
        <ele>128.09696960449</ele>
        <time>2013-05-26T08:44:11Z</time>
      </trkpt>
      <trkpt lat="48.26411" lon="2.65525">
        <ele>126.09699630737</ele>
        <time>2013-05-26T08:44:16Z</time>
      </trkpt>
      <trkpt lat="48.2642" lon="2.65557">
        <ele>125.09701538086</ele>
        <time>2013-05-26T08:44:22Z</time>
      </trkpt>
      <trkpt lat="48.26426" lon="2.6558">
        <ele>124.09704208374</ele>
        <time>2013-05-26T08:44:27Z</time>
      </trkpt>
      <trkpt lat="48.26433" lon="2.65613">
        <ele>125.09706115723</ele>
        <time>2013-05-26T08:44:33Z</time>
      </trkpt>
      <trkpt lat="48.26442" lon="2.6565">
        <ele>126.09708786011</ele>
        <time>2013-05-26T08:44:39Z</time>
      </trkpt>
      <trkpt lat="48.26448" lon="2.6568">
        <ele>126.09711456299</ele>
        <time>2013-05-26T08:44:44Z</time>
      </trkpt>
      <trkpt lat="48.26456" lon="2.65717">
        <ele>126.09713363647</ele>
        <time>2013-05-26T08:44:50Z</time>
      </trkpt>
      <trkpt lat="48.26466" lon="2.65752">
        <ele>125.09716033936</ele>
        <time>2013-05-26T08:44:56Z</time>
      </trkpt>
      <trkpt lat="48.26473" lon="2.65782">
        <ele>125.09718322754</ele>
        <time>2013-05-26T08:45:01Z</time>
      </trkpt>
      <trkpt lat="48.26481" lon="2.65815">
        <ele>126.09720611572</ele>
        <time>2013-05-26T08:45:06Z</time>
      </trkpt>
      <trkpt lat="48.26491" lon="2.65855">
        <ele>126.097240448</ele>
        <time>2013-05-26T08:45:12Z</time>
      </trkpt>
      <trkpt lat="48.265" lon="2.65898">
        <ele>126.09726715088</ele>
        <time>2013-05-26T08:45:18Z</time>
      </trkpt>
      <trkpt lat="48.26509" lon="2.65942">
        <ele>125.09729766846</ele>
        <time>2013-05-26T08:45:24Z</time>
      </trkpt>
      <trkpt lat="48.26515" lon="2.65976">
        <ele>125.09731292725</ele>
        <time>2013-05-26T08:45:29Z</time>
      </trkpt>
      <trkpt lat="48.26524" lon="2.66007">
        <ele>125.09733963013</ele>
        <time>2013-05-26T08:45:35Z</time>
      </trkpt>
      <trkpt lat="48.26536" lon="2.66034">
        <ele>126.09738540649</ele>
        <time>2013-05-26T08:45:41Z</time>
      </trkpt>
      <trkpt lat="48.26545" lon="2.66052">
        <ele>127.09741210938</ele>
        <time>2013-05-26T08:45:46Z</time>
      </trkpt>
      <trkpt lat="48.26554" lon="2.66085">
        <ele>130.09743881226</ele>
        <time>2013-05-26T08:45:53Z</time>
      </trkpt>
      <trkpt lat="48.2656" lon="2.66118">
        <ele>131.09745788574</ele>
        <time>2013-05-26T08:45:59Z</time>
      </trkpt>
      <trkpt lat="48.26565" lon="2.66144">
        <ele>129.09747695923</ele>
        <time>2013-05-26T08:46:04Z</time>
      </trkpt>
      <trkpt lat="48.26572" lon="2.6617">
        <ele>129.09749984741</ele>
        <time>2013-05-26T08:46:10Z</time>
      </trkpt>
      <trkpt lat="48.26584" lon="2.66191">
        <ele>129.09754180908</ele>
        <time>2013-05-26T08:46:15Z</time>
      </trkpt>
      <trkpt lat="48.26587" lon="2.66221">
        <ele>128.09754562378</ele>
        <time>2013-05-26T08:46:20Z</time>
      </trkpt>
      <trkpt lat="48.26585" lon="2.66246">
        <ele>128.09753417969</ele>
        <time>2013-05-26T08:46:26Z</time>
      </trkpt>
      <trkpt lat="48.2658" lon="2.66262">
        <ele>128.0975112915</ele>
        <time>2013-05-26T08:46:31Z</time>
      </trkpt>
      <trkpt lat="48.26583" lon="2.66302">
        <ele>129.0975189209</ele>
        <time>2013-05-26T08:46:36Z</time>
      </trkpt>
      <trkpt lat="48.26596" lon="2.66372">
        <ele>129.09755706787</ele>
        <time>2013-05-26T08:46:43Z</time>
      </trkpt>
      <trkpt lat="48.26593" lon="2.6643">
        <ele>128.09754180908</ele>
        <time>2013-05-26T08:46:48Z</time>
      </trkpt>
      <trkpt lat="48.26604" lon="2.66507">
        <ele>125.09756851196</ele>
        <time>2013-05-26T08:46:54Z</time>
      </trkpt>
      <trkpt lat="48.2661" lon="2.66543">
        <ele>121.09758377075</ele>
        <time>2013-05-26T08:46:59Z</time>
      </trkpt>
      <trkpt lat="48.26615" lon="2.66537">
        <ele>114.09760665894</ele>
        <time>2013-05-26T08:47:05Z</time>
      </trkpt>
      <trkpt lat="48.26631" lon="2.66513">
        <ele>110.09766769409</ele>
        <time>2013-05-26T08:47:13Z</time>
      </trkpt>
      <trkpt lat="48.26651" lon="2.6649">
        <ele>108.09774398804</ele>
        <time>2013-05-26T08:47:20Z</time>
      </trkpt>
      <trkpt lat="48.26667" lon="2.66464">
        <ele>109.09780883789</ele>
        <time>2013-05-26T08:47:26Z</time>
      </trkpt>
      <trkpt lat="48.26692" lon="2.66439">
        <ele>110.09790039062</ele>
        <time>2013-05-26T08:47:32Z</time>
      </trkpt>
      <trkpt lat="48.26721" lon="2.66414">
        <ele>113.09800720215</ele>
        <time>2013-05-26T08:47:38Z</time>
      </trkpt>
      <trkpt lat="48.26743" lon="2.66381">
        <ele>114.09809494019</ele>
        <time>2013-05-26T08:47:44Z</time>
      </trkpt>
      <trkpt lat="48.26763" lon="2.66347">
        <ele>118.09817504883</ele>
        <time>2013-05-26T08:47:50Z</time>
      </trkpt>
      <trkpt lat="48.26784" lon="2.66305">
        <ele>119.09825897217</ele>
        <time>2013-05-26T08:47:56Z</time>
      </trkpt>
      <trkpt lat="48.26801" lon="2.66269">
        <ele>119.09832382202</ele>
        <time>2013-05-26T08:48:01Z</time>
      </trkpt>
      <trkpt lat="48.26824" lon="2.66238">
        <ele>118.09841537476</ele>
        <time>2013-05-26T08:48:07Z</time>
      </trkpt>
      <trkpt lat="48.26839" lon="2.66213">
        <ele>120.09846878052</ele>
        <time>2013-05-26T08:48:12Z</time>
      </trkpt>
      <trkpt lat="48.2685" lon="2.66181">
        <ele>121.09851837158</ele>
        <time>2013-05-26T08:48:17Z</time>
      </trkpt>
      <trkpt lat="48.26866" lon="2.6614">
        <ele>120.09857940674</ele>
        <time>2013-05-26T08:48:23Z</time>
      </trkpt>
      <trkpt lat="48.26881" lon="2.66109">
        <ele>119.0986366272</ele>
        <time>2013-05-26T08:48:28Z</time>
      </trkpt>
      <trkpt lat="48.26899" lon="2.66072">
        <ele>121.09871292114</ele>
        <time>2013-05-26T08:48:34Z</time>
      </trkpt>
      <trkpt lat="48.26911" lon="2.66051">
        <ele>119.09875488281</ele>
        <time>2013-05-26T08:48:39Z</time>
      </trkpt>
      <trkpt lat="48.26921" lon="2.6604">
        <ele>117.09879302979</ele>
        <time>2013-05-26T08:48:45Z</time>
      </trkpt>
      <trkpt lat="48.26937" lon="2.66005">
        <ele>116.09885787964</ele>
        <time>2013-05-26T08:48:51Z</time>
      </trkpt>
      <trkpt lat="48.26951" lon="2.65961">
        <ele>116.0989151001</ele>
        <time>2013-05-26T08:48:57Z</time>
      </trkpt>
      <trkpt lat="48.26961" lon="2.65919">
        <ele>114.09895706177</ele>
        <time>2013-05-26T08:49:03Z</time>
      </trkpt>
      <trkpt lat="48.26969" lon="2.6589">
        <ele>113.09899139404</ele>
        <time>2013-05-26T08:49:08Z</time>
      </trkpt>
      <trkpt lat="48.26978" lon="2.65861">
        <ele>114.09902954102</ele>
        <time>2013-05-26T08:49:14Z</time>
      </trkpt>
      <trkpt lat="48.2699" lon="2.65827">
        <ele>117.09907913208</ele>
        <time>2013-05-26T08:49:20Z</time>
      </trkpt>
      <trkpt lat="48.27007" lon="2.6579">
        <ele>121.09914016724</ele>
        <time>2013-05-26T08:49:26Z</time>
      </trkpt>
      <trkpt lat="48.27025" lon="2.65752">
        <ele>124.09921264648</ele>
        <time>2013-05-26T08:49:32Z</time>
      </trkpt>
      <trkpt lat="48.27043" lon="2.65711">
        <ele>125.09928894043</ele>
        <time>2013-05-26T08:49:38Z</time>
      </trkpt>
      <trkpt lat="48.27076" lon="2.65655">
        <ele>124.09941482544</ele>
        <time>2013-05-26T08:49:47Z</time>
      </trkpt>
      <trkpt lat="48.27091" lon="2.65629">
        <ele>123.0994720459</ele>
        <time>2013-05-26T08:49:52Z</time>
      </trkpt>
      <trkpt lat="48.27111" lon="2.65595">
        <ele>122.09955596924</ele>
        <time>2013-05-26T08:49:58Z</time>
      </trkpt>
      <trkpt lat="48.27129" lon="2.65571">
        <ele>123.09962081909</ele>
        <time>2013-05-26T08:50:03Z</time>
      </trkpt>
      <trkpt lat="48.27152" lon="2.65547">
        <ele>123.09970474243</ele>
        <time>2013-05-26T08:50:09Z</time>
      </trkpt>
      <trkpt lat="48.2717" lon="2.65526">
        <ele>120.09977722168</ele>
        <time>2013-05-26T08:50:15Z</time>
      </trkpt>
      <trkpt lat="48.27167" lon="2.6549">
        <ele>118.09977340698</ele>
        <time>2013-05-26T08:50:23Z</time>
      </trkpt>
      <trkpt lat="48.27162" lon="2.65441">
        <ele>116.09975814819</ele>
        <time>2013-05-26T08:50:31Z</time>
      </trkpt>
      <trkpt lat="48.27157" lon="2.65404">
        <ele>116.0997467041</ele>
        <time>2013-05-26T08:50:37Z</time>
      </trkpt>
      <trkpt lat="48.27142" lon="2.65376">
        <ele>119.09969711304</ele>
        <time>2013-05-26T08:50:43Z</time>
      </trkpt>
      <trkpt lat="48.27124" lon="2.65347">
        <ele>123.09963607788</ele>
        <time>2013-05-26T08:50:49Z</time>
      </trkpt>
      <trkpt lat="48.27116" lon="2.65315">
        <ele>127.0996055603</ele>
        <time>2013-05-26T08:50:54Z</time>
      </trkpt>
      <trkpt lat="48.27112" lon="2.65278">
        <ele>124.09959793091</ele>
        <time>2013-05-26T08:51:00Z</time>
      </trkpt>
      <trkpt lat="48.27109" lon="2.65243">
        <ele>118.09959030151</ele>
        <time>2013-05-26T08:51:06Z</time>
      </trkpt>
      <trkpt lat="48.27095" lon="2.65215">
        <ele>113.09954833984</ele>
        <time>2013-05-26T08:51:14Z</time>
      </trkpt>
      <trkpt lat="48.2708" lon="2.65206">
        <ele>111.09949493408</ele>
        <time>2013-05-26T08:51:20Z</time>
      </trkpt>
      <trkpt lat="48.27057" lon="2.65175">
        <ele>112.09941101074</ele>
        <time>2013-05-26T08:51:28Z</time>
      </trkpt>
      <trkpt lat="48.27039" lon="2.65168">
        <ele>114.09934616089</ele>
        <time>2013-05-26T08:51:34Z</time>
      </trkpt>
      <trkpt lat="48.27023" lon="2.65168">
        <ele>114.09928512573</ele>
        <time>2013-05-26T08:51:39Z</time>
      </trkpt>
      <trkpt lat="48.27002" lon="2.65161">
        <ele>118.09921264648</ele>
        <time>2013-05-26T08:51:45Z</time>
      </trkpt>
      <trkpt lat="48.26984" lon="2.65143">
        <ele>124.09914398193</ele>
        <time>2013-05-26T08:51:51Z</time>
      </trkpt>
      <trkpt lat="48.26965" lon="2.65119">
        <ele>125.09907913208</ele>
        <time>2013-05-26T08:51:57Z</time>
      </trkpt>
      <trkpt lat="48.26955" lon="2.6509">
        <ele>122.0990447998</ele>
        <time>2013-05-26T08:52:04Z</time>
      </trkpt>
      <trkpt lat="48.26964" lon="2.65064">
        <ele>109.09908676147</ele>
        <time>2013-05-26T08:52:17Z</time>
      </trkpt>
      <trkpt lat="48.26978" lon="2.65066">
        <ele>107.09913253784</ele>
        <time>2013-05-26T08:52:22Z</time>
      </trkpt>
      <trkpt lat="48.26996" lon="2.65072">
        <ele>107.09920501709</ele>
        <time>2013-05-26T08:52:27Z</time>
      </trkpt>
      <trkpt lat="48.27019" lon="2.65078">
        <ele>109.09928894043</ele>
        <time>2013-05-26T08:52:33Z</time>
      </trkpt>
      <trkpt lat="48.27051" lon="2.6508">
        <ele>111.09939956665</ele>
        <time>2013-05-26T08:52:41Z</time>
      </trkpt>
      <trkpt lat="48.27073" lon="2.65089">
        <ele>114.09947967529</ele>
        <time>2013-05-26T08:52:47Z</time>
      </trkpt>
      <trkpt lat="48.27106" lon="2.65113">
        <ele>115.09959793091</ele>
        <time>2013-05-26T08:52:55Z</time>
      </trkpt>
      <trkpt lat="48.27128" lon="2.65126">
        <ele>114.09967803955</ele>
        <time>2013-05-26T08:53:00Z</time>
      </trkpt>
      <trkpt lat="48.27155" lon="2.6514">
        <ele>114.09977340698</ele>
        <time>2013-05-26T08:53:06Z</time>
      </trkpt>
      <trkpt lat="48.27184" lon="2.65158">
        <ele>110.09988021851</ele>
        <time>2013-05-26T08:53:12Z</time>
      </trkpt>
      <trkpt lat="48.27217" lon="2.65174">
        <ele>107.09999847412</ele>
        <time>2013-05-26T08:53:19Z</time>
      </trkpt>
      <trkpt lat="48.27239" lon="2.65181">
        <ele>106.10008239746</ele>
        <time>2013-05-26T08:53:24Z</time>
      </trkpt>
      <trkpt lat="48.27266" lon="2.65196">
        <ele>109.1001739502</ele>
        <time>2013-05-26T08:53:30Z</time>
      </trkpt>
      <trkpt lat="48.27285" lon="2.65166">
        <ele>109.10025024414</ele>
        <time>2013-05-26T08:53:35Z</time>
      </trkpt>
      <trkpt lat="48.27299" lon="2.65131">
        <ele>106.1003112793</ele>
        <time>2013-05-26T08:53:40Z</time>
      </trkpt>
      <trkpt lat="48.27311" lon="2.65089">
        <ele>105.10034942627</ele>
        <time>2013-05-26T08:53:46Z</time>
      </trkpt>
      <trkpt lat="48.27316" lon="2.65054">
        <ele>104.10037994385</ele>
        <time>2013-05-26T08:53:51Z</time>
      </trkpt>
      <trkpt lat="48.27319" lon="2.6502">
        <ele>106.10039138794</ele>
        <time>2013-05-26T08:53:56Z</time>
      </trkpt>
      <trkpt lat="48.27315" lon="2.64972">
        <ele>110.10038757324</ele>
        <time>2013-05-26T08:54:03Z</time>
      </trkpt>
      <trkpt lat="48.27315" lon="2.6493">
        <ele>112.10039520264</ele>
        <time>2013-05-26T08:54:08Z</time>
      </trkpt>
      <trkpt lat="48.27313" lon="2.64864">
        <ele>115.10039520264</ele>
        <time>2013-05-26T08:54:16Z</time>
      </trkpt>
      <trkpt lat="48.27311" lon="2.64824">
        <ele>114.10039138794</ele>
        <time>2013-05-26T08:54:21Z</time>
      </trkpt>
      <trkpt lat="48.27312" lon="2.64785">
        <ele>114.10039901733</ele>
        <time>2013-05-26T08:54:26Z</time>
      </trkpt>
      <trkpt lat="48.27308" lon="2.64743">
        <ele>114.10039520264</ele>
        <time>2013-05-26T08:54:32Z</time>
      </trkpt>
      <trkpt lat="48.27306" lon="2.64693">
        <ele>116.10038757324</ele>
        <time>2013-05-26T08:54:39Z</time>
      </trkpt>
      <trkpt lat="48.2731" lon="2.64644">
        <ele>117.10041427612</ele>
        <time>2013-05-26T08:54:45Z</time>
      </trkpt>
      <trkpt lat="48.27309" lon="2.64605">
        <ele>118.10041046143</ele>
        <time>2013-05-26T08:54:50Z</time>
      </trkpt>
      <trkpt lat="48.2731" lon="2.64559">
        <ele>118.10042572021</ele>
        <time>2013-05-26T08:54:56Z</time>
      </trkpt>
      <trkpt lat="48.27305" lon="2.64516">
        <ele>119.10041046143</ele>
        <time>2013-05-26T08:55:02Z</time>
      </trkpt>
      <trkpt lat="48.27301" lon="2.64472">
        <ele>120.10039901733</ele>
        <time>2013-05-26T08:55:08Z</time>
      </trkpt>
      <trkpt lat="48.27299" lon="2.64426">
        <ele>122.10039901733</ele>
        <time>2013-05-26T08:55:14Z</time>
      </trkpt>
      <trkpt lat="48.27298" lon="2.64383">
        <ele>120.10041046143</ele>
        <time>2013-05-26T08:55:19Z</time>
      </trkpt>
      <trkpt lat="48.27297" lon="2.6434">
        <ele>113.10041046143</ele>
        <time>2013-05-26T08:55:24Z</time>
      </trkpt>
      <trkpt lat="48.27299" lon="2.64268">
        <ele>99.100425720215</ele>
        <time>2013-05-26T08:55:33Z</time>
      </trkpt>
      <trkpt lat="48.27308" lon="2.64217">
        <ele>95.100467681885</ele>
        <time>2013-05-26T08:55:39Z</time>
      </trkpt>
      <trkpt lat="48.27311" lon="2.64177">
        <ele>96.100482940674</ele>
        <time>2013-05-26T08:55:44Z</time>
      </trkpt>
      <trkpt lat="48.27315" lon="2.64135">
        <ele>96.100494384766</ele>
        <time>2013-05-26T08:55:50Z</time>
      </trkpt>
      <trkpt lat="48.27318" lon="2.64098">
        <ele>97.100513458252</ele>
        <time>2013-05-26T08:55:56Z</time>
      </trkpt>
      <trkpt lat="48.27322" lon="2.64063">
        <ele>98.100540161133</ele>
        <time>2013-05-26T08:56:02Z</time>
      </trkpt>
      <trkpt lat="48.27327" lon="2.64015">
        <ele>100.10055541992</ele>
        <time>2013-05-26T08:56:09Z</time>
      </trkpt>
      <trkpt lat="48.27329" lon="2.63969">
        <ele>99.100578308105</ele>
        <time>2013-05-26T08:56:15Z</time>
      </trkpt>
      <trkpt lat="48.27334" lon="2.63915">
        <ele>97.100601196289</ele>
        <time>2013-05-26T08:56:22Z</time>
      </trkpt>
      <trkpt lat="48.27342" lon="2.63876">
        <ele>94.100631713867</ele>
        <time>2013-05-26T08:56:28Z</time>
      </trkpt>
      <trkpt lat="48.27347" lon="2.63844">
        <ele>93.100662231445</ele>
        <time>2013-05-26T08:56:33Z</time>
      </trkpt>
      <trkpt lat="48.27353" lon="2.63815">
        <ele>91.100685119629</ele>
        <time>2013-05-26T08:56:39Z</time>
      </trkpt>
      <trkpt lat="48.27373" lon="2.63819">
        <ele>93.100761413574</ele>
        <time>2013-05-26T08:56:45Z</time>
      </trkpt>
      <trkpt lat="48.27394" lon="2.63824">
        <ele>95.100833892822</ele>
        <time>2013-05-26T08:56:51Z</time>
      </trkpt>
      <trkpt lat="48.27418" lon="2.63832">
        <ele>96.100917816162</ele>
        <time>2013-05-26T08:56:57Z</time>
      </trkpt>
      <trkpt lat="48.2744" lon="2.63842">
        <ele>97.101005554199</ele>
        <time>2013-05-26T08:57:02Z</time>
      </trkpt>
      <trkpt lat="48.27467" lon="2.63851">
        <ele>97.101097106934</ele>
        <time>2013-05-26T08:57:08Z</time>
      </trkpt>
      <trkpt lat="48.2749" lon="2.63861">
        <ele>98.101181030273</ele>
        <time>2013-05-26T08:57:14Z</time>
      </trkpt>
      <trkpt lat="48.27513" lon="2.63876">
        <ele>97.101264953613</ele>
        <time>2013-05-26T08:57:20Z</time>
      </trkpt>
      <trkpt lat="48.27538" lon="2.6389">
        <ele>92.101348876953</ele>
        <time>2013-05-26T08:57:28Z</time>
      </trkpt>
      <trkpt lat="48.27547" lon="2.63895">
        <ele>89.101390838623</ele>
        <time>2013-05-26T08:57:33Z</time>
      </trkpt>
      <trkpt lat="48.27559" lon="2.639">
        <ele>86.101428985596</ele>
        <time>2013-05-26T08:57:39Z</time>
      </trkpt>
      <trkpt lat="48.27561" lon="2.639">
        <ele>85.101432800293</ele>
        <time>2013-05-26T08:57:45Z</time>
      </trkpt>
      <trkpt lat="48.27566" lon="2.63898">
        <ele>84.101451873779</ele>
        <time>2013-05-26T08:59:49Z</time>
      </trkpt>
      <trkpt lat="48.27566" lon="2.6389">
        <ele>82.101459503174</ele>
        <time>2013-05-26T09:00:20Z</time>
      </trkpt>
      <trkpt lat="48.27567" lon="2.6389">
        <ele>81.101459503174</ele>
        <time>2013-05-26T09:00:27Z</time>
      </trkpt>
      <trkpt lat="48.27568" lon="2.6389">
        <ele>81.101463317871</ele>
        <time>2013-05-26T09:00:32Z</time>
      </trkpt>
      <trkpt lat="48.27567" lon="2.6389">
        <ele>81.101459503174</ele>
        <time>2013-05-26T09:00:37Z</time>
      </trkpt>
      <trkpt lat="48.27566" lon="2.6389">
        <ele>80.101455688477</ele>
        <time>2013-05-26T09:00:43Z</time>
      </trkpt>
      <trkpt lat="48.27566" lon="2.63891">
        <ele>79.101455688477</ele>
        <time>2013-05-26T09:00:49Z</time>
      </trkpt>
      <trkpt lat="48.27566" lon="2.63891">
        <ele>80.101455688477</ele>
        <time>2013-05-26T09:00:54Z</time>
      </trkpt>
      <trkpt lat="48.27566" lon="2.63891">
        <ele>82.101455688477</ele>
        <time>2013-05-26T09:01:03Z</time>
      </trkpt>
      <trkpt lat="48.27565" lon="2.63891">
        <ele>79.101455688477</ele>
        <time>2013-05-26T09:01:08Z</time>
      </trkpt>
      <trkpt lat="48.27565" lon="2.63892">
        <ele>79.101451873779</ele>
        <time>2013-05-26T09:01:14Z</time>
      </trkpt>
      <trkpt lat="48.27563" lon="2.63893">
        <ele>80.101444244385</ele>
        <time>2013-05-26T09:01:20Z</time>
      </trkpt>
      <trkpt lat="48.27563" lon="2.63894">
        <ele>80.101448059082</ele>
        <time>2013-05-26T09:01:27Z</time>
      </trkpt>
      <trkpt lat="48.27563" lon="2.63895">
        <ele>78.101448059082</ele>
        <time>2013-05-26T09:01:33Z</time>
      </trkpt>
      <trkpt lat="48.27564" lon="2.63895">
        <ele>79.101451873779</ele>
        <time>2013-05-26T09:01:38Z</time>
      </trkpt>
      <trkpt lat="48.27564" lon="2.63895">
        <ele>82.101451873779</ele>
        <time>2013-05-26T09:01:43Z</time>
      </trkpt>
      <trkpt lat="48.27564" lon="2.63894">
        <ele>80.101455688477</ele>
        <time>2013-05-26T09:01:48Z</time>
      </trkpt>
      <trkpt lat="48.27565" lon="2.63893">
        <ele>79.101455688477</ele>
        <time>2013-05-26T09:01:53Z</time>
      </trkpt>
      <trkpt lat="48.27566" lon="2.63893">
        <ele>75.101459503174</ele>
        <time>2013-05-26T09:01:59Z</time>
      </trkpt>
      <trkpt lat="48.27568" lon="2.63893">
        <ele>74.101463317871</ele>
        <time>2013-05-26T09:02:05Z</time>
      </trkpt>
      <trkpt lat="48.27569" lon="2.63893">
        <ele>76.101470947266</ele>
        <time>2013-05-26T09:02:11Z</time>
      </trkpt>
      <trkpt lat="48.27569" lon="2.63892">
        <ele>76.101463317871</ele>
        <time>2013-05-26T09:02:19Z</time>
      </trkpt>
      <trkpt lat="48.27569" lon="2.63893">
        <ele>75.101470947266</ele>
        <time>2013-05-26T09:02:24Z</time>
      </trkpt>
      <trkpt lat="48.27567" lon="2.63895">
        <ele>76.101463317871</ele>
        <time>2013-05-26T09:02:32Z</time>
      </trkpt>
      <trkpt lat="48.27567" lon="2.63894">
        <ele>78.101459503174</ele>
        <time>2013-05-26T09:02:40Z</time>
      </trkpt>
      <trkpt lat="48.27567" lon="2.63893">
        <ele>77.101459503174</ele>
        <time>2013-05-26T09:02:46Z</time>
      </trkpt>
      <trkpt lat="48.27567" lon="2.63893">
        <ele>75.101459503174</ele>
        <time>2013-05-26T09:02:51Z</time>
      </trkpt>
      <trkpt lat="48.27567" lon="2.63892">
        <ele>74.101459503174</ele>
        <time>2013-05-26T09:02:56Z</time>
      </trkpt>
      <trkpt lat="48.27567" lon="2.63891">
        <ele>75.101455688477</ele>
        <time>2013-05-26T09:03:02Z</time>
      </trkpt>
      <trkpt lat="48.27566" lon="2.6389">
        <ele>74.101459503174</ele>
        <time>2013-05-26T09:03:09Z</time>
      </trkpt>
      <trkpt lat="48.27566" lon="2.63889">
        <ele>76.101459503174</ele>
        <time>2013-05-26T09:03:15Z</time>
      </trkpt>
      <trkpt lat="48.27565" lon="2.63889">
        <ele>75.101451873779</ele>
        <time>2013-05-26T09:03:20Z</time>
      </trkpt>
      <trkpt lat="48.27563" lon="2.63889">
        <ele>73.101448059082</ele>
        <time>2013-05-26T09:03:26Z</time>
      </trkpt>
      <trkpt lat="48.27563" lon="2.6389">
        <ele>73.101440429688</ele>
        <time>2013-05-26T09:03:32Z</time>
      </trkpt>
      <trkpt lat="48.27562" lon="2.63892">
        <ele>71.101440429688</ele>
        <time>2013-05-26T09:03:37Z</time>
      </trkpt>
      <trkpt lat="48.27563" lon="2.63893">
        <ele>73.101444244385</ele>
        <time>2013-05-26T09:03:43Z</time>
      </trkpt>
      <trkpt lat="48.27564" lon="2.63893">
        <ele>73.101451873779</ele>
        <time>2013-05-26T09:03:49Z</time>
      </trkpt>
      <trkpt lat="48.27565" lon="2.63895">
        <ele>74.101455688477</ele>
        <time>2013-05-26T09:03:54Z</time>
      </trkpt>
      <trkpt lat="48.27565" lon="2.63898">
        <ele>73.101451873779</ele>
        <time>2013-05-26T09:04:02Z</time>
      </trkpt>
      <trkpt lat="48.27563" lon="2.63899">
        <ele>74.101448059082</ele>
        <time>2013-05-26T09:04:08Z</time>
      </trkpt>
      <trkpt lat="48.27561" lon="2.63897">
        <ele>72.101432800293</ele>
        <time>2013-05-26T09:04:17Z</time>
      </trkpt>
      <trkpt lat="48.27559" lon="2.63896">
        <ele>72.101428985596</ele>
        <time>2013-05-26T09:04:24Z</time>
      </trkpt>
      <trkpt lat="48.27557" lon="2.63897">
        <ele>74.101425170898</ele>
        <time>2013-05-26T09:04:33Z</time>
      </trkpt>
      <trkpt lat="48.27556" lon="2.63896">
        <ele>74.101417541504</ele>
        <time>2013-05-26T09:04:38Z</time>
      </trkpt>
      <trkpt lat="48.27556" lon="2.63895">
        <ele>76.101421356201</ele>
        <time>2013-05-26T09:04:46Z</time>
      </trkpt>
      <trkpt lat="48.27556" lon="2.63894">
        <ele>76.101421356201</ele>
        <time>2013-05-26T09:04:51Z</time>
      </trkpt>
      <trkpt lat="48.27557" lon="2.63894">
        <ele>74.101425170898</ele>
        <time>2013-05-26T09:04:56Z</time>
      </trkpt>
      <trkpt lat="48.27558" lon="2.63893">
        <ele>74.101425170898</ele>
        <time>2013-05-26T09:05:01Z</time>
      </trkpt>
      <trkpt lat="48.27558" lon="2.63895">
        <ele>74.101432800293</ele>
        <time>2013-05-26T09:05:06Z</time>
      </trkpt>
      <trkpt lat="48.27558" lon="2.63896">
        <ele>74.101428985596</ele>
        <time>2013-05-26T09:05:12Z</time>
      </trkpt>
      <trkpt lat="48.27558" lon="2.63895">
        <ele>73.101432800293</ele>
        <time>2013-05-26T09:05:17Z</time>
      </trkpt>
      <trkpt lat="48.27559" lon="2.63894">
        <ele>73.101432800293</ele>
        <time>2013-05-26T09:05:23Z</time>
      </trkpt>
      <trkpt lat="48.2756" lon="2.63892">
        <ele>72.10143661499</ele>
        <time>2013-05-26T09:05:29Z</time>
      </trkpt>
      <trkpt lat="48.27561" lon="2.63891">
        <ele>72.101440429688</ele>
        <time>2013-05-26T09:05:34Z</time>
      </trkpt>
      <trkpt lat="48.27563" lon="2.63891">
        <ele>71.101448059082</ele>
        <time>2013-05-26T09:05:40Z</time>
      </trkpt>
      <trkpt lat="48.27567" lon="2.63893">
        <ele>69.101459503174</ele>
        <time>2013-05-26T09:05:46Z</time>
      </trkpt>
      <trkpt lat="48.27567" lon="2.63893">
        <ele>68.101459503174</ele>
        <time>2013-05-26T09:05:51Z</time>
      </trkpt>
      <trkpt lat="48.27568" lon="2.63894">
        <ele>68.101470947266</ele>
        <time>2013-05-26T09:05:59Z</time>
      </trkpt>
      <trkpt lat="48.27568" lon="2.63893">
        <ele>68.101470947266</ele>
        <time>2013-05-26T09:06:06Z</time>
      </trkpt>
      <trkpt lat="48.27567" lon="2.63894">
        <ele>71.101459503174</ele>
        <time>2013-05-26T09:06:13Z</time>
      </trkpt>
      <trkpt lat="48.27567" lon="2.63895">
        <ele>72.101463317871</ele>
        <time>2013-05-26T09:06:22Z</time>
      </trkpt>
      <trkpt lat="48.27567" lon="2.63895">
        <ele>73.101463317871</ele>
        <time>2013-05-26T09:06:27Z</time>
      </trkpt>
      <trkpt lat="48.27568" lon="2.63894">
        <ele>75.101463317871</ele>
        <time>2013-05-26T09:06:33Z</time>
      </trkpt>
      <trkpt lat="48.27568" lon="2.63894">
        <ele>72.101470947266</ele>
        <time>2013-05-26T09:06:39Z</time>
      </trkpt>
      <trkpt lat="48.27568" lon="2.63896">
        <ele>72.101463317871</ele>
        <time>2013-05-26T09:06:44Z</time>
      </trkpt>
      <trkpt lat="48.27568" lon="2.63898">
        <ele>73.101463317871</ele>
        <time>2013-05-26T09:06:50Z</time>
      </trkpt>
      <trkpt lat="48.27569" lon="2.63899">
        <ele>74.101467132568</ele>
        <time>2013-05-26T09:06:59Z</time>
      </trkpt>
      <trkpt lat="48.27569" lon="2.63901">
        <ele>74.101467132568</ele>
        <time>2013-05-26T09:07:07Z</time>
      </trkpt>
      <trkpt lat="48.27569" lon="2.63899">
        <ele>69.101467132568</ele>
        <time>2013-05-26T09:07:14Z</time>
      </trkpt>
      <trkpt lat="48.27569" lon="2.63898">
        <ele>66.101467132568</ele>
        <time>2013-05-26T09:07:20Z</time>
      </trkpt>
      <trkpt lat="48.27569" lon="2.63898">
        <ele>67.101467132568</ele>
        <time>2013-05-26T09:07:26Z</time>
      </trkpt>
      <trkpt lat="48.27569" lon="2.63899">
        <ele>65.101463317871</ele>
        <time>2013-05-26T09:07:31Z</time>
      </trkpt>
      <trkpt lat="48.27568" lon="2.63899">
        <ele>62.101463317871</ele>
        <time>2013-05-26T09:07:37Z</time>
      </trkpt>
      <trkpt lat="48.27568" lon="2.63898">
        <ele>61.101463317871</ele>
        <time>2013-05-26T09:07:43Z</time>
      </trkpt>
      <trkpt lat="48.27568" lon="2.63898">
        <ele>60.101463317871</ele>
        <time>2013-05-26T09:07:49Z</time>
      </trkpt>
      <trkpt lat="48.27568" lon="2.63902">
        <ele>60.101467132568</ele>
        <time>2013-05-26T09:07:54Z</time>
      </trkpt>
      <trkpt lat="48.27574" lon="2.63909">
        <ele>61.101486206055</ele>
        <time>2013-05-26T09:08:00Z</time>
      </trkpt>
      <trkpt lat="48.27584" lon="2.63914">
        <ele>61.101516723633</ele>
        <time>2013-05-26T09:08:06Z</time>
      </trkpt>
      <trkpt lat="48.276" lon="2.63916">
        <ele>63.101581573486</ele>
        <time>2013-05-26T09:08:12Z</time>
      </trkpt>
      <trkpt lat="48.27624" lon="2.63925">
        <ele>66.101665496826</ele>
        <time>2013-05-26T09:08:18Z</time>
      </trkpt>
      <trkpt lat="48.27652" lon="2.63935">
        <ele>68.101768493652</ele>
        <time>2013-05-26T09:08:24Z</time>
      </trkpt>
      <trkpt lat="48.27681" lon="2.63947">
        <ele>70.101875305176</ele>
        <time>2013-05-26T09:08:30Z</time>
      </trkpt>
      <trkpt lat="48.27709" lon="2.63953">
        <ele>70.101974487305</ele>
        <time>2013-05-26T09:08:36Z</time>
      </trkpt>
      <trkpt lat="48.27722" lon="2.63958">
        <ele>71.102024078369</ele>
        <time>2013-05-26T09:08:42Z</time>
      </trkpt>
      <trkpt lat="48.27737" lon="2.63964">
        <ele>74.102077484131</ele>
        <time>2013-05-26T09:08:48Z</time>
      </trkpt>
      <trkpt lat="48.27752" lon="2.63971">
        <ele>79.10213470459</ele>
        <time>2013-05-26T09:08:53Z</time>
      </trkpt>
      <trkpt lat="48.27775" lon="2.63979">
        <ele>84.10221862793</ele>
        <time>2013-05-26T09:08:59Z</time>
      </trkpt>
      <trkpt lat="48.27802" lon="2.63987">
        <ele>86.102317810059</ele>
        <time>2013-05-26T09:09:05Z</time>
      </trkpt>
      <trkpt lat="48.27829" lon="2.63997">
        <ele>88.102409362793</ele>
        <time>2013-05-26T09:09:10Z</time>
      </trkpt>
      <trkpt lat="48.27853" lon="2.64003">
        <ele>91.10249710083</ele>
        <time>2013-05-26T09:09:15Z</time>
      </trkpt>
      <trkpt lat="48.27874" lon="2.64011">
        <ele>96.102573394775</ele>
        <time>2013-05-26T09:09:20Z</time>
      </trkpt>
      <trkpt lat="48.27898" lon="2.64025">
        <ele>98.10266494751</ele>
        <time>2013-05-26T09:09:26Z</time>
      </trkpt>
      <trkpt lat="48.27929" lon="2.64045">
        <ele>101.10277557373</ele>
        <time>2013-05-26T09:09:34Z</time>
      </trkpt>
      <trkpt lat="48.27943" lon="2.64056">
        <ele>104.10282516479</ele>
        <time>2013-05-26T09:09:39Z</time>
      </trkpt>
      <trkpt lat="48.27965" lon="2.64071">
        <ele>106.10290527344</ele>
        <time>2013-05-26T09:09:47Z</time>
      </trkpt>
      <trkpt lat="48.27985" lon="2.64088">
        <ele>107.10297393799</ele>
        <time>2013-05-26T09:09:53Z</time>
      </trkpt>
      <trkpt lat="48.28006" lon="2.641">
        <ele>108.10305023193</ele>
        <time>2013-05-26T09:09:58Z</time>
      </trkpt>
      <trkpt lat="48.28025" lon="2.64114">
        <ele>109.10311508179</ele>
        <time>2013-05-26T09:10:03Z</time>
      </trkpt>
      <trkpt lat="48.28045" lon="2.64134">
        <ele>108.10318756104</ele>
        <time>2013-05-26T09:10:09Z</time>
      </trkpt>
      <trkpt lat="48.28063" lon="2.64156">
        <ele>108.10324859619</ele>
        <time>2013-05-26T09:10:15Z</time>
      </trkpt>
      <trkpt lat="48.28077" lon="2.64172">
        <ele>106.10329818726</ele>
        <time>2013-05-26T09:10:20Z</time>
      </trkpt>
      <trkpt lat="48.2809" lon="2.64158">
        <ele>110.10334396362</ele>
        <time>2013-05-26T09:10:25Z</time>
      </trkpt>
      <trkpt lat="48.28101" lon="2.64135">
        <ele>112.10338973999</ele>
        <time>2013-05-26T09:10:31Z</time>
      </trkpt>
      <trkpt lat="48.28105" lon="2.64115">
        <ele>112.10341262817</ele>
        <time>2013-05-26T09:10:36Z</time>
      </trkpt>
      <trkpt lat="48.28124" lon="2.64085">
        <ele>118.10348892212</ele>
        <time>2013-05-26T09:10:44Z</time>
      </trkpt>
      <trkpt lat="48.28148" lon="2.64056">
        <ele>121.10357666016</ele>
        <time>2013-05-26T09:10:52Z</time>
      </trkpt>
      <trkpt lat="48.28159" lon="2.64032">
        <ele>120.10361862183</ele>
        <time>2013-05-26T09:10:58Z</time>
      </trkpt>
      <trkpt lat="48.2817" lon="2.64014">
        <ele>121.10366439819</ele>
        <time>2013-05-26T09:11:06Z</time>
      </trkpt>
      <trkpt lat="48.28181" lon="2.63998">
        <ele>121.10371017456</ele>
        <time>2013-05-26T09:11:11Z</time>
      </trkpt>
      <trkpt lat="48.28193" lon="2.63973">
        <ele>119.10375213623</ele>
        <time>2013-05-26T09:11:17Z</time>
      </trkpt>
      <trkpt lat="48.28202" lon="2.6395">
        <ele>119.1037902832</ele>
        <time>2013-05-26T09:11:22Z</time>
      </trkpt>
      <trkpt lat="48.28215" lon="2.63926">
        <ele>118.10384750366</ele>
        <time>2013-05-26T09:11:27Z</time>
      </trkpt>
      <trkpt lat="48.28231" lon="2.63904">
        <ele>117.10390090942</ele>
        <time>2013-05-26T09:11:32Z</time>
      </trkpt>
      <trkpt lat="48.28245" lon="2.6388">
        <ele>115.10396194458</ele>
        <time>2013-05-26T09:11:37Z</time>
      </trkpt>
      <trkpt lat="48.28255" lon="2.6386">
        <ele>115.10400009155</ele>
        <time>2013-05-26T09:11:42Z</time>
      </trkpt>
      <trkpt lat="48.28268" lon="2.63837">
        <ele>116.10404586792</ele>
        <time>2013-05-26T09:11:48Z</time>
      </trkpt>
      <trkpt lat="48.28284" lon="2.63818">
        <ele>115.10411071777</ele>
        <time>2013-05-26T09:11:53Z</time>
      </trkpt>
      <trkpt lat="48.28304" lon="2.63809">
        <ele>112.10418701172</ele>
        <time>2013-05-26T09:11:58Z</time>
      </trkpt>
      <trkpt lat="48.28327" lon="2.63807">
        <ele>113.10426712036</ele>
        <time>2013-05-26T09:12:04Z</time>
      </trkpt>
      <trkpt lat="48.28343" lon="2.63806">
        <ele>113.10433197021</ele>
        <time>2013-05-26T09:12:09Z</time>
      </trkpt>
      <trkpt lat="48.28359" lon="2.63801">
        <ele>117.10438919067</ele>
        <time>2013-05-26T09:12:14Z</time>
      </trkpt>
      <trkpt lat="48.28389" lon="2.63781">
        <ele>120.10450363159</ele>
        <time>2013-05-26T09:12:23Z</time>
      </trkpt>
      <trkpt lat="48.28408" lon="2.63784">
        <ele>120.10457229614</ele>
        <time>2013-05-26T09:12:29Z</time>
      </trkpt>
      <trkpt lat="48.28424" lon="2.63798">
        <ele>118.1046257019</ele>
        <time>2013-05-26T09:12:35Z</time>
      </trkpt>
      <trkpt lat="48.28438" lon="2.63817">
        <ele>114.10467529297</ele>
        <time>2013-05-26T09:12:42Z</time>
      </trkpt>
      <trkpt lat="48.28445" lon="2.63841">
        <ele>111.10469818115</ele>
        <time>2013-05-26T09:12:48Z</time>
      </trkpt>
      <trkpt lat="48.2845" lon="2.6387">
        <ele>111.10471725464</ele>
        <time>2013-05-26T09:12:54Z</time>
      </trkpt>
      <trkpt lat="48.28461" lon="2.63907">
        <ele>112.10475158691</ele>
        <time>2013-05-26T09:13:00Z</time>
      </trkpt>
      <trkpt lat="48.28473" lon="2.63956">
        <ele>111.10478973389</ele>
        <time>2013-05-26T09:13:09Z</time>
      </trkpt>
      <trkpt lat="48.28482" lon="2.63988">
        <ele>110.10481643677</ele>
        <time>2013-05-26T09:13:14Z</time>
      </trkpt>
      <trkpt lat="48.28495" lon="2.64027">
        <ele>109.10485458374</ele>
        <time>2013-05-26T09:13:20Z</time>
      </trkpt>
      <trkpt lat="48.285" lon="2.64063">
        <ele>106.10487365723</ele>
        <time>2013-05-26T09:13:26Z</time>
      </trkpt>
      <trkpt lat="48.28506" lon="2.64098">
        <ele>106.10488891602</ele>
        <time>2013-05-26T09:13:32Z</time>
      </trkpt>
      <trkpt lat="48.28514" lon="2.64128">
        <ele>108.1049118042</ele>
        <time>2013-05-26T09:13:37Z</time>
      </trkpt>
      <trkpt lat="48.28522" lon="2.64164">
        <ele>107.10493469238</ele>
        <time>2013-05-26T09:13:43Z</time>
      </trkpt>
      <trkpt lat="48.28531" lon="2.64196">
        <ele>105.10496520996</ele>
        <time>2013-05-26T09:13:48Z</time>
      </trkpt>
      <trkpt lat="48.28542" lon="2.64203">
        <ele>101.10500335693</ele>
        <time>2013-05-26T09:13:54Z</time>
      </trkpt>
      <trkpt lat="48.28553" lon="2.64198">
        <ele>100.1050453186</ele>
        <time>2013-05-26T09:14:00Z</time>
      </trkpt>
      <trkpt lat="48.28567" lon="2.642">
        <ele>99.105098724365</ele>
        <time>2013-05-26T09:14:06Z</time>
      </trkpt>
      <trkpt lat="48.2858" lon="2.64205">
        <ele>101.10514450073</ele>
        <time>2013-05-26T09:14:11Z</time>
      </trkpt>
      <trkpt lat="48.28597" lon="2.6421">
        <ele>106.10520553589</ele>
        <time>2013-05-26T09:14:17Z</time>
      </trkpt>
      <trkpt lat="48.28621" lon="2.64206">
        <ele>109.10529708862</ele>
        <time>2013-05-26T09:14:23Z</time>
      </trkpt>
      <trkpt lat="48.28652" lon="2.64189">
        <ele>113.10541152954</ele>
        <time>2013-05-26T09:14:29Z</time>
      </trkpt>
      <trkpt lat="48.28683" lon="2.64158">
        <ele>114.10552978516</ele>
        <time>2013-05-26T09:14:35Z</time>
      </trkpt>
      <trkpt lat="48.28708" lon="2.64125">
        <ele>117.10562515259</ele>
        <time>2013-05-26T09:14:41Z</time>
      </trkpt>
      <trkpt lat="48.28733" lon="2.64098">
        <ele>117.10571670532</ele>
        <time>2013-05-26T09:14:47Z</time>
      </trkpt>
      <trkpt lat="48.28752" lon="2.64077">
        <ele>118.10579681396</ele>
        <time>2013-05-26T09:14:52Z</time>
      </trkpt>
      <trkpt lat="48.28778" lon="2.6405">
        <ele>118.10589599609</ele>
        <time>2013-05-26T09:14:59Z</time>
      </trkpt>
      <trkpt lat="48.288" lon="2.6403">
        <ele>116.10597610474</ele>
        <time>2013-05-26T09:15:05Z</time>
      </trkpt>
      <trkpt lat="48.2882" lon="2.64006">
        <ele>115.10605621338</ele>
        <time>2013-05-26T09:15:10Z</time>
      </trkpt>
      <trkpt lat="48.2884" lon="2.63976">
        <ele>115.10613632202</ele>
        <time>2013-05-26T09:15:16Z</time>
      </trkpt>
      <trkpt lat="48.28859" lon="2.63954">
        <ele>115.10620498657</ele>
        <time>2013-05-26T09:15:22Z</time>
      </trkpt>
      <trkpt lat="48.28874" lon="2.63939">
        <ele>115.10626602173</ele>
        <time>2013-05-26T09:15:27Z</time>
      </trkpt>
      <trkpt lat="48.28886" lon="2.6395">
        <ele>112.1063041687</ele>
        <time>2013-05-26T09:15:34Z</time>
      </trkpt>
      <trkpt lat="48.28893" lon="2.63967">
        <ele>113.10633087158</ele>
        <time>2013-05-26T09:15:40Z</time>
      </trkpt>
      <trkpt lat="48.28902" lon="2.63987">
        <ele>112.10636138916</ele>
        <time>2013-05-26T09:15:46Z</time>
      </trkpt>
      <trkpt lat="48.28909" lon="2.6401">
        <ele>113.10638427734</ele>
        <time>2013-05-26T09:15:52Z</time>
      </trkpt>
      <trkpt lat="48.28914" lon="2.6404">
        <ele>110.10639953613</ele>
        <time>2013-05-26T09:15:57Z</time>
      </trkpt>
      <trkpt lat="48.28915" lon="2.64089">
        <ele>108.10639190674</ele>
        <time>2013-05-26T09:16:06Z</time>
      </trkpt>
      <trkpt lat="48.28919" lon="2.64128">
        <ele>106.10640335083</ele>
        <time>2013-05-26T09:16:12Z</time>
      </trkpt>
      <trkpt lat="48.28921" lon="2.64165">
        <ele>105.10640716553</ele>
        <time>2013-05-26T09:16:18Z</time>
      </trkpt>
      <trkpt lat="48.28924" lon="2.64206">
        <ele>107.10641098022</ele>
        <time>2013-05-26T09:16:24Z</time>
      </trkpt>
      <trkpt lat="48.28931" lon="2.64243">
        <ele>106.10643005371</ele>
        <time>2013-05-26T09:16:30Z</time>
      </trkpt>
      <trkpt lat="48.28941" lon="2.64266">
        <ele>101.10646057129</ele>
        <time>2013-05-26T09:16:35Z</time>
      </trkpt>
      <trkpt lat="48.28955" lon="2.64281">
        <ele>103.10651016235</ele>
        <time>2013-05-26T09:16:41Z</time>
      </trkpt>
      <trkpt lat="48.28978" lon="2.64284">
        <ele>110.10659790039</ele>
        <time>2013-05-26T09:16:50Z</time>
      </trkpt>
      <trkpt lat="48.28993" lon="2.64278">
        <ele>116.10665512085</ele>
        <time>2013-05-26T09:16:55Z</time>
      </trkpt>
      <trkpt lat="48.29019" lon="2.64272">
        <ele>119.10675048828</ele>
        <time>2013-05-26T09:17:00Z</time>
      </trkpt>
      <trkpt lat="48.29042" lon="2.64269">
        <ele>119.10683822632</ele>
        <time>2013-05-26T09:17:06Z</time>
      </trkpt>
      <trkpt lat="48.29063" lon="2.64264">
        <ele>121.10691070557</ele>
        <time>2013-05-26T09:17:12Z</time>
      </trkpt>
      <trkpt lat="48.29084" lon="2.64256">
        <ele>122.10699081421</ele>
        <time>2013-05-26T09:17:18Z</time>
      </trkpt>
      <trkpt lat="48.29105" lon="2.64263">
        <ele>119.10707092285</ele>
        <time>2013-05-26T09:17:24Z</time>
      </trkpt>
      <trkpt lat="48.29126" lon="2.6428">
        <ele>115.1071395874</ele>
        <time>2013-05-26T09:17:29Z</time>
      </trkpt>
      <trkpt lat="48.29154" lon="2.64309">
        <ele>111.10723876953</ele>
        <time>2013-05-26T09:17:36Z</time>
      </trkpt>
      <trkpt lat="48.29181" lon="2.64341">
        <ele>108.10733413696</ele>
        <time>2013-05-26T09:17:43Z</time>
      </trkpt>
      <trkpt lat="48.29202" lon="2.64367">
        <ele>108.10741424561</ele>
        <time>2013-05-26T09:17:48Z</time>
      </trkpt>
      <trkpt lat="48.29228" lon="2.64398">
        <ele>108.10750198364</ele>
        <time>2013-05-26T09:17:55Z</time>
      </trkpt>
      <trkpt lat="48.29245" lon="2.6442">
        <ele>110.1075630188</ele>
        <time>2013-05-26T09:18:00Z</time>
      </trkpt>
      <trkpt lat="48.29273" lon="2.64453">
        <ele>112.10766220093</ele>
        <time>2013-05-26T09:18:07Z</time>
      </trkpt>
      <trkpt lat="48.29294" lon="2.64478">
        <ele>113.10773086548</ele>
        <time>2013-05-26T09:18:12Z</time>
      </trkpt>
      <trkpt lat="48.29321" lon="2.64523">
        <ele>115.10782623291</ele>
        <time>2013-05-26T09:18:21Z</time>
      </trkpt>
      <trkpt lat="48.29339" lon="2.64555">
        <ele>115.10788345337</ele>
        <time>2013-05-26T09:18:27Z</time>
      </trkpt>
      <trkpt lat="48.29354" lon="2.64583">
        <ele>114.10793685913</ele>
        <time>2013-05-26T09:18:32Z</time>
      </trkpt>
      <trkpt lat="48.29371" lon="2.64611">
        <ele>110.10799407959</ele>
        <time>2013-05-26T09:18:38Z</time>
      </trkpt>
      <trkpt lat="48.29371" lon="2.64625">
        <ele>106.10799026489</ele>
        <time>2013-05-26T09:18:43Z</time>
      </trkpt>
      <trkpt lat="48.29357" lon="2.64638">
        <ele>102.10794067383</ele>
        <time>2013-05-26T09:18:51Z</time>
      </trkpt>
      <trkpt lat="48.29341" lon="2.64659">
        <ele>100.10787963867</ele>
        <time>2013-05-26T09:18:57Z</time>
      </trkpt>
      <trkpt lat="48.29306" lon="2.64698">
        <ele>103.10774612427</ele>
        <time>2013-05-26T09:19:09Z</time>
      </trkpt>
      <trkpt lat="48.29299" lon="2.64728">
        <ele>101.10771560669</ele>
        <time>2013-05-26T09:19:15Z</time>
      </trkpt>
      <trkpt lat="48.29311" lon="2.64754">
        <ele>103.10774993896</ele>
        <time>2013-05-26T09:19:21Z</time>
      </trkpt>
      <trkpt lat="48.29325" lon="2.64776">
        <ele>104.10779953003</ele>
        <time>2013-05-26T09:19:27Z</time>
      </trkpt>
      <trkpt lat="48.29341" lon="2.64785">
        <ele>108.10786437988</ele>
        <time>2013-05-26T09:19:34Z</time>
      </trkpt>
      <trkpt lat="48.29365" lon="2.64815">
        <ele>108.10794448853</ele>
        <time>2013-05-26T09:19:42Z</time>
      </trkpt>
      <trkpt lat="48.2938" lon="2.64829">
        <ele>108.10799407959</ele>
        <time>2013-05-26T09:19:47Z</time>
      </trkpt>
      <trkpt lat="48.29394" lon="2.64843">
        <ele>107.10804367065</ele>
        <time>2013-05-26T09:19:52Z</time>
      </trkpt>
      <trkpt lat="48.29407" lon="2.64863">
        <ele>107.10809326172</ele>
        <time>2013-05-26T09:19:58Z</time>
      </trkpt>
      <trkpt lat="48.2942" lon="2.64882">
        <ele>106.10813522339</ele>
        <time>2013-05-26T09:20:05Z</time>
      </trkpt>
      <trkpt lat="48.29431" lon="2.64895">
        <ele>106.10817718506</ele>
        <time>2013-05-26T09:20:11Z</time>
      </trkpt>
      <trkpt lat="48.29436" lon="2.6491">
        <ele>106.10818862915</ele>
        <time>2013-05-26T09:20:16Z</time>
      </trkpt>
      <trkpt lat="48.2944" lon="2.64932">
        <ele>107.10820007324</ele>
        <time>2013-05-26T09:20:21Z</time>
      </trkpt>
      <trkpt lat="48.29455" lon="2.64957">
        <ele>107.108253479</ele>
        <time>2013-05-26T09:20:27Z</time>
      </trkpt>
      <trkpt lat="48.29471" lon="2.64974">
        <ele>105.10830688477</ele>
        <time>2013-05-26T09:20:32Z</time>
      </trkpt>
      <trkpt lat="48.29486" lon="2.64984">
        <ele>106.10836791992</ele>
        <time>2013-05-26T09:20:38Z</time>
      </trkpt>
      <trkpt lat="48.29506" lon="2.64986">
        <ele>108.10843658447</ele>
        <time>2013-05-26T09:20:47Z</time>
      </trkpt>
      <trkpt lat="48.29544" lon="2.65016">
        <ele>109.10857391357</ele>
        <time>2013-05-26T09:21:02Z</time>
      </trkpt>
      <trkpt lat="48.29564" lon="2.65034">
        <ele>111.10864257812</ele>
        <time>2013-05-26T09:21:09Z</time>
      </trkpt>
      <trkpt lat="48.29577" lon="2.65049">
        <ele>111.10868835449</ele>
        <time>2013-05-26T09:21:14Z</time>
      </trkpt>
      <trkpt lat="48.2958" lon="2.65066">
        <ele>111.10869598389</ele>
        <time>2013-05-26T09:21:20Z</time>
      </trkpt>
      <trkpt lat="48.2959" lon="2.65115">
        <ele>106.10872650146</ele>
        <time>2013-05-26T09:21:29Z</time>
      </trkpt>
      <trkpt lat="48.29577" lon="2.65132">
        <ele>103.1086769104</ele>
        <time>2013-05-26T09:21:34Z</time>
      </trkpt>
      <trkpt lat="48.29555" lon="2.65156">
        <ele>98.108592987061</ele>
        <time>2013-05-26T09:21:42Z</time>
      </trkpt>
      <trkpt lat="48.29541" lon="2.65174">
        <ele>100.1085357666</ele>
        <time>2013-05-26T09:21:48Z</time>
      </trkpt>
      <trkpt lat="48.29521" lon="2.65206">
        <ele>102.10845947266</ele>
        <time>2013-05-26T09:21:56Z</time>
      </trkpt>
      <trkpt lat="48.295" lon="2.65247">
        <ele>95.108375549316</ele>
        <time>2013-05-26T09:22:07Z</time>
      </trkpt>
      <trkpt lat="48.295" lon="2.65259">
        <ele>91.108375549316</ele>
        <time>2013-05-26T09:22:12Z</time>
      </trkpt>
      <trkpt lat="48.29483" lon="2.65287">
        <ele>91.108306884766</ele>
        <time>2013-05-26T09:22:20Z</time>
      </trkpt>
      <trkpt lat="48.2947" lon="2.65306">
        <ele>95.108261108398</ele>
        <time>2013-05-26T09:22:27Z</time>
      </trkpt>
      <trkpt lat="48.2946" lon="2.6532">
        <ele>97.108215332031</ele>
        <time>2013-05-26T09:22:32Z</time>
      </trkpt>
      <trkpt lat="48.2945" lon="2.65357">
        <ele>97.108173370361</ele>
        <time>2013-05-26T09:22:40Z</time>
      </trkpt>
      <trkpt lat="48.29453" lon="2.65384">
        <ele>95.108180999756</ele>
        <time>2013-05-26T09:22:45Z</time>
      </trkpt>
      <trkpt lat="48.29452" lon="2.65412">
        <ele>95.108177185059</ele>
        <time>2013-05-26T09:22:51Z</time>
      </trkpt>
      <trkpt lat="48.29449" lon="2.65433">
        <ele>95.108158111572</ele>
        <time>2013-05-26T09:22:57Z</time>
      </trkpt>
      <trkpt lat="48.2945" lon="2.65453">
        <ele>98.108158111572</ele>
        <time>2013-05-26T09:23:03Z</time>
      </trkpt>
      <trkpt lat="48.29456" lon="2.65472">
        <ele>98.108180999756</ele>
        <time>2013-05-26T09:23:08Z</time>
      </trkpt>
      <trkpt lat="48.29464" lon="2.65485">
        <ele>99.108207702637</ele>
        <time>2013-05-26T09:23:13Z</time>
      </trkpt>
      <trkpt lat="48.29475" lon="2.65493">
        <ele>101.10824584961</ele>
        <time>2013-05-26T09:23:18Z</time>
      </trkpt>
      <trkpt lat="48.29487" lon="2.65504">
        <ele>102.10829162598</ele>
        <time>2013-05-26T09:23:24Z</time>
      </trkpt>
      <trkpt lat="48.29496" lon="2.6551">
        <ele>103.10831832886</ele>
        <time>2013-05-26T09:23:29Z</time>
      </trkpt>
      <trkpt lat="48.29507" lon="2.65511">
        <ele>106.10836029053</ele>
        <time>2013-05-26T09:23:35Z</time>
      </trkpt>
      <trkpt lat="48.29517" lon="2.65502">
        <ele>111.1083984375</ele>
        <time>2013-05-26T09:23:41Z</time>
      </trkpt>
      <trkpt lat="48.29528" lon="2.6549">
        <ele>112.10844421387</ele>
        <time>2013-05-26T09:23:47Z</time>
      </trkpt>
      <trkpt lat="48.29539" lon="2.65482">
        <ele>114.10848617554</ele>
        <time>2013-05-26T09:23:52Z</time>
      </trkpt>
      <trkpt lat="48.29555" lon="2.65463">
        <ele>116.108543396</ele>
        <time>2013-05-26T09:23:59Z</time>
      </trkpt>
      <trkpt lat="48.29569" lon="2.65444">
        <ele>116.10860061646</ele>
        <time>2013-05-26T09:24:05Z</time>
      </trkpt>
      <trkpt lat="48.29588" lon="2.65442">
        <ele>115.10866928101</ele>
        <time>2013-05-26T09:24:11Z</time>
      </trkpt>
      <trkpt lat="48.29622" lon="2.65469">
        <ele>114.10879135132</ele>
        <time>2013-05-26T09:24:20Z</time>
      </trkpt>
      <trkpt lat="48.29637" lon="2.65487">
        <ele>113.10884475708</ele>
        <time>2013-05-26T09:24:26Z</time>
      </trkpt>
      <trkpt lat="48.2965" lon="2.65506">
        <ele>115.10888671875</ele>
        <time>2013-05-26T09:24:33Z</time>
      </trkpt>
      <trkpt lat="48.29663" lon="2.65523">
        <ele>116.10893249512</ele>
        <time>2013-05-26T09:24:39Z</time>
      </trkpt>
      <trkpt lat="48.29675" lon="2.65544">
        <ele>117.10897445679</ele>
        <time>2013-05-26T09:24:44Z</time>
      </trkpt>
      <trkpt lat="48.29687" lon="2.65567">
        <ele>117.10901260376</ele>
        <time>2013-05-26T09:24:50Z</time>
      </trkpt>
      <trkpt lat="48.29703" lon="2.65588">
        <ele>117.10906982422</ele>
        <time>2013-05-26T09:24:56Z</time>
      </trkpt>
      <trkpt lat="48.29719" lon="2.65592">
        <ele>115.10912704468</ele>
        <time>2013-05-26T09:25:02Z</time>
      </trkpt>
      <trkpt lat="48.29732" lon="2.65562">
        <ele>114.10918045044</ele>
        <time>2013-05-26T09:25:13Z</time>
      </trkpt>
      <trkpt lat="48.29749" lon="2.65567">
        <ele>113.10924530029</ele>
        <time>2013-05-26T09:25:19Z</time>
      </trkpt>
      <trkpt lat="48.29755" lon="2.65564">
        <ele>111.10926818848</ele>
        <time>2013-05-26T09:25:24Z</time>
      </trkpt>
      <trkpt lat="48.29769" lon="2.65551">
        <ele>112.10931777954</ele>
        <time>2013-05-26T09:25:32Z</time>
      </trkpt>
      <trkpt lat="48.29787" lon="2.65545">
        <ele>110.10938644409</ele>
        <time>2013-05-26T09:25:38Z</time>
      </trkpt>
      <trkpt lat="48.29809" lon="2.65536">
        <ele>113.10946273804</ele>
        <time>2013-05-26T09:25:46Z</time>
      </trkpt>
      <trkpt lat="48.29814" lon="2.65519">
        <ele>115.10948944092</ele>
        <time>2013-05-26T09:25:51Z</time>
      </trkpt>
      <trkpt lat="48.29834" lon="2.65519">
        <ele>112.10956192017</ele>
        <time>2013-05-26T09:25:57Z</time>
      </trkpt>
      <trkpt lat="48.29856" lon="2.65524">
        <ele>109.10964202881</ele>
        <time>2013-05-26T09:26:06Z</time>
      </trkpt>
      <trkpt lat="48.29858" lon="2.65523">
        <ele>108.1096496582</ele>
        <time>2013-05-26T09:26:12Z</time>
      </trkpt>
      <trkpt lat="48.2989" lon="2.65544">
        <ele>108.10976409912</ele>
        <time>2013-05-26T09:26:18Z</time>
      </trkpt>
      <trkpt lat="48.2991" lon="2.65548">
        <ele>107.10983657837</ele>
        <time>2013-05-26T09:26:25Z</time>
      </trkpt>
      <trkpt lat="48.29919" lon="2.65533">
        <ele>112.10987091064</ele>
        <time>2013-05-26T09:26:31Z</time>
      </trkpt>
      <trkpt lat="48.29931" lon="2.6553">
        <ele>114.10991668701</ele>
        <time>2013-05-26T09:26:36Z</time>
      </trkpt>
      <trkpt lat="48.29947" lon="2.65513">
        <ele>117.10998153687</ele>
        <time>2013-05-26T09:26:42Z</time>
      </trkpt>
      <trkpt lat="48.29968" lon="2.65493">
        <ele>119.11005783081</ele>
        <time>2013-05-26T09:26:48Z</time>
      </trkpt>
      <trkpt lat="48.29993" lon="2.65471">
        <ele>120.11015319824</ele>
        <time>2013-05-26T09:26:57Z</time>
      </trkpt>
      <trkpt lat="48.30012" lon="2.65454">
        <ele>119.11022186279</ele>
        <time>2013-05-26T09:27:03Z</time>
      </trkpt>
      <trkpt lat="48.30033" lon="2.65438">
        <ele>118.11030578613</ele>
        <time>2013-05-26T09:27:09Z</time>
      </trkpt>
      <trkpt lat="48.30048" lon="2.65424">
        <ele>119.11036300659</ele>
        <time>2013-05-26T09:27:14Z</time>
      </trkpt>
      <trkpt lat="48.30078" lon="2.65392">
        <ele>121.11047363281</ele>
        <time>2013-05-26T09:27:21Z</time>
      </trkpt>
      <trkpt lat="48.30097" lon="2.65368">
        <ele>121.11055374146</ele>
        <time>2013-05-26T09:27:27Z</time>
      </trkpt>
      <trkpt lat="48.30107" lon="2.65346">
        <ele>120.11059188843</ele>
        <time>2013-05-26T09:27:33Z</time>
      </trkpt>
      <trkpt lat="48.30113" lon="2.65328">
        <ele>116.11061859131</ele>
        <time>2013-05-26T09:27:39Z</time>
      </trkpt>
      <trkpt lat="48.30112" lon="2.65312">
        <ele>113.11061859131</ele>
        <time>2013-05-26T09:27:45Z</time>
      </trkpt>
      <trkpt lat="48.3011" lon="2.65297">
        <ele>110.11061096191</ele>
        <time>2013-05-26T09:27:51Z</time>
      </trkpt>
      <trkpt lat="48.3011" lon="2.6527">
        <ele>108.11061096191</ele>
        <time>2013-05-26T09:28:02Z</time>
      </trkpt>
      <trkpt lat="48.30112" lon="2.65258">
        <ele>109.11061859131</ele>
        <time>2013-05-26T09:28:08Z</time>
      </trkpt>
      <trkpt lat="48.30118" lon="2.65238">
        <ele>110.11064910889</ele>
        <time>2013-05-26T09:28:14Z</time>
      </trkpt>
      <trkpt lat="48.30121" lon="2.6521">
        <ele>111.11066436768</ele>
        <time>2013-05-26T09:28:22Z</time>
      </trkpt>
      <trkpt lat="48.30119" lon="2.65189">
        <ele>110.11066055298</ele>
        <time>2013-05-26T09:28:28Z</time>
      </trkpt>
      <trkpt lat="48.30116" lon="2.65172">
        <ele>110.11064910889</ele>
        <time>2013-05-26T09:28:33Z</time>
      </trkpt>
      <trkpt lat="48.3011" lon="2.65152">
        <ele>108.1106300354</ele>
        <time>2013-05-26T09:28:38Z</time>
      </trkpt>
      <trkpt lat="48.30101" lon="2.6513">
        <ele>109.11060333252</ele>
        <time>2013-05-26T09:28:44Z</time>
      </trkpt>
      <trkpt lat="48.30098" lon="2.65098">
        <ele>110.11059570312</ele>
        <time>2013-05-26T09:28:53Z</time>
      </trkpt>
      <trkpt lat="48.30099" lon="2.6508">
        <ele>110.11060333252</ele>
        <time>2013-05-26T09:28:58Z</time>
      </trkpt>
      <trkpt lat="48.30102" lon="2.65067">
        <ele>110.11061477661</ele>
        <time>2013-05-26T09:29:03Z</time>
      </trkpt>
      <trkpt lat="48.30103" lon="2.65051">
        <ele>111.11061859131</ele>
        <time>2013-05-26T09:29:08Z</time>
      </trkpt>
      <trkpt lat="48.30108" lon="2.65031">
        <ele>112.11064147949</ele>
        <time>2013-05-26T09:29:14Z</time>
      </trkpt>
      <trkpt lat="48.30114" lon="2.65015">
        <ele>113.11066436768</ele>
        <time>2013-05-26T09:29:20Z</time>
      </trkpt>
      <trkpt lat="48.30123" lon="2.64999">
        <ele>117.11070251465</ele>
        <time>2013-05-26T09:29:28Z</time>
      </trkpt>
      <trkpt lat="48.30131" lon="2.64985">
        <ele>114.11073684692</ele>
        <time>2013-05-26T09:29:33Z</time>
      </trkpt>
      <trkpt lat="48.30145" lon="2.64961">
        <ele>109.11078643799</ele>
        <time>2013-05-26T09:29:40Z</time>
      </trkpt>
      <trkpt lat="48.30158" lon="2.64943">
        <ele>105.11083602905</ele>
        <time>2013-05-26T09:29:45Z</time>
      </trkpt>
      <trkpt lat="48.30172" lon="2.64939">
        <ele>103.11088943481</ele>
        <time>2013-05-26T09:29:53Z</time>
      </trkpt>
      <trkpt lat="48.30176" lon="2.64941">
        <ele>103.1109046936</ele>
        <time>2013-05-26T09:29:59Z</time>
      </trkpt>
      <trkpt lat="48.30181" lon="2.64942">
        <ele>96.11092376709</ele>
        <time>2013-05-26T09:30:05Z</time>
      </trkpt>
      <trkpt lat="48.30189" lon="2.64947">
        <ele>96.110954284668</ele>
        <time>2013-05-26T09:30:10Z</time>
      </trkpt>
      <trkpt lat="48.30202" lon="2.64965">
        <ele>97.110996246338</ele>
        <time>2013-05-26T09:30:15Z</time>
      </trkpt>
      <trkpt lat="48.30206" lon="2.64974">
        <ele>99.111011505127</ele>
        <time>2013-05-26T09:30:21Z</time>
      </trkpt>
      <trkpt lat="48.30214" lon="2.64969">
        <ele>104.11103439331</ele>
        <time>2013-05-26T09:30:30Z</time>
      </trkpt>
      <trkpt lat="48.30217" lon="2.64952">
        <ele>103.1110534668</ele>
        <time>2013-05-26T09:30:36Z</time>
      </trkpt>
      <trkpt lat="48.30217" lon="2.64935">
        <ele>103.11105728149</ele>
        <time>2013-05-26T09:30:42Z</time>
      </trkpt>
      <trkpt lat="48.30228" lon="2.64925">
        <ele>105.11110305786</ele>
        <time>2013-05-26T09:30:48Z</time>
      </trkpt>
      <trkpt lat="48.30237" lon="2.64929">
        <ele>106.11112976074</ele>
        <time>2013-05-26T09:30:54Z</time>
      </trkpt>
      <trkpt lat="48.30243" lon="2.64931">
        <ele>105.11115264893</ele>
        <time>2013-05-26T09:31:00Z</time>
      </trkpt>
      <trkpt lat="48.30246" lon="2.64927">
        <ele>103.11116027832</ele>
        <time>2013-05-26T09:31:06Z</time>
      </trkpt>
      <trkpt lat="48.30254" lon="2.6491">
        <ele>102.11119842529</ele>
        <time>2013-05-26T09:31:12Z</time>
      </trkpt>
      <trkpt lat="48.30262" lon="2.64894">
        <ele>102.11122894287</ele>
        <time>2013-05-26T09:31:18Z</time>
      </trkpt>
      <trkpt lat="48.30277" lon="2.64879">
        <ele>103.11128616333</ele>
        <time>2013-05-26T09:31:26Z</time>
      </trkpt>
      <trkpt lat="48.30288" lon="2.64861">
        <ele>104.111328125</ele>
        <time>2013-05-26T09:31:32Z</time>
      </trkpt>
      <trkpt lat="48.30296" lon="2.6484">
        <ele>105.11136245728</ele>
        <time>2013-05-26T09:31:37Z</time>
      </trkpt>
      <trkpt lat="48.30304" lon="2.64823">
        <ele>106.11138916016</ele>
        <time>2013-05-26T09:31:42Z</time>
      </trkpt>
      <trkpt lat="48.30311" lon="2.648">
        <ele>104.11142349243</ele>
        <time>2013-05-26T09:31:48Z</time>
      </trkpt>
      <trkpt lat="48.3032" lon="2.64777">
        <ele>102.11145782471</ele>
        <time>2013-05-26T09:31:54Z</time>
      </trkpt>
      <trkpt lat="48.3033" lon="2.64752">
        <ele>103.11150360107</ele>
        <time>2013-05-26T09:32:02Z</time>
      </trkpt>
      <trkpt lat="48.30338" lon="2.64737">
        <ele>104.11153793335</ele>
        <time>2013-05-26T09:32:08Z</time>
      </trkpt>
      <trkpt lat="48.3035" lon="2.64725">
        <ele>108.11157608032</ele>
        <time>2013-05-26T09:32:15Z</time>
      </trkpt>
      <trkpt lat="48.30356" lon="2.64709">
        <ele>109.1116065979</ele>
        <time>2013-05-26T09:32:21Z</time>
      </trkpt>
      <trkpt lat="48.30358" lon="2.64689">
        <ele>106.11161422729</ele>
        <time>2013-05-26T09:32:27Z</time>
      </trkpt>
      <trkpt lat="48.30357" lon="2.64669">
        <ele>104.1116104126</ele>
        <time>2013-05-26T09:32:32Z</time>
      </trkpt>
      <trkpt lat="48.30356" lon="2.64645">
        <ele>103.11161804199</ele>
        <time>2013-05-26T09:32:39Z</time>
      </trkpt>
      <trkpt lat="48.30361" lon="2.64615">
        <ele>103.11163330078</ele>
        <time>2013-05-26T09:32:48Z</time>
      </trkpt>
      <trkpt lat="48.30373" lon="2.64605">
        <ele>103.11167907715</ele>
        <time>2013-05-26T09:32:53Z</time>
      </trkpt>
      <trkpt lat="48.30382" lon="2.64591">
        <ele>104.11171722412</ele>
        <time>2013-05-26T09:32:59Z</time>
      </trkpt>
      <trkpt lat="48.30387" lon="2.64576">
        <ele>106.11173629761</ele>
        <time>2013-05-26T09:33:05Z</time>
      </trkpt>
      <trkpt lat="48.30393" lon="2.64562">
        <ele>108.11175918579</ele>
        <time>2013-05-26T09:33:10Z</time>
      </trkpt>
      <trkpt lat="48.30398" lon="2.64548">
        <ele>110.11178207397</ele>
        <time>2013-05-26T09:33:15Z</time>
      </trkpt>
      <trkpt lat="48.30407" lon="2.64544">
        <ele>111.11181640625</ele>
        <time>2013-05-26T09:33:20Z</time>
      </trkpt>
      <trkpt lat="48.30423" lon="2.64541">
        <ele>110.11186981201</ele>
        <time>2013-05-26T09:33:29Z</time>
      </trkpt>
      <trkpt lat="48.30426" lon="2.64541">
        <ele>110.1118850708</ele>
        <time>2013-05-26T09:33:34Z</time>
      </trkpt>
      <trkpt lat="48.30433" lon="2.64543">
        <ele>105.11191177368</ele>
        <time>2013-05-26T09:33:39Z</time>
      </trkpt>
      <trkpt lat="48.30444" lon="2.6455">
        <ele>102.11194610596</ele>
        <time>2013-05-26T09:33:48Z</time>
      </trkpt>
      <trkpt lat="48.30446" lon="2.64551">
        <ele>101.11195755005</ele>
        <time>2013-05-26T09:33:56Z</time>
      </trkpt>
      <trkpt lat="48.30447" lon="2.64553">
        <ele>101.11196136475</ele>
        <time>2013-05-26T09:34:01Z</time>
      </trkpt>
      <trkpt lat="48.30445" lon="2.64567">
        <ele>98.111953735352</ele>
        <time>2013-05-26T09:34:07Z</time>
      </trkpt>
      <trkpt lat="48.30444" lon="2.64568">
        <ele>98.111949920654</ele>
        <time>2013-05-26T09:34:13Z</time>
      </trkpt>
      <trkpt lat="48.30443" lon="2.64571">
        <ele>102.11194610596</ele>
        <time>2013-05-26T09:34:21Z</time>
      </trkpt>
      <trkpt lat="48.30444" lon="2.64572">
        <ele>102.11194992065</ele>
        <time>2013-05-26T09:34:26Z</time>
      </trkpt>
      <trkpt lat="48.30444" lon="2.64571">
        <ele>103.11194610596</ele>
        <time>2013-05-26T09:34:32Z</time>
      </trkpt>
      <trkpt lat="48.30445" lon="2.64572">
        <ele>97.111949920654</ele>
        <time>2013-05-26T09:34:38Z</time>
      </trkpt>
      <trkpt lat="48.30445" lon="2.6457">
        <ele>93.111949920654</ele>
        <time>2013-05-26T09:34:43Z</time>
      </trkpt>
      <trkpt lat="48.30444" lon="2.64569">
        <ele>89.11194229126</ele>
        <time>2013-05-26T09:34:48Z</time>
      </trkpt>
      <trkpt lat="48.30441" lon="2.64568">
        <ele>89.111934661865</ele>
        <time>2013-05-26T09:34:55Z</time>
      </trkpt>
      <trkpt lat="48.3044" lon="2.64568">
        <ele>89.111938476562</ele>
        <time>2013-05-26T09:35:00Z</time>
      </trkpt>
      <trkpt lat="48.30436" lon="2.64569">
        <ele>93.111919403076</ele>
        <time>2013-05-26T09:35:06Z</time>
      </trkpt>
      <trkpt lat="48.30435" lon="2.64569">
        <ele>94.111907958984</ele>
        <time>2013-05-26T09:35:13Z</time>
      </trkpt>
      <trkpt lat="48.30434" lon="2.64572">
        <ele>96.111911773682</ele>
        <time>2013-05-26T09:35:18Z</time>
      </trkpt>
      <trkpt lat="48.30444" lon="2.64588">
        <ele>98.11194229126</ele>
        <time>2013-05-26T09:35:24Z</time>
      </trkpt>
      <trkpt lat="48.3045" lon="2.646">
        <ele>99.111961364746</ele>
        <time>2013-05-26T09:35:31Z</time>
      </trkpt>
      <trkpt lat="48.30452" lon="2.64604">
        <ele>98.111968994141</ele>
        <time>2013-05-26T09:35:36Z</time>
      </trkpt>
      <trkpt lat="48.30455" lon="2.64608">
        <ele>97.11198425293</ele>
        <time>2013-05-26T09:35:43Z</time>
      </trkpt>
      <trkpt lat="48.30454" lon="2.64616">
        <ele>98.111976623535</ele>
        <time>2013-05-26T09:35:49Z</time>
      </trkpt>
      <trkpt lat="48.30452" lon="2.64623">
        <ele>98.111968994141</ele>
        <time>2013-05-26T09:35:54Z</time>
      </trkpt>
      <trkpt lat="48.30452" lon="2.64641">
        <ele>102.11196517944</ele>
        <time>2013-05-26T09:36:01Z</time>
      </trkpt>
      <trkpt lat="48.30453" lon="2.64661">
        <ele>104.11196899414</ele>
        <time>2013-05-26T09:36:06Z</time>
      </trkpt>
      <trkpt lat="48.30454" lon="2.64686">
        <ele>105.11196136475</ele>
        <time>2013-05-26T09:36:12Z</time>
      </trkpt>
      <trkpt lat="48.30454" lon="2.64715">
        <ele>106.11196136475</ele>
        <time>2013-05-26T09:36:18Z</time>
      </trkpt>
      <trkpt lat="48.30453" lon="2.64734">
        <ele>106.11195755005</ele>
        <time>2013-05-26T09:36:23Z</time>
      </trkpt>
      <trkpt lat="48.30454" lon="2.64751">
        <ele>105.11195373535</ele>
        <time>2013-05-26T09:36:29Z</time>
      </trkpt>
      <trkpt lat="48.30457" lon="2.64767">
        <ele>102.11196136475</ele>
        <time>2013-05-26T09:36:35Z</time>
      </trkpt>
      <trkpt lat="48.30457" lon="2.64784">
        <ele>96.111961364746</ele>
        <time>2013-05-26T09:36:41Z</time>
      </trkpt>
      <trkpt lat="48.30456" lon="2.64803">
        <ele>93.111957550049</ele>
        <time>2013-05-26T09:36:47Z</time>
      </trkpt>
      <trkpt lat="48.30457" lon="2.64817">
        <ele>93.111957550049</ele>
        <time>2013-05-26T09:36:52Z</time>
      </trkpt>
      <trkpt lat="48.30458" lon="2.64828">
        <ele>94.111953735352</ele>
        <time>2013-05-26T09:36:57Z</time>
      </trkpt>
      <trkpt lat="48.30461" lon="2.64837">
        <ele>94.111968994141</ele>
        <time>2013-05-26T09:37:02Z</time>
      </trkpt>
      <trkpt lat="48.30466" lon="2.64847">
        <ele>99.11198425293</ele>
        <time>2013-05-26T09:37:08Z</time>
      </trkpt>
      <trkpt lat="48.30471" lon="2.64852">
        <ele>99.112003326416</ele>
        <time>2013-05-26T09:37:15Z</time>
      </trkpt>
      <trkpt lat="48.30474" lon="2.64852">
        <ele>99.112014770508</ele>
        <time>2013-05-26T09:37:20Z</time>
      </trkpt>
      <trkpt lat="48.30477" lon="2.64854">
        <ele>97.112022399902</ele>
        <time>2013-05-26T09:37:26Z</time>
      </trkpt>
      <trkpt lat="48.30479" lon="2.64862">
        <ele>97.112030029297</ele>
        <time>2013-05-26T09:37:35Z</time>
      </trkpt>
      <trkpt lat="48.30479" lon="2.64862">
        <ele>95.112030029297</ele>
        <time>2013-05-26T09:37:40Z</time>
      </trkpt>
      <trkpt lat="48.30479" lon="2.64861">
        <ele>94.1120262146</ele>
        <time>2013-05-26T09:37:46Z</time>
      </trkpt>
      <trkpt lat="48.3048" lon="2.64856">
        <ele>81.112037658691</ele>
        <time>2013-05-26T09:37:54Z</time>
      </trkpt>
      <trkpt lat="48.30481" lon="2.64851">
        <ele>69.112037658691</ele>
        <time>2013-05-26T09:37:59Z</time>
      </trkpt>
      <trkpt lat="48.30481" lon="2.64845">
        <ele>59.112037658691</ele>
        <time>2013-05-26T09:38:05Z</time>
      </trkpt>
      <trkpt lat="48.30479" lon="2.64842">
        <ele>54.112037658691</ele>
        <time>2013-05-26T09:38:14Z</time>
      </trkpt>
      <trkpt lat="48.30479" lon="2.64843">
        <ele>52.112033843994</ele>
        <time>2013-05-26T09:38:20Z</time>
      </trkpt>
      <trkpt lat="48.30477" lon="2.64846">
        <ele>54.1120262146</ele>
        <time>2013-05-26T09:38:26Z</time>
      </trkpt>
      <trkpt lat="48.30475" lon="2.64848">
        <ele>55.112022399902</ele>
        <time>2013-05-26T09:38:32Z</time>
      </trkpt>
      <trkpt lat="48.30472" lon="2.64846">
        <ele>54.112007141113</ele>
        <time>2013-05-26T09:38:39Z</time>
      </trkpt>
      <trkpt lat="48.3047" lon="2.64844">
        <ele>52.112003326416</ele>
        <time>2013-05-26T09:38:45Z</time>
      </trkpt>
      <trkpt lat="48.30469" lon="2.64842">
        <ele>50.111999511719</ele>
        <time>2013-05-26T09:38:51Z</time>
      </trkpt>
      <trkpt lat="48.30467" lon="2.6484">
        <ele>53.111988067627</ele>
        <time>2013-05-26T09:38:59Z</time>
      </trkpt>
      <trkpt lat="48.30467" lon="2.64838">
        <ele>56.111988067627</ele>
        <time>2013-05-26T09:39:04Z</time>
      </trkpt>
      <trkpt lat="48.3047" lon="2.6483">
        <ele>59.111999511719</ele>
        <time>2013-05-26T09:39:12Z</time>
      </trkpt>
      <trkpt lat="48.30473" lon="2.64822">
        <ele>50.112010955811</ele>
        <time>2013-05-26T09:39:19Z</time>
      </trkpt>
      <trkpt lat="48.30473" lon="2.6482">
        <ele>51.112014770508</ele>
        <time>2013-05-26T09:39:24Z</time>
      </trkpt>
      <trkpt lat="48.30473" lon="2.6482">
        <ele>55.112014770508</ele>
        <time>2013-05-26T09:39:30Z</time>
      </trkpt>
      <trkpt lat="48.30473" lon="2.64821">
        <ele>63.112018585205</ele>
        <time>2013-05-26T09:39:36Z</time>
      </trkpt>
      <trkpt lat="48.30473" lon="2.64822">
        <ele>67.112014770508</ele>
        <time>2013-05-26T09:39:42Z</time>
      </trkpt>
      <trkpt lat="48.30474" lon="2.64823">
        <ele>66.112018585205</ele>
        <time>2013-05-26T09:39:48Z</time>
      </trkpt>
      <trkpt lat="48.30475" lon="2.64825">
        <ele>65.112022399902</ele>
        <time>2013-05-26T09:39:55Z</time>
      </trkpt>
      <trkpt lat="48.30475" lon="2.64827">
        <ele>62.112022399902</ele>
        <time>2013-05-26T09:40:00Z</time>
      </trkpt>
      <trkpt lat="48.30475" lon="2.64829">
        <ele>61.112018585205</ele>
        <time>2013-05-26T09:40:06Z</time>
      </trkpt>
      <trkpt lat="48.30475" lon="2.64831">
        <ele>64.112022399902</ele>
        <time>2013-05-26T09:40:14Z</time>
      </trkpt>
      <trkpt lat="48.30475" lon="2.64832">
        <ele>64.112022399902</ele>
        <time>2013-05-26T09:40:20Z</time>
      </trkpt>
      <trkpt lat="48.30477" lon="2.64832">
        <ele>65.112030029297</ele>
        <time>2013-05-26T09:40:25Z</time>
      </trkpt>
      <trkpt lat="48.30487" lon="2.64831">
        <ele>70.11206817627</ele>
        <time>2013-05-26T09:40:31Z</time>
      </trkpt>
      <trkpt lat="48.30501" lon="2.64827">
        <ele>75.112121582031</ele>
        <time>2013-05-26T09:40:38Z</time>
      </trkpt>
      <trkpt lat="48.30514" lon="2.64826">
        <ele>81.112163543701</ele>
        <time>2013-05-26T09:40:44Z</time>
      </trkpt>
      <trkpt lat="48.30528" lon="2.64824">
        <ele>88.112216949463</ele>
        <time>2013-05-26T09:40:49Z</time>
      </trkpt>
      <trkpt lat="48.30541" lon="2.64822">
        <ele>95.112266540527</ele>
        <time>2013-05-26T09:40:54Z</time>
      </trkpt>
      <trkpt lat="48.3056" lon="2.64815">
        <ele>102.11233520508</ele>
        <time>2013-05-26T09:41:00Z</time>
      </trkpt>
      <trkpt lat="48.30577" lon="2.64802">
        <ele>105.11240386963</ele>
        <time>2013-05-26T09:41:06Z</time>
      </trkpt>
      <trkpt lat="48.30596" lon="2.64787">
        <ele>106.11247253418</ele>
        <time>2013-05-26T09:41:11Z</time>
      </trkpt>
      <trkpt lat="48.30616" lon="2.64766">
        <ele>106.11254882812</ele>
        <time>2013-05-26T09:41:17Z</time>
      </trkpt>
      <trkpt lat="48.30637" lon="2.64745">
        <ele>108.11263275146</ele>
        <time>2013-05-26T09:41:23Z</time>
      </trkpt>
      <trkpt lat="48.30654" lon="2.64725">
        <ele>112.11269760132</ele>
        <time>2013-05-26T09:41:29Z</time>
      </trkpt>
      <trkpt lat="48.30669" lon="2.64705">
        <ele>113.11275863647</ele>
        <time>2013-05-26T09:41:35Z</time>
      </trkpt>
      <trkpt lat="48.30683" lon="2.64688">
        <ele>117.11280822754</ele>
        <time>2013-05-26T09:41:40Z</time>
      </trkpt>
      <trkpt lat="48.30696" lon="2.64668">
        <ele>117.1128578186</ele>
        <time>2013-05-26T09:41:45Z</time>
      </trkpt>
      <trkpt lat="48.30722" lon="2.64637">
        <ele>117.11296463013</ele>
        <time>2013-05-26T09:41:53Z</time>
      </trkpt>
      <trkpt lat="48.30739" lon="2.64627">
        <ele>118.11302185059</ele>
        <time>2013-05-26T09:41:59Z</time>
      </trkpt>
      <trkpt lat="48.30757" lon="2.64624">
        <ele>124.11309051514</ele>
        <time>2013-05-26T09:42:05Z</time>
      </trkpt>
      <trkpt lat="48.30775" lon="2.6462">
        <ele>128.11315917969</ele>
        <time>2013-05-26T09:42:10Z</time>
      </trkpt>
      <trkpt lat="48.30795" lon="2.6461">
        <ele>129.11323165894</ele>
        <time>2013-05-26T09:42:16Z</time>
      </trkpt>
      <trkpt lat="48.30812" lon="2.64597">
        <ele>129.11330032349</ele>
        <time>2013-05-26T09:42:21Z</time>
      </trkpt>
      <trkpt lat="48.3083" lon="2.64587">
        <ele>126.11336517334</ele>
        <time>2013-05-26T09:42:26Z</time>
      </trkpt>
      <trkpt lat="48.30848" lon="2.64575">
        <ele>124.11343383789</ele>
        <time>2013-05-26T09:42:32Z</time>
      </trkpt>
      <trkpt lat="48.30869" lon="2.64566">
        <ele>127.11351013184</ele>
        <time>2013-05-26T09:42:38Z</time>
      </trkpt>
      <trkpt lat="48.30887" lon="2.64559">
        <ele>129.11357879639</ele>
        <time>2013-05-26T09:42:44Z</time>
      </trkpt>
      <trkpt lat="48.30913" lon="2.64553">
        <ele>129.11367416382</ele>
        <time>2013-05-26T09:42:50Z</time>
      </trkpt>
      <trkpt lat="48.30952" lon="2.64547">
        <ele>130.11381530762</ele>
        <time>2013-05-26T09:43:01Z</time>
      </trkpt>
      <trkpt lat="48.3097" lon="2.64542">
        <ele>129.11388778687</ele>
        <time>2013-05-26T09:43:06Z</time>
      </trkpt>
      <trkpt lat="48.30996" lon="2.64537">
        <ele>126.1139793396</ele>
        <time>2013-05-26T09:43:12Z</time>
      </trkpt>
      <trkpt lat="48.31016" lon="2.64529">
        <ele>123.11405563354</ele>
        <time>2013-05-26T09:43:18Z</time>
      </trkpt>
      <trkpt lat="48.31038" lon="2.645">
        <ele>115.11414337158</ele>
        <time>2013-05-26T09:43:24Z</time>
      </trkpt>
      <trkpt lat="48.31053" lon="2.6447">
        <ele>107.11420440674</ele>
        <time>2013-05-26T09:43:30Z</time>
      </trkpt>
      <trkpt lat="48.31065" lon="2.64443">
        <ele>102.1142539978</ele>
        <time>2013-05-26T09:43:36Z</time>
      </trkpt>
      <trkpt lat="48.31073" lon="2.64423">
        <ele>101.11428070068</ele>
        <time>2013-05-26T09:43:41Z</time>
      </trkpt>
      <trkpt lat="48.31079" lon="2.64405">
        <ele>99.114307403564</ele>
        <time>2013-05-26T09:43:46Z</time>
      </trkpt>
      <trkpt lat="48.31087" lon="2.64384">
        <ele>95.114337921143</ele>
        <time>2013-05-26T09:43:52Z</time>
      </trkpt>
      <trkpt lat="48.31094" lon="2.64369">
        <ele>94.114368438721</ele>
        <time>2013-05-26T09:43:57Z</time>
      </trkpt>
      <trkpt lat="48.311" lon="2.64353">
        <ele>94.114391326904</ele>
        <time>2013-05-26T09:44:02Z</time>
      </trkpt>
      <trkpt lat="48.31106" lon="2.64338">
        <ele>94.114421844482</ele>
        <time>2013-05-26T09:44:07Z</time>
      </trkpt>
      <trkpt lat="48.31112" lon="2.64322">
        <ele>95.114444732666</ele>
        <time>2013-05-26T09:44:13Z</time>
      </trkpt>
      <trkpt lat="48.31117" lon="2.6431">
        <ele>96.114459991455</ele>
        <time>2013-05-26T09:44:19Z</time>
      </trkpt>
      <trkpt lat="48.31122" lon="2.64301">
        <ele>98.114486694336</ele>
        <time>2013-05-26T09:44:24Z</time>
      </trkpt>
      <trkpt lat="48.31128" lon="2.64288">
        <ele>101.11450576782</ele>
        <time>2013-05-26T09:44:30Z</time>
      </trkpt>
      <trkpt lat="48.31134" lon="2.64271">
        <ele>104.11452865601</ele>
        <time>2013-05-26T09:44:36Z</time>
      </trkpt>
      <trkpt lat="48.31139" lon="2.64255">
        <ele>104.11455154419</ele>
        <time>2013-05-26T09:44:41Z</time>
      </trkpt>
      <trkpt lat="48.31141" lon="2.64234">
        <ele>105.11455917358</ele>
        <time>2013-05-26T09:44:47Z</time>
      </trkpt>
      <trkpt lat="48.31141" lon="2.64214">
        <ele>105.11456298828</ele>
        <time>2013-05-26T09:44:53Z</time>
      </trkpt>
      <trkpt lat="48.3114" lon="2.64192">
        <ele>107.11456680298</ele>
        <time>2013-05-26T09:45:00Z</time>
      </trkpt>
      <trkpt lat="48.3114" lon="2.64174">
        <ele>107.11456298828</ele>
        <time>2013-05-26T09:45:06Z</time>
      </trkpt>
      <trkpt lat="48.31142" lon="2.64155">
        <ele>107.11458206177</ele>
        <time>2013-05-26T09:45:12Z</time>
      </trkpt>
      <trkpt lat="48.31146" lon="2.64137">
        <ele>108.11459732056</ele>
        <time>2013-05-26T09:45:18Z</time>
      </trkpt>
      <trkpt lat="48.31153" lon="2.64123">
        <ele>109.11462020874</ele>
        <time>2013-05-26T09:45:24Z</time>
      </trkpt>
      <trkpt lat="48.31159" lon="2.64115">
        <ele>111.11464691162</ele>
        <time>2013-05-26T09:45:30Z</time>
      </trkpt>
      <trkpt lat="48.31163" lon="2.64113">
        <ele>113.11466217041</ele>
        <time>2013-05-26T09:45:35Z</time>
      </trkpt>
      <trkpt lat="48.31169" lon="2.6411">
        <ele>115.11468505859</ele>
        <time>2013-05-26T09:45:41Z</time>
      </trkpt>
      <trkpt lat="48.31174" lon="2.64102">
        <ele>117.11470794678</ele>
        <time>2013-05-26T09:45:46Z</time>
      </trkpt>
      <trkpt lat="48.3118" lon="2.64088">
        <ele>117.11473083496</ele>
        <time>2013-05-26T09:45:52Z</time>
      </trkpt>
      <trkpt lat="48.31184" lon="2.64074">
        <ele>116.11474227905</ele>
        <time>2013-05-26T09:45:57Z</time>
      </trkpt>
      <trkpt lat="48.31187" lon="2.64059">
        <ele>116.11475753784</ele>
        <time>2013-05-26T09:46:02Z</time>
      </trkpt>
      <trkpt lat="48.3119" lon="2.64039">
        <ele>114.11477279663</ele>
        <time>2013-05-26T09:46:08Z</time>
      </trkpt>
      <trkpt lat="48.31192" lon="2.64023">
        <ele>112.11478042603</ele>
        <time>2013-05-26T09:46:13Z</time>
      </trkpt>
      <trkpt lat="48.31194" lon="2.64009">
        <ele>110.11479187012</ele>
        <time>2013-05-26T09:46:18Z</time>
      </trkpt>
      <trkpt lat="48.31196" lon="2.63992">
        <ele>110.11480331421</ele>
        <time>2013-05-26T09:46:23Z</time>
      </trkpt>
      <trkpt lat="48.312" lon="2.63971">
        <ele>109.1148223877</ele>
        <time>2013-05-26T09:46:29Z</time>
      </trkpt>
      <trkpt lat="48.31204" lon="2.63953">
        <ele>109.11483383179</ele>
        <time>2013-05-26T09:46:34Z</time>
      </trkpt>
      <trkpt lat="48.3121" lon="2.63933">
        <ele>110.11486434937</ele>
        <time>2013-05-26T09:46:39Z</time>
      </trkpt>
      <trkpt lat="48.31218" lon="2.6391">
        <ele>109.11489486694</ele>
        <time>2013-05-26T09:46:45Z</time>
      </trkpt>
      <trkpt lat="48.31219" lon="2.63883">
        <ele>107.11489868164</ele>
        <time>2013-05-26T09:46:51Z</time>
      </trkpt>
      <trkpt lat="48.31213" lon="2.63861">
        <ele>107.11488723755</ele>
        <time>2013-05-26T09:46:56Z</time>
      </trkpt>
      <trkpt lat="48.31205" lon="2.63838">
        <ele>107.11486053467</ele>
        <time>2013-05-26T09:47:02Z</time>
      </trkpt>
      <trkpt lat="48.31197" lon="2.63809">
        <ele>108.11483383179</ele>
        <time>2013-05-26T09:47:08Z</time>
      </trkpt>
      <trkpt lat="48.31193" lon="2.63779">
        <ele>109.11482620239</ele>
        <time>2013-05-26T09:47:13Z</time>
      </trkpt>
      <trkpt lat="48.31194" lon="2.6375">
        <ele>111.11483764648</ele>
        <time>2013-05-26T09:47:18Z</time>
      </trkpt>
      <trkpt lat="48.31197" lon="2.63725">
        <ele>111.11485290527</ele>
        <time>2013-05-26T09:47:23Z</time>
      </trkpt>
      <trkpt lat="48.312" lon="2.63698">
        <ele>113.11486434937</ele>
        <time>2013-05-26T09:47:29Z</time>
      </trkpt>
      <trkpt lat="48.31203" lon="2.63672">
        <ele>115.11487960815</ele>
        <time>2013-05-26T09:47:34Z</time>
      </trkpt>
      <trkpt lat="48.31209" lon="2.63644">
        <ele>116.11490631104</ele>
        <time>2013-05-26T09:47:40Z</time>
      </trkpt>
      <trkpt lat="48.31212" lon="2.63616">
        <ele>118.11491775513</ele>
        <time>2013-05-26T09:47:46Z</time>
      </trkpt>
      <trkpt lat="48.31213" lon="2.63587">
        <ele>122.11492919922</ele>
        <time>2013-05-26T09:47:52Z</time>
      </trkpt>
      <trkpt lat="48.31215" lon="2.63563">
        <ele>124.11494064331</ele>
        <time>2013-05-26T09:47:57Z</time>
      </trkpt>
      <trkpt lat="48.31215" lon="2.63537">
        <ele>125.11494445801</ele>
        <time>2013-05-26T09:48:02Z</time>
      </trkpt>
      <trkpt lat="48.31213" lon="2.63489">
        <ele>127.11494445801</ele>
        <time>2013-05-26T09:48:08Z</time>
      </trkpt>
      <trkpt lat="48.31213" lon="2.63445">
        <ele>131.1149520874</ele>
        <time>2013-05-26T09:48:14Z</time>
      </trkpt>
      <trkpt lat="48.31212" lon="2.63393">
        <ele>132.1149520874</ele>
        <time>2013-05-26T09:48:20Z</time>
      </trkpt>
      <trkpt lat="48.31213" lon="2.63329">
        <ele>129.11497116089</ele>
        <time>2013-05-26T09:48:28Z</time>
      </trkpt>
      <trkpt lat="48.31215" lon="2.6329">
        <ele>129.11498260498</ele>
        <time>2013-05-26T09:48:34Z</time>
      </trkpt>
      <trkpt lat="48.31216" lon="2.6326">
        <ele>129.11499404907</ele>
        <time>2013-05-26T09:48:39Z</time>
      </trkpt>
      <trkpt lat="48.31223" lon="2.63218">
        <ele>126.11501693726</ele>
        <time>2013-05-26T09:48:46Z</time>
      </trkpt>
      <trkpt lat="48.31228" lon="2.63193">
        <ele>126.11505126953</ele>
        <time>2013-05-26T09:48:51Z</time>
      </trkpt>
      <trkpt lat="48.31233" lon="2.63159">
        <ele>131.11506652832</ele>
        <time>2013-05-26T09:48:59Z</time>
      </trkpt>
      <trkpt lat="48.31237" lon="2.63134">
        <ele>131.1150894165</ele>
        <time>2013-05-26T09:49:05Z</time>
      </trkpt>
      <trkpt lat="48.3124" lon="2.63103">
        <ele>131.1151008606</ele>
        <time>2013-05-26T09:49:13Z</time>
      </trkpt>
      <trkpt lat="48.31241" lon="2.63085">
        <ele>134.11511230469</ele>
        <time>2013-05-26T09:49:19Z</time>
      </trkpt>
      <trkpt lat="48.31239" lon="2.6305">
        <ele>137.11510848999</ele>
        <time>2013-05-26T09:49:24Z</time>
      </trkpt>
      <trkpt lat="48.31241" lon="2.63011">
        <ele>135.11511611938</ele>
        <time>2013-05-26T09:49:29Z</time>
      </trkpt>
      <trkpt lat="48.31252" lon="2.62959">
        <ele>131.11516952515</ele>
        <time>2013-05-26T09:49:38Z</time>
      </trkpt>
      <trkpt lat="48.31257" lon="2.62911">
        <ele>128.11519622803</ele>
        <time>2013-05-26T09:49:44Z</time>
      </trkpt>
      <trkpt lat="48.31257" lon="2.6287">
        <ele>123.11520004272</ele>
        <time>2013-05-26T09:49:50Z</time>
      </trkpt>
      <trkpt lat="48.31259" lon="2.62822">
        <ele>118.11521530151</ele>
        <time>2013-05-26T09:49:56Z</time>
      </trkpt>
      <trkpt lat="48.31259" lon="2.62786">
        <ele>115.11521911621</ele>
        <time>2013-05-26T09:50:01Z</time>
      </trkpt>
      <trkpt lat="48.31258" lon="2.62757">
        <ele>115.11522293091</ele>
        <time>2013-05-26T09:50:06Z</time>
      </trkpt>
      <trkpt lat="48.31255" lon="2.62731">
        <ele>113.11521148682</ele>
        <time>2013-05-26T09:50:11Z</time>
      </trkpt>
      <trkpt lat="48.31251" lon="2.62692">
        <ele>110.11520767212</ele>
        <time>2013-05-26T09:50:17Z</time>
      </trkpt>
      <trkpt lat="48.31246" lon="2.62635">
        <ele>108.11519622803</ele>
        <time>2013-05-26T09:50:23Z</time>
      </trkpt>
      <trkpt lat="48.3124" lon="2.62593">
        <ele>104.11518478394</ele>
        <time>2013-05-26T09:50:29Z</time>
      </trkpt>
      <trkpt lat="48.31243" lon="2.62581">
        <ele>102.11520004272</ele>
        <time>2013-05-26T09:50:35Z</time>
      </trkpt>
      <trkpt lat="48.31252" lon="2.62573">
        <ele>100.11522674561</ele>
        <time>2013-05-26T09:50:42Z</time>
      </trkpt>
      <trkpt lat="48.31262" lon="2.62573">
        <ele>103.11526489258</ele>
        <time>2013-05-26T09:50:48Z</time>
      </trkpt>
      <trkpt lat="48.31271" lon="2.62575">
        <ele>104.11529922485</ele>
        <time>2013-05-26T09:50:53Z</time>
      </trkpt>
      <trkpt lat="48.31281" lon="2.62575">
        <ele>105.11533355713</ele>
        <time>2013-05-26T09:50:59Z</time>
      </trkpt>
      <trkpt lat="48.3129" lon="2.62576">
        <ele>108.1153717041</ele>
        <time>2013-05-26T09:51:07Z</time>
      </trkpt>
      <trkpt lat="48.313" lon="2.6258">
        <ele>111.11540222168</ele>
        <time>2013-05-26T09:51:12Z</time>
      </trkpt>
      <trkpt lat="48.31309" lon="2.62576">
        <ele>115.11544036865</ele>
        <time>2013-05-26T09:51:20Z</time>
      </trkpt>
      <trkpt lat="48.31318" lon="2.62572">
        <ele>124.11547470093</ele>
        <time>2013-05-26T09:51:28Z</time>
      </trkpt>
      <trkpt lat="48.31327" lon="2.6257">
        <ele>128.11550521851</ele>
        <time>2013-05-26T09:51:33Z</time>
      </trkpt>
      <trkpt lat="48.31345" lon="2.62567">
        <ele>129.11557006836</ele>
        <time>2013-05-26T09:51:44Z</time>
      </trkpt>
      <trkpt lat="48.31353" lon="2.62564">
        <ele>133.11560058594</ele>
        <time>2013-05-26T09:51:50Z</time>
      </trkpt>
      <trkpt lat="48.31355" lon="2.62564">
        <ele>134.11561203003</ele>
        <time>2013-05-26T09:51:58Z</time>
      </trkpt>
      <trkpt lat="48.31364" lon="2.62563">
        <ele>141.11564254761</ele>
        <time>2013-05-26T09:52:04Z</time>
      </trkpt>
      <trkpt lat="48.31375" lon="2.62562">
        <ele>147.11569213867</ele>
        <time>2013-05-26T09:52:12Z</time>
      </trkpt>
      <trkpt lat="48.31389" lon="2.62559">
        <ele>149.11573791504</ele>
        <time>2013-05-26T09:52:23Z</time>
      </trkpt>
      <trkpt lat="48.31394" lon="2.62544">
        <ele>149.11576080322</ele>
        <time>2013-05-26T09:52:31Z</time>
      </trkpt>
      <trkpt lat="48.314" lon="2.62503">
        <ele>137.1157875061</ele>
        <time>2013-05-26T09:52:49Z</time>
      </trkpt>
      <trkpt lat="48.3139" lon="2.62498">
        <ele>136.11574935913</ele>
        <time>2013-05-26T09:53:01Z</time>
      </trkpt>
      <trkpt lat="48.31381" lon="2.62498">
        <ele>136.11571884155</ele>
        <time>2013-05-26T09:53:06Z</time>
      </trkpt>
      <trkpt lat="48.31369" lon="2.62498">
        <ele>135.11567687988</ele>
        <time>2013-05-26T09:53:11Z</time>
      </trkpt>
      <trkpt lat="48.31359" lon="2.62492">
        <ele>135.11563873291</ele>
        <time>2013-05-26T09:53:17Z</time>
      </trkpt>
      <trkpt lat="48.31354" lon="2.6248">
        <ele>137.11561584473</ele>
        <time>2013-05-26T09:53:22Z</time>
      </trkpt>
      <trkpt lat="48.31354" lon="2.62465">
        <ele>139.11561965942</ele>
        <time>2013-05-26T09:53:31Z</time>
      </trkpt>
      <trkpt lat="48.31355" lon="2.62453">
        <ele>141.11563110352</ele>
        <time>2013-05-26T09:53:36Z</time>
      </trkpt>
      <trkpt lat="48.31358" lon="2.62447">
        <ele>144.11563873291</ele>
        <time>2013-05-26T09:53:41Z</time>
      </trkpt>
      <trkpt lat="48.31362" lon="2.62442">
        <ele>146.1156539917</ele>
        <time>2013-05-26T09:53:47Z</time>
      </trkpt>
      <trkpt lat="48.31367" lon="2.62437">
        <ele>150.11567687988</ele>
        <time>2013-05-26T09:53:53Z</time>
      </trkpt>
      <trkpt lat="48.31372" lon="2.62432">
        <ele>151.11569595337</ele>
        <time>2013-05-26T09:53:58Z</time>
      </trkpt>
      <trkpt lat="48.31379" lon="2.62427">
        <ele>154.11571884155</ele>
        <time>2013-05-26T09:54:03Z</time>
      </trkpt>
      <trkpt lat="48.31392" lon="2.62421">
        <ele>157.11577224731</ele>
        <time>2013-05-26T09:54:11Z</time>
      </trkpt>
      <trkpt lat="48.31405" lon="2.62414">
        <ele>163.11582183838</ele>
        <time>2013-05-26T09:54:18Z</time>
      </trkpt>
      <trkpt lat="48.31415" lon="2.62401">
        <ele>163.11585617065</ele>
        <time>2013-05-26T09:54:24Z</time>
      </trkpt>
      <trkpt lat="48.31425" lon="2.62385">
        <ele>164.11589813232</ele>
        <time>2013-05-26T09:54:31Z</time>
      </trkpt>
      <trkpt lat="48.31436" lon="2.62372">
        <ele>166.11594009399</ele>
        <time>2013-05-26T09:54:37Z</time>
      </trkpt>
      <trkpt lat="48.31443" lon="2.62352">
        <ele>165.11597061157</ele>
        <time>2013-05-26T09:54:42Z</time>
      </trkpt>
      <trkpt lat="48.3145" lon="2.62308">
        <ele>160.11600112915</ele>
        <time>2013-05-26T09:54:50Z</time>
      </trkpt>
      <trkpt lat="48.3145" lon="2.62278">
        <ele>157.11600875854</ele>
        <time>2013-05-26T09:54:56Z</time>
      </trkpt>
      <trkpt lat="48.3145" lon="2.62249">
        <ele>156.11600875854</ele>
        <time>2013-05-26T09:55:02Z</time>
      </trkpt>
      <trkpt lat="48.31447" lon="2.62214">
        <ele>155.11600875854</ele>
        <time>2013-05-26T09:55:08Z</time>
      </trkpt>
      <trkpt lat="48.31446" lon="2.62181">
        <ele>155.11600875854</ele>
        <time>2013-05-26T09:55:14Z</time>
      </trkpt>
      <trkpt lat="48.31446" lon="2.6214">
        <ele>156.11601257324</ele>
        <time>2013-05-26T09:55:20Z</time>
      </trkpt>
      <trkpt lat="48.3145" lon="2.62094">
        <ele>152.11603546143</ele>
        <time>2013-05-26T09:55:26Z</time>
      </trkpt>
      <trkpt lat="48.31453" lon="2.62058">
        <ele>150.11605453491</ele>
        <time>2013-05-26T09:55:31Z</time>
      </trkpt>
      <trkpt lat="48.31455" lon="2.62013">
        <ele>147.116065979</ele>
        <time>2013-05-26T09:55:38Z</time>
      </trkpt>
      <trkpt lat="48.31464" lon="2.61992">
        <ele>149.11609649658</ele>
        <time>2013-05-26T09:55:44Z</time>
      </trkpt>
      <trkpt lat="48.31477" lon="2.61977">
        <ele>155.11614990234</ele>
        <time>2013-05-26T09:55:50Z</time>
      </trkpt>
      <trkpt lat="48.3149" lon="2.61944">
        <ele>158.11620330811</ele>
        <time>2013-05-26T09:55:56Z</time>
      </trkpt>
      <trkpt lat="48.31499" lon="2.61909">
        <ele>157.11624908447</ele>
        <time>2013-05-26T09:56:01Z</time>
      </trkpt>
      <trkpt lat="48.31501" lon="2.61874">
        <ele>152.11626052856</ele>
        <time>2013-05-26T09:56:08Z</time>
      </trkpt>
      <trkpt lat="48.31483" lon="2.6186">
        <ele>150.11619186401</ele>
        <time>2013-05-26T09:56:14Z</time>
      </trkpt>
      <trkpt lat="48.31453" lon="2.6184">
        <ele>150.11608886719</ele>
        <time>2013-05-26T09:56:20Z</time>
      </trkpt>
      <trkpt lat="48.31424" lon="2.61809">
        <ele>150.11598587036</ele>
        <time>2013-05-26T09:56:26Z</time>
      </trkpt>
      <trkpt lat="48.31394" lon="2.61782">
        <ele>151.11588287354</ele>
        <time>2013-05-26T09:56:32Z</time>
      </trkpt>
      <trkpt lat="48.31364" lon="2.61761">
        <ele>151.11577606201</ele>
        <time>2013-05-26T09:56:38Z</time>
      </trkpt>
      <trkpt lat="48.31335" lon="2.6173">
        <ele>153.11566162109</ele>
        <time>2013-05-26T09:56:45Z</time>
      </trkpt>
      <trkpt lat="48.31312" lon="2.61703">
        <ele>154.11558532715</ele>
        <time>2013-05-26T09:56:50Z</time>
      </trkpt>
      <trkpt lat="48.31275" lon="2.61674">
        <ele>150.11545944214</ele>
        <time>2013-05-26T09:56:56Z</time>
      </trkpt>
      <trkpt lat="48.31238" lon="2.61647">
        <ele>146.11532211304</ele>
        <time>2013-05-26T09:57:02Z</time>
      </trkpt>
      <trkpt lat="48.31228" lon="2.61635">
        <ele>141.11529159546</ele>
        <time>2013-05-26T09:57:08Z</time>
      </trkpt>
      <trkpt lat="48.31239" lon="2.6164">
        <ele>139.11532592773</ele>
        <time>2013-05-26T09:57:14Z</time>
      </trkpt>
      <trkpt lat="48.31244" lon="2.61646">
        <ele>139.11534500122</ele>
        <time>2013-05-26T09:57:20Z</time>
      </trkpt>
      <trkpt lat="48.31229" lon="2.61657">
        <ele>139.11528778076</ele>
        <time>2013-05-26T09:57:26Z</time>
      </trkpt>
      <trkpt lat="48.31216" lon="2.61687">
        <ele>137.115234375</ele>
        <time>2013-05-26T09:57:32Z</time>
      </trkpt>
      <trkpt lat="48.31217" lon="2.61727">
        <ele>137.115234375</ele>
        <time>2013-05-26T09:57:38Z</time>
      </trkpt>
      <trkpt lat="48.31206" lon="2.61761">
        <ele>138.11518859863</ele>
        <time>2013-05-26T09:57:43Z</time>
      </trkpt>
      <trkpt lat="48.31197" lon="2.61806">
        <ele>140.11515045166</ele>
        <time>2013-05-26T09:57:48Z</time>
      </trkpt>
      <trkpt lat="48.31189" lon="2.61874">
        <ele>139.11510848999</ele>
        <time>2013-05-26T09:57:54Z</time>
      </trkpt>
      <trkpt lat="48.31193" lon="2.61923">
        <ele>140.11511230469</ele>
        <time>2013-05-26T09:57:59Z</time>
      </trkpt>
      <trkpt lat="48.31204" lon="2.61975">
        <ele>139.11514663696</ele>
        <time>2013-05-26T09:58:04Z</time>
      </trkpt>
      <trkpt lat="48.31212" lon="2.62036">
        <ele>134.11516571045</ele>
        <time>2013-05-26T09:58:10Z</time>
      </trkpt>
      <trkpt lat="48.31212" lon="2.62087">
        <ele>130.11516189575</ele>
        <time>2013-05-26T09:58:15Z</time>
      </trkpt>
      <trkpt lat="48.31204" lon="2.62146">
        <ele>127.11511993408</ele>
        <time>2013-05-26T09:58:20Z</time>
      </trkpt>
      <trkpt lat="48.31185" lon="2.62202">
        <ele>121.11504364014</ele>
        <time>2013-05-26T09:58:26Z</time>
      </trkpt>
      <trkpt lat="48.31169" lon="2.62243">
        <ele>117.11497497559</ele>
        <time>2013-05-26T09:58:31Z</time>
      </trkpt>
      <trkpt lat="48.31138" lon="2.623">
        <ele>112.11485671997</ele>
        <time>2013-05-26T09:58:38Z</time>
      </trkpt>
      <trkpt lat="48.31115" lon="2.62343">
        <ele>108.11475372314</ele>
        <time>2013-05-26T09:58:43Z</time>
      </trkpt>
      <trkpt lat="48.31095" lon="2.62387">
        <ele>107.1146812439</ele>
        <time>2013-05-26T09:58:48Z</time>
      </trkpt>
      <trkpt lat="48.31076" lon="2.62427">
        <ele>108.11460113525</ele>
        <time>2013-05-26T09:58:54Z</time>
      </trkpt>
      <trkpt lat="48.31075" lon="2.62462">
        <ele>110.11459732056</ele>
        <time>2013-05-26T09:58:59Z</time>
      </trkpt>
      <trkpt lat="48.31073" lon="2.62482">
        <ele>108.11458206177</ele>
        <time>2013-05-26T09:59:05Z</time>
      </trkpt>
      <trkpt lat="48.31077" lon="2.62497">
        <ele>96.114601135254</ele>
        <time>2013-05-26T09:59:23Z</time>
      </trkpt>
      <trkpt lat="48.31079" lon="2.62503">
        <ele>93.114597320557</ele>
        <time>2013-05-26T09:59:31Z</time>
      </trkpt>
      <trkpt lat="48.31082" lon="2.62508">
        <ele>90.114612579346</ele>
        <time>2013-05-26T09:59:50Z</time>
      </trkpt>
      <trkpt lat="48.31085" lon="2.62513">
        <ele>88.114624023438</ele>
        <time>2013-05-26T10:00:07Z</time>
      </trkpt>
      <trkpt lat="48.31089" lon="2.62515">
        <ele>94.114635467529</ele>
        <time>2013-05-26T10:01:07Z</time>
      </trkpt>
      <trkpt lat="48.31087" lon="2.62515">
        <ele>95.114631652832</ele>
        <time>2013-05-26T10:01:12Z</time>
      </trkpt>
      <trkpt lat="48.31085" lon="2.62516">
        <ele>93.114624023438</ele>
        <time>2013-05-26T10:01:19Z</time>
      </trkpt>
      <trkpt lat="48.31084" lon="2.62517">
        <ele>95.114616394043</ele>
        <time>2013-05-26T10:01:24Z</time>
      </trkpt>
      <trkpt lat="48.31082" lon="2.62519">
        <ele>97.114612579346</ele>
        <time>2013-05-26T10:01:29Z</time>
      </trkpt>
      <trkpt lat="48.3108" lon="2.6252">
        <ele>97.114608764648</ele>
        <time>2013-05-26T10:01:35Z</time>
      </trkpt>
      <trkpt lat="48.3108" lon="2.6252">
        <ele>97.114608764648</ele>
        <time>2013-05-26T10:01:43Z</time>
      </trkpt>
      <trkpt lat="48.31071" lon="2.62518">
        <ele>97.114574432373</ele>
        <time>2013-05-26T10:01:54Z</time>
      </trkpt>
      <trkpt lat="48.31069" lon="2.62518">
        <ele>100.11455917358</ele>
        <time>2013-05-26T10:02:10Z</time>
      </trkpt>
      <trkpt lat="48.31071" lon="2.62517">
        <ele>101.11457061768</ele>
        <time>2013-05-26T10:02:15Z</time>
      </trkpt>
      <trkpt lat="48.31073" lon="2.62514">
        <ele>101.11457824707</ele>
        <time>2013-05-26T10:02:21Z</time>
      </trkpt>
      <trkpt lat="48.31074" lon="2.62514">
        <ele>101.11458587646</ele>
        <time>2013-05-26T10:02:26Z</time>
      </trkpt>
      <trkpt lat="48.31074" lon="2.62513">
        <ele>100.11458587646</ele>
        <time>2013-05-26T10:02:32Z</time>
      </trkpt>
      <trkpt lat="48.31075" lon="2.62513">
        <ele>100.11458587646</ele>
        <time>2013-05-26T10:02:37Z</time>
      </trkpt>
      <trkpt lat="48.31076" lon="2.62514">
        <ele>99.114593505859</ele>
        <time>2013-05-26T10:02:43Z</time>
      </trkpt>
      <trkpt lat="48.31076" lon="2.62515">
        <ele>100.11458969116</ele>
        <time>2013-05-26T10:02:48Z</time>
      </trkpt>
      <trkpt lat="48.31077" lon="2.62516">
        <ele>98.114593505859</ele>
        <time>2013-05-26T10:02:53Z</time>
      </trkpt>
      <trkpt lat="48.31078" lon="2.62515">
        <ele>98.114601135254</ele>
        <time>2013-05-26T10:02:59Z</time>
      </trkpt>
      <trkpt lat="48.31079" lon="2.62513">
        <ele>95.114604949951</ele>
        <time>2013-05-26T10:03:05Z</time>
      </trkpt>
      <trkpt lat="48.31078" lon="2.62513">
        <ele>95.114593505859</ele>
        <time>2013-05-26T10:03:11Z</time>
      </trkpt>
      <trkpt lat="48.31078" lon="2.62512">
        <ele>93.114597320557</ele>
        <time>2013-05-26T10:03:17Z</time>
      </trkpt>
      <trkpt lat="48.31078" lon="2.62513">
        <ele>91.114593505859</ele>
        <time>2013-05-26T10:03:22Z</time>
      </trkpt>
      <trkpt lat="48.31078" lon="2.62512">
        <ele>90.114601135254</ele>
        <time>2013-05-26T10:03:27Z</time>
      </trkpt>
      <trkpt lat="48.31079" lon="2.62512">
        <ele>89.114604949951</ele>
        <time>2013-05-26T10:03:33Z</time>
      </trkpt>
      <trkpt lat="48.31081" lon="2.62515">
        <ele>90.114608764648</ele>
        <time>2013-05-26T10:03:39Z</time>
      </trkpt>
      <trkpt lat="48.31081" lon="2.62514">
        <ele>90.114608764648</ele>
        <time>2013-05-26T10:03:45Z</time>
      </trkpt>
      <trkpt lat="48.31082" lon="2.62513">
        <ele>90.114616394043</ele>
        <time>2013-05-26T10:03:51Z</time>
      </trkpt>
      <trkpt lat="48.31082" lon="2.62513">
        <ele>91.114616394043</ele>
        <time>2013-05-26T10:03:56Z</time>
      </trkpt>
      <trkpt lat="48.31083" lon="2.62513">
        <ele>93.11462020874</ele>
        <time>2013-05-26T10:04:02Z</time>
      </trkpt>
      <trkpt lat="48.31083" lon="2.62512">
        <ele>93.11462020874</ele>
        <time>2013-05-26T10:04:07Z</time>
      </trkpt>
      <trkpt lat="48.31083" lon="2.62513">
        <ele>93.11462020874</ele>
        <time>2013-05-26T10:04:13Z</time>
      </trkpt>
      <trkpt lat="48.31083" lon="2.62513">
        <ele>93.11462020874</ele>
        <time>2013-05-26T10:04:18Z</time>
      </trkpt>
      <trkpt lat="48.31085" lon="2.6251">
        <ele>92.114624023438</ele>
        <time>2013-05-26T10:04:27Z</time>
      </trkpt>
      <trkpt lat="48.31085" lon="2.62509">
        <ele>91.114627838135</ele>
        <time>2013-05-26T10:04:33Z</time>
      </trkpt>
      <trkpt lat="48.31085" lon="2.62509">
        <ele>90.114627838135</ele>
        <time>2013-05-26T10:04:38Z</time>
      </trkpt>
      <trkpt lat="48.31084" lon="2.62509">
        <ele>87.114616394043</ele>
        <time>2013-05-26T10:04:44Z</time>
      </trkpt>
      <trkpt lat="48.31083" lon="2.6251">
        <ele>85.114616394043</ele>
        <time>2013-05-26T10:04:50Z</time>
      </trkpt>
      <trkpt lat="48.31082" lon="2.62511">
        <ele>84.114608764648</ele>
        <time>2013-05-26T10:04:55Z</time>
      </trkpt>
      <trkpt lat="48.3108" lon="2.62512">
        <ele>84.114604949951</ele>
        <time>2013-05-26T10:05:00Z</time>
      </trkpt>
      <trkpt lat="48.31079" lon="2.62512">
        <ele>83.114604949951</ele>
        <time>2013-05-26T10:05:06Z</time>
      </trkpt>
      <trkpt lat="48.31079" lon="2.62512">
        <ele>84.114601135254</ele>
        <time>2013-05-26T10:05:12Z</time>
      </trkpt>
      <trkpt lat="48.31079" lon="2.62511">
        <ele>84.114601135254</ele>
        <time>2013-05-26T10:05:18Z</time>
      </trkpt>
      <trkpt lat="48.31079" lon="2.62509">
        <ele>86.114601135254</ele>
        <time>2013-05-26T10:05:24Z</time>
      </trkpt>
      <trkpt lat="48.31079" lon="2.62508">
        <ele>87.114604949951</ele>
        <time>2013-05-26T10:05:30Z</time>
      </trkpt>
      <trkpt lat="48.31079" lon="2.62505">
        <ele>85.114604949951</ele>
        <time>2013-05-26T10:05:37Z</time>
      </trkpt>
      <trkpt lat="48.31078" lon="2.62502">
        <ele>86.114597320557</ele>
        <time>2013-05-26T10:05:48Z</time>
      </trkpt>
      <trkpt lat="48.31079" lon="2.62502">
        <ele>87.114597320557</ele>
        <time>2013-05-26T10:05:53Z</time>
      </trkpt>
      <trkpt lat="48.31081" lon="2.62503">
        <ele>87.114608764648</ele>
        <time>2013-05-26T10:05:59Z</time>
      </trkpt>
      <trkpt lat="48.31082" lon="2.62503">
        <ele>87.114612579346</ele>
        <time>2013-05-26T10:06:05Z</time>
      </trkpt>
      <trkpt lat="48.31086" lon="2.62504">
        <ele>86.114627838135</ele>
        <time>2013-05-26T10:06:11Z</time>
      </trkpt>
      <trkpt lat="48.31087" lon="2.62505">
        <ele>86.114635467529</ele>
        <time>2013-05-26T10:06:16Z</time>
      </trkpt>
      <trkpt lat="48.31088" lon="2.62506">
        <ele>86.114639282227</ele>
        <time>2013-05-26T10:06:21Z</time>
      </trkpt>
      <trkpt lat="48.31088" lon="2.62506">
        <ele>87.114639282227</ele>
        <time>2013-05-26T10:06:27Z</time>
      </trkpt>
      <trkpt lat="48.31089" lon="2.62506">
        <ele>87.114635467529</ele>
        <time>2013-05-26T10:06:33Z</time>
      </trkpt>
      <trkpt lat="48.31088" lon="2.62506">
        <ele>87.114635467529</ele>
        <time>2013-05-26T10:06:39Z</time>
      </trkpt>
      <trkpt lat="48.31088" lon="2.62506">
        <ele>87.114635467529</ele>
        <time>2013-05-26T10:06:45Z</time>
      </trkpt>
      <trkpt lat="48.31087" lon="2.62505">
        <ele>91.114635467529</ele>
        <time>2013-05-26T10:06:53Z</time>
      </trkpt>
      <trkpt lat="48.31085" lon="2.62507">
        <ele>91.114627838135</ele>
        <time>2013-05-26T10:06:59Z</time>
      </trkpt>
      <trkpt lat="48.31085" lon="2.62509">
        <ele>92.114627838135</ele>
        <time>2013-05-26T10:07:05Z</time>
      </trkpt>
      <trkpt lat="48.31084" lon="2.62511">
        <ele>93.11462020874</ele>
        <time>2013-05-26T10:07:11Z</time>
      </trkpt>
      <trkpt lat="48.31084" lon="2.62512">
        <ele>95.11462020874</ele>
        <time>2013-05-26T10:07:16Z</time>
      </trkpt>
      <trkpt lat="48.31084" lon="2.62513">
        <ele>96.11462020874</ele>
        <time>2013-05-26T10:07:22Z</time>
      </trkpt>
      <trkpt lat="48.31084" lon="2.62516">
        <ele>99.11462020874</ele>
        <time>2013-05-26T10:07:28Z</time>
      </trkpt>
      <trkpt lat="48.31084" lon="2.62517">
        <ele>100.11462020874</ele>
        <time>2013-05-26T10:07:33Z</time>
      </trkpt>
      <trkpt lat="48.31084" lon="2.62517">
        <ele>100.11461639404</ele>
        <time>2013-05-26T10:07:39Z</time>
      </trkpt>
      <trkpt lat="48.31084" lon="2.62518">
        <ele>99.114616394043</ele>
        <time>2013-05-26T10:07:44Z</time>
      </trkpt>
      <trkpt lat="48.31084" lon="2.6252">
        <ele>100.11461639404</ele>
        <time>2013-05-26T10:07:50Z</time>
      </trkpt>
      <trkpt lat="48.31084" lon="2.62522">
        <ele>98.11462020874</ele>
        <time>2013-05-26T10:07:56Z</time>
      </trkpt>
      <trkpt lat="48.31084" lon="2.62521">
        <ele>97.11462020874</ele>
        <time>2013-05-26T10:08:02Z</time>
      </trkpt>
      <trkpt lat="48.31086" lon="2.62521">
        <ele>98.114627838135</ele>
        <time>2013-05-26T10:08:07Z</time>
      </trkpt>
      <trkpt lat="48.31087" lon="2.62521">
        <ele>97.114624023438</ele>
        <time>2013-05-26T10:08:12Z</time>
      </trkpt>
      <trkpt lat="48.31087" lon="2.6252">
        <ele>95.114635467529</ele>
        <time>2013-05-26T10:08:17Z</time>
      </trkpt>
      <trkpt lat="48.31087" lon="2.62517">
        <ele>94.114631652832</ele>
        <time>2013-05-26T10:08:23Z</time>
      </trkpt>
      <trkpt lat="48.31086" lon="2.62512">
        <ele>93.114627838135</ele>
        <time>2013-05-26T10:08:29Z</time>
      </trkpt>
      <trkpt lat="48.31085" lon="2.6251">
        <ele>92.114624023438</ele>
        <time>2013-05-26T10:08:35Z</time>
      </trkpt>
      <trkpt lat="48.31083" lon="2.6251">
        <ele>91.114612579346</ele>
        <time>2013-05-26T10:08:40Z</time>
      </trkpt>
      <trkpt lat="48.31081" lon="2.6251">
        <ele>90.114604949951</ele>
        <time>2013-05-26T10:08:47Z</time>
      </trkpt>
      <trkpt lat="48.31079" lon="2.6251">
        <ele>88.114601135254</ele>
        <time>2013-05-26T10:08:53Z</time>
      </trkpt>
      <trkpt lat="48.31077" lon="2.62504">
        <ele>84.114593505859</ele>
        <time>2013-05-26T10:08:58Z</time>
      </trkpt>
      <trkpt lat="48.31076" lon="2.62493">
        <ele>81.114593505859</ele>
        <time>2013-05-26T10:09:03Z</time>
      </trkpt>
      <trkpt lat="48.31069" lon="2.62481">
        <ele>78.114570617676</ele>
        <time>2013-05-26T10:09:10Z</time>
      </trkpt>
      <trkpt lat="48.31062" lon="2.62477">
        <ele>76.114543914795</ele>
        <time>2013-05-26T10:09:15Z</time>
      </trkpt>
      <trkpt lat="48.31055" lon="2.62471">
        <ele>78.114524841309</ele>
        <time>2013-05-26T10:09:20Z</time>
      </trkpt>
      <trkpt lat="48.31049" lon="2.62464">
        <ele>80.114498138428</ele>
        <time>2013-05-26T10:09:26Z</time>
      </trkpt>
      <trkpt lat="48.31048" lon="2.62447">
        <ele>83.114498138428</ele>
        <time>2013-05-26T10:09:32Z</time>
      </trkpt>
      <trkpt lat="48.31048" lon="2.62419">
        <ele>87.114498138428</ele>
        <time>2013-05-26T10:09:38Z</time>
      </trkpt>
      <trkpt lat="48.31047" lon="2.62392">
        <ele>89.11450958252</ele>
        <time>2013-05-26T10:09:44Z</time>
      </trkpt>
      <trkpt lat="48.31047" lon="2.62361">
        <ele>94.11450958252</ele>
        <time>2013-05-26T10:09:52Z</time>
      </trkpt>
      <trkpt lat="48.31047" lon="2.62334">
        <ele>99.114513397217</ele>
        <time>2013-05-26T10:09:59Z</time>
      </trkpt>
      <trkpt lat="48.31042" lon="2.62307">
        <ele>106.11449432373</ele>
        <time>2013-05-26T10:10:06Z</time>
      </trkpt>
      <trkpt lat="48.31039" lon="2.62282">
        <ele>110.11448669434</ele>
        <time>2013-05-26T10:10:12Z</time>
      </trkpt>
      <trkpt lat="48.31031" lon="2.62262">
        <ele>111.11446380615</ele>
        <time>2013-05-26T10:10:17Z</time>
      </trkpt>
      <trkpt lat="48.31021" lon="2.62237">
        <ele>114.11443328857</ele>
        <time>2013-05-26T10:10:23Z</time>
      </trkpt>
      <trkpt lat="48.31011" lon="2.62204">
        <ele>117.1143989563</ele>
        <time>2013-05-26T10:10:31Z</time>
      </trkpt>
      <trkpt lat="48.31004" lon="2.62186">
        <ele>121.11437988281</ele>
        <time>2013-05-26T10:10:36Z</time>
      </trkpt>
      <trkpt lat="48.30998" lon="2.62167">
        <ele>122.11435699463</ele>
        <time>2013-05-26T10:10:41Z</time>
      </trkpt>
      <trkpt lat="48.3099" lon="2.62148">
        <ele>121.11433410645</ele>
        <time>2013-05-26T10:10:47Z</time>
      </trkpt>
      <trkpt lat="48.30983" lon="2.62132">
        <ele>120.11430740356</ele>
        <time>2013-05-26T10:10:52Z</time>
      </trkpt>
      <trkpt lat="48.30975" lon="2.62115">
        <ele>117.11427688599</ele>
        <time>2013-05-26T10:10:57Z</time>
      </trkpt>
      <trkpt lat="48.30961" lon="2.62103">
        <ele>114.11423110962</ele>
        <time>2013-05-26T10:11:02Z</time>
      </trkpt>
      <trkpt lat="48.30938" lon="2.62095">
        <ele>112.11414718628</ele>
        <time>2013-05-26T10:11:08Z</time>
      </trkpt>
      <trkpt lat="48.30922" lon="2.62088">
        <ele>114.11408996582</ele>
        <time>2013-05-26T10:11:14Z</time>
      </trkpt>
      <trkpt lat="48.30915" lon="2.6207">
        <ele>116.11406326294</ele>
        <time>2013-05-26T10:11:19Z</time>
      </trkpt>
      <trkpt lat="48.30913" lon="2.62046">
        <ele>115.11405944824</ele>
        <time>2013-05-26T10:11:25Z</time>
      </trkpt>
      <trkpt lat="48.30908" lon="2.62022">
        <ele>114.11404800415</ele>
        <time>2013-05-26T10:11:32Z</time>
      </trkpt>
      <trkpt lat="48.30907" lon="2.62011">
        <ele>116.11404800415</ele>
        <time>2013-05-26T10:11:38Z</time>
      </trkpt>
      <trkpt lat="48.30908" lon="2.61996">
        <ele>118.11405181885</ele>
        <time>2013-05-26T10:11:44Z</time>
      </trkpt>
      <trkpt lat="48.30908" lon="2.61982">
        <ele>120.11405181885</ele>
        <time>2013-05-26T10:11:50Z</time>
      </trkpt>
      <trkpt lat="48.30908" lon="2.61969">
        <ele>120.11405563354</ele>
        <time>2013-05-26T10:11:56Z</time>
      </trkpt>
      <trkpt lat="48.30905" lon="2.61961">
        <ele>123.11404418945</ele>
        <time>2013-05-26T10:12:01Z</time>
      </trkpt>
      <trkpt lat="48.309" lon="2.61938">
        <ele>126.11402893066</ele>
        <time>2013-05-26T10:12:11Z</time>
      </trkpt>
      <trkpt lat="48.30895" lon="2.61925">
        <ele>127.11401367188</ele>
        <time>2013-05-26T10:12:17Z</time>
      </trkpt>
      <trkpt lat="48.30892" lon="2.61913">
        <ele>125.11400222778</ele>
        <time>2013-05-26T10:12:22Z</time>
      </trkpt>
      <trkpt lat="48.30889" lon="2.61904">
        <ele>124.11399459839</ele>
        <time>2013-05-26T10:12:27Z</time>
      </trkpt>
      <trkpt lat="48.30884" lon="2.61891">
        <ele>125.1139793396</ele>
        <time>2013-05-26T10:12:33Z</time>
      </trkpt>
      <trkpt lat="48.3088" lon="2.61876">
        <ele>129.11396408081</ele>
        <time>2013-05-26T10:12:40Z</time>
      </trkpt>
      <trkpt lat="48.30875" lon="2.61865">
        <ele>132.11394500732</ele>
        <time>2013-05-26T10:12:46Z</time>
      </trkpt>
      <trkpt lat="48.30871" lon="2.61852">
        <ele>136.11393737793</ele>
        <time>2013-05-26T10:12:53Z</time>
      </trkpt>
      <trkpt lat="48.30867" lon="2.61843">
        <ele>137.11392593384</ele>
        <time>2013-05-26T10:12:58Z</time>
      </trkpt>
      <trkpt lat="48.30862" lon="2.61836">
        <ele>140.11390686035</ele>
        <time>2013-05-26T10:13:03Z</time>
      </trkpt>
      <trkpt lat="48.30855" lon="2.61822">
        <ele>141.11388397217</ele>
        <time>2013-05-26T10:13:09Z</time>
      </trkpt>
      <trkpt lat="48.3085" lon="2.61809">
        <ele>140.11386871338</ele>
        <time>2013-05-26T10:13:14Z</time>
      </trkpt>
      <trkpt lat="48.30842" lon="2.61792">
        <ele>141.1138381958</ele>
        <time>2013-05-26T10:13:20Z</time>
      </trkpt>
      <trkpt lat="48.30833" lon="2.61765">
        <ele>139.11380767822</ele>
        <time>2013-05-26T10:13:26Z</time>
      </trkpt>
      <trkpt lat="48.30826" lon="2.61738">
        <ele>139.11378479004</ele>
        <time>2013-05-26T10:13:31Z</time>
      </trkpt>
      <trkpt lat="48.30821" lon="2.6171">
        <ele>138.11377716064</ele>
        <time>2013-05-26T10:13:37Z</time>
      </trkpt>
      <trkpt lat="48.30816" lon="2.61682">
        <ele>136.11376190186</ele>
        <time>2013-05-26T10:13:43Z</time>
      </trkpt>
      <trkpt lat="48.30815" lon="2.61653">
        <ele>136.11375808716</ele>
        <time>2013-05-26T10:13:49Z</time>
      </trkpt>
      <trkpt lat="48.30816" lon="2.61627">
        <ele>135.11376953125</ele>
        <time>2013-05-26T10:13:54Z</time>
      </trkpt>
      <trkpt lat="48.30818" lon="2.61601">
        <ele>133.11377716064</ele>
        <time>2013-05-26T10:14:00Z</time>
      </trkpt>
      <trkpt lat="48.30824" lon="2.61585">
        <ele>135.11380004883</ele>
        <time>2013-05-26T10:14:06Z</time>
      </trkpt>
      <trkpt lat="48.30836" lon="2.61573">
        <ele>139.11384963989</ele>
        <time>2013-05-26T10:14:12Z</time>
      </trkpt>
      <trkpt lat="48.30855" lon="2.61556">
        <ele>144.11392211914</ele>
        <time>2013-05-26T10:14:20Z</time>
      </trkpt>
      <trkpt lat="48.30871" lon="2.61549">
        <ele>148.1139831543</ele>
        <time>2013-05-26T10:14:26Z</time>
      </trkpt>
      <trkpt lat="48.30886" lon="2.6156">
        <ele>155.11404418945</ele>
        <time>2013-05-26T10:14:33Z</time>
      </trkpt>
      <trkpt lat="48.30909" lon="2.61564">
        <ele>160.1141204834</ele>
        <time>2013-05-26T10:14:42Z</time>
      </trkpt>
      <trkpt lat="48.30927" lon="2.61564">
        <ele>163.11418151855</ele>
        <time>2013-05-26T10:14:48Z</time>
      </trkpt>
      <trkpt lat="48.30945" lon="2.61561">
        <ele>163.1142578125</ele>
        <time>2013-05-26T10:14:54Z</time>
      </trkpt>
      <trkpt lat="48.30967" lon="2.61563">
        <ele>164.11433792114</ele>
        <time>2013-05-26T10:15:01Z</time>
      </trkpt>
      <trkpt lat="48.30986" lon="2.61572">
        <ele>164.114402771</ele>
        <time>2013-05-26T10:15:07Z</time>
      </trkpt>
      <trkpt lat="48.31001" lon="2.61586">
        <ele>161.11445999146</ele>
        <time>2013-05-26T10:15:12Z</time>
      </trkpt>
      <trkpt lat="48.31019" lon="2.61596">
        <ele>160.11452484131</ele>
        <time>2013-05-26T10:15:18Z</time>
      </trkpt>
      <trkpt lat="48.31032" lon="2.61598">
        <ele>160.11457443237</ele>
        <time>2013-05-26T10:15:24Z</time>
      </trkpt>
      <trkpt lat="48.31041" lon="2.61597">
        <ele>155.11460494995</ele>
        <time>2013-05-26T10:15:30Z</time>
      </trkpt>
      <trkpt lat="48.3105" lon="2.61587">
        <ele>150.11463546753</ele>
        <time>2013-05-26T10:15:35Z</time>
      </trkpt>
      <trkpt lat="48.31062" lon="2.61559">
        <ele>145.11468505859</ele>
        <time>2013-05-26T10:15:42Z</time>
      </trkpt>
      <trkpt lat="48.31062" lon="2.61536">
        <ele>145.11468887329</ele>
        <time>2013-05-26T10:15:48Z</time>
      </trkpt>
      <trkpt lat="48.31049" lon="2.6152">
        <ele>145.11464309692</ele>
        <time>2013-05-26T10:15:54Z</time>
      </trkpt>
      <trkpt lat="48.31027" lon="2.61483">
        <ele>143.11457061768</ele>
        <time>2013-05-26T10:16:00Z</time>
      </trkpt>
      <trkpt lat="48.31001" lon="2.61428">
        <ele>135.11448287964</ele>
        <time>2013-05-26T10:16:08Z</time>
      </trkpt>
      <trkpt lat="48.30984" lon="2.61393">
        <ele>129.11442565918</ele>
        <time>2013-05-26T10:16:14Z</time>
      </trkpt>
      <trkpt lat="48.3097" lon="2.61373">
        <ele>123.11437225342</ele>
        <time>2013-05-26T10:16:19Z</time>
      </trkpt>
      <trkpt lat="48.3096" lon="2.61355">
        <ele>122.11434173584</ele>
        <time>2013-05-26T10:16:27Z</time>
      </trkpt>
      <trkpt lat="48.30955" lon="2.61345">
        <ele>122.11433029175</ele>
        <time>2013-05-26T10:16:32Z</time>
      </trkpt>
      <trkpt lat="48.30952" lon="2.61337">
        <ele>123.11431121826</ele>
        <time>2013-05-26T10:16:38Z</time>
      </trkpt>
      <trkpt lat="48.30946" lon="2.6133">
        <ele>123.11429595947</ele>
        <time>2013-05-26T10:16:43Z</time>
      </trkpt>
      <trkpt lat="48.30944" lon="2.61327">
        <ele>120.11428833008</ele>
        <time>2013-05-26T10:16:48Z</time>
      </trkpt>
      <trkpt lat="48.30944" lon="2.61328">
        <ele>122.11428451538</ele>
        <time>2013-05-26T10:16:53Z</time>
      </trkpt>
      <trkpt lat="48.30946" lon="2.61329">
        <ele>123.11429595947</ele>
        <time>2013-05-26T10:16:59Z</time>
      </trkpt>
      <trkpt lat="48.30949" lon="2.61333">
        <ele>125.11430358887</ele>
        <time>2013-05-26T10:17:05Z</time>
      </trkpt>
      <trkpt lat="48.30955" lon="2.61339">
        <ele>129.11432647705</ele>
        <time>2013-05-26T10:17:11Z</time>
      </trkpt>
      <trkpt lat="48.3096" lon="2.61343">
        <ele>131.11434173584</ele>
        <time>2013-05-26T10:17:16Z</time>
      </trkpt>
      <trkpt lat="48.30964" lon="2.61347">
        <ele>132.11436080933</ele>
        <time>2013-05-26T10:17:21Z</time>
      </trkpt>
      <trkpt lat="48.30971" lon="2.61347">
        <ele>135.11438369751</ele>
        <time>2013-05-26T10:17:27Z</time>
      </trkpt>
      <trkpt lat="48.30981" lon="2.61344">
        <ele>139.11441802979</ele>
        <time>2013-05-26T10:17:36Z</time>
      </trkpt>
      <trkpt lat="48.30991" lon="2.61336">
        <ele>138.11445617676</ele>
        <time>2013-05-26T10:17:44Z</time>
      </trkpt>
      <trkpt lat="48.31001" lon="2.61326">
        <ele>138.11449432373</ele>
        <time>2013-05-26T10:17:50Z</time>
      </trkpt>
      <trkpt lat="48.31011" lon="2.61319">
        <ele>136.1145362854</ele>
        <time>2013-05-26T10:17:56Z</time>
      </trkpt>
      <trkpt lat="48.31023" lon="2.61317">
        <ele>136.11458206177</ele>
        <time>2013-05-26T10:18:02Z</time>
      </trkpt>
      <trkpt lat="48.31034" lon="2.61319">
        <ele>138.11461639404</ele>
        <time>2013-05-26T10:18:08Z</time>
      </trkpt>
      <trkpt lat="48.31041" lon="2.61322">
        <ele>140.11464691162</ele>
        <time>2013-05-26T10:18:14Z</time>
      </trkpt>
      <trkpt lat="48.31047" lon="2.61329">
        <ele>140.1146697998</ele>
        <time>2013-05-26T10:18:21Z</time>
      </trkpt>
      <trkpt lat="48.31049" lon="2.61334">
        <ele>140.1146736145</ele>
        <time>2013-05-26T10:18:26Z</time>
      </trkpt>
      <trkpt lat="48.31048" lon="2.61339">
        <ele>141.1146697998</ele>
        <time>2013-05-26T10:18:32Z</time>
      </trkpt>
      <trkpt lat="48.31045" lon="2.61345">
        <ele>142.11465835571</ele>
        <time>2013-05-26T10:18:41Z</time>
      </trkpt>
      <trkpt lat="48.3104" lon="2.61355">
        <ele>145.11463546753</ele>
        <time>2013-05-26T10:18:48Z</time>
      </trkpt>
      <trkpt lat="48.31039" lon="2.61368">
        <ele>146.11462783813</ele>
        <time>2013-05-26T10:18:55Z</time>
      </trkpt>
      <trkpt lat="48.3104" lon="2.61384">
        <ele>148.11462783813</ele>
        <time>2013-05-26T10:19:03Z</time>
      </trkpt>
      <trkpt lat="48.31041" lon="2.61397">
        <ele>149.11463165283</ele>
        <time>2013-05-26T10:19:09Z</time>
      </trkpt>
      <trkpt lat="48.31047" lon="2.61409">
        <ele>151.11465835571</ele>
        <time>2013-05-26T10:19:15Z</time>
      </trkpt>
      <trkpt lat="48.31052" lon="2.61416">
        <ele>152.1146774292</ele>
        <time>2013-05-26T10:19:20Z</time>
      </trkpt>
      <trkpt lat="48.31059" lon="2.61421">
        <ele>154.11470031738</ele>
        <time>2013-05-26T10:19:26Z</time>
      </trkpt>
      <trkpt lat="48.31067" lon="2.6142">
        <ele>156.11472320557</ele>
        <time>2013-05-26T10:19:33Z</time>
      </trkpt>
      <trkpt lat="48.31076" lon="2.61414">
        <ele>157.11476135254</ele>
        <time>2013-05-26T10:19:39Z</time>
      </trkpt>
      <trkpt lat="48.31086" lon="2.61402">
        <ele>155.11479949951</ele>
        <time>2013-05-26T10:19:45Z</time>
      </trkpt>
      <trkpt lat="48.31094" lon="2.6139">
        <ele>151.11483001709</ele>
        <time>2013-05-26T10:19:51Z</time>
      </trkpt>
      <trkpt lat="48.31098" lon="2.61385">
        <ele>148.11485290527</ele>
        <time>2013-05-26T10:19:56Z</time>
      </trkpt>
      <trkpt lat="48.31108" lon="2.61371">
        <ele>149.11488342285</ele>
        <time>2013-05-26T10:20:05Z</time>
      </trkpt>
      <trkpt lat="48.31118" lon="2.61339">
        <ele>148.11492538452</ele>
        <time>2013-05-26T10:20:14Z</time>
      </trkpt>
      <trkpt lat="48.3113" lon="2.61306">
        <ele>146.11498260498</ele>
        <time>2013-05-26T10:20:22Z</time>
      </trkpt>
      <trkpt lat="48.31137" lon="2.61287">
        <ele>145.11500930786</ele>
        <time>2013-05-26T10:20:28Z</time>
      </trkpt>
      <trkpt lat="48.31137" lon="2.61272">
        <ele>142.11500930786</ele>
        <time>2013-05-26T10:20:33Z</time>
      </trkpt>
      <trkpt lat="48.31132" lon="2.61265">
        <ele>138.11499404907</ele>
        <time>2013-05-26T10:20:39Z</time>
      </trkpt>
      <trkpt lat="48.31126" lon="2.61274">
        <ele>136.11496734619</ele>
        <time>2013-05-26T10:20:45Z</time>
      </trkpt>
      <trkpt lat="48.31119" lon="2.61282">
        <ele>139.11494064331</ele>
        <time>2013-05-26T10:20:51Z</time>
      </trkpt>
      <trkpt lat="48.31109" lon="2.61291">
        <ele>141.11489868164</ele>
        <time>2013-05-26T10:20:57Z</time>
      </trkpt>
      <trkpt lat="48.31099" lon="2.61291">
        <ele>141.11486816406</ele>
        <time>2013-05-26T10:21:02Z</time>
      </trkpt>
      <trkpt lat="48.31089" lon="2.61281">
        <ele>142.11482620239</ele>
        <time>2013-05-26T10:21:09Z</time>
      </trkpt>
      <trkpt lat="48.31084" lon="2.61273">
        <ele>142.1148147583</ele>
        <time>2013-05-26T10:21:15Z</time>
      </trkpt>
      <trkpt lat="48.31082" lon="2.61268">
        <ele>142.11480712891</ele>
        <time>2013-05-26T10:21:20Z</time>
      </trkpt>
      <trkpt lat="48.3108" lon="2.61258">
        <ele>142.11479568481</ele>
        <time>2013-05-26T10:21:26Z</time>
      </trkpt>
      <trkpt lat="48.31079" lon="2.6125">
        <ele>143.11479568481</ele>
        <time>2013-05-26T10:21:32Z</time>
      </trkpt>
      <trkpt lat="48.31078" lon="2.61242">
        <ele>141.11479187012</ele>
        <time>2013-05-26T10:21:40Z</time>
      </trkpt>
      <trkpt lat="48.31077" lon="2.61233">
        <ele>141.11479949951</ele>
        <time>2013-05-26T10:21:46Z</time>
      </trkpt>
      <trkpt lat="48.31076" lon="2.61226">
        <ele>142.11479187012</ele>
        <time>2013-05-26T10:21:53Z</time>
      </trkpt>
      <trkpt lat="48.31075" lon="2.61215">
        <ele>141.11479187012</ele>
        <time>2013-05-26T10:21:59Z</time>
      </trkpt>
      <trkpt lat="48.31075" lon="2.61204">
        <ele>142.11479187012</ele>
        <time>2013-05-26T10:22:06Z</time>
      </trkpt>
      <trkpt lat="48.31075" lon="2.61193">
        <ele>140.11479187012</ele>
        <time>2013-05-26T10:22:11Z</time>
      </trkpt>
      <trkpt lat="48.31074" lon="2.61177">
        <ele>138.11479187012</ele>
        <time>2013-05-26T10:22:17Z</time>
      </trkpt>
      <trkpt lat="48.31071" lon="2.61167">
        <ele>136.11478042603</ele>
        <time>2013-05-26T10:22:23Z</time>
      </trkpt>
      <trkpt lat="48.31064" lon="2.61161">
        <ele>136.11475372314</ele>
        <time>2013-05-26T10:22:29Z</time>
      </trkpt>
      <trkpt lat="48.31048" lon="2.61157">
        <ele>139.11469650269</ele>
        <time>2013-05-26T10:22:36Z</time>
      </trkpt>
      <trkpt lat="48.31033" lon="2.61155">
        <ele>138.11464691162</ele>
        <time>2013-05-26T10:22:41Z</time>
      </trkpt>
      <trkpt lat="48.31024" lon="2.61153">
        <ele>136.11460876465</ele>
        <time>2013-05-26T10:22:46Z</time>
      </trkpt>
      <trkpt lat="48.31019" lon="2.61152">
        <ele>135.11458969116</ele>
        <time>2013-05-26T10:22:52Z</time>
      </trkpt>
      <trkpt lat="48.31015" lon="2.61152">
        <ele>135.11457443237</ele>
        <time>2013-05-26T10:23:00Z</time>
      </trkpt>
      <trkpt lat="48.31008" lon="2.6115">
        <ele>133.11455154419</ele>
        <time>2013-05-26T10:23:08Z</time>
      </trkpt>
      <trkpt lat="48.31004" lon="2.61142">
        <ele>132.1145324707</ele>
        <time>2013-05-26T10:23:13Z</time>
      </trkpt>
      <trkpt lat="48.31001" lon="2.61121">
        <ele>134.11452484131</ele>
        <time>2013-05-26T10:23:19Z</time>
      </trkpt>
      <trkpt lat="48.30999" lon="2.61101">
        <ele>138.11452484131</ele>
        <time>2013-05-26T10:23:25Z</time>
      </trkpt>
      <trkpt lat="48.30997" lon="2.61082">
        <ele>139.11451721191</ele>
        <time>2013-05-26T10:23:32Z</time>
      </trkpt>
      <trkpt lat="48.30994" lon="2.6107">
        <ele>137.11450958252</ele>
        <time>2013-05-26T10:23:38Z</time>
      </trkpt>
      <trkpt lat="48.30987" lon="2.61061">
        <ele>135.11448669434</ele>
        <time>2013-05-26T10:23:44Z</time>
      </trkpt>
      <trkpt lat="48.30982" lon="2.61055">
        <ele>136.11447143555</ele>
        <time>2013-05-26T10:23:49Z</time>
      </trkpt>
      <trkpt lat="48.30977" lon="2.61052">
        <ele>137.11445236206</ele>
        <time>2013-05-26T10:23:54Z</time>
      </trkpt>
      <trkpt lat="48.3097" lon="2.61049">
        <ele>137.11442947388</ele>
        <time>2013-05-26T10:24:00Z</time>
      </trkpt>
      <trkpt lat="48.30962" lon="2.61044">
        <ele>139.1143951416</ele>
        <time>2013-05-26T10:24:09Z</time>
      </trkpt>
      <trkpt lat="48.30951" lon="2.61043">
        <ele>140.11435699463</ele>
        <time>2013-05-26T10:24:14Z</time>
      </trkpt>
      <trkpt lat="48.30941" lon="2.61046">
        <ele>143.11432266235</ele>
        <time>2013-05-26T10:24:22Z</time>
      </trkpt>
      <trkpt lat="48.30934" lon="2.61049">
        <ele>145.11429595947</ele>
        <time>2013-05-26T10:24:28Z</time>
      </trkpt>
      <trkpt lat="48.30929" lon="2.61045">
        <ele>145.11427307129</ele>
        <time>2013-05-26T10:24:33Z</time>
      </trkpt>
      <trkpt lat="48.30925" lon="2.61031">
        <ele>145.1142616272</ele>
        <time>2013-05-26T10:24:40Z</time>
      </trkpt>
      <trkpt lat="48.30923" lon="2.61023">
        <ele>145.1142578125</ele>
        <time>2013-05-26T10:24:45Z</time>
      </trkpt>
      <trkpt lat="48.30918" lon="2.61018">
        <ele>146.11423873901</ele>
        <time>2013-05-26T10:24:51Z</time>
      </trkpt>
      <trkpt lat="48.30904" lon="2.61021">
        <ele>146.11418533325</ele>
        <time>2013-05-26T10:24:57Z</time>
      </trkpt>
      <trkpt lat="48.30895" lon="2.61036">
        <ele>146.11414718628</ele>
        <time>2013-05-26T10:25:03Z</time>
      </trkpt>
      <trkpt lat="48.30873" lon="2.61058">
        <ele>148.11406707764</ele>
        <time>2013-05-26T10:25:15Z</time>
      </trkpt>
      <trkpt lat="48.30859" lon="2.61085">
        <ele>148.11401367188</ele>
        <time>2013-05-26T10:25:23Z</time>
      </trkpt>
      <trkpt lat="48.30863" lon="2.61106">
        <ele>146.11402130127</ele>
        <time>2013-05-26T10:25:29Z</time>
      </trkpt>
      <trkpt lat="48.3087" lon="2.61126">
        <ele>146.11404800415</ele>
        <time>2013-05-26T10:25:37Z</time>
      </trkpt>
      <trkpt lat="48.30872" lon="2.61135">
        <ele>145.11405181885</ele>
        <time>2013-05-26T10:25:43Z</time>
      </trkpt>
      <trkpt lat="48.30871" lon="2.61138">
        <ele>143.11404800415</ele>
        <time>2013-05-26T10:25:58Z</time>
      </trkpt>
      <trkpt lat="48.30869" lon="2.61143">
        <ele>145.11403656006</ele>
        <time>2013-05-26T10:26:04Z</time>
      </trkpt>
      <trkpt lat="48.30863" lon="2.61153">
        <ele>143.11401748657</ele>
        <time>2013-05-26T10:26:10Z</time>
      </trkpt>
      <trkpt lat="48.30855" lon="2.61165">
        <ele>138.11398696899</ele>
        <time>2013-05-26T10:26:16Z</time>
      </trkpt>
      <trkpt lat="48.30849" lon="2.61168">
        <ele>133.11396026611</ele>
        <time>2013-05-26T10:26:21Z</time>
      </trkpt>
      <trkpt lat="48.30842" lon="2.6117">
        <ele>130.11393737793</ele>
        <time>2013-05-26T10:26:27Z</time>
      </trkpt>
      <trkpt lat="48.30836" lon="2.61162">
        <ele>126.11391448975</ele>
        <time>2013-05-26T10:26:33Z</time>
      </trkpt>
      <trkpt lat="48.30827" lon="2.61164">
        <ele>126.11388015747</ele>
        <time>2013-05-26T10:26:38Z</time>
      </trkpt>
      <trkpt lat="48.30818" lon="2.61193">
        <ele>129.1138458252</ele>
        <time>2013-05-26T10:26:45Z</time>
      </trkpt>
      <trkpt lat="48.3081" lon="2.61212">
        <ele>132.11381149292</ele>
        <time>2013-05-26T10:26:50Z</time>
      </trkpt>
      <trkpt lat="48.30799" lon="2.61219">
        <ele>130.11376571655</ele>
        <time>2013-05-26T10:26:55Z</time>
      </trkpt>
      <trkpt lat="48.30782" lon="2.61214">
        <ele>124.1137046814</ele>
        <time>2013-05-26T10:27:02Z</time>
      </trkpt>
      <trkpt lat="48.30729" lon="2.61214">
        <ele>119.11351013184</ele>
        <time>2013-05-26T10:27:11Z</time>
      </trkpt>
      <trkpt lat="48.30704" lon="2.61209">
        <ele>117.1134185791</ele>
        <time>2013-05-26T10:27:17Z</time>
      </trkpt>
      <trkpt lat="48.30675" lon="2.61202">
        <ele>117.11331176758</ele>
        <time>2013-05-26T10:27:23Z</time>
      </trkpt>
      <trkpt lat="48.30636" lon="2.61193">
        <ele>118.11316680908</ele>
        <time>2013-05-26T10:27:29Z</time>
      </trkpt>
      <trkpt lat="48.30599" lon="2.61208">
        <ele>118.11302947998</ele>
        <time>2013-05-26T10:27:35Z</time>
      </trkpt>
      <trkpt lat="48.30574" lon="2.61228">
        <ele>114.11293792725</ele>
        <time>2013-05-26T10:27:41Z</time>
      </trkpt>
      <trkpt lat="48.30538" lon="2.61225">
        <ele>115.11280822754</ele>
        <time>2013-05-26T10:27:47Z</time>
      </trkpt>
      <trkpt lat="48.30505" lon="2.61225">
        <ele>116.11268234253</ele>
        <time>2013-05-26T10:27:52Z</time>
      </trkpt>
      <trkpt lat="48.30481" lon="2.6122">
        <ele>116.11259078979</ele>
        <time>2013-05-26T10:27:57Z</time>
      </trkpt>
      <trkpt lat="48.30477" lon="2.61198">
        <ele>113.1125793457</ele>
        <time>2013-05-26T10:28:03Z</time>
      </trkpt>
      <trkpt lat="48.30477" lon="2.61186">
        <ele>110.1125869751</ele>
        <time>2013-05-26T10:28:08Z</time>
      </trkpt>
      <trkpt lat="48.30484" lon="2.61172">
        <ele>108.11261749268</ele>
        <time>2013-05-26T10:28:14Z</time>
      </trkpt>
      <trkpt lat="48.30493" lon="2.61159">
        <ele>107.11264801025</ele>
        <time>2013-05-26T10:28:20Z</time>
      </trkpt>
      <trkpt lat="48.30501" lon="2.61143">
        <ele>106.11267852783</ele>
        <time>2013-05-26T10:28:27Z</time>
      </trkpt>
      <trkpt lat="48.30508" lon="2.61129">
        <ele>105.11270523071</ele>
        <time>2013-05-26T10:28:32Z</time>
      </trkpt>
      <trkpt lat="48.30516" lon="2.61116">
        <ele>104.11273956299</ele>
        <time>2013-05-26T10:28:38Z</time>
      </trkpt>
      <trkpt lat="48.30522" lon="2.61108">
        <ele>104.11276626587</ele>
        <time>2013-05-26T10:28:43Z</time>
      </trkpt>
      <trkpt lat="48.30528" lon="2.611">
        <ele>105.11278533936</ele>
        <time>2013-05-26T10:28:49Z</time>
      </trkpt>
      <trkpt lat="48.30533" lon="2.61092">
        <ele>106.11280441284</ele>
        <time>2013-05-26T10:28:55Z</time>
      </trkpt>
      <trkpt lat="48.30538" lon="2.61084">
        <ele>110.11282730103</ele>
        <time>2013-05-26T10:29:01Z</time>
      </trkpt>
      <trkpt lat="48.30544" lon="2.61074">
        <ele>113.11284637451</ele>
        <time>2013-05-26T10:29:07Z</time>
      </trkpt>
      <trkpt lat="48.30548" lon="2.61065">
        <ele>114.1128692627</ele>
        <time>2013-05-26T10:29:12Z</time>
      </trkpt>
      <trkpt lat="48.30551" lon="2.61058">
        <ele>113.11288070679</ele>
        <time>2013-05-26T10:29:17Z</time>
      </trkpt>
      <trkpt lat="48.30555" lon="2.61048">
        <ele>116.11288833618</ele>
        <time>2013-05-26T10:29:23Z</time>
      </trkpt>
      <trkpt lat="48.30558" lon="2.6104">
        <ele>117.11289978027</ele>
        <time>2013-05-26T10:29:28Z</time>
      </trkpt>
      <trkpt lat="48.30562" lon="2.61029">
        <ele>119.11291885376</ele>
        <time>2013-05-26T10:29:34Z</time>
      </trkpt>
      <trkpt lat="48.30566" lon="2.61017">
        <ele>120.11294174194</ele>
        <time>2013-05-26T10:29:40Z</time>
      </trkpt>
      <trkpt lat="48.3057" lon="2.61004">
        <ele>121.11295700073</ele>
        <time>2013-05-26T10:29:46Z</time>
      </trkpt>
      <trkpt lat="48.30573" lon="2.60991">
        <ele>122.11296463013</ele>
        <time>2013-05-26T10:29:52Z</time>
      </trkpt>
      <trkpt lat="48.30574" lon="2.60979">
        <ele>122.11297225952</ele>
        <time>2013-05-26T10:29:58Z</time>
      </trkpt>
      <trkpt lat="48.30576" lon="2.60968">
        <ele>124.11298370361</ele>
        <time>2013-05-26T10:30:04Z</time>
      </trkpt>
      <trkpt lat="48.30577" lon="2.60959">
        <ele>125.11298751831</ele>
        <time>2013-05-26T10:30:09Z</time>
      </trkpt>
      <trkpt lat="48.30575" lon="2.60951">
        <ele>125.11298370361</ele>
        <time>2013-05-26T10:30:14Z</time>
      </trkpt>
      <trkpt lat="48.30575" lon="2.60939">
        <ele>126.11298370361</ele>
        <time>2013-05-26T10:30:20Z</time>
      </trkpt>
      <trkpt lat="48.30578" lon="2.60923">
        <ele>127.11299133301</ele>
        <time>2013-05-26T10:30:26Z</time>
      </trkpt>
      <trkpt lat="48.30584" lon="2.60898">
        <ele>125.11302185059</ele>
        <time>2013-05-26T10:30:32Z</time>
      </trkpt>
      <trkpt lat="48.30588" lon="2.60878">
        <ele>126.11303710938</ele>
        <time>2013-05-26T10:30:38Z</time>
      </trkpt>
      <trkpt lat="48.30589" lon="2.6086">
        <ele>128.11304473877</ele>
        <time>2013-05-26T10:30:45Z</time>
      </trkpt>
      <trkpt lat="48.30592" lon="2.60845">
        <ele>128.11305999756</ele>
        <time>2013-05-26T10:30:50Z</time>
      </trkpt>
      <trkpt lat="48.30596" lon="2.6083">
        <ele>129.11307907104</ele>
        <time>2013-05-26T10:30:56Z</time>
      </trkpt>
      <trkpt lat="48.30601" lon="2.60816">
        <ele>127.11309432983</ele>
        <time>2013-05-26T10:31:02Z</time>
      </trkpt>
      <trkpt lat="48.30608" lon="2.60804">
        <ele>128.11312866211</ele>
        <time>2013-05-26T10:31:08Z</time>
      </trkpt>
      <trkpt lat="48.30615" lon="2.60796">
        <ele>129.11315155029</ele>
        <time>2013-05-26T10:31:13Z</time>
      </trkpt>
      <trkpt lat="48.30622" lon="2.60791">
        <ele>129.11318206787</ele>
        <time>2013-05-26T10:31:19Z</time>
      </trkpt>
      <trkpt lat="48.3063" lon="2.60787">
        <ele>131.11321258545</ele>
        <time>2013-05-26T10:31:25Z</time>
      </trkpt>
      <trkpt lat="48.30643" lon="2.6078">
        <ele>132.11325836182</ele>
        <time>2013-05-26T10:31:34Z</time>
      </trkpt>
      <trkpt lat="48.30649" lon="2.60776">
        <ele>135.1132850647</ele>
        <time>2013-05-26T10:31:39Z</time>
      </trkpt>
      <trkpt lat="48.30658" lon="2.60772">
        <ele>139.11331558228</ele>
        <time>2013-05-26T10:31:45Z</time>
      </trkpt>
      <trkpt lat="48.30669" lon="2.60766">
        <ele>140.11335754395</ele>
        <time>2013-05-26T10:31:51Z</time>
      </trkpt>
      <trkpt lat="48.30677" lon="2.60761">
        <ele>140.11338424683</ele>
        <time>2013-05-26T10:31:56Z</time>
      </trkpt>
      <trkpt lat="48.30692" lon="2.60745">
        <ele>141.11344528198</ele>
        <time>2013-05-26T10:32:05Z</time>
      </trkpt>
      <trkpt lat="48.30704" lon="2.60727">
        <ele>141.11348724365</ele>
        <time>2013-05-26T10:32:11Z</time>
      </trkpt>
      <trkpt lat="48.30709" lon="2.6071">
        <ele>140.11351013184</ele>
        <time>2013-05-26T10:32:17Z</time>
      </trkpt>
      <trkpt lat="48.3071" lon="2.60694">
        <ele>141.11352157593</ele>
        <time>2013-05-26T10:32:22Z</time>
      </trkpt>
      <trkpt lat="48.30711" lon="2.60676">
        <ele>142.11352920532</ele>
        <time>2013-05-26T10:32:28Z</time>
      </trkpt>
      <trkpt lat="48.30712" lon="2.60657">
        <ele>145.11353683472</ele>
        <time>2013-05-26T10:32:34Z</time>
      </trkpt>
      <trkpt lat="48.30715" lon="2.6064">
        <ele>144.11354827881</ele>
        <time>2013-05-26T10:32:39Z</time>
      </trkpt>
      <trkpt lat="48.30721" lon="2.60623">
        <ele>143.11357498169</ele>
        <time>2013-05-26T10:32:46Z</time>
      </trkpt>
      <trkpt lat="48.30728" lon="2.60615">
        <ele>142.11359786987</ele>
        <time>2013-05-26T10:32:51Z</time>
      </trkpt>
      <trkpt lat="48.30738" lon="2.60603">
        <ele>144.11363601685</ele>
        <time>2013-05-26T10:32:59Z</time>
      </trkpt>
      <trkpt lat="48.30748" lon="2.60595">
        <ele>144.11367416382</ele>
        <time>2013-05-26T10:33:04Z</time>
      </trkpt>
      <trkpt lat="48.30762" lon="2.60586">
        <ele>146.11373138428</ele>
        <time>2013-05-26T10:33:10Z</time>
      </trkpt>
      <trkpt lat="48.30772" lon="2.60577">
        <ele>146.11377334595</ele>
        <time>2013-05-26T10:33:15Z</time>
      </trkpt>
      <trkpt lat="48.30784" lon="2.60563">
        <ele>145.11381149292</ele>
        <time>2013-05-26T10:33:21Z</time>
      </trkpt>
      <trkpt lat="48.30793" lon="2.60556">
        <ele>145.11384963989</ele>
        <time>2013-05-26T10:33:26Z</time>
      </trkpt>
      <trkpt lat="48.30804" lon="2.60544">
        <ele>146.11389160156</ele>
        <time>2013-05-26T10:33:32Z</time>
      </trkpt>
      <trkpt lat="48.30815" lon="2.60532">
        <ele>146.11392974854</ele>
        <time>2013-05-26T10:33:38Z</time>
      </trkpt>
      <trkpt lat="48.30815" lon="2.60516">
        <ele>147.11393737793</ele>
        <time>2013-05-26T10:33:44Z</time>
      </trkpt>
      <trkpt lat="48.30814" lon="2.60497">
        <ele>148.11393356323</ele>
        <time>2013-05-26T10:33:50Z</time>
      </trkpt>
      <trkpt lat="48.30803" lon="2.60477">
        <ele>148.11389541626</ele>
        <time>2013-05-26T10:33:56Z</time>
      </trkpt>
      <trkpt lat="48.30788" lon="2.60451">
        <ele>145.1138420105</ele>
        <time>2013-05-26T10:34:02Z</time>
      </trkpt>
      <trkpt lat="48.30771" lon="2.60419">
        <ele>140.11378479004</ele>
        <time>2013-05-26T10:34:08Z</time>
      </trkpt>
      <trkpt lat="48.30765" lon="2.60383">
        <ele>137.11377334595</ele>
        <time>2013-05-26T10:34:13Z</time>
      </trkpt>
      <trkpt lat="48.3076" lon="2.60336">
        <ele>132.11375808716</ele>
        <time>2013-05-26T10:34:19Z</time>
      </trkpt>
      <trkpt lat="48.30767" lon="2.60285">
        <ele>130.11379623413</ele>
        <time>2013-05-26T10:34:25Z</time>
      </trkpt>
      <trkpt lat="48.30768" lon="2.60229">
        <ele>126.11380386353</ele>
        <time>2013-05-26T10:34:31Z</time>
      </trkpt>
      <trkpt lat="48.30753" lon="2.60176">
        <ele>121.11375808716</ele>
        <time>2013-05-26T10:34:38Z</time>
      </trkpt>
      <trkpt lat="48.30721" lon="2.60134">
        <ele>116.11364746094</ele>
        <time>2013-05-26T10:34:47Z</time>
      </trkpt>
      <trkpt lat="48.307" lon="2.60114">
        <ele>114.11357116699</ele>
        <time>2013-05-26T10:34:53Z</time>
      </trkpt>
      <trkpt lat="48.30669" lon="2.60098">
        <ele>112.11346435547</ele>
        <time>2013-05-26T10:35:01Z</time>
      </trkpt>
      <trkpt lat="48.30658" lon="2.60093">
        <ele>110.1134185791</ele>
        <time>2013-05-26T10:35:06Z</time>
      </trkpt>
      <trkpt lat="48.30642" lon="2.60083">
        <ele>111.11336517334</ele>
        <time>2013-05-26T10:35:14Z</time>
      </trkpt>
      <trkpt lat="48.30631" lon="2.60077">
        <ele>112.11331939697</ele>
        <time>2013-05-26T10:35:19Z</time>
      </trkpt>
      <trkpt lat="48.30616" lon="2.60072">
        <ele>112.11327362061</ele>
        <time>2013-05-26T10:35:25Z</time>
      </trkpt>
      <trkpt lat="48.30607" lon="2.60067">
        <ele>112.11323547363</ele>
        <time>2013-05-26T10:35:31Z</time>
      </trkpt>
      <trkpt lat="48.30595" lon="2.60059">
        <ele>110.11318969727</ele>
        <time>2013-05-26T10:35:37Z</time>
      </trkpt>
      <trkpt lat="48.30577" lon="2.60046">
        <ele>111.11312484741</ele>
        <time>2013-05-26T10:35:44Z</time>
      </trkpt>
      <trkpt lat="48.30566" lon="2.60032">
        <ele>110.11309432983</ele>
        <time>2013-05-26T10:35:49Z</time>
      </trkpt>
      <trkpt lat="48.30554" lon="2.60016">
        <ele>108.11304855347</ele>
        <time>2013-05-26T10:35:54Z</time>
      </trkpt>
      <trkpt lat="48.30541" lon="2.59999">
        <ele>107.1129989624</ele>
        <time>2013-05-26T10:35:59Z</time>
      </trkpt>
      <trkpt lat="48.30532" lon="2.59989">
        <ele>105.11297225952</ele>
        <time>2013-05-26T10:36:05Z</time>
      </trkpt>
      <trkpt lat="48.30513" lon="2.59977">
        <ele>103.11289978027</ele>
        <time>2013-05-26T10:36:11Z</time>
      </trkpt>
      <trkpt lat="48.30501" lon="2.59979">
        <ele>103.1128578186</ele>
        <time>2013-05-26T10:36:17Z</time>
      </trkpt>
      <trkpt lat="48.30491" lon="2.5998">
        <ele>102.11281585693</ele>
        <time>2013-05-26T10:36:22Z</time>
      </trkpt>
      <trkpt lat="48.30482" lon="2.5997">
        <ele>104.11278915405</ele>
        <time>2013-05-26T10:36:29Z</time>
      </trkpt>
      <trkpt lat="48.30478" lon="2.59945">
        <ele>107.11277770996</ele>
        <time>2013-05-26T10:36:35Z</time>
      </trkpt>
      <trkpt lat="48.30472" lon="2.59936">
        <ele>107.11275863647</ele>
        <time>2013-05-26T10:36:41Z</time>
      </trkpt>
      <trkpt lat="48.30462" lon="2.59936">
        <ele>104.1127243042</ele>
        <time>2013-05-26T10:36:48Z</time>
      </trkpt>
      <trkpt lat="48.30453" lon="2.59938">
        <ele>101.11268234253</ele>
        <time>2013-05-26T10:37:01Z</time>
      </trkpt>
      <trkpt lat="48.3045" lon="2.59933">
        <ele>94.112678527832</ele>
        <time>2013-05-26T10:37:23Z</time>
      </trkpt>
      <trkpt lat="48.3045" lon="2.59933">
        <ele>93.112678527832</ele>
        <time>2013-05-26T10:37:29Z</time>
      </trkpt>
      <trkpt lat="48.30454" lon="2.59929">
        <ele>94.112689971924</ele>
        <time>2013-05-26T10:37:35Z</time>
      </trkpt>
      <trkpt lat="48.30468" lon="2.59918">
        <ele>96.112743377686</ele>
        <time>2013-05-26T10:37:41Z</time>
      </trkpt>
      <trkpt lat="48.30482" lon="2.59906">
        <ele>97.112800598145</ele>
        <time>2013-05-26T10:37:47Z</time>
      </trkpt>
      <trkpt lat="48.30496" lon="2.59896">
        <ele>100.11285018921</ele>
        <time>2013-05-26T10:37:53Z</time>
      </trkpt>
      <trkpt lat="48.30508" lon="2.59883">
        <ele>102.11289596558</ele>
        <time>2013-05-26T10:37:58Z</time>
      </trkpt>
      <trkpt lat="48.30519" lon="2.59868">
        <ele>107.11294174194</ele>
        <time>2013-05-26T10:38:03Z</time>
      </trkpt>
      <trkpt lat="48.30533" lon="2.59858">
        <ele>111.11299514771</ele>
        <time>2013-05-26T10:38:09Z</time>
      </trkpt>
      <trkpt lat="48.30544" lon="2.59849">
        <ele>114.11303710938</ele>
        <time>2013-05-26T10:38:14Z</time>
      </trkpt>
      <trkpt lat="48.30555" lon="2.5984">
        <ele>116.11307907104</ele>
        <time>2013-05-26T10:38:20Z</time>
      </trkpt>
      <trkpt lat="48.30564" lon="2.59831">
        <ele>117.11310958862</ele>
        <time>2013-05-26T10:38:25Z</time>
      </trkpt>
      <trkpt lat="48.3057" lon="2.59816">
        <ele>115.1131401062</ele>
        <time>2013-05-26T10:38:31Z</time>
      </trkpt>
      <trkpt lat="48.30575" lon="2.59802">
        <ele>115.11315536499</ele>
        <time>2013-05-26T10:38:36Z</time>
      </trkpt>
      <trkpt lat="48.30579" lon="2.5979">
        <ele>114.11317443848</ele>
        <time>2013-05-26T10:38:42Z</time>
      </trkpt>
      <trkpt lat="48.30583" lon="2.59783">
        <ele>114.11318969727</ele>
        <time>2013-05-26T10:38:47Z</time>
      </trkpt>
      <trkpt lat="48.30584" lon="2.59774">
        <ele>114.11319732666</ele>
        <time>2013-05-26T10:38:52Z</time>
      </trkpt>
      <trkpt lat="48.30591" lon="2.59752">
        <ele>116.11322784424</ele>
        <time>2013-05-26T10:39:01Z</time>
      </trkpt>
      <trkpt lat="48.30594" lon="2.59737">
        <ele>114.11323928833</ele>
        <time>2013-05-26T10:39:07Z</time>
      </trkpt>
      <trkpt lat="48.30595" lon="2.59722">
        <ele>116.11324691772</ele>
        <time>2013-05-26T10:39:14Z</time>
      </trkpt>
      <trkpt lat="48.30597" lon="2.59708">
        <ele>115.11325073242</ele>
        <time>2013-05-26T10:39:20Z</time>
      </trkpt>
      <trkpt lat="48.30601" lon="2.59692">
        <ele>115.11327362061</ele>
        <time>2013-05-26T10:39:26Z</time>
      </trkpt>
      <trkpt lat="48.30605" lon="2.59677">
        <ele>116.11329269409</ele>
        <time>2013-05-26T10:39:32Z</time>
      </trkpt>
      <trkpt lat="48.3061" lon="2.59665">
        <ele>117.11330413818</ele>
        <time>2013-05-26T10:39:37Z</time>
      </trkpt>
      <trkpt lat="48.30615" lon="2.59649">
        <ele>117.11332702637</ele>
        <time>2013-05-26T10:39:43Z</time>
      </trkpt>
      <trkpt lat="48.30618" lon="2.59638">
        <ele>119.11334228516</ele>
        <time>2013-05-26T10:39:48Z</time>
      </trkpt>
      <trkpt lat="48.30622" lon="2.59625">
        <ele>120.11336135864</ele>
        <time>2013-05-26T10:39:53Z</time>
      </trkpt>
      <trkpt lat="48.30626" lon="2.59605">
        <ele>121.11337280273</ele>
        <time>2013-05-26T10:40:02Z</time>
      </trkpt>
      <trkpt lat="48.30629" lon="2.59595">
        <ele>121.11339187622</ele>
        <time>2013-05-26T10:40:08Z</time>
      </trkpt>
      <trkpt lat="48.30634" lon="2.59582">
        <ele>122.11340713501</ele>
        <time>2013-05-26T10:40:15Z</time>
      </trkpt>
      <trkpt lat="48.30639" lon="2.59574">
        <ele>123.1134262085</ele>
        <time>2013-05-26T10:40:20Z</time>
      </trkpt>
      <trkpt lat="48.30646" lon="2.59564">
        <ele>124.11345672607</ele>
        <time>2013-05-26T10:40:28Z</time>
      </trkpt>
      <trkpt lat="48.30648" lon="2.59556">
        <ele>126.11346435547</ele>
        <time>2013-05-26T10:40:33Z</time>
      </trkpt>
      <trkpt lat="48.30649" lon="2.59548">
        <ele>126.11347198486</ele>
        <time>2013-05-26T10:40:38Z</time>
      </trkpt>
      <trkpt lat="48.30652" lon="2.59534">
        <ele>128.11348342896</ele>
        <time>2013-05-26T10:40:47Z</time>
      </trkpt>
      <trkpt lat="48.30655" lon="2.59521">
        <ele>129.11349868774</ele>
        <time>2013-05-26T10:40:53Z</time>
      </trkpt>
      <trkpt lat="48.30659" lon="2.59506">
        <ele>130.11351394653</ele>
        <time>2013-05-26T10:41:00Z</time>
      </trkpt>
      <trkpt lat="48.30663" lon="2.59496">
        <ele>130.11352539062</ele>
        <time>2013-05-26T10:41:05Z</time>
      </trkpt>
      <trkpt lat="48.30669" lon="2.59478">
        <ele>132.1135597229</ele>
        <time>2013-05-26T10:41:14Z</time>
      </trkpt>
      <trkpt lat="48.30674" lon="2.59463">
        <ele>134.11357879639</ele>
        <time>2013-05-26T10:41:22Z</time>
      </trkpt>
      <trkpt lat="48.30678" lon="2.59453">
        <ele>135.11359786987</ele>
        <time>2013-05-26T10:41:28Z</time>
      </trkpt>
      <trkpt lat="48.30683" lon="2.59443">
        <ele>135.11360931396</ele>
        <time>2013-05-26T10:41:34Z</time>
      </trkpt>
      <trkpt lat="48.30687" lon="2.59429">
        <ele>136.11362838745</ele>
        <time>2013-05-26T10:41:42Z</time>
      </trkpt>
      <trkpt lat="48.30692" lon="2.59414">
        <ele>137.11364746094</ele>
        <time>2013-05-26T10:41:50Z</time>
      </trkpt>
      <trkpt lat="48.30694" lon="2.594">
        <ele>136.11365890503</ele>
        <time>2013-05-26T10:41:56Z</time>
      </trkpt>
      <trkpt lat="48.30695" lon="2.59388">
        <ele>137.11366653442</ele>
        <time>2013-05-26T10:42:01Z</time>
      </trkpt>
      <trkpt lat="48.30692" lon="2.59369">
        <ele>137.11365509033</ele>
        <time>2013-05-26T10:42:07Z</time>
      </trkpt>
      <trkpt lat="48.30683" lon="2.59354">
        <ele>136.11362838745</ele>
        <time>2013-05-26T10:42:13Z</time>
      </trkpt>
      <trkpt lat="48.30656" lon="2.59346">
        <ele>135.11352539062</ele>
        <time>2013-05-26T10:42:22Z</time>
      </trkpt>
      <trkpt lat="48.30642" lon="2.59345">
        <ele>136.11347198486</ele>
        <time>2013-05-26T10:42:27Z</time>
      </trkpt>
      <trkpt lat="48.30635" lon="2.59332">
        <ele>135.11345672607</ele>
        <time>2013-05-26T10:42:32Z</time>
      </trkpt>
      <trkpt lat="48.30631" lon="2.59318">
        <ele>136.11343765259</ele>
        <time>2013-05-26T10:42:38Z</time>
      </trkpt>
      <trkpt lat="48.30631" lon="2.59302">
        <ele>138.11344146729</ele>
        <time>2013-05-26T10:42:44Z</time>
      </trkpt>
      <trkpt lat="48.30629" lon="2.59286">
        <ele>141.11343765259</ele>
        <time>2013-05-26T10:42:50Z</time>
      </trkpt>
      <trkpt lat="48.30626" lon="2.59263">
        <ele>141.11343002319</ele>
        <time>2013-05-26T10:42:56Z</time>
      </trkpt>
      <trkpt lat="48.30619" lon="2.59242">
        <ele>141.11340713501</ele>
        <time>2013-05-26T10:43:02Z</time>
      </trkpt>
      <trkpt lat="48.30613" lon="2.59223">
        <ele>139.11338806152</ele>
        <time>2013-05-26T10:43:07Z</time>
      </trkpt>
      <trkpt lat="48.30609" lon="2.59198">
        <ele>140.11338043213</ele>
        <time>2013-05-26T10:43:13Z</time>
      </trkpt>
      <trkpt lat="48.30601" lon="2.59169">
        <ele>138.11334991455</ele>
        <time>2013-05-26T10:43:19Z</time>
      </trkpt>
      <trkpt lat="48.30595" lon="2.59144">
        <ele>138.11333465576</ele>
        <time>2013-05-26T10:43:25Z</time>
      </trkpt>
      <trkpt lat="48.30599" lon="2.59127">
        <ele>138.11335372925</ele>
        <time>2013-05-26T10:43:30Z</time>
      </trkpt>
      <trkpt lat="48.30606" lon="2.5911">
        <ele>138.11337661743</ele>
        <time>2013-05-26T10:43:35Z</time>
      </trkpt>
      <trkpt lat="48.30619" lon="2.59086">
        <ele>139.11343002319</ele>
        <time>2013-05-26T10:43:42Z</time>
      </trkpt>
      <trkpt lat="48.30632" lon="2.59058">
        <ele>139.11348342896</ele>
        <time>2013-05-26T10:43:51Z</time>
      </trkpt>
      <trkpt lat="48.30637" lon="2.59043">
        <ele>139.11350631714</ele>
        <time>2013-05-26T10:43:56Z</time>
      </trkpt>
      <trkpt lat="48.30638" lon="2.59025">
        <ele>136.11350631714</ele>
        <time>2013-05-26T10:44:01Z</time>
      </trkpt>
      <trkpt lat="48.30633" lon="2.59007">
        <ele>133.11349105835</ele>
        <time>2013-05-26T10:44:07Z</time>
      </trkpt>
      <trkpt lat="48.30617" lon="2.59001">
        <ele>130.11343383789</ele>
        <time>2013-05-26T10:44:14Z</time>
      </trkpt>
      <trkpt lat="48.30603" lon="2.59001">
        <ele>129.11338424683</ele>
        <time>2013-05-26T10:44:20Z</time>
      </trkpt>
      <trkpt lat="48.30582" lon="2.58979">
        <ele>125.11331176758</ele>
        <time>2013-05-26T10:44:26Z</time>
      </trkpt>
      <trkpt lat="48.30571" lon="2.58968">
        <ele>123.11326980591</ele>
        <time>2013-05-26T10:44:31Z</time>
      </trkpt>
      <trkpt lat="48.30557" lon="2.5895">
        <ele>120.11322021484</ele>
        <time>2013-05-26T10:44:37Z</time>
      </trkpt>
      <trkpt lat="48.30538" lon="2.58923">
        <ele>120.11315536499</ele>
        <time>2013-05-26T10:44:44Z</time>
      </trkpt>
      <trkpt lat="48.30527" lon="2.58901">
        <ele>120.11311721802</ele>
        <time>2013-05-26T10:44:50Z</time>
      </trkpt>
      <trkpt lat="48.30513" lon="2.58888">
        <ele>118.11306762695</ele>
        <time>2013-05-26T10:44:56Z</time>
      </trkpt>
      <trkpt lat="48.30503" lon="2.58873">
        <ele>117.11303710938</ele>
        <time>2013-05-26T10:45:01Z</time>
      </trkpt>
      <trkpt lat="48.305" lon="2.58839">
        <ele>117.11302185059</ele>
        <time>2013-05-26T10:45:07Z</time>
      </trkpt>
      <trkpt lat="48.30502" lon="2.58809">
        <ele>116.11304092407</ele>
        <time>2013-05-26T10:45:13Z</time>
      </trkpt>
      <trkpt lat="48.30508" lon="2.58775">
        <ele>116.11306762695</ele>
        <time>2013-05-26T10:45:19Z</time>
      </trkpt>
      <trkpt lat="48.30514" lon="2.58741">
        <ele>115.11309051514</ele>
        <time>2013-05-26T10:45:27Z</time>
      </trkpt>
      <trkpt lat="48.30511" lon="2.58727">
        <ele>116.11308288574</ele>
        <time>2013-05-26T10:45:32Z</time>
      </trkpt>
      <trkpt lat="48.30497" lon="2.58719">
        <ele>116.11303329468</ele>
        <time>2013-05-26T10:45:38Z</time>
      </trkpt>
      <trkpt lat="48.30486" lon="2.58713">
        <ele>117.11299133301</ele>
        <time>2013-05-26T10:45:44Z</time>
      </trkpt>
      <trkpt lat="48.30487" lon="2.5869">
        <ele>118.1129989624</ele>
        <time>2013-05-26T10:45:51Z</time>
      </trkpt>
      <trkpt lat="48.3049" lon="2.5867">
        <ele>120.11301803589</ele>
        <time>2013-05-26T10:45:58Z</time>
      </trkpt>
      <trkpt lat="48.30491" lon="2.58651">
        <ele>121.11302185059</ele>
        <time>2013-05-26T10:46:04Z</time>
      </trkpt>
      <trkpt lat="48.30494" lon="2.58631">
        <ele>121.11303710938</ele>
        <time>2013-05-26T10:46:11Z</time>
      </trkpt>
      <trkpt lat="48.30496" lon="2.58618">
        <ele>123.11304855347</ele>
        <time>2013-05-26T10:46:17Z</time>
      </trkpt>
      <trkpt lat="48.30499" lon="2.58604">
        <ele>124.11305618286</ele>
        <time>2013-05-26T10:46:22Z</time>
      </trkpt>
      <trkpt lat="48.30502" lon="2.58595">
        <ele>125.11307144165</ele>
        <time>2013-05-26T10:46:29Z</time>
      </trkpt>
      <trkpt lat="48.30512" lon="2.58589">
        <ele>127.11310577393</ele>
        <time>2013-05-26T10:46:35Z</time>
      </trkpt>
      <trkpt lat="48.3052" lon="2.5858">
        <ele>128.1131401062</ele>
        <time>2013-05-26T10:46:40Z</time>
      </trkpt>
      <trkpt lat="48.30528" lon="2.58572">
        <ele>130.11316680908</ele>
        <time>2013-05-26T10:46:45Z</time>
      </trkpt>
      <trkpt lat="48.3054" lon="2.58562">
        <ele>131.11321640015</ele>
        <time>2013-05-26T10:46:53Z</time>
      </trkpt>
      <trkpt lat="48.30549" lon="2.58544">
        <ele>130.11325454712</ele>
        <time>2013-05-26T10:47:00Z</time>
      </trkpt>
      <trkpt lat="48.30554" lon="2.58531">
        <ele>129.1132774353</ele>
        <time>2013-05-26T10:47:05Z</time>
      </trkpt>
      <trkpt lat="48.3056" lon="2.58516">
        <ele>128.11330032349</ele>
        <time>2013-05-26T10:47:11Z</time>
      </trkpt>
      <trkpt lat="48.30568" lon="2.58504">
        <ele>128.11333084106</ele>
        <time>2013-05-26T10:47:20Z</time>
      </trkpt>
      <trkpt lat="48.30573" lon="2.58489">
        <ele>130.11334991455</ele>
        <time>2013-05-26T10:47:29Z</time>
      </trkpt>
      <trkpt lat="48.30575" lon="2.58477">
        <ele>129.11335754395</ele>
        <time>2013-05-26T10:47:36Z</time>
      </trkpt>
      <trkpt lat="48.30576" lon="2.58471">
        <ele>128.11336517334</ele>
        <time>2013-05-26T10:47:42Z</time>
      </trkpt>
      <trkpt lat="48.30577" lon="2.58461">
        <ele>130.11337280273</ele>
        <time>2013-05-26T10:47:47Z</time>
      </trkpt>
      <trkpt lat="48.30577" lon="2.58458">
        <ele>130.11336898804</ele>
        <time>2013-05-26T10:47:53Z</time>
      </trkpt>
      <trkpt lat="48.30574" lon="2.58454">
        <ele>133.11335754395</ele>
        <time>2013-05-26T10:47:58Z</time>
      </trkpt>
      <trkpt lat="48.30572" lon="2.5845">
        <ele>133.11334991455</ele>
        <time>2013-05-26T10:48:03Z</time>
      </trkpt>
      <trkpt lat="48.30564" lon="2.58444">
        <ele>136.11332321167</ele>
        <time>2013-05-26T10:48:11Z</time>
      </trkpt>
      <trkpt lat="48.30556" lon="2.58453">
        <ele>136.11329650879</ele>
        <time>2013-05-26T10:48:17Z</time>
      </trkpt>
      <trkpt lat="48.30546" lon="2.58477">
        <ele>135.11325836182</ele>
        <time>2013-05-26T10:48:24Z</time>
      </trkpt>
      <trkpt lat="48.30545" lon="2.58481">
        <ele>134.11324691772</ele>
        <time>2013-05-26T10:48:31Z</time>
      </trkpt>
      <trkpt lat="48.30535" lon="2.585">
        <ele>129.11320877075</ele>
        <time>2013-05-26T10:48:37Z</time>
      </trkpt>
      <trkpt lat="48.30527" lon="2.58507">
        <ele>128.11317825317</ele>
        <time>2013-05-26T10:48:44Z</time>
      </trkpt>
      <trkpt lat="48.30521" lon="2.58512">
        <ele>126.11315155029</ele>
        <time>2013-05-26T10:48:51Z</time>
      </trkpt>
      <trkpt lat="48.30509" lon="2.58523">
        <ele>128.11310577393</ele>
        <time>2013-05-26T10:48:59Z</time>
      </trkpt>
      <trkpt lat="48.30496" lon="2.58538">
        <ele>128.11305618286</ele>
        <time>2013-05-26T10:49:07Z</time>
      </trkpt>
      <trkpt lat="48.30491" lon="2.58544">
        <ele>126.11303710938</ele>
        <time>2013-05-26T10:49:13Z</time>
      </trkpt>
      <trkpt lat="48.30485" lon="2.58554">
        <ele>124.11301803589</ele>
        <time>2013-05-26T10:49:19Z</time>
      </trkpt>
      <trkpt lat="48.30478" lon="2.58561">
        <ele>125.11298751831</ele>
        <time>2013-05-26T10:49:25Z</time>
      </trkpt>
      <trkpt lat="48.30476" lon="2.58564">
        <ele>126.11297988892</ele>
        <time>2013-05-26T10:49:30Z</time>
      </trkpt>
      <trkpt lat="48.30459" lon="2.58582">
        <ele>124.11291122437</ele>
        <time>2013-05-26T10:49:36Z</time>
      </trkpt>
      <trkpt lat="48.30448" lon="2.58597">
        <ele>124.11287307739</ele>
        <time>2013-05-26T10:49:41Z</time>
      </trkpt>
      <trkpt lat="48.30433" lon="2.5863">
        <ele>123.11281585693</ele>
        <time>2013-05-26T10:49:47Z</time>
      </trkpt>
      <trkpt lat="48.30413" lon="2.58662">
        <ele>120.11273574829</ele>
        <time>2013-05-26T10:49:53Z</time>
      </trkpt>
      <trkpt lat="48.30397" lon="2.58685">
        <ele>115.11267471313</ele>
        <time>2013-05-26T10:49:59Z</time>
      </trkpt>
      <trkpt lat="48.30382" lon="2.58681">
        <ele>110.11261367798</ele>
        <time>2013-05-26T10:50:05Z</time>
      </trkpt>
      <trkpt lat="48.3037" lon="2.58663">
        <ele>107.11257553101</ele>
        <time>2013-05-26T10:50:11Z</time>
      </trkpt>
      <trkpt lat="48.30362" lon="2.58631">
        <ele>108.11254882812</ele>
        <time>2013-05-26T10:50:19Z</time>
      </trkpt>
      <trkpt lat="48.30358" lon="2.58597">
        <ele>108.11253738403</ele>
        <time>2013-05-26T10:50:26Z</time>
      </trkpt>
      <trkpt lat="48.30353" lon="2.58574">
        <ele>111.11252593994</ele>
        <time>2013-05-26T10:50:31Z</time>
      </trkpt>
      <trkpt lat="48.30346" lon="2.58547">
        <ele>112.11250305176</ele>
        <time>2013-05-26T10:50:37Z</time>
      </trkpt>
      <trkpt lat="48.30335" lon="2.58526">
        <ele>111.11246490479</ele>
        <time>2013-05-26T10:50:43Z</time>
      </trkpt>
      <trkpt lat="48.30331" lon="2.58509">
        <ele>112.112449646</ele>
        <time>2013-05-26T10:50:48Z</time>
      </trkpt>
      <trkpt lat="48.30325" lon="2.58495">
        <ele>115.11243057251</ele>
        <time>2013-05-26T10:50:53Z</time>
      </trkpt>
      <trkpt lat="48.30317" lon="2.5848">
        <ele>113.11240386963</ele>
        <time>2013-05-26T10:50:59Z</time>
      </trkpt>
      <trkpt lat="48.30307" lon="2.58466">
        <ele>111.11236953735</ele>
        <time>2013-05-26T10:51:04Z</time>
      </trkpt>
      <trkpt lat="48.30298" lon="2.58454">
        <ele>110.11233520508</ele>
        <time>2013-05-26T10:51:09Z</time>
      </trkpt>
      <trkpt lat="48.30288" lon="2.58433">
        <ele>110.1123046875</ele>
        <time>2013-05-26T10:51:17Z</time>
      </trkpt>
      <trkpt lat="48.30278" lon="2.58398">
        <ele>110.11227035522</ele>
        <time>2013-05-26T10:51:26Z</time>
      </trkpt>
      <trkpt lat="48.30275" lon="2.58384">
        <ele>110.11226272583</ele>
        <time>2013-05-26T10:51:32Z</time>
      </trkpt>
      <trkpt lat="48.30272" lon="2.58357">
        <ele>110.11225509644</ele>
        <time>2013-05-26T10:51:39Z</time>
      </trkpt>
      <trkpt lat="48.30273" lon="2.58354">
        <ele>111.11225891113</ele>
        <time>2013-05-26T10:51:44Z</time>
      </trkpt>
      <trkpt lat="48.30277" lon="2.58354">
        <ele>114.11227416992</ele>
        <time>2013-05-26T10:51:49Z</time>
      </trkpt>
      <trkpt lat="48.30283" lon="2.58355">
        <ele>116.11229705811</ele>
        <time>2013-05-26T10:51:55Z</time>
      </trkpt>
      <trkpt lat="48.30289" lon="2.58359">
        <ele>117.11231231689</ele>
        <time>2013-05-26T10:52:01Z</time>
      </trkpt>
      <trkpt lat="48.30291" lon="2.58361">
        <ele>115.11231994629</ele>
        <time>2013-05-26T10:52:08Z</time>
      </trkpt>
      <trkpt lat="48.30293" lon="2.58363">
        <ele>109.11233139038</ele>
        <time>2013-05-26T10:52:14Z</time>
      </trkpt>
      <trkpt lat="48.30297" lon="2.58365">
        <ele>112.11234664917</ele>
        <time>2013-05-26T10:52:20Z</time>
      </trkpt>
      <trkpt lat="48.30302" lon="2.58368">
        <ele>114.11236190796</ele>
        <time>2013-05-26T10:52:25Z</time>
      </trkpt>
      <trkpt lat="48.30309" lon="2.5837">
        <ele>116.11238861084</ele>
        <time>2013-05-26T10:52:30Z</time>
      </trkpt>
      <trkpt lat="48.30317" lon="2.58376">
        <ele>120.11241531372</ele>
        <time>2013-05-26T10:52:36Z</time>
      </trkpt>
      <trkpt lat="48.30329" lon="2.58387">
        <ele>122.11246490479</ele>
        <time>2013-05-26T10:52:44Z</time>
      </trkpt>
      <trkpt lat="48.30339" lon="2.58396">
        <ele>124.11249923706</ele>
        <time>2013-05-26T10:52:50Z</time>
      </trkpt>
      <trkpt lat="48.30347" lon="2.58403">
        <ele>125.11252593994</ele>
        <time>2013-05-26T10:52:56Z</time>
      </trkpt>
      <trkpt lat="48.30356" lon="2.58411">
        <ele>128.11256027222</ele>
        <time>2013-05-26T10:53:03Z</time>
      </trkpt>
      <trkpt lat="48.30364" lon="2.58419">
        <ele>129.1125869751</ele>
        <time>2013-05-26T10:53:09Z</time>
      </trkpt>
      <trkpt lat="48.3037" lon="2.58425">
        <ele>128.11260986328</ele>
        <time>2013-05-26T10:53:14Z</time>
      </trkpt>
      <trkpt lat="48.30379" lon="2.58438">
        <ele>128.11264038086</ele>
        <time>2013-05-26T10:53:21Z</time>
      </trkpt>
      <trkpt lat="48.3039" lon="2.58453">
        <ele>129.11267852783</ele>
        <time>2013-05-26T10:53:28Z</time>
      </trkpt>
      <trkpt lat="48.30396" lon="2.58461">
        <ele>129.11269760132</ele>
        <time>2013-05-26T10:53:34Z</time>
      </trkpt>
      <trkpt lat="48.30409" lon="2.5848">
        <ele>129.11274337769</ele>
        <time>2013-05-26T10:53:40Z</time>
      </trkpt>
      <trkpt lat="48.30416" lon="2.58488">
        <ele>126.11276626587</ele>
        <time>2013-05-26T10:53:46Z</time>
      </trkpt>
      <trkpt lat="48.30424" lon="2.58485">
        <ele>123.11280059814</ele>
        <time>2013-05-26T10:53:52Z</time>
      </trkpt>
      <trkpt lat="48.30429" lon="2.58478">
        <ele>123.11282348633</ele>
        <time>2013-05-26T10:53:58Z</time>
      </trkpt>
      <trkpt lat="48.30435" lon="2.58473">
        <ele>123.11284637451</ele>
        <time>2013-05-26T10:54:04Z</time>
      </trkpt>
      <trkpt lat="48.30442" lon="2.58471">
        <ele>124.11287307739</ele>
        <time>2013-05-26T10:54:10Z</time>
      </trkpt>
      <trkpt lat="48.3045" lon="2.58468">
        <ele>126.11289978027</ele>
        <time>2013-05-26T10:54:16Z</time>
      </trkpt>
      <trkpt lat="48.30456" lon="2.58468">
        <ele>127.11291885376</ele>
        <time>2013-05-26T10:54:21Z</time>
      </trkpt>
      <trkpt lat="48.30466" lon="2.5846">
        <ele>131.11296081543</ele>
        <time>2013-05-26T10:54:30Z</time>
      </trkpt>
      <trkpt lat="48.3047" lon="2.58454">
        <ele>133.11296844482</ele>
        <time>2013-05-26T10:54:36Z</time>
      </trkpt>
      <trkpt lat="48.30471" lon="2.58441">
        <ele>137.11298370361</ele>
        <time>2013-05-26T10:54:45Z</time>
      </trkpt>
      <trkpt lat="48.3047" lon="2.58431">
        <ele>135.11297988892</ele>
        <time>2013-05-26T10:54:51Z</time>
      </trkpt>
      <trkpt lat="48.30466" lon="2.58424">
        <ele>135.11296463013</ele>
        <time>2013-05-26T10:54:56Z</time>
      </trkpt>
      <trkpt lat="48.3046" lon="2.58416">
        <ele>136.11294555664</ele>
        <time>2013-05-26T10:55:04Z</time>
      </trkpt>
      <trkpt lat="48.30451" lon="2.58408">
        <ele>135.11291503906</ele>
        <time>2013-05-26T10:55:11Z</time>
      </trkpt>
      <trkpt lat="48.30444" lon="2.58401">
        <ele>135.11289215088</ele>
        <time>2013-05-26T10:55:16Z</time>
      </trkpt>
      <trkpt lat="48.30434" lon="2.58393">
        <ele>134.11285018921</ele>
        <time>2013-05-26T10:55:22Z</time>
      </trkpt>
      <trkpt lat="48.30424" lon="2.58387">
        <ele>133.11281585693</ele>
        <time>2013-05-26T10:55:27Z</time>
      </trkpt>
      <trkpt lat="48.30417" lon="2.58377">
        <ele>133.11278915405</ele>
        <time>2013-05-26T10:55:32Z</time>
      </trkpt>
      <trkpt lat="48.3041" lon="2.58365">
        <ele>132.11276626587</ele>
        <time>2013-05-26T10:55:38Z</time>
      </trkpt>
      <trkpt lat="48.30406" lon="2.58354">
        <ele>132.11275100708</ele>
        <time>2013-05-26T10:55:44Z</time>
      </trkpt>
      <trkpt lat="48.30405" lon="2.58346">
        <ele>132.11274719238</ele>
        <time>2013-05-26T10:55:49Z</time>
      </trkpt>
      <trkpt lat="48.30401" lon="2.58332">
        <ele>132.11273574829</ele>
        <time>2013-05-26T10:55:57Z</time>
      </trkpt>
      <trkpt lat="48.30391" lon="2.58328">
        <ele>130.11270141602</ele>
        <time>2013-05-26T10:56:02Z</time>
      </trkpt>
      <trkpt lat="48.30382" lon="2.58333">
        <ele>127.11266708374</ele>
        <time>2013-05-26T10:56:09Z</time>
      </trkpt>
      <trkpt lat="48.30376" lon="2.58337">
        <ele>126.11264038086</ele>
        <time>2013-05-26T10:56:14Z</time>
      </trkpt>
      <trkpt lat="48.30371" lon="2.58333">
        <ele>124.11262893677</ele>
        <time>2013-05-26T10:56:20Z</time>
      </trkpt>
      <trkpt lat="48.30366" lon="2.58326">
        <ele>125.11260986328</ele>
        <time>2013-05-26T10:56:26Z</time>
      </trkpt>
      <trkpt lat="48.30362" lon="2.58316">
        <ele>127.11259460449</ele>
        <time>2013-05-26T10:56:32Z</time>
      </trkpt>
      <trkpt lat="48.30355" lon="2.58299">
        <ele>128.11257171631</ele>
        <time>2013-05-26T10:56:41Z</time>
      </trkpt>
      <trkpt lat="48.30351" lon="2.5829">
        <ele>129.11255645752</ele>
        <time>2013-05-26T10:56:46Z</time>
      </trkpt>
      <trkpt lat="48.30343" lon="2.58274">
        <ele>128.11253356934</ele>
        <time>2013-05-26T10:56:55Z</time>
      </trkpt>
      <trkpt lat="48.30335" lon="2.58267">
        <ele>129.11249923706</ele>
        <time>2013-05-26T10:57:01Z</time>
      </trkpt>
      <trkpt lat="48.30319" lon="2.58257">
        <ele>128.1124420166</ele>
        <time>2013-05-26T10:57:07Z</time>
      </trkpt>
      <trkpt lat="48.30308" lon="2.58245">
        <ele>128.11240386963</ele>
        <time>2013-05-26T10:57:12Z</time>
      </trkpt>
      <trkpt lat="48.30301" lon="2.58233">
        <ele>128.11238098145</ele>
        <time>2013-05-26T10:57:17Z</time>
      </trkpt>
      <trkpt lat="48.30294" lon="2.58223">
        <ele>127.11235046387</ele>
        <time>2013-05-26T10:57:22Z</time>
      </trkpt>
      <trkpt lat="48.30285" lon="2.58214">
        <ele>127.11231994629</ele>
        <time>2013-05-26T10:57:27Z</time>
      </trkpt>
      <trkpt lat="48.30264" lon="2.582">
        <ele>125.11224746704</ele>
        <time>2013-05-26T10:57:35Z</time>
      </trkpt>
      <trkpt lat="48.30248" lon="2.58199">
        <ele>125.11219024658</ele>
        <time>2013-05-26T10:57:40Z</time>
      </trkpt>
      <trkpt lat="48.30237" lon="2.58193">
        <ele>125.11215209961</ele>
        <time>2013-05-26T10:57:46Z</time>
      </trkpt>
      <trkpt lat="48.30233" lon="2.5818">
        <ele>125.11213684082</ele>
        <time>2013-05-26T10:57:52Z</time>
      </trkpt>
      <trkpt lat="48.30227" lon="2.58166">
        <ele>129.11211776733</ele>
        <time>2013-05-26T10:57:58Z</time>
      </trkpt>
      <trkpt lat="48.30222" lon="2.58143">
        <ele>129.11210632324</ele>
        <time>2013-05-26T10:58:04Z</time>
      </trkpt>
      <trkpt lat="48.3022" lon="2.58124">
        <ele>129.11209869385</ele>
        <time>2013-05-26T10:58:10Z</time>
      </trkpt>
      <trkpt lat="48.30221" lon="2.58107">
        <ele>129.11209869385</ele>
        <time>2013-05-26T10:58:16Z</time>
      </trkpt>
      <trkpt lat="48.30221" lon="2.58092">
        <ele>128.11210250854</ele>
        <time>2013-05-26T10:58:22Z</time>
      </trkpt>
      <trkpt lat="48.3022" lon="2.5808">
        <ele>128.11210632324</ele>
        <time>2013-05-26T10:58:28Z</time>
      </trkpt>
      <trkpt lat="48.30219" lon="2.58068">
        <ele>129.11210632324</ele>
        <time>2013-05-26T10:58:33Z</time>
      </trkpt>
      <trkpt lat="48.30217" lon="2.58055">
        <ele>128.11209487915</ele>
        <time>2013-05-26T10:58:39Z</time>
      </trkpt>
      <trkpt lat="48.30213" lon="2.58038">
        <ele>130.11207962036</ele>
        <time>2013-05-26T10:58:46Z</time>
      </trkpt>
      <trkpt lat="48.30207" lon="2.58021">
        <ele>130.11206436157</ele>
        <time>2013-05-26T10:58:53Z</time>
      </trkpt>
      <trkpt lat="48.30204" lon="2.58009">
        <ele>132.11205291748</ele>
        <time>2013-05-26T10:58:58Z</time>
      </trkpt>
      <trkpt lat="48.30201" lon="2.5799">
        <ele>134.11204910278</ele>
        <time>2013-05-26T10:59:04Z</time>
      </trkpt>
      <trkpt lat="48.302" lon="2.57963">
        <ele>136.11204528809</ele>
        <time>2013-05-26T10:59:11Z</time>
      </trkpt>
      <trkpt lat="48.30198" lon="2.57946">
        <ele>136.11203765869</ele>
        <time>2013-05-26T10:59:16Z</time>
      </trkpt>
      <trkpt lat="48.30192" lon="2.57929">
        <ele>137.1120262146</ele>
        <time>2013-05-26T10:59:22Z</time>
      </trkpt>
      <trkpt lat="48.30187" lon="2.57912">
        <ele>138.11201095581</ele>
        <time>2013-05-26T10:59:28Z</time>
      </trkpt>
      <trkpt lat="48.30179" lon="2.57897">
        <ele>139.11198043823</ele>
        <time>2013-05-26T10:59:35Z</time>
      </trkpt>
      <trkpt lat="48.30172" lon="2.57884">
        <ele>139.11194992065</ele>
        <time>2013-05-26T10:59:42Z</time>
      </trkpt>
      <trkpt lat="48.30162" lon="2.57877">
        <ele>137.11191940308</ele>
        <time>2013-05-26T10:59:48Z</time>
      </trkpt>
      <trkpt lat="48.30153" lon="2.57882">
        <ele>133.1118850708</ele>
        <time>2013-05-26T10:59:55Z</time>
      </trkpt>
      <trkpt lat="48.30151" lon="2.57883">
        <ele>131.11187744141</ele>
        <time>2013-05-26T11:00:00Z</time>
      </trkpt>
      <trkpt lat="48.30151" lon="2.57886">
        <ele>129.11186981201</ele>
        <time>2013-05-26T11:00:05Z</time>
      </trkpt>
      <trkpt lat="48.30153" lon="2.57895">
        <ele>128.1118812561</ele>
        <time>2013-05-26T11:00:11Z</time>
      </trkpt>
      <trkpt lat="48.30157" lon="2.57899">
        <ele>127.11189651489</ele>
        <time>2013-05-26T11:00:16Z</time>
      </trkpt>
      <trkpt lat="48.30158" lon="2.57906">
        <ele>127.11190414429</ele>
        <time>2013-05-26T11:00:21Z</time>
      </trkpt>
      <trkpt lat="48.30159" lon="2.57916">
        <ele>127.11190414429</ele>
        <time>2013-05-26T11:00:27Z</time>
      </trkpt>
      <trkpt lat="48.30155" lon="2.57934">
        <ele>129.1118812561</ele>
        <time>2013-05-26T11:00:34Z</time>
      </trkpt>
      <trkpt lat="48.30141" lon="2.5795">
        <ele>130.11183166504</ele>
        <time>2013-05-26T11:00:40Z</time>
      </trkpt>
      <trkpt lat="48.30129" lon="2.57992">
        <ele>132.11177825928</ele>
        <time>2013-05-26T11:00:48Z</time>
      </trkpt>
      <trkpt lat="48.30128" lon="2.58034">
        <ele>129.11177062988</ele>
        <time>2013-05-26T11:00:57Z</time>
      </trkpt>
      <trkpt lat="48.30116" lon="2.58087">
        <ele>125.11172103882</ele>
        <time>2013-05-26T11:01:06Z</time>
      </trkpt>
      <trkpt lat="48.30103" lon="2.5811">
        <ele>125.11166381836</ele>
        <time>2013-05-26T11:01:12Z</time>
      </trkpt>
      <trkpt lat="48.30094" lon="2.58118">
        <ele>125.11163330078</ele>
        <time>2013-05-26T11:01:17Z</time>
      </trkpt>
      <trkpt lat="48.30091" lon="2.58125">
        <ele>124.11162185669</ele>
        <time>2013-05-26T11:01:23Z</time>
      </trkpt>
      <trkpt lat="48.30085" lon="2.58137">
        <ele>124.11159515381</ele>
        <time>2013-05-26T11:01:29Z</time>
      </trkpt>
      <trkpt lat="48.30079" lon="2.58148">
        <ele>115.11156845093</ele>
        <time>2013-05-26T11:01:39Z</time>
      </trkpt>
      <trkpt lat="48.30071" lon="2.58156">
        <ele>109.11153793335</ele>
        <time>2013-05-26T11:01:49Z</time>
      </trkpt>
      <trkpt lat="48.30062" lon="2.58161">
        <ele>94.111503601074</ele>
        <time>2013-05-26T11:02:20Z</time>
      </trkpt>
      <trkpt lat="48.3006" lon="2.58153">
        <ele>87.111499786377</ele>
        <time>2013-05-26T11:03:06Z</time>
      </trkpt>
      <trkpt lat="48.30064" lon="2.58155">
        <ele>95.111511230469</ele>
        <time>2013-05-26T11:04:06Z</time>
      </trkpt>
      <trkpt lat="48.30063" lon="2.58155">
        <ele>94.111507415771</ele>
        <time>2013-05-26T11:04:12Z</time>
      </trkpt>
      <trkpt lat="48.30063" lon="2.58155">
        <ele>93.111507415771</ele>
        <time>2013-05-26T11:04:18Z</time>
      </trkpt>
      <trkpt lat="48.30062" lon="2.58156">
        <ele>94.111503601074</ele>
        <time>2013-05-26T11:04:23Z</time>
      </trkpt>
      <trkpt lat="48.3006" lon="2.58157">
        <ele>95.111503601074</ele>
        <time>2013-05-26T11:04:30Z</time>
      </trkpt>
      <trkpt lat="48.3006" lon="2.58158">
        <ele>98.111499786377</ele>
        <time>2013-05-26T11:04:36Z</time>
      </trkpt>
      <trkpt lat="48.3006" lon="2.58158">
        <ele>101.11150360107</ele>
        <time>2013-05-26T11:04:41Z</time>
      </trkpt>
      <trkpt lat="48.30061" lon="2.58158">
        <ele>99.111503601074</ele>
        <time>2013-05-26T11:04:47Z</time>
      </trkpt>
      <trkpt lat="48.30061" lon="2.58158">
        <ele>97.111503601074</ele>
        <time>2013-05-26T11:04:53Z</time>
      </trkpt>
      <trkpt lat="48.30061" lon="2.58157">
        <ele>96.111503601074</ele>
        <time>2013-05-26T11:04:59Z</time>
      </trkpt>
      <trkpt lat="48.30064" lon="2.58148">
        <ele>88.111515045166</ele>
        <time>2013-05-26T11:05:21Z</time>
      </trkpt>
      <trkpt lat="48.30063" lon="2.58145">
        <ele>98.111511230469</ele>
        <time>2013-05-26T11:06:59Z</time>
      </trkpt>
      <trkpt lat="48.30064" lon="2.58147">
        <ele>100.11151504517</ele>
        <time>2013-05-26T11:07:04Z</time>
      </trkpt>
      <trkpt lat="48.30064" lon="2.5815">
        <ele>99.111515045166</ele>
        <time>2013-05-26T11:07:10Z</time>
      </trkpt>
      <trkpt lat="48.30065" lon="2.58152">
        <ele>99.111518859863</ele>
        <time>2013-05-26T11:07:16Z</time>
      </trkpt>
      <trkpt lat="48.30064" lon="2.58152">
        <ele>98.111515045166</ele>
        <time>2013-05-26T11:07:23Z</time>
      </trkpt>
      <trkpt lat="48.30065" lon="2.58152">
        <ele>100.11151504517</ele>
        <time>2013-05-26T11:07:30Z</time>
      </trkpt>
      <trkpt lat="48.30065" lon="2.58154">
        <ele>102.11151885986</ele>
        <time>2013-05-26T11:07:35Z</time>
      </trkpt>
      <trkpt lat="48.30065" lon="2.58155">
        <ele>102.11151885986</ele>
        <time>2013-05-26T11:07:41Z</time>
      </trkpt>
      <trkpt lat="48.30068" lon="2.58156">
        <ele>104.11153030396</ele>
        <time>2013-05-26T11:07:47Z</time>
      </trkpt>
      <trkpt lat="48.30069" lon="2.58157">
        <ele>101.11153411865</ele>
        <time>2013-05-26T11:07:53Z</time>
      </trkpt>
      <trkpt lat="48.30069" lon="2.58157">
        <ele>99.11153793335</ele>
        <time>2013-05-26T11:08:02Z</time>
      </trkpt>
      <trkpt lat="48.3007" lon="2.58157">
        <ele>99.11153793335</ele>
        <time>2013-05-26T11:08:07Z</time>
      </trkpt>
      <trkpt lat="48.30065" lon="2.58154">
        <ele>100.11151885986</ele>
        <time>2013-05-26T11:08:29Z</time>
      </trkpt>
      <trkpt lat="48.30064" lon="2.58154">
        <ele>101.11151123047</ele>
        <time>2013-05-26T11:08:35Z</time>
      </trkpt>
      <trkpt lat="48.30059" lon="2.58152">
        <ele>100.11149597168</ele>
        <time>2013-05-26T11:08:42Z</time>
      </trkpt>
      <trkpt lat="48.30049" lon="2.58176">
        <ele>111.11145401001</ele>
        <time>2013-05-26T11:08:47Z</time>
      </trkpt>
      <trkpt lat="48.30041" lon="2.58192">
        <ele>112.11142349243</ele>
        <time>2013-05-26T11:08:53Z</time>
      </trkpt>
      <trkpt lat="48.30037" lon="2.582">
        <ele>112.11140060425</ele>
        <time>2013-05-26T11:09:04Z</time>
      </trkpt>
      <trkpt lat="48.30035" lon="2.58204">
        <ele>111.11140060425</ele>
        <time>2013-05-26T11:09:10Z</time>
      </trkpt>
      <trkpt lat="48.3003" lon="2.58213">
        <ele>112.11138153076</ele>
        <time>2013-05-26T11:09:17Z</time>
      </trkpt>
      <trkpt lat="48.29997" lon="2.58259">
        <ele>105.11125183105</ele>
        <time>2013-05-26T11:09:23Z</time>
      </trkpt>
      <trkpt lat="48.29971" lon="2.58301">
        <ele>100.11114501953</ele>
        <time>2013-05-26T11:09:29Z</time>
      </trkpt>
      <trkpt lat="48.29955" lon="2.58321">
        <ele>99.111083984375</ele>
        <time>2013-05-26T11:09:35Z</time>
      </trkpt>
      <trkpt lat="48.29949" lon="2.58316">
        <ele>97.111061096191</ele>
        <time>2013-05-26T11:09:41Z</time>
      </trkpt>
      <trkpt lat="48.29941" lon="2.58323">
        <ele>87.111030578613</ele>
        <time>2013-05-26T11:10:16Z</time>
      </trkpt>
      <trkpt lat="48.29937" lon="2.58328">
        <ele>81.111015319824</ele>
        <time>2013-05-26T11:10:50Z</time>
      </trkpt>
      <trkpt lat="48.29937" lon="2.5832">
        <ele>82.111015319824</ele>
        <time>2013-05-26T11:11:07Z</time>
      </trkpt>
      <trkpt lat="48.29938" lon="2.58305">
        <ele>80.111022949219</ele>
        <time>2013-05-26T11:11:12Z</time>
      </trkpt>
      <trkpt lat="48.29938" lon="2.58292">
        <ele>80.111026763916</ele>
        <time>2013-05-26T11:11:17Z</time>
      </trkpt>
      <trkpt lat="48.29938" lon="2.58277">
        <ele>80.111026763916</ele>
        <time>2013-05-26T11:11:23Z</time>
      </trkpt>
      <trkpt lat="48.29936" lon="2.5826">
        <ele>80.111019134521</ele>
        <time>2013-05-26T11:11:29Z</time>
      </trkpt>
      <trkpt lat="48.29933" lon="2.58245">
        <ele>81.111011505127</ele>
        <time>2013-05-26T11:11:34Z</time>
      </trkpt>
      <trkpt lat="48.29928" lon="2.58228">
        <ele>83.110996246338</ele>
        <time>2013-05-26T11:11:40Z</time>
      </trkpt>
      <trkpt lat="48.29923" lon="2.58211">
        <ele>83.110988616943</ele>
        <time>2013-05-26T11:11:46Z</time>
      </trkpt>
      <trkpt lat="48.29918" lon="2.58193">
        <ele>83.110969543457</ele>
        <time>2013-05-26T11:11:52Z</time>
      </trkpt>
      <trkpt lat="48.29912" lon="2.58175">
        <ele>85.110942840576</ele>
        <time>2013-05-26T11:11:59Z</time>
      </trkpt>
      <trkpt lat="48.29905" lon="2.58162">
        <ele>87.110919952393</ele>
        <time>2013-05-26T11:12:05Z</time>
      </trkpt>
      <trkpt lat="48.29901" lon="2.58148">
        <ele>89.110908508301</ele>
        <time>2013-05-26T11:12:11Z</time>
      </trkpt>
      <trkpt lat="48.29898" lon="2.58135">
        <ele>91.110900878906</ele>
        <time>2013-05-26T11:12:17Z</time>
      </trkpt>
      <trkpt lat="48.29896" lon="2.58126">
        <ele>91.110893249512</ele>
        <time>2013-05-26T11:12:22Z</time>
      </trkpt>
      <trkpt lat="48.29892" lon="2.58105">
        <ele>92.11088180542</ele>
        <time>2013-05-26T11:12:31Z</time>
      </trkpt>
      <trkpt lat="48.29889" lon="2.58093">
        <ele>93.110874176025</ele>
        <time>2013-05-26T11:12:36Z</time>
      </trkpt>
      <trkpt lat="48.29883" lon="2.5807">
        <ele>95.110855102539</ele>
        <time>2013-05-26T11:12:44Z</time>
      </trkpt>
      <trkpt lat="48.29876" lon="2.58053">
        <ele>97.110832214355</ele>
        <time>2013-05-26T11:12:50Z</time>
      </trkpt>
      <trkpt lat="48.29871" lon="2.58041">
        <ele>98.110813140869</ele>
        <time>2013-05-26T11:12:55Z</time>
      </trkpt>
      <trkpt lat="48.29867" lon="2.58026">
        <ele>98.11079788208</ele>
        <time>2013-05-26T11:13:01Z</time>
      </trkpt>
      <trkpt lat="48.29867" lon="2.58012">
        <ele>98.110805511475</ele>
        <time>2013-05-26T11:13:07Z</time>
      </trkpt>
      <trkpt lat="48.2987" lon="2.57998">
        <ele>98.110816955566</ele>
        <time>2013-05-26T11:13:13Z</time>
      </trkpt>
      <trkpt lat="48.29872" lon="2.57986">
        <ele>97.110828399658</ele>
        <time>2013-05-26T11:13:18Z</time>
      </trkpt>
      <trkpt lat="48.29874" lon="2.57974">
        <ele>99.11083984375</ele>
        <time>2013-05-26T11:13:23Z</time>
      </trkpt>
      <trkpt lat="48.29877" lon="2.57962">
        <ele>99.110851287842</ele>
        <time>2013-05-26T11:13:29Z</time>
      </trkpt>
      <trkpt lat="48.29879" lon="2.57952">
        <ele>99.110855102539</ele>
        <time>2013-05-26T11:13:35Z</time>
      </trkpt>
      <trkpt lat="48.2988" lon="2.57943">
        <ele>100.11086273193</ele>
        <time>2013-05-26T11:13:40Z</time>
      </trkpt>
      <trkpt lat="48.29882" lon="2.57931">
        <ele>102.11087417603</ele>
        <time>2013-05-26T11:13:46Z</time>
      </trkpt>
      <trkpt lat="48.29885" lon="2.57922">
        <ele>104.11088562012</ele>
        <time>2013-05-26T11:13:52Z</time>
      </trkpt>
      <trkpt lat="48.29889" lon="2.57912">
        <ele>105.1109046936</ele>
        <time>2013-05-26T11:13:59Z</time>
      </trkpt>
      <trkpt lat="48.2989" lon="2.57902">
        <ele>107.1109085083</ele>
        <time>2013-05-26T11:14:05Z</time>
      </trkpt>
      <trkpt lat="48.29889" lon="2.57892">
        <ele>108.11090087891</ele>
        <time>2013-05-26T11:14:10Z</time>
      </trkpt>
      <trkpt lat="48.29888" lon="2.57881">
        <ele>109.11090087891</ele>
        <time>2013-05-26T11:14:16Z</time>
      </trkpt>
      <trkpt lat="48.29889" lon="2.57872">
        <ele>111.1109046936</ele>
        <time>2013-05-26T11:14:21Z</time>
      </trkpt>
      <trkpt lat="48.29889" lon="2.57864">
        <ele>112.1109085083</ele>
        <time>2013-05-26T11:14:26Z</time>
      </trkpt>
      <trkpt lat="48.29891" lon="2.57855">
        <ele>115.110912323</ele>
        <time>2013-05-26T11:14:32Z</time>
      </trkpt>
      <trkpt lat="48.29893" lon="2.57848">
        <ele>115.11092376709</ele>
        <time>2013-05-26T11:14:37Z</time>
      </trkpt>
      <trkpt lat="48.29895" lon="2.57838">
        <ele>114.11093139648</ele>
        <time>2013-05-26T11:14:43Z</time>
      </trkpt>
      <trkpt lat="48.29895" lon="2.57829">
        <ele>114.11093902588</ele>
        <time>2013-05-26T11:14:49Z</time>
      </trkpt>
      <trkpt lat="48.29893" lon="2.57821">
        <ele>115.11093139648</ele>
        <time>2013-05-26T11:14:55Z</time>
      </trkpt>
      <trkpt lat="48.29887" lon="2.57815">
        <ele>115.1109085083</ele>
        <time>2013-05-26T11:15:01Z</time>
      </trkpt>
      <trkpt lat="48.2988" lon="2.57812">
        <ele>115.11088562012</ele>
        <time>2013-05-26T11:15:07Z</time>
      </trkpt>
      <trkpt lat="48.29871" lon="2.57812">
        <ele>114.11085128784</ele>
        <time>2013-05-26T11:15:12Z</time>
      </trkpt>
      <trkpt lat="48.29861" lon="2.57807">
        <ele>113.11081314087</ele>
        <time>2013-05-26T11:15:17Z</time>
      </trkpt>
      <trkpt lat="48.2985" lon="2.57806">
        <ele>115.1107711792</ele>
        <time>2013-05-26T11:15:22Z</time>
      </trkpt>
      <trkpt lat="48.29841" lon="2.57796">
        <ele>114.11073684692</ele>
        <time>2013-05-26T11:15:28Z</time>
      </trkpt>
      <trkpt lat="48.29832" lon="2.57785">
        <ele>116.11070632935</ele>
        <time>2013-05-26T11:15:34Z</time>
      </trkpt>
      <trkpt lat="48.29826" lon="2.57774">
        <ele>116.11068725586</ele>
        <time>2013-05-26T11:15:40Z</time>
      </trkpt>
      <trkpt lat="48.29817" lon="2.57767">
        <ele>118.11065292358</ele>
        <time>2013-05-26T11:15:46Z</time>
      </trkpt>
      <trkpt lat="48.29806" lon="2.57768">
        <ele>118.11061477661</ele>
        <time>2013-05-26T11:15:51Z</time>
      </trkpt>
      <trkpt lat="48.29795" lon="2.57778">
        <ele>117.11056900024</ele>
        <time>2013-05-26T11:15:57Z</time>
      </trkpt>
      <trkpt lat="48.29785" lon="2.57781">
        <ele>116.11053848267</ele>
        <time>2013-05-26T11:16:02Z</time>
      </trkpt>
      <trkpt lat="48.29774" lon="2.57785">
        <ele>116.1104927063</ele>
        <time>2013-05-26T11:16:08Z</time>
      </trkpt>
      <trkpt lat="48.29762" lon="2.57793">
        <ele>116.11044692993</ele>
        <time>2013-05-26T11:16:14Z</time>
      </trkpt>
      <trkpt lat="48.29752" lon="2.57788">
        <ele>117.11041259766</ele>
        <time>2013-05-26T11:16:19Z</time>
      </trkpt>
      <trkpt lat="48.29726" lon="2.5778">
        <ele>116.11031341553</ele>
        <time>2013-05-26T11:16:28Z</time>
      </trkpt>
      <trkpt lat="48.29708" lon="2.57769">
        <ele>116.11025619507</ele>
        <time>2013-05-26T11:16:35Z</time>
      </trkpt>
      <trkpt lat="48.29696" lon="2.57756">
        <ele>116.110206604</ele>
        <time>2013-05-26T11:16:40Z</time>
      </trkpt>
      <trkpt lat="48.29687" lon="2.57746">
        <ele>117.11017608643</ele>
        <time>2013-05-26T11:16:46Z</time>
      </trkpt>
      <trkpt lat="48.29685" lon="2.57736">
        <ele>117.11016845703</ele>
        <time>2013-05-26T11:16:51Z</time>
      </trkpt>
      <trkpt lat="48.29684" lon="2.57724">
        <ele>117.11016845703</ele>
        <time>2013-05-26T11:16:56Z</time>
      </trkpt>
      <trkpt lat="48.29684" lon="2.5771">
        <ele>118.11017227173</ele>
        <time>2013-05-26T11:17:02Z</time>
      </trkpt>
      <trkpt lat="48.29685" lon="2.57699">
        <ele>118.11017608643</ele>
        <time>2013-05-26T11:17:07Z</time>
      </trkpt>
      <trkpt lat="48.29683" lon="2.57687">
        <ele>117.11016845703</ele>
        <time>2013-05-26T11:17:13Z</time>
      </trkpt>
      <trkpt lat="48.29681" lon="2.57673">
        <ele>116.11016082764</ele>
        <time>2013-05-26T11:17:19Z</time>
      </trkpt>
      <trkpt lat="48.29674" lon="2.57666">
        <ele>116.11013793945</ele>
        <time>2013-05-26T11:17:24Z</time>
      </trkpt>
      <trkpt lat="48.29664" lon="2.57669">
        <ele>116.11010360718</ele>
        <time>2013-05-26T11:17:29Z</time>
      </trkpt>
      <trkpt lat="48.29652" lon="2.57673">
        <ele>116.11005783081</ele>
        <time>2013-05-26T11:17:35Z</time>
      </trkpt>
      <trkpt lat="48.29647" lon="2.57673">
        <ele>118.11003875732</ele>
        <time>2013-05-26T11:17:41Z</time>
      </trkpt>
      <trkpt lat="48.29643" lon="2.57672">
        <ele>118.11002349854</ele>
        <time>2013-05-26T11:17:47Z</time>
      </trkpt>
      <trkpt lat="48.29638" lon="2.5767">
        <ele>119.11000823975</ele>
        <time>2013-05-26T11:17:53Z</time>
      </trkpt>
      <trkpt lat="48.2963" lon="2.57669">
        <ele>119.10997390747</ele>
        <time>2013-05-26T11:17:59Z</time>
      </trkpt>
      <trkpt lat="48.2962" lon="2.57662">
        <ele>118.10994338989</ele>
        <time>2013-05-26T11:18:05Z</time>
      </trkpt>
      <trkpt lat="48.2961" lon="2.57653">
        <ele>119.10990524292</ele>
        <time>2013-05-26T11:18:11Z</time>
      </trkpt>
      <trkpt lat="48.29601" lon="2.57651">
        <ele>118.10987091064</ele>
        <time>2013-05-26T11:18:17Z</time>
      </trkpt>
      <trkpt lat="48.2959" lon="2.5765">
        <ele>118.10982894897</ele>
        <time>2013-05-26T11:18:22Z</time>
      </trkpt>
      <trkpt lat="48.2958" lon="2.57645">
        <ele>117.1097946167</ele>
        <time>2013-05-26T11:18:27Z</time>
      </trkpt>
      <trkpt lat="48.29564" lon="2.57639">
        <ele>115.10973358154</ele>
        <time>2013-05-26T11:18:34Z</time>
      </trkpt>
      <trkpt lat="48.29547" lon="2.57645">
        <ele>114.10967254639</ele>
        <time>2013-05-26T11:18:40Z</time>
      </trkpt>
      <trkpt lat="48.29531" lon="2.57653">
        <ele>110.10961151123</ele>
        <time>2013-05-26T11:18:46Z</time>
      </trkpt>
      <trkpt lat="48.29515" lon="2.57651">
        <ele>109.10955810547</ele>
        <time>2013-05-26T11:18:52Z</time>
      </trkpt>
      <trkpt lat="48.29501" lon="2.57649">
        <ele>110.10950088501</ele>
        <time>2013-05-26T11:18:57Z</time>
      </trkpt>
      <trkpt lat="48.29489" lon="2.57667">
        <ele>112.10945129395</ele>
        <time>2013-05-26T11:19:02Z</time>
      </trkpt>
      <trkpt lat="48.29481" lon="2.57704">
        <ele>112.10941696167</ele>
        <time>2013-05-26T11:19:10Z</time>
      </trkpt>
      <trkpt lat="48.29473" lon="2.5772">
        <ele>112.10938644409</ele>
        <time>2013-05-26T11:19:16Z</time>
      </trkpt>
      <trkpt lat="48.29464" lon="2.5773">
        <ele>111.10935592651</ele>
        <time>2013-05-26T11:19:22Z</time>
      </trkpt>
      <trkpt lat="48.29451" lon="2.57742">
        <ele>111.10929870605</ele>
        <time>2013-05-26T11:19:27Z</time>
      </trkpt>
      <trkpt lat="48.29439" lon="2.57755">
        <ele>111.10925292969</ele>
        <time>2013-05-26T11:19:32Z</time>
      </trkpt>
      <trkpt lat="48.29424" lon="2.57777">
        <ele>110.10919952393</ele>
        <time>2013-05-26T11:19:38Z</time>
      </trkpt>
      <trkpt lat="48.29406" lon="2.57793">
        <ele>106.10912704468</ele>
        <time>2013-05-26T11:19:44Z</time>
      </trkpt>
      <trkpt lat="48.29388" lon="2.57799">
        <ele>104.10905838013</ele>
        <time>2013-05-26T11:19:50Z</time>
      </trkpt>
      <trkpt lat="48.2937" lon="2.578">
        <ele>102.10898590088</ele>
        <time>2013-05-26T11:19:57Z</time>
      </trkpt>
      <trkpt lat="48.29356" lon="2.57805">
        <ele>101.10893630981</ele>
        <time>2013-05-26T11:20:02Z</time>
      </trkpt>
      <trkpt lat="48.2934" lon="2.57818">
        <ele>100.10887527466</ele>
        <time>2013-05-26T11:20:08Z</time>
      </trkpt>
      <trkpt lat="48.29328" lon="2.57826">
        <ele>100.10882949829</ele>
        <time>2013-05-26T11:20:13Z</time>
      </trkpt>
      <trkpt lat="48.29313" lon="2.57834">
        <ele>102.10877609253</ele>
        <time>2013-05-26T11:20:19Z</time>
      </trkpt>
      <trkpt lat="48.29291" lon="2.57841">
        <ele>104.10869216919</ele>
        <time>2013-05-26T11:20:27Z</time>
      </trkpt>
      <trkpt lat="48.29278" lon="2.57849">
        <ele>106.10864257812</ele>
        <time>2013-05-26T11:20:32Z</time>
      </trkpt>
      <trkpt lat="48.29261" lon="2.57859">
        <ele>107.10858154297</ele>
        <time>2013-05-26T11:20:38Z</time>
      </trkpt>
      <trkpt lat="48.29247" lon="2.57865">
        <ele>107.10852050781</ele>
        <time>2013-05-26T11:20:43Z</time>
      </trkpt>
      <trkpt lat="48.29233" lon="2.57859">
        <ele>108.10847473145</ele>
        <time>2013-05-26T11:20:49Z</time>
      </trkpt>
      <trkpt lat="48.29222" lon="2.57848">
        <ele>108.10843658447</ele>
        <time>2013-05-26T11:20:55Z</time>
      </trkpt>
      <trkpt lat="48.29215" lon="2.57839">
        <ele>109.10840988159</ele>
        <time>2013-05-26T11:21:00Z</time>
      </trkpt>
      <trkpt lat="48.29205" lon="2.57831">
        <ele>110.10837554932</ele>
        <time>2013-05-26T11:21:05Z</time>
      </trkpt>
      <trkpt lat="48.29194" lon="2.57818">
        <ele>111.10833358765</ele>
        <time>2013-05-26T11:21:12Z</time>
      </trkpt>
      <trkpt lat="48.29188" lon="2.57809">
        <ele>111.10831832886</ele>
        <time>2013-05-26T11:21:17Z</time>
      </trkpt>
      <trkpt lat="48.29186" lon="2.578">
        <ele>111.10831069946</ele>
        <time>2013-05-26T11:21:22Z</time>
      </trkpt>
      <trkpt lat="48.29185" lon="2.57796">
        <ele>112.10830688477</ele>
        <time>2013-05-26T11:21:28Z</time>
      </trkpt>
      <trkpt lat="48.29177" lon="2.57798">
        <ele>112.10827636719</ele>
        <time>2013-05-26T11:21:35Z</time>
      </trkpt>
      <trkpt lat="48.29172" lon="2.57801">
        <ele>112.108253479</ele>
        <time>2013-05-26T11:21:41Z</time>
      </trkpt>
      <trkpt lat="48.29167" lon="2.57806">
        <ele>113.10823822021</ele>
        <time>2013-05-26T11:21:46Z</time>
      </trkpt>
      <trkpt lat="48.29163" lon="2.57812">
        <ele>114.10822296143</ele>
        <time>2013-05-26T11:21:52Z</time>
      </trkpt>
      <trkpt lat="48.29159" lon="2.57816">
        <ele>116.10820388794</ele>
        <time>2013-05-26T11:21:57Z</time>
      </trkpt>
      <trkpt lat="48.29152" lon="2.57822">
        <ele>116.10818099976</ele>
        <time>2013-05-26T11:22:05Z</time>
      </trkpt>
      <trkpt lat="48.29146" lon="2.57823">
        <ele>117.10815429688</ele>
        <time>2013-05-26T11:22:11Z</time>
      </trkpt>
      <trkpt lat="48.29138" lon="2.57829">
        <ele>118.10813140869</ele>
        <time>2013-05-26T11:22:16Z</time>
      </trkpt>
      <trkpt lat="48.29135" lon="2.57831">
        <ele>118.10811233521</ele>
        <time>2013-05-26T11:22:22Z</time>
      </trkpt>
      <trkpt lat="48.29132" lon="2.57834">
        <ele>118.10810470581</ele>
        <time>2013-05-26T11:22:31Z</time>
      </trkpt>
      <trkpt lat="48.29131" lon="2.57835">
        <ele>120.10810089111</ele>
        <time>2013-05-26T11:22:37Z</time>
      </trkpt>
      <trkpt lat="48.2913" lon="2.57834">
        <ele>123.10809707642</ele>
        <time>2013-05-26T11:22:43Z</time>
      </trkpt>
      <trkpt lat="48.2913" lon="2.57835">
        <ele>122.10809326172</ele>
        <time>2013-05-26T11:22:49Z</time>
      </trkpt>
      <trkpt lat="48.29127" lon="2.57837">
        <ele>121.10808563232</ele>
        <time>2013-05-26T11:22:55Z</time>
      </trkpt>
      <trkpt lat="48.29126" lon="2.57837">
        <ele>120.10808181763</ele>
        <time>2013-05-26T11:23:01Z</time>
      </trkpt>
      <trkpt lat="48.29124" lon="2.57836">
        <ele>120.10807800293</ele>
        <time>2013-05-26T11:23:07Z</time>
      </trkpt>
      <trkpt lat="48.29124" lon="2.57836">
        <ele>120.10807800293</ele>
        <time>2013-05-26T11:23:13Z</time>
      </trkpt>
      <trkpt lat="48.29125" lon="2.57836">
        <ele>120.10807800293</ele>
        <time>2013-05-26T11:23:19Z</time>
      </trkpt>
      <trkpt lat="48.29125" lon="2.57837">
        <ele>119.10807800293</ele>
        <time>2013-05-26T11:23:24Z</time>
      </trkpt>
      <trkpt lat="48.29125" lon="2.57837">
        <ele>118.10807800293</ele>
        <time>2013-05-26T11:23:29Z</time>
      </trkpt>
      <trkpt lat="48.29125" lon="2.57836">
        <ele>118.10808181763</ele>
        <time>2013-05-26T11:23:35Z</time>
      </trkpt>
      <trkpt lat="48.29126" lon="2.57836">
        <ele>118.10808181763</ele>
        <time>2013-05-26T11:23:41Z</time>
      </trkpt>
      <trkpt lat="48.29126" lon="2.57835">
        <ele>119.10808181763</ele>
        <time>2013-05-26T11:23:47Z</time>
      </trkpt>
      <trkpt lat="48.29126" lon="2.57835">
        <ele>119.10808181763</ele>
        <time>2013-05-26T11:23:52Z</time>
      </trkpt>
      <trkpt lat="48.29127" lon="2.57834">
        <ele>120.10808181763</ele>
        <time>2013-05-26T11:23:58Z</time>
      </trkpt>
      <trkpt lat="48.29127" lon="2.57834">
        <ele>120.10808181763</ele>
        <time>2013-05-26T11:24:04Z</time>
      </trkpt>
      <trkpt lat="48.29127" lon="2.57834">
        <ele>121.10808181763</ele>
        <time>2013-05-26T11:24:10Z</time>
      </trkpt>
      <trkpt lat="48.29127" lon="2.57834">
        <ele>121.10808181763</ele>
        <time>2013-05-26T11:24:17Z</time>
      </trkpt>
      <trkpt lat="48.29127" lon="2.57834">
        <ele>120.10808181763</ele>
        <time>2013-05-26T11:24:24Z</time>
      </trkpt>
      <trkpt lat="48.29126" lon="2.57834">
        <ele>118.10808181763</ele>
        <time>2013-05-26T11:24:31Z</time>
      </trkpt>
      <trkpt lat="48.29126" lon="2.57835">
        <ele>114.10807800293</ele>
        <time>2013-05-26T11:24:37Z</time>
      </trkpt>
      <trkpt lat="48.29125" lon="2.57835">
        <ele>113.10808181763</ele>
        <time>2013-05-26T11:24:43Z</time>
      </trkpt>
      <trkpt lat="48.29124" lon="2.57834">
        <ele>115.10807037354</ele>
        <time>2013-05-26T11:24:48Z</time>
      </trkpt>
      <trkpt lat="48.29125" lon="2.57834">
        <ele>119.10807037354</ele>
        <time>2013-05-26T11:24:55Z</time>
      </trkpt>
      <trkpt lat="48.29125" lon="2.57833">
        <ele>119.10807800293</ele>
        <time>2013-05-26T11:25:01Z</time>
      </trkpt>
      <trkpt lat="48.29125" lon="2.57832">
        <ele>120.10807800293</ele>
        <time>2013-05-26T11:25:07Z</time>
      </trkpt>
      <trkpt lat="48.29125" lon="2.57832">
        <ele>116.10807800293</ele>
        <time>2013-05-26T11:25:13Z</time>
      </trkpt>
      <trkpt lat="48.29125" lon="2.57833">
        <ele>113.10807800293</ele>
        <time>2013-05-26T11:25:18Z</time>
      </trkpt>
      <trkpt lat="48.29125" lon="2.57832">
        <ele>112.10807418823</ele>
        <time>2013-05-26T11:25:24Z</time>
      </trkpt>
      <trkpt lat="48.29125" lon="2.57831">
        <ele>112.10807418823</ele>
        <time>2013-05-26T11:25:29Z</time>
      </trkpt>
      <trkpt lat="48.29125" lon="2.57831">
        <ele>113.10807418823</ele>
        <time>2013-05-26T11:25:35Z</time>
      </trkpt>
      <trkpt lat="48.29125" lon="2.57832">
        <ele>117.10807418823</ele>
        <time>2013-05-26T11:25:40Z</time>
      </trkpt>
      <trkpt lat="48.29125" lon="2.57835">
        <ele>120.10808181763</ele>
        <time>2013-05-26T11:25:47Z</time>
      </trkpt>
      <trkpt lat="48.29126" lon="2.57836">
        <ele>120.10808181763</ele>
        <time>2013-05-26T11:25:53Z</time>
      </trkpt>
      <trkpt lat="48.29126" lon="2.57837">
        <ele>120.10808563232</ele>
        <time>2013-05-26T11:25:58Z</time>
      </trkpt>
      <trkpt lat="48.29127" lon="2.57837">
        <ele>122.10808944702</ele>
        <time>2013-05-26T11:26:04Z</time>
      </trkpt>
      <trkpt lat="48.29128" lon="2.57837">
        <ele>125.10808944702</ele>
        <time>2013-05-26T11:26:10Z</time>
      </trkpt>
      <trkpt lat="48.29128" lon="2.57837">
        <ele>127.10808944702</ele>
        <time>2013-05-26T11:26:16Z</time>
      </trkpt>
      <trkpt lat="48.29129" lon="2.57836">
        <ele>129.10809326172</ele>
        <time>2013-05-26T11:26:21Z</time>
      </trkpt>
      <trkpt lat="48.29128" lon="2.57834">
        <ele>128.10808563232</ele>
        <time>2013-05-26T11:26:27Z</time>
      </trkpt>
      <trkpt lat="48.29127" lon="2.57833">
        <ele>126.10808181763</ele>
        <time>2013-05-26T11:26:32Z</time>
      </trkpt>
      <trkpt lat="48.29126" lon="2.57832">
        <ele>123.10807800293</ele>
        <time>2013-05-26T11:26:38Z</time>
      </trkpt>
      <trkpt lat="48.29124" lon="2.5783">
        <ele>120.10807418823</ele>
        <time>2013-05-26T11:26:44Z</time>
      </trkpt>
      <trkpt lat="48.29123" lon="2.57831">
        <ele>119.10807037354</ele>
        <time>2013-05-26T11:26:51Z</time>
      </trkpt>
      <trkpt lat="48.29124" lon="2.57832">
        <ele>118.10807037354</ele>
        <time>2013-05-26T11:26:57Z</time>
      </trkpt>
      <trkpt lat="48.29124" lon="2.57833">
        <ele>119.10807800293</ele>
        <time>2013-05-26T11:27:02Z</time>
      </trkpt>
      <trkpt lat="48.29124" lon="2.57833">
        <ele>119.10807800293</ele>
        <time>2013-05-26T11:27:07Z</time>
      </trkpt>
      <trkpt lat="48.29124" lon="2.57833">
        <ele>120.10807418823</ele>
        <time>2013-05-26T11:27:13Z</time>
      </trkpt>
      <trkpt lat="48.29124" lon="2.57834">
        <ele>122.10807800293</ele>
        <time>2013-05-26T11:27:19Z</time>
      </trkpt>
      <trkpt lat="48.29124" lon="2.57834">
        <ele>124.10807418823</ele>
        <time>2013-05-26T11:27:24Z</time>
      </trkpt>
      <trkpt lat="48.29124" lon="2.57836">
        <ele>125.10807037354</ele>
        <time>2013-05-26T11:27:30Z</time>
      </trkpt>
      <trkpt lat="48.29124" lon="2.57837">
        <ele>125.10807418823</ele>
        <time>2013-05-26T11:27:35Z</time>
      </trkpt>
      <trkpt lat="48.29124" lon="2.57837">
        <ele>125.10807418823</ele>
        <time>2013-05-26T11:27:40Z</time>
      </trkpt>
      <trkpt lat="48.29124" lon="2.57837">
        <ele>125.10807418823</ele>
        <time>2013-05-26T11:27:47Z</time>
      </trkpt>
      <trkpt lat="48.29124" lon="2.57836">
        <ele>127.10807037354</ele>
        <time>2013-05-26T11:27:53Z</time>
      </trkpt>
      <trkpt lat="48.29124" lon="2.57836">
        <ele>129.10807418823</ele>
        <time>2013-05-26T11:27:59Z</time>
      </trkpt>
      <trkpt lat="48.29124" lon="2.57837">
        <ele>130.10807418823</ele>
        <time>2013-05-26T11:28:05Z</time>
      </trkpt>
      <trkpt lat="48.29124" lon="2.57838">
        <ele>130.10807418823</ele>
        <time>2013-05-26T11:28:11Z</time>
      </trkpt>
      <trkpt lat="48.29124" lon="2.57838">
        <ele>129.10807800293</ele>
        <time>2013-05-26T11:28:17Z</time>
      </trkpt>
      <trkpt lat="48.29124" lon="2.57838">
        <ele>128.10807418823</ele>
        <time>2013-05-26T11:28:22Z</time>
      </trkpt>
      <trkpt lat="48.29124" lon="2.57837">
        <ele>129.10807800293</ele>
        <time>2013-05-26T11:28:28Z</time>
      </trkpt>
      <trkpt lat="48.29125" lon="2.57837">
        <ele>129.10807800293</ele>
        <time>2013-05-26T11:28:33Z</time>
      </trkpt>
      <trkpt lat="48.29125" lon="2.57837">
        <ele>127.10807800293</ele>
        <time>2013-05-26T11:28:39Z</time>
      </trkpt>
      <trkpt lat="48.29126" lon="2.57837">
        <ele>125.10808563232</ele>
        <time>2013-05-26T11:28:44Z</time>
      </trkpt>
      <trkpt lat="48.29127" lon="2.57837">
        <ele>125.10808944702</ele>
        <time>2013-05-26T11:28:49Z</time>
      </trkpt>
      <trkpt lat="48.29128" lon="2.57837">
        <ele>124.10808944702</ele>
        <time>2013-05-26T11:28:55Z</time>
      </trkpt>
      <trkpt lat="48.29128" lon="2.57837">
        <ele>123.10808944702</ele>
        <time>2013-05-26T11:29:00Z</time>
      </trkpt>
      <trkpt lat="48.29129" lon="2.57837">
        <ele>123.10808944702</ele>
        <time>2013-05-26T11:29:05Z</time>
      </trkpt>
      <trkpt lat="48.29129" lon="2.57837">
        <ele>123.10809326172</ele>
        <time>2013-05-26T11:29:10Z</time>
      </trkpt>
      <trkpt lat="48.29129" lon="2.57837">
        <ele>123.10809326172</ele>
        <time>2013-05-26T11:29:15Z</time>
      </trkpt>
      <trkpt lat="48.29129" lon="2.57838">
        <ele>121.10809326172</ele>
        <time>2013-05-26T11:29:21Z</time>
      </trkpt>
      <trkpt lat="48.29128" lon="2.57836">
        <ele>120.10808944702</ele>
        <time>2013-05-26T11:29:28Z</time>
      </trkpt>
      <trkpt lat="48.29128" lon="2.57835">
        <ele>120.10808944702</ele>
        <time>2013-05-26T11:29:35Z</time>
      </trkpt>
      <trkpt lat="48.29127" lon="2.57835">
        <ele>119.10808563232</ele>
        <time>2013-05-26T11:29:40Z</time>
      </trkpt>
      <trkpt lat="48.29126" lon="2.57835">
        <ele>120.10807800293</ele>
        <time>2013-05-26T11:29:46Z</time>
      </trkpt>
      <trkpt lat="48.29126" lon="2.57835">
        <ele>121.10807800293</ele>
        <time>2013-05-26T11:29:51Z</time>
      </trkpt>
      <trkpt lat="48.29126" lon="2.57835">
        <ele>120.10808181763</ele>
        <time>2013-05-26T11:29:56Z</time>
      </trkpt>
      <trkpt lat="48.29126" lon="2.57836">
        <ele>120.10808181763</ele>
        <time>2013-05-26T11:30:01Z</time>
      </trkpt>
      <trkpt lat="48.29125" lon="2.57836">
        <ele>118.10807800293</ele>
        <time>2013-05-26T11:30:07Z</time>
      </trkpt>
      <trkpt lat="48.29121" lon="2.57845">
        <ele>119.10806274414</ele>
        <time>2013-05-26T11:30:13Z</time>
      </trkpt>
      <trkpt lat="48.29116" lon="2.57854">
        <ele>118.10804367065</ele>
        <time>2013-05-26T11:30:18Z</time>
      </trkpt>
      <trkpt lat="48.29112" lon="2.57866">
        <ele>118.10802078247</ele>
        <time>2013-05-26T11:30:23Z</time>
      </trkpt>
      <trkpt lat="48.29106" lon="2.57881">
        <ele>120.10799789429</ele>
        <time>2013-05-26T11:30:29Z</time>
      </trkpt>
      <trkpt lat="48.291" lon="2.57897">
        <ele>120.1079788208</ele>
        <time>2013-05-26T11:30:34Z</time>
      </trkpt>
      <trkpt lat="48.29094" lon="2.57916">
        <ele>121.10795211792</ele>
        <time>2013-05-26T11:30:40Z</time>
      </trkpt>
      <trkpt lat="48.29088" lon="2.57935">
        <ele>122.10792922974</ele>
        <time>2013-05-26T11:30:46Z</time>
      </trkpt>
      <trkpt lat="48.29081" lon="2.57952">
        <ele>123.10790252686</ele>
        <time>2013-05-26T11:30:52Z</time>
      </trkpt>
      <trkpt lat="48.29077" lon="2.57968">
        <ele>123.10787963867</ele>
        <time>2013-05-26T11:30:57Z</time>
      </trkpt>
      <trkpt lat="48.29071" lon="2.57992">
        <ele>123.10785675049</ele>
        <time>2013-05-26T11:31:03Z</time>
      </trkpt>
      <trkpt lat="48.29065" lon="2.58015">
        <ele>124.10783004761</ele>
        <time>2013-05-26T11:31:08Z</time>
      </trkpt>
      <trkpt lat="48.29062" lon="2.58042">
        <ele>124.10781097412</ele>
        <time>2013-05-26T11:31:14Z</time>
      </trkpt>
      <trkpt lat="48.29062" lon="2.58063">
        <ele>122.10781097412</ele>
        <time>2013-05-26T11:31:20Z</time>
      </trkpt>
      <trkpt lat="48.29063" lon="2.58077">
        <ele>122.10780715942</ele>
        <time>2013-05-26T11:31:25Z</time>
      </trkpt>
      <trkpt lat="48.29064" lon="2.58095">
        <ele>123.10781478882</ele>
        <time>2013-05-26T11:31:31Z</time>
      </trkpt>
      <trkpt lat="48.29064" lon="2.58126">
        <ele>125.10780334473</ele>
        <time>2013-05-26T11:31:39Z</time>
      </trkpt>
      <trkpt lat="48.29062" lon="2.58144">
        <ele>126.10779953003</ele>
        <time>2013-05-26T11:31:44Z</time>
      </trkpt>
      <trkpt lat="48.29063" lon="2.58164">
        <ele>126.10779953003</ele>
        <time>2013-05-26T11:31:50Z</time>
      </trkpt>
      <trkpt lat="48.29069" lon="2.58196">
        <ele>125.10781860352</ele>
        <time>2013-05-26T11:31:56Z</time>
      </trkpt>
      <trkpt lat="48.29069" lon="2.58242">
        <ele>123.10781097412</ele>
        <time>2013-05-26T11:32:04Z</time>
      </trkpt>
      <trkpt lat="48.29065" lon="2.58272">
        <ele>118.10779190063</ele>
        <time>2013-05-26T11:32:10Z</time>
      </trkpt>
      <trkpt lat="48.29059" lon="2.58303">
        <ele>113.10776519775</ele>
        <time>2013-05-26T11:32:15Z</time>
      </trkpt>
      <trkpt lat="48.29059" lon="2.58342">
        <ele>110.10776138306</ele>
        <time>2013-05-26T11:32:21Z</time>
      </trkpt>
      <trkpt lat="48.29067" lon="2.58367">
        <ele>108.10778427124</ele>
        <time>2013-05-26T11:32:26Z</time>
      </trkpt>
      <trkpt lat="48.29061" lon="2.58371">
        <ele>106.10776519775</ele>
        <time>2013-05-26T11:32:32Z</time>
      </trkpt>
      <trkpt lat="48.29054" lon="2.58369">
        <ele>105.10773468018</ele>
        <time>2013-05-26T11:32:37Z</time>
      </trkpt>
      <trkpt lat="48.29046" lon="2.58366">
        <ele>104.10770797729</ele>
        <time>2013-05-26T11:32:43Z</time>
      </trkpt>
      <trkpt lat="48.29037" lon="2.58363">
        <ele>107.10767364502</ele>
        <time>2013-05-26T11:32:49Z</time>
      </trkpt>
      <trkpt lat="48.29027" lon="2.58357">
        <ele>108.10763931274</ele>
        <time>2013-05-26T11:32:56Z</time>
      </trkpt>
      <trkpt lat="48.29019" lon="2.58351">
        <ele>110.10760879517</ele>
        <time>2013-05-26T11:33:02Z</time>
      </trkpt>
      <trkpt lat="48.2901" lon="2.58345">
        <ele>111.10757446289</ele>
        <time>2013-05-26T11:33:09Z</time>
      </trkpt>
      <trkpt lat="48.28999" lon="2.5834">
        <ele>112.10754013062</ele>
        <time>2013-05-26T11:33:17Z</time>
      </trkpt>
      <trkpt lat="48.28992" lon="2.58339">
        <ele>113.10750961304</ele>
        <time>2013-05-26T11:33:23Z</time>
      </trkpt>
      <trkpt lat="48.28991" lon="2.58339">
        <ele>113.10750579834</ele>
        <time>2013-05-26T11:33:29Z</time>
      </trkpt>
      <trkpt lat="48.2898" lon="2.58341">
        <ele>115.10746765137</ele>
        <time>2013-05-26T11:33:34Z</time>
      </trkpt>
      <trkpt lat="48.28975" lon="2.58342">
        <ele>116.10744476318</ele>
        <time>2013-05-26T11:33:39Z</time>
      </trkpt>
      <trkpt lat="48.28968" lon="2.58344">
        <ele>117.107421875</ele>
        <time>2013-05-26T11:33:47Z</time>
      </trkpt>
      <trkpt lat="48.28959" lon="2.58344">
        <ele>118.10738754272</ele>
        <time>2013-05-26T11:33:53Z</time>
      </trkpt>
      <trkpt lat="48.28953" lon="2.58343">
        <ele>118.10736846924</ele>
        <time>2013-05-26T11:33:59Z</time>
      </trkpt>
      <trkpt lat="48.28944" lon="2.58342">
        <ele>120.10733413696</ele>
        <time>2013-05-26T11:34:04Z</time>
      </trkpt>
      <trkpt lat="48.28936" lon="2.58342">
        <ele>119.10730743408</ele>
        <time>2013-05-26T11:34:10Z</time>
      </trkpt>
      <trkpt lat="48.28929" lon="2.58341">
        <ele>119.1072807312</ele>
        <time>2013-05-26T11:34:15Z</time>
      </trkpt>
      <trkpt lat="48.28921" lon="2.58341">
        <ele>120.10724639893</ele>
        <time>2013-05-26T11:34:20Z</time>
      </trkpt>
      <trkpt lat="48.28912" lon="2.58337">
        <ele>120.10721206665</ele>
        <time>2013-05-26T11:34:26Z</time>
      </trkpt>
      <trkpt lat="48.28905" lon="2.58331">
        <ele>121.10718917847</ele>
        <time>2013-05-26T11:34:31Z</time>
      </trkpt>
      <trkpt lat="48.28898" lon="2.58323">
        <ele>121.10716629028</ele>
        <time>2013-05-26T11:34:37Z</time>
      </trkpt>
      <trkpt lat="48.28891" lon="2.58315">
        <ele>123.1071434021</ele>
        <time>2013-05-26T11:34:43Z</time>
      </trkpt>
      <trkpt lat="48.28887" lon="2.58322">
        <ele>123.10712432861</ele>
        <time>2013-05-26T11:34:48Z</time>
      </trkpt>
      <trkpt lat="48.28888" lon="2.58333">
        <ele>123.10712432861</ele>
        <time>2013-05-26T11:34:54Z</time>
      </trkpt>
      <trkpt lat="48.2889" lon="2.58341">
        <ele>123.10713195801</ele>
        <time>2013-05-26T11:35:00Z</time>
      </trkpt>
      <trkpt lat="48.28895" lon="2.58346">
        <ele>122.10715484619</ele>
        <time>2013-05-26T11:35:05Z</time>
      </trkpt>
      <trkpt lat="48.28903" lon="2.58355">
        <ele>119.10718536377</ele>
        <time>2013-05-26T11:35:11Z</time>
      </trkpt>
      <trkpt lat="48.28909" lon="2.58364">
        <ele>120.10720062256</ele>
        <time>2013-05-26T11:35:19Z</time>
      </trkpt>
      <trkpt lat="48.28918" lon="2.58374">
        <ele>119.10723114014</ele>
        <time>2013-05-26T11:35:25Z</time>
      </trkpt>
      <trkpt lat="48.28932" lon="2.58385">
        <ele>119.1072845459</ele>
        <time>2013-05-26T11:35:31Z</time>
      </trkpt>
      <trkpt lat="48.28949" lon="2.58391">
        <ele>117.10734558105</ele>
        <time>2013-05-26T11:35:37Z</time>
      </trkpt>
      <trkpt lat="48.28961" lon="2.58399">
        <ele>116.10738372803</ele>
        <time>2013-05-26T11:35:42Z</time>
      </trkpt>
      <trkpt lat="48.28966" lon="2.58413">
        <ele>117.10740661621</ele>
        <time>2013-05-26T11:35:47Z</time>
      </trkpt>
      <trkpt lat="48.28972" lon="2.58424">
        <ele>117.1074256897</ele>
        <time>2013-05-26T11:35:52Z</time>
      </trkpt>
      <trkpt lat="48.28984" lon="2.58437">
        <ele>118.10746383667</ele>
        <time>2013-05-26T11:35:59Z</time>
      </trkpt>
      <trkpt lat="48.28989" lon="2.5845">
        <ele>118.10748672485</ele>
        <time>2013-05-26T11:36:04Z</time>
      </trkpt>
      <trkpt lat="48.2899" lon="2.5848">
        <ele>118.10748672485</ele>
        <time>2013-05-26T11:36:11Z</time>
      </trkpt>
      <trkpt lat="48.2899" lon="2.58501">
        <ele>119.10747909546</ele>
        <time>2013-05-26T11:36:17Z</time>
      </trkpt>
      <trkpt lat="48.28993" lon="2.58523">
        <ele>118.10748291016</ele>
        <time>2013-05-26T11:36:23Z</time>
      </trkpt>
      <trkpt lat="48.29003" lon="2.58538">
        <ele>118.10752487183</ele>
        <time>2013-05-26T11:36:30Z</time>
      </trkpt>
      <trkpt lat="48.29012" lon="2.58548">
        <ele>119.10755157471</ele>
        <time>2013-05-26T11:36:35Z</time>
      </trkpt>
      <trkpt lat="48.2902" lon="2.58564">
        <ele>120.10758590698</ele>
        <time>2013-05-26T11:36:41Z</time>
      </trkpt>
      <trkpt lat="48.29024" lon="2.58582">
        <ele>121.10758972168</ele>
        <time>2013-05-26T11:36:46Z</time>
      </trkpt>
      <trkpt lat="48.29029" lon="2.58602">
        <ele>122.10760879517</ele>
        <time>2013-05-26T11:36:51Z</time>
      </trkpt>
      <trkpt lat="48.29033" lon="2.58624">
        <ele>121.10762405396</ele>
        <time>2013-05-26T11:36:57Z</time>
      </trkpt>
      <trkpt lat="48.29039" lon="2.58635">
        <ele>120.10764312744</ele>
        <time>2013-05-26T11:37:03Z</time>
      </trkpt>
      <trkpt lat="48.29052" lon="2.58641">
        <ele>118.10768890381</ele>
        <time>2013-05-26T11:37:08Z</time>
      </trkpt>
      <trkpt lat="48.29068" lon="2.58643">
        <ele>117.10774612427</ele>
        <time>2013-05-26T11:37:13Z</time>
      </trkpt>
      <trkpt lat="48.29089" lon="2.5865">
        <ele>116.10782623291</ele>
        <time>2013-05-26T11:37:19Z</time>
      </trkpt>
      <trkpt lat="48.29101" lon="2.5867">
        <ele>116.10786437988</ele>
        <time>2013-05-26T11:37:24Z</time>
      </trkpt>
      <trkpt lat="48.29099" lon="2.58697">
        <ele>116.10785675049</ele>
        <time>2013-05-26T11:37:30Z</time>
      </trkpt>
      <trkpt lat="48.29088" lon="2.58707">
        <ele>116.10781860352</ele>
        <time>2013-05-26T11:37:36Z</time>
      </trkpt>
      <trkpt lat="48.29076" lon="2.58708">
        <ele>116.10776519775</ele>
        <time>2013-05-26T11:37:41Z</time>
      </trkpt>
      <trkpt lat="48.29064" lon="2.58715">
        <ele>115.10772323608</ele>
        <time>2013-05-26T11:37:46Z</time>
      </trkpt>
      <trkpt lat="48.29046" lon="2.58723">
        <ele>115.10765838623</ele>
        <time>2013-05-26T11:37:52Z</time>
      </trkpt>
      <trkpt lat="48.29035" lon="2.58722">
        <ele>115.10761642456</ele>
        <time>2013-05-26T11:37:57Z</time>
      </trkpt>
      <trkpt lat="48.29025" lon="2.58718">
        <ele>115.10757827759</ele>
        <time>2013-05-26T11:38:03Z</time>
      </trkpt>
      <trkpt lat="48.29014" lon="2.58725">
        <ele>117.10753631592</ele>
        <time>2013-05-26T11:38:10Z</time>
      </trkpt>
      <trkpt lat="48.29007" lon="2.58739">
        <ele>119.10750961304</ele>
        <time>2013-05-26T11:38:15Z</time>
      </trkpt>
      <trkpt lat="48.29" lon="2.58763">
        <ele>120.10747909546</ele>
        <time>2013-05-26T11:38:21Z</time>
      </trkpt>
      <trkpt lat="48.28993" lon="2.5878">
        <ele>121.10744476318</ele>
        <time>2013-05-26T11:38:26Z</time>
      </trkpt>
      <trkpt lat="48.28986" lon="2.58797">
        <ele>121.107421875</ele>
        <time>2013-05-26T11:38:31Z</time>
      </trkpt>
      <trkpt lat="48.28979" lon="2.58817">
        <ele>122.10739135742</ele>
        <time>2013-05-26T11:38:37Z</time>
      </trkpt>
      <trkpt lat="48.28986" lon="2.58833">
        <ele>122.10741424561</ele>
        <time>2013-05-26T11:38:42Z</time>
      </trkpt>
      <trkpt lat="48.29001" lon="2.58843">
        <ele>120.10746765137</ele>
        <time>2013-05-26T11:38:47Z</time>
      </trkpt>
      <trkpt lat="48.2902" lon="2.5885">
        <ele>121.10754013062</ele>
        <time>2013-05-26T11:38:52Z</time>
      </trkpt>
      <trkpt lat="48.29034" lon="2.58861">
        <ele>122.10759353638</ele>
        <time>2013-05-26T11:38:57Z</time>
      </trkpt>
      <trkpt lat="48.29036" lon="2.58862">
        <ele>120.10759735107</ele>
        <time>2013-05-26T11:39:04Z</time>
      </trkpt>
      <trkpt lat="48.29035" lon="2.58862">
        <ele>121.10759353638</ele>
        <time>2013-05-26T11:39:10Z</time>
      </trkpt>
      <trkpt lat="48.29034" lon="2.58861">
        <ele>121.10759353638</ele>
        <time>2013-05-26T11:39:16Z</time>
      </trkpt>
      <trkpt lat="48.29034" lon="2.58862">
        <ele>121.10758972168</ele>
        <time>2013-05-26T11:39:22Z</time>
      </trkpt>
      <trkpt lat="48.29034" lon="2.58863">
        <ele>122.10758972168</ele>
        <time>2013-05-26T11:39:29Z</time>
      </trkpt>
      <trkpt lat="48.29033" lon="2.58865">
        <ele>123.10758972168</ele>
        <time>2013-05-26T11:39:35Z</time>
      </trkpt>
      <trkpt lat="48.29035" lon="2.5887">
        <ele>123.10758972168</ele>
        <time>2013-05-26T11:39:40Z</time>
      </trkpt>
      <trkpt lat="48.29046" lon="2.58878">
        <ele>123.10762786865</ele>
        <time>2013-05-26T11:39:46Z</time>
      </trkpt>
      <trkpt lat="48.29056" lon="2.58882">
        <ele>120.10766983032</ele>
        <time>2013-05-26T11:39:52Z</time>
      </trkpt>
      <trkpt lat="48.29066" lon="2.58851">
        <ele>118.10771179199</ele>
        <time>2013-05-26T11:40:01Z</time>
      </trkpt>
      <trkpt lat="48.29069" lon="2.58846">
        <ele>116.10772323608</ele>
        <time>2013-05-26T11:40:06Z</time>
      </trkpt>
      <trkpt lat="48.29079" lon="2.58864">
        <ele>116.10775756836</ele>
        <time>2013-05-26T11:40:12Z</time>
      </trkpt>
      <trkpt lat="48.29087" lon="2.58885">
        <ele>114.10778427124</ele>
        <time>2013-05-26T11:40:17Z</time>
      </trkpt>
      <trkpt lat="48.29097" lon="2.58901">
        <ele>111.10781478882</ele>
        <time>2013-05-26T11:40:22Z</time>
      </trkpt>
      <trkpt lat="48.29106" lon="2.58913">
        <ele>111.10785293579</ele>
        <time>2013-05-26T11:40:28Z</time>
      </trkpt>
      <trkpt lat="48.29122" lon="2.58928">
        <ele>108.10790634155</ele>
        <time>2013-05-26T11:40:33Z</time>
      </trkpt>
      <trkpt lat="48.2915" lon="2.58945">
        <ele>108.10800933838</ele>
        <time>2013-05-26T11:40:39Z</time>
      </trkpt>
      <trkpt lat="48.29162" lon="2.5896">
        <ele>106.10805511475</ele>
        <time>2013-05-26T11:40:45Z</time>
      </trkpt>
      <trkpt lat="48.29158" lon="2.58962">
        <ele>104.10803222656</ele>
        <time>2013-05-26T11:40:51Z</time>
      </trkpt>
      <trkpt lat="48.29153" lon="2.58965">
        <ele>102.10801696777</ele>
        <time>2013-05-26T11:40:57Z</time>
      </trkpt>
      <trkpt lat="48.29146" lon="2.58973">
        <ele>101.10799026489</ele>
        <time>2013-05-26T11:41:03Z</time>
      </trkpt>
      <trkpt lat="48.29137" lon="2.58985">
        <ele>100.10795593262</ele>
        <time>2013-05-26T11:41:11Z</time>
      </trkpt>
      <trkpt lat="48.2913" lon="2.58995">
        <ele>101.10792541504</ele>
        <time>2013-05-26T11:41:17Z</time>
      </trkpt>
      <trkpt lat="48.29124" lon="2.59005">
        <ele>101.10790634155</ele>
        <time>2013-05-26T11:41:23Z</time>
      </trkpt>
      <trkpt lat="48.29122" lon="2.59011">
        <ele>101.10789871216</ele>
        <time>2013-05-26T11:41:29Z</time>
      </trkpt>
      <trkpt lat="48.2913" lon="2.59018">
        <ele>100.10792541504</ele>
        <time>2013-05-26T11:41:41Z</time>
      </trkpt>
      <trkpt lat="48.29139" lon="2.59026">
        <ele>102.10795593262</ele>
        <time>2013-05-26T11:41:51Z</time>
      </trkpt>
      <trkpt lat="48.29142" lon="2.59035">
        <ele>102.10796737671</ele>
        <time>2013-05-26T11:41:56Z</time>
      </trkpt>
      <trkpt lat="48.29138" lon="2.59046">
        <ele>103.10794830322</ele>
        <time>2013-05-26T11:42:02Z</time>
      </trkpt>
      <trkpt lat="48.29132" lon="2.59054">
        <ele>104.10792541504</ele>
        <time>2013-05-26T11:42:08Z</time>
      </trkpt>
      <trkpt lat="48.29125" lon="2.59059">
        <ele>104.10789871216</ele>
        <time>2013-05-26T11:42:14Z</time>
      </trkpt>
      <trkpt lat="48.29119" lon="2.59059">
        <ele>105.10787582397</ele>
        <time>2013-05-26T11:42:22Z</time>
      </trkpt>
      <trkpt lat="48.29112" lon="2.59069">
        <ele>107.1078453064</ele>
        <time>2013-05-26T11:42:36Z</time>
      </trkpt>
      <trkpt lat="48.29109" lon="2.59082">
        <ele>111.107837677</ele>
        <time>2013-05-26T11:42:55Z</time>
      </trkpt>
      <trkpt lat="48.29104" lon="2.59095">
        <ele>115.10781860352</ele>
        <time>2013-05-26T11:43:16Z</time>
      </trkpt>
      <trkpt lat="48.29095" lon="2.59093">
        <ele>120.10778045654</ele>
        <time>2013-05-26T11:43:30Z</time>
      </trkpt>
      <trkpt lat="48.2909" lon="2.59088">
        <ele>119.10776519775</ele>
        <time>2013-05-26T11:43:37Z</time>
      </trkpt>
      <trkpt lat="48.29082" lon="2.59083">
        <ele>119.10773849487</ele>
        <time>2013-05-26T11:43:46Z</time>
      </trkpt>
      <trkpt lat="48.29077" lon="2.59079">
        <ele>121.10771560669</ele>
        <time>2013-05-26T11:43:54Z</time>
      </trkpt>
      <trkpt lat="48.29072" lon="2.59076">
        <ele>122.1077003479</ele>
        <time>2013-05-26T11:44:00Z</time>
      </trkpt>
      <trkpt lat="48.29069" lon="2.59075">
        <ele>123.10768890381</ele>
        <time>2013-05-26T11:44:05Z</time>
      </trkpt>
      <trkpt lat="48.29066" lon="2.59071">
        <ele>124.10767745972</ele>
        <time>2013-05-26T11:44:11Z</time>
      </trkpt>
      <trkpt lat="48.29061" lon="2.59066">
        <ele>123.10766220093</ele>
        <time>2013-05-26T11:44:17Z</time>
      </trkpt>
      <trkpt lat="48.29052" lon="2.59063">
        <ele>122.10762786865</ele>
        <time>2013-05-26T11:44:23Z</time>
      </trkpt>
      <trkpt lat="48.29042" lon="2.59065">
        <ele>121.10758972168</ele>
        <time>2013-05-26T11:44:30Z</time>
      </trkpt>
      <trkpt lat="48.29036" lon="2.59071">
        <ele>122.10757064819</ele>
        <time>2013-05-26T11:44:35Z</time>
      </trkpt>
      <trkpt lat="48.29033" lon="2.59083">
        <ele>124.10755157471</ele>
        <time>2013-05-26T11:44:41Z</time>
      </trkpt>
      <trkpt lat="48.29032" lon="2.59094">
        <ele>123.10755157471</ele>
        <time>2013-05-26T11:44:47Z</time>
      </trkpt>
      <trkpt lat="48.29027" lon="2.5911">
        <ele>125.10752868652</ele>
        <time>2013-05-26T11:44:57Z</time>
      </trkpt>
      <trkpt lat="48.29024" lon="2.59115">
        <ele>125.10751342773</ele>
        <time>2013-05-26T11:45:03Z</time>
      </trkpt>
      <trkpt lat="48.29021" lon="2.59126">
        <ele>125.10750579834</ele>
        <time>2013-05-26T11:45:09Z</time>
      </trkpt>
      <trkpt lat="48.29023" lon="2.59156">
        <ele>127.10750961304</ele>
        <time>2013-05-26T11:45:18Z</time>
      </trkpt>
      <trkpt lat="48.29026" lon="2.59171">
        <ele>126.10751724243</ele>
        <time>2013-05-26T11:45:23Z</time>
      </trkpt>
      <trkpt lat="48.29025" lon="2.5919">
        <ele>126.10751342773</ele>
        <time>2013-05-26T11:45:29Z</time>
      </trkpt>
      <trkpt lat="48.2902" lon="2.59203">
        <ele>126.10749435425</ele>
        <time>2013-05-26T11:45:35Z</time>
      </trkpt>
      <trkpt lat="48.29019" lon="2.59227">
        <ele>126.10748291016</ele>
        <time>2013-05-26T11:45:43Z</time>
      </trkpt>
      <trkpt lat="48.29023" lon="2.59245">
        <ele>127.10749435425</ele>
        <time>2013-05-26T11:45:48Z</time>
      </trkpt>
      <trkpt lat="48.29024" lon="2.59261">
        <ele>127.10749435425</ele>
        <time>2013-05-26T11:45:53Z</time>
      </trkpt>
      <trkpt lat="48.29022" lon="2.59282">
        <ele>124.10748291016</ele>
        <time>2013-05-26T11:45:59Z</time>
      </trkpt>
      <trkpt lat="48.2902" lon="2.59304">
        <ele>122.10747528076</ele>
        <time>2013-05-26T11:46:05Z</time>
      </trkpt>
      <trkpt lat="48.29023" lon="2.59322">
        <ele>120.10747909546</ele>
        <time>2013-05-26T11:46:10Z</time>
      </trkpt>
      <trkpt lat="48.29033" lon="2.59337">
        <ele>119.10751342773</ele>
        <time>2013-05-26T11:46:16Z</time>
      </trkpt>
      <trkpt lat="48.29053" lon="2.59373">
        <ele>116.10758590698</ele>
        <time>2013-05-26T11:46:25Z</time>
      </trkpt>
      <trkpt lat="48.29058" lon="2.59402">
        <ele>113.10760498047</ele>
        <time>2013-05-26T11:46:31Z</time>
      </trkpt>
      <trkpt lat="48.2906" lon="2.59427">
        <ele>112.10760498047</ele>
        <time>2013-05-26T11:46:37Z</time>
      </trkpt>
      <trkpt lat="48.29059" lon="2.59461">
        <ele>109.10759353638</ele>
        <time>2013-05-26T11:46:46Z</time>
      </trkpt>
      <trkpt lat="48.29062" lon="2.59475">
        <ele>110.10760498047</ele>
        <time>2013-05-26T11:46:51Z</time>
      </trkpt>
      <trkpt lat="48.29068" lon="2.59486">
        <ele>111.10762405396</ele>
        <time>2013-05-26T11:46:56Z</time>
      </trkpt>
      <trkpt lat="48.29075" lon="2.59499">
        <ele>113.10764694214</ele>
        <time>2013-05-26T11:47:02Z</time>
      </trkpt>
      <trkpt lat="48.29081" lon="2.59506">
        <ele>113.10766983032</ele>
        <time>2013-05-26T11:47:07Z</time>
      </trkpt>
      <trkpt lat="48.29084" lon="2.59509">
        <ele>112.10768508911</ele>
        <time>2013-05-26T11:47:14Z</time>
      </trkpt>
      <trkpt lat="48.29086" lon="2.5951">
        <ele>112.10768890381</ele>
        <time>2013-05-26T11:47:21Z</time>
      </trkpt>
      <trkpt lat="48.29089" lon="2.59515">
        <ele>113.1077003479</ele>
        <time>2013-05-26T11:47:26Z</time>
      </trkpt>
      <trkpt lat="48.29097" lon="2.59538">
        <ele>113.10772705078</ele>
        <time>2013-05-26T11:47:34Z</time>
      </trkpt>
      <trkpt lat="48.29107" lon="2.59556">
        <ele>110.10776138306</ele>
        <time>2013-05-26T11:47:40Z</time>
      </trkpt>
      <trkpt lat="48.29122" lon="2.59569">
        <ele>106.10781860352</ele>
        <time>2013-05-26T11:47:46Z</time>
      </trkpt>
      <trkpt lat="48.2913" lon="2.59574">
        <ele>103.1078414917</ele>
        <time>2013-05-26T11:47:51Z</time>
      </trkpt>
      <trkpt lat="48.29138" lon="2.59589">
        <ele>101.10786437988</ele>
        <time>2013-05-26T11:47:57Z</time>
      </trkpt>
      <trkpt lat="48.29136" lon="2.59616">
        <ele>100.10786437988</ele>
        <time>2013-05-26T11:48:02Z</time>
      </trkpt>
      <trkpt lat="48.29131" lon="2.59628">
        <ele>97.107841491699</ele>
        <time>2013-05-26T11:48:07Z</time>
      </trkpt>
      <trkpt lat="48.29127" lon="2.5964">
        <ele>94.107822418213</ele>
        <time>2013-05-26T11:48:13Z</time>
      </trkpt>
      <trkpt lat="48.2912" lon="2.59651">
        <ele>91.107795715332</ele>
        <time>2013-05-26T11:48:21Z</time>
      </trkpt>
      <trkpt lat="48.29115" lon="2.59659">
        <ele>89.107772827148</ele>
        <time>2013-05-26T11:48:27Z</time>
      </trkpt>
      <trkpt lat="48.2911" lon="2.59667">
        <ele>88.107757568359</ele>
        <time>2013-05-26T11:48:32Z</time>
      </trkpt>
      <trkpt lat="48.29101" lon="2.59673">
        <ele>88.107719421387</ele>
        <time>2013-05-26T11:48:38Z</time>
      </trkpt>
      <trkpt lat="48.29086" lon="2.5968">
        <ele>88.107666015625</ele>
        <time>2013-05-26T11:48:46Z</time>
      </trkpt>
      <trkpt lat="48.29071" lon="2.5968">
        <ele>87.107604980469</ele>
        <time>2013-05-26T11:48:55Z</time>
      </trkpt>
      <trkpt lat="48.29065" lon="2.5968">
        <ele>86.107582092285</ele>
        <time>2013-05-26T11:49:01Z</time>
      </trkpt>
      <trkpt lat="48.29062" lon="2.59679">
        <ele>85.107574462891</ele>
        <time>2013-05-26T11:49:06Z</time>
      </trkpt>
      <trkpt lat="48.29061" lon="2.59677">
        <ele>85.107574462891</ele>
        <time>2013-05-26T11:49:12Z</time>
      </trkpt>
      <trkpt lat="48.2906" lon="2.59674">
        <ele>87.107566833496</ele>
        <time>2013-05-26T11:49:18Z</time>
      </trkpt>
      <trkpt lat="48.2906" lon="2.59673">
        <ele>89.107570648193</ele>
        <time>2013-05-26T11:49:23Z</time>
      </trkpt>
      <trkpt lat="48.2906" lon="2.59671">
        <ele>91.107566833496</ele>
        <time>2013-05-26T11:49:29Z</time>
      </trkpt>
      <trkpt lat="48.29056" lon="2.59669">
        <ele>90.107555389404</ele>
        <time>2013-05-26T11:49:34Z</time>
      </trkpt>
      <trkpt lat="48.29051" lon="2.59667">
        <ele>89.107536315918</ele>
        <time>2013-05-26T11:49:40Z</time>
      </trkpt>
      <trkpt lat="48.29047" lon="2.59665">
        <ele>88.107517242432</ele>
        <time>2013-05-26T11:49:46Z</time>
      </trkpt>
      <trkpt lat="48.29043" lon="2.59664">
        <ele>88.107509613037</ele>
        <time>2013-05-26T11:49:52Z</time>
      </trkpt>
      <trkpt lat="48.2904" lon="2.59663">
        <ele>87.107494354248</ele>
        <time>2013-05-26T11:49:58Z</time>
      </trkpt>
      <trkpt lat="48.29036" lon="2.59662">
        <ele>88.107482910156</ele>
        <time>2013-05-26T11:50:04Z</time>
      </trkpt>
      <trkpt lat="48.29031" lon="2.59662">
        <ele>91.10746383667</ele>
        <time>2013-05-26T11:50:10Z</time>
      </trkpt>
      <trkpt lat="48.29026" lon="2.59659">
        <ele>91.107444763184</ele>
        <time>2013-05-26T11:50:16Z</time>
      </trkpt>
      <trkpt lat="48.29022" lon="2.59656">
        <ele>91.107429504395</ele>
        <time>2013-05-26T11:50:21Z</time>
      </trkpt>
      <trkpt lat="48.29019" lon="2.59653">
        <ele>92.107418060303</ele>
        <time>2013-05-26T11:50:26Z</time>
      </trkpt>
      <trkpt lat="48.29017" lon="2.5965">
        <ele>93.107410430908</ele>
        <time>2013-05-26T11:50:34Z</time>
      </trkpt>
      <trkpt lat="48.29018" lon="2.59647">
        <ele>96.107414245605</ele>
        <time>2013-05-26T11:50:40Z</time>
      </trkpt>
      <trkpt lat="48.29019" lon="2.59646">
        <ele>95.107425689697</ele>
        <time>2013-05-26T11:50:46Z</time>
      </trkpt>
      <trkpt lat="48.29018" lon="2.59646">
        <ele>97.107421875</ele>
        <time>2013-05-26T11:50:52Z</time>
      </trkpt>
      <trkpt lat="48.29012" lon="2.59645">
        <ele>98.107391357422</ele>
        <time>2013-05-26T11:50:57Z</time>
      </trkpt>
      <trkpt lat="48.28998" lon="2.59645">
        <ele>98.107345581055</ele>
        <time>2013-05-26T11:51:03Z</time>
      </trkpt>
      <trkpt lat="48.28987" lon="2.59639">
        <ele>99.107303619385</ele>
        <time>2013-05-26T11:51:08Z</time>
      </trkpt>
      <trkpt lat="48.28979" lon="2.59629">
        <ele>98.107280731201</ele>
        <time>2013-05-26T11:51:13Z</time>
      </trkpt>
      <trkpt lat="48.28975" lon="2.59627">
        <ele>97.107261657715</ele>
        <time>2013-05-26T11:51:19Z</time>
      </trkpt>
      <trkpt lat="48.28971" lon="2.59625">
        <ele>98.107250213623</ele>
        <time>2013-05-26T11:51:24Z</time>
      </trkpt>
      <trkpt lat="48.28968" lon="2.59624">
        <ele>99.107234954834</ele>
        <time>2013-05-26T11:51:30Z</time>
      </trkpt>
      <trkpt lat="48.28966" lon="2.59622">
        <ele>98.107231140137</ele>
        <time>2013-05-26T11:51:36Z</time>
      </trkpt>
      <trkpt lat="48.28964" lon="2.5962">
        <ele>98.107219696045</ele>
        <time>2013-05-26T11:51:41Z</time>
      </trkpt>
      <trkpt lat="48.28962" lon="2.59614">
        <ele>98.107219696045</ele>
        <time>2013-05-26T11:51:47Z</time>
      </trkpt>
      <trkpt lat="48.28961" lon="2.5961">
        <ele>98.107208251953</ele>
        <time>2013-05-26T11:51:52Z</time>
      </trkpt>
      <trkpt lat="48.28959" lon="2.59605">
        <ele>97.107204437256</ele>
        <time>2013-05-26T11:51:58Z</time>
      </trkpt>
      <trkpt lat="48.28956" lon="2.59601">
        <ele>96.107196807861</ele>
        <time>2013-05-26T11:52:04Z</time>
      </trkpt>
      <trkpt lat="48.28954" lon="2.59596">
        <ele>98.10718536377</ele>
        <time>2013-05-26T11:52:09Z</time>
      </trkpt>
      <trkpt lat="48.28952" lon="2.59589">
        <ele>99.107177734375</ele>
        <time>2013-05-26T11:52:14Z</time>
      </trkpt>
      <trkpt lat="48.28949" lon="2.59582">
        <ele>100.10717010498</ele>
        <time>2013-05-26T11:52:20Z</time>
      </trkpt>
      <trkpt lat="48.28947" lon="2.59576">
        <ele>101.10716629028</ele>
        <time>2013-05-26T11:52:25Z</time>
      </trkpt>
      <trkpt lat="48.28944" lon="2.59569">
        <ele>99.107154846191</ele>
        <time>2013-05-26T11:52:31Z</time>
      </trkpt>
      <trkpt lat="48.28942" lon="2.59564">
        <ele>99.107151031494</ele>
        <time>2013-05-26T11:52:36Z</time>
      </trkpt>
      <trkpt lat="48.28941" lon="2.59558">
        <ele>99.107147216797</ele>
        <time>2013-05-26T11:52:41Z</time>
      </trkpt>
      <trkpt lat="48.28942" lon="2.59553">
        <ele>99.107154846191</ele>
        <time>2013-05-26T11:52:47Z</time>
      </trkpt>
      <trkpt lat="48.28945" lon="2.5955">
        <ele>101.10715866089</ele>
        <time>2013-05-26T11:52:53Z</time>
      </trkpt>
      <trkpt lat="48.2895" lon="2.59549">
        <ele>101.10717773438</ele>
        <time>2013-05-26T11:52:58Z</time>
      </trkpt>
      <trkpt lat="48.28956" lon="2.59547">
        <ele>100.10720443726</ele>
        <time>2013-05-26T11:53:05Z</time>
      </trkpt>
      <trkpt lat="48.28959" lon="2.59547">
        <ele>100.10721206665</ele>
        <time>2013-05-26T11:53:10Z</time>
      </trkpt>
      <trkpt lat="48.28964" lon="2.59544">
        <ele>99.107234954834</ele>
        <time>2013-05-26T11:53:15Z</time>
      </trkpt>
      <trkpt lat="48.28968" lon="2.59532">
        <ele>99.10725402832</ele>
        <time>2013-05-26T11:53:21Z</time>
      </trkpt>
      <trkpt lat="48.28969" lon="2.59522">
        <ele>100.10725784302</ele>
        <time>2013-05-26T11:53:26Z</time>
      </trkpt>
      <trkpt lat="48.28971" lon="2.59512">
        <ele>101.10726165771</ele>
        <time>2013-05-26T11:53:32Z</time>
      </trkpt>
      <trkpt lat="48.28976" lon="2.595">
        <ele>103.1072845459</ele>
        <time>2013-05-26T11:53:41Z</time>
      </trkpt>
      <trkpt lat="48.28982" lon="2.59493">
        <ele>103.10730743408</ele>
        <time>2013-05-26T11:53:47Z</time>
      </trkpt>
      <trkpt lat="48.28988" lon="2.59481">
        <ele>104.10732650757</ele>
        <time>2013-05-26T11:53:55Z</time>
      </trkpt>
      <trkpt lat="48.28988" lon="2.5947">
        <ele>105.10733413696</ele>
        <time>2013-05-26T11:54:00Z</time>
      </trkpt>
      <trkpt lat="48.28988" lon="2.59461">
        <ele>106.10733795166</ele>
        <time>2013-05-26T11:54:05Z</time>
      </trkpt>
      <trkpt lat="48.28987" lon="2.59448">
        <ele>108.10733032227</ele>
        <time>2013-05-26T11:54:12Z</time>
      </trkpt>
      <trkpt lat="48.28986" lon="2.59441">
        <ele>108.10733032227</ele>
        <time>2013-05-26T11:54:17Z</time>
      </trkpt>
      <trkpt lat="48.28984" lon="2.59434">
        <ele>109.10732650757</ele>
        <time>2013-05-26T11:54:22Z</time>
      </trkpt>
      <trkpt lat="48.28984" lon="2.59421">
        <ele>113.10733032227</ele>
        <time>2013-05-26T11:54:30Z</time>
      </trkpt>
      <trkpt lat="48.28983" lon="2.59412">
        <ele>115.10732269287</ele>
        <time>2013-05-26T11:54:35Z</time>
      </trkpt>
      <trkpt lat="48.28982" lon="2.59403">
        <ele>115.10731887817</ele>
        <time>2013-05-26T11:54:41Z</time>
      </trkpt>
      <trkpt lat="48.28982" lon="2.59397">
        <ele>118.10731506348</ele>
        <time>2013-05-26T11:54:47Z</time>
      </trkpt>
      <trkpt lat="48.28982" lon="2.59391">
        <ele>121.10731887817</ele>
        <time>2013-05-26T11:54:53Z</time>
      </trkpt>
      <trkpt lat="48.28982" lon="2.59384">
        <ele>122.10732269287</ele>
        <time>2013-05-26T11:54:59Z</time>
      </trkpt>
      <trkpt lat="48.28983" lon="2.59379">
        <ele>122.10733032227</ele>
        <time>2013-05-26T11:55:04Z</time>
      </trkpt>
      <trkpt lat="48.28983" lon="2.59375">
        <ele>123.10732650757</ele>
        <time>2013-05-26T11:55:09Z</time>
      </trkpt>
      <trkpt lat="48.28986" lon="2.59368">
        <ele>125.10733795166</ele>
        <time>2013-05-26T11:55:18Z</time>
      </trkpt>
      <trkpt lat="48.28988" lon="2.59364">
        <ele>126.10735321045</ele>
        <time>2013-05-26T11:55:23Z</time>
      </trkpt>
      <trkpt lat="48.28989" lon="2.59357">
        <ele>126.10734939575</ele>
        <time>2013-05-26T11:55:29Z</time>
      </trkpt>
      <trkpt lat="48.2899" lon="2.59346">
        <ele>127.10735702515</ele>
        <time>2013-05-26T11:55:37Z</time>
      </trkpt>
      <trkpt lat="48.28992" lon="2.5934">
        <ele>127.10736846924</ele>
        <time>2013-05-26T11:55:43Z</time>
      </trkpt>
      <trkpt lat="48.28993" lon="2.59334">
        <ele>127.10736846924</ele>
        <time>2013-05-26T11:55:48Z</time>
      </trkpt>
      <trkpt lat="48.28992" lon="2.5933">
        <ele>128.10736846924</ele>
        <time>2013-05-26T11:55:54Z</time>
      </trkpt>
      <trkpt lat="48.2899" lon="2.59323">
        <ele>128.10736083984</ele>
        <time>2013-05-26T11:55:59Z</time>
      </trkpt>
      <trkpt lat="48.28988" lon="2.59308">
        <ele>129.10735321045</ele>
        <time>2013-05-26T11:56:04Z</time>
      </trkpt>
      <trkpt lat="48.28987" lon="2.59296">
        <ele>129.10735321045</ele>
        <time>2013-05-26T11:56:09Z</time>
      </trkpt>
      <trkpt lat="48.28985" lon="2.59284">
        <ele>129.10734558105</ele>
        <time>2013-05-26T11:56:14Z</time>
      </trkpt>
      <trkpt lat="48.28978" lon="2.5927">
        <ele>129.10733032227</ele>
        <time>2013-05-26T11:56:20Z</time>
      </trkpt>
      <trkpt lat="48.28964" lon="2.59266">
        <ele>126.1072769165</ele>
        <time>2013-05-26T11:56:27Z</time>
      </trkpt>
      <trkpt lat="48.28955" lon="2.59275">
        <ele>126.10723495483</ele>
        <time>2013-05-26T11:56:32Z</time>
      </trkpt>
      <trkpt lat="48.28949" lon="2.5929">
        <ele>125.10720825195</ele>
        <time>2013-05-26T11:56:37Z</time>
      </trkpt>
      <trkpt lat="48.28943" lon="2.59307">
        <ele>123.10718536377</ele>
        <time>2013-05-26T11:56:42Z</time>
      </trkpt>
      <trkpt lat="48.28932" lon="2.59318">
        <ele>121.1071434021</ele>
        <time>2013-05-26T11:56:48Z</time>
      </trkpt>
      <trkpt lat="48.28919" lon="2.59325">
        <ele>120.10709762573</ele>
        <time>2013-05-26T11:56:53Z</time>
      </trkpt>
      <trkpt lat="48.28895" lon="2.59335">
        <ele>119.107006073</ele>
        <time>2013-05-26T11:57:00Z</time>
      </trkpt>
      <trkpt lat="48.28868" lon="2.59335">
        <ele>115.10691070557</ele>
        <time>2013-05-26T11:57:08Z</time>
      </trkpt>
      <trkpt lat="48.28852" lon="2.59333">
        <ele>111.10685348511</ele>
        <time>2013-05-26T11:57:13Z</time>
      </trkpt>
      <trkpt lat="48.28839" lon="2.59332">
        <ele>107.10680389404</ele>
        <time>2013-05-26T11:57:18Z</time>
      </trkpt>
      <trkpt lat="48.28833" lon="2.59333">
        <ele>107.10678100586</ele>
        <time>2013-05-26T11:57:24Z</time>
      </trkpt>
      <trkpt lat="48.2883" lon="2.59333">
        <ele>106.10676574707</ele>
        <time>2013-05-26T11:57:29Z</time>
      </trkpt>
      <trkpt lat="48.28826" lon="2.59334">
        <ele>105.10675430298</ele>
        <time>2013-05-26T11:57:35Z</time>
      </trkpt>
      <trkpt lat="48.28822" lon="2.59337">
        <ele>103.10673522949</ele>
        <time>2013-05-26T11:57:41Z</time>
      </trkpt>
      <trkpt lat="48.28819" lon="2.59346">
        <ele>104.1067276001</ele>
        <time>2013-05-26T11:57:46Z</time>
      </trkpt>
      <trkpt lat="48.28819" lon="2.59363">
        <ele>103.1067199707</ele>
        <time>2013-05-26T11:57:51Z</time>
      </trkpt>
      <trkpt lat="48.28824" lon="2.59385">
        <ele>102.10673522949</ele>
        <time>2013-05-26T11:58:00Z</time>
      </trkpt>
      <trkpt lat="48.28826" lon="2.59396">
        <ele>100.10674285889</ele>
        <time>2013-05-26T11:58:05Z</time>
      </trkpt>
      <trkpt lat="48.28829" lon="2.59407">
        <ele>99.106754302979</ele>
        <time>2013-05-26T11:58:10Z</time>
      </trkpt>
      <trkpt lat="48.28832" lon="2.59411">
        <ele>97.10676574707</ele>
        <time>2013-05-26T11:58:16Z</time>
      </trkpt>
      <trkpt lat="48.28834" lon="2.59415">
        <ele>96.106769561768</ele>
        <time>2013-05-26T11:58:23Z</time>
      </trkpt>
      <trkpt lat="48.28837" lon="2.59425">
        <ele>96.106781005859</ele>
        <time>2013-05-26T11:58:28Z</time>
      </trkpt>
      <trkpt lat="48.28839" lon="2.59437">
        <ele>96.106784820557</ele>
        <time>2013-05-26T11:58:34Z</time>
      </trkpt>
      <trkpt lat="48.28846" lon="2.5946">
        <ele>95.10680770874</ele>
        <time>2013-05-26T11:58:40Z</time>
      </trkpt>
      <trkpt lat="48.28854" lon="2.59474">
        <ele>94.106830596924</ele>
        <time>2013-05-26T11:58:46Z</time>
      </trkpt>
      <trkpt lat="48.28858" lon="2.59488">
        <ele>95.10684967041</ele>
        <time>2013-05-26T11:58:52Z</time>
      </trkpt>
      <trkpt lat="48.28835" lon="2.59517">
        <ele>93.106761932373</ele>
        <time>2013-05-26T11:58:58Z</time>
      </trkpt>
      <trkpt lat="48.28804" lon="2.59541">
        <ele>92.106643676758</ele>
        <time>2013-05-26T11:59:04Z</time>
      </trkpt>
      <trkpt lat="48.28774" lon="2.59564">
        <ele>90.106525421143</ele>
        <time>2013-05-26T11:59:10Z</time>
      </trkpt>
      <trkpt lat="48.28756" lon="2.59554">
        <ele>89.106460571289</ele>
        <time>2013-05-26T11:59:16Z</time>
      </trkpt>
      <trkpt lat="48.28755" lon="2.59529">
        <ele>88.106460571289</ele>
        <time>2013-05-26T11:59:22Z</time>
      </trkpt>
      <trkpt lat="48.28753" lon="2.59508">
        <ele>88.106460571289</ele>
        <time>2013-05-26T11:59:28Z</time>
      </trkpt>
      <trkpt lat="48.28748" lon="2.59485">
        <ele>87.106441497803</ele>
        <time>2013-05-26T11:59:34Z</time>
      </trkpt>
      <trkpt lat="48.28743" lon="2.59459">
        <ele>87.106422424316</ele>
        <time>2013-05-26T11:59:40Z</time>
      </trkpt>
      <trkpt lat="48.28736" lon="2.59435">
        <ele>87.106407165527</ele>
        <time>2013-05-26T11:59:46Z</time>
      </trkpt>
      <trkpt lat="48.2873" lon="2.59416">
        <ele>87.106384277344</ele>
        <time>2013-05-26T11:59:51Z</time>
      </trkpt>
      <trkpt lat="48.28721" lon="2.59392">
        <ele>87.106357574463</ele>
        <time>2013-05-26T11:59:57Z</time>
      </trkpt>
      <trkpt lat="48.28715" lon="2.59369">
        <ele>87.106334686279</ele>
        <time>2013-05-26T12:00:02Z</time>
      </trkpt>
      <trkpt lat="48.28707" lon="2.59343">
        <ele>87.106311798096</ele>
        <time>2013-05-26T12:00:08Z</time>
      </trkpt>
      <trkpt lat="48.28701" lon="2.59323">
        <ele>87.106292724609</ele>
        <time>2013-05-26T12:00:13Z</time>
      </trkpt>
      <trkpt lat="48.28691" lon="2.59299">
        <ele>88.106258392334</ele>
        <time>2013-05-26T12:00:19Z</time>
      </trkpt>
      <trkpt lat="48.28681" lon="2.59277">
        <ele>88.106220245361</ele>
        <time>2013-05-26T12:00:25Z</time>
      </trkpt>
      <trkpt lat="48.28671" lon="2.59256">
        <ele>88.10619354248</ele>
        <time>2013-05-26T12:00:31Z</time>
      </trkpt>
      <trkpt lat="48.28662" lon="2.59234">
        <ele>89.106159210205</ele>
        <time>2013-05-26T12:00:37Z</time>
      </trkpt>
      <trkpt lat="48.28653" lon="2.59216">
        <ele>89.106128692627</ele>
        <time>2013-05-26T12:00:43Z</time>
      </trkpt>
      <trkpt lat="48.28645" lon="2.59207">
        <ele>89.106098175049</ele>
        <time>2013-05-26T12:00:48Z</time>
      </trkpt>
      <trkpt lat="48.28632" lon="2.59224">
        <ele>89.106048583984</ele>
        <time>2013-05-26T12:00:54Z</time>
      </trkpt>
      <trkpt lat="48.28623" lon="2.59252">
        <ele>89.106006622314</ele>
        <time>2013-05-26T12:00:59Z</time>
      </trkpt>
      <trkpt lat="48.28613" lon="2.59284">
        <ele>89.105968475342</ele>
        <time>2013-05-26T12:01:04Z</time>
      </trkpt>
      <trkpt lat="48.2859" lon="2.5934">
        <ele>89.105880737305</ele>
        <time>2013-05-26T12:01:12Z</time>
      </trkpt>
      <trkpt lat="48.2857" lon="2.59375">
        <ele>90.105796813965</ele>
        <time>2013-05-26T12:01:17Z</time>
      </trkpt>
      <trkpt lat="48.28549" lon="2.59403">
        <ele>89.105716705322</ele>
        <time>2013-05-26T12:01:22Z</time>
      </trkpt>
      <trkpt lat="48.28532" lon="2.59442">
        <ele>89.105651855469</ele>
        <time>2013-05-26T12:01:28Z</time>
      </trkpt>
      <trkpt lat="48.28522" lon="2.59472">
        <ele>89.105609893799</ele>
        <time>2013-05-26T12:01:33Z</time>
      </trkpt>
      <trkpt lat="48.28512" lon="2.59498">
        <ele>89.105560302734</ele>
        <time>2013-05-26T12:01:38Z</time>
      </trkpt>
      <trkpt lat="48.28501" lon="2.59524">
        <ele>88.105522155762</ele>
        <time>2013-05-26T12:01:44Z</time>
      </trkpt>
      <trkpt lat="48.28492" lon="2.59547">
        <ele>88.105484008789</ele>
        <time>2013-05-26T12:01:50Z</time>
      </trkpt>
      <trkpt lat="48.2848" lon="2.59555">
        <ele>88.105445861816</ele>
        <time>2013-05-26T12:01:56Z</time>
      </trkpt>
      <trkpt lat="48.28467" lon="2.59539">
        <ele>89.105396270752</ele>
        <time>2013-05-26T12:02:02Z</time>
      </trkpt>
      <trkpt lat="48.28454" lon="2.59525">
        <ele>89.105346679688</ele>
        <time>2013-05-26T12:02:08Z</time>
      </trkpt>
      <trkpt lat="48.28442" lon="2.59515">
        <ele>89.10530090332</ele>
        <time>2013-05-26T12:02:13Z</time>
      </trkpt>
      <trkpt lat="48.2843" lon="2.59505">
        <ele>90.105262756348</ele>
        <time>2013-05-26T12:02:18Z</time>
      </trkpt>
      <trkpt lat="48.28416" lon="2.59493">
        <ele>90.105209350586</ele>
        <time>2013-05-26T12:02:24Z</time>
      </trkpt>
      <trkpt lat="48.28404" lon="2.59481">
        <ele>90.105167388916</ele>
        <time>2013-05-26T12:02:29Z</time>
      </trkpt>
      <trkpt lat="48.28392" lon="2.59462">
        <ele>91.105129241943</ele>
        <time>2013-05-26T12:02:35Z</time>
      </trkpt>
      <trkpt lat="48.28381" lon="2.59443">
        <ele>91.105087280273</ele>
        <time>2013-05-26T12:02:41Z</time>
      </trkpt>
      <trkpt lat="48.28371" lon="2.59428">
        <ele>90.105052947998</ele>
        <time>2013-05-26T12:02:46Z</time>
      </trkpt>
      <trkpt lat="48.28359" lon="2.59411">
        <ele>90.105010986328</ele>
        <time>2013-05-26T12:02:52Z</time>
      </trkpt>
      <trkpt lat="48.28348" lon="2.59398">
        <ele>91.104969024658</ele>
        <time>2013-05-26T12:02:57Z</time>
      </trkpt>
      <trkpt lat="48.28336" lon="2.59384">
        <ele>91.104930877686</ele>
        <time>2013-05-26T12:03:02Z</time>
      </trkpt>
      <trkpt lat="48.28323" lon="2.59369">
        <ele>91.104885101318</ele>
        <time>2013-05-26T12:03:08Z</time>
      </trkpt>
      <trkpt lat="48.2831" lon="2.59353">
        <ele>92.104839324951</ele>
        <time>2013-05-26T12:03:14Z</time>
      </trkpt>
      <trkpt lat="48.28297" lon="2.59337">
        <ele>92.104789733887</ele>
        <time>2013-05-26T12:03:20Z</time>
      </trkpt>
      <trkpt lat="48.28284" lon="2.59321">
        <ele>92.104747772217</ele>
        <time>2013-05-26T12:03:26Z</time>
      </trkpt>
      <trkpt lat="48.28271" lon="2.59307">
        <ele>92.104705810547</ele>
        <time>2013-05-26T12:03:32Z</time>
      </trkpt>
      <trkpt lat="48.28259" lon="2.59293">
        <ele>92.10466003418</ele>
        <time>2013-05-26T12:03:38Z</time>
      </trkpt>
      <trkpt lat="48.28249" lon="2.593">
        <ele>92.10461807251</ele>
        <time>2013-05-26T12:03:43Z</time>
      </trkpt>
      <trkpt lat="48.2825" lon="2.59333">
        <ele>92.104614257812</ele>
        <time>2013-05-26T12:03:49Z</time>
      </trkpt>
      <trkpt lat="48.28255" lon="2.5937">
        <ele>92.104629516602</ele>
        <time>2013-05-26T12:03:55Z</time>
      </trkpt>
      <trkpt lat="48.28259" lon="2.59414">
        <ele>92.104637145996</ele>
        <time>2013-05-26T12:04:01Z</time>
      </trkpt>
      <trkpt lat="48.28265" lon="2.5947">
        <ele>92.104656219482</ele>
        <time>2013-05-26T12:04:07Z</time>
      </trkpt>
      <trkpt lat="48.28272" lon="2.59529">
        <ele>92.104675292969</ele>
        <time>2013-05-26T12:04:13Z</time>
      </trkpt>
      <trkpt lat="48.2828" lon="2.5958">
        <ele>92.104698181152</ele>
        <time>2013-05-26T12:04:18Z</time>
      </trkpt>
      <trkpt lat="48.28292" lon="2.59634">
        <ele>92.10472869873</ele>
        <time>2013-05-26T12:04:23Z</time>
      </trkpt>
      <trkpt lat="48.28306" lon="2.59695">
        <ele>92.1047706604</ele>
        <time>2013-05-26T12:04:29Z</time>
      </trkpt>
      <trkpt lat="48.28321" lon="2.59749">
        <ele>91.104820251465</ele>
        <time>2013-05-26T12:04:35Z</time>
      </trkpt>
      <trkpt lat="48.28331" lon="2.59775">
        <ele>90.10485458374</ele>
        <time>2013-05-26T12:04:42Z</time>
      </trkpt>
      <trkpt lat="48.28326" lon="2.59783">
        <ele>88.104839324951</ele>
        <time>2013-05-26T12:04:58Z</time>
      </trkpt>
      <trkpt lat="48.28319" lon="2.59785">
        <ele>85.104808807373</ele>
        <time>2013-05-26T12:05:21Z</time>
      </trkpt>
      <trkpt lat="48.28317" lon="2.59776">
        <ele>85.104801177979</ele>
        <time>2013-05-26T12:05:30Z</time>
      </trkpt>
      <trkpt lat="48.28314" lon="2.59769">
        <ele>86.104793548584</ele>
        <time>2013-05-26T12:05:47Z</time>
      </trkpt>
      <trkpt lat="48.28318" lon="2.59776">
        <ele>86.104804992676</ele>
        <time>2013-05-26T12:06:54Z</time>
      </trkpt>
      <trkpt lat="48.28323" lon="2.59781">
        <ele>85.104827880859</ele>
        <time>2013-05-26T12:07:00Z</time>
      </trkpt>
      <trkpt lat="48.28326" lon="2.59786">
        <ele>85.104835510254</ele>
        <time>2013-05-26T12:07:05Z</time>
      </trkpt>
      <trkpt lat="48.28327" lon="2.59788">
        <ele>85.104839324951</ele>
        <time>2013-05-26T12:07:11Z</time>
      </trkpt>
      <trkpt lat="48.28327" lon="2.59789">
        <ele>84.104839324951</ele>
        <time>2013-05-26T12:07:16Z</time>
      </trkpt>
      <trkpt lat="48.28326" lon="2.59794">
        <ele>85.104831695557</ele>
        <time>2013-05-26T12:07:22Z</time>
      </trkpt>
      <trkpt lat="48.28325" lon="2.59793">
        <ele>88.104831695557</ele>
        <time>2013-05-26T12:07:27Z</time>
      </trkpt>
      <trkpt lat="48.28324" lon="2.59792">
        <ele>88.104831695557</ele>
        <time>2013-05-26T12:07:33Z</time>
      </trkpt>
      <trkpt lat="48.28324" lon="2.59792">
        <ele>86.104827880859</ele>
        <time>2013-05-26T12:07:38Z</time>
      </trkpt>
      <trkpt lat="48.28324" lon="2.59791">
        <ele>84.104827880859</ele>
        <time>2013-05-26T12:07:45Z</time>
      </trkpt>
      <trkpt lat="48.28325" lon="2.5979">
        <ele>81.104835510254</ele>
        <time>2013-05-26T12:07:51Z</time>
      </trkpt>
    </trkseg>
  </trk>
</gpx>